<?xml version="1.0" encoding="UTF-8" standalone="no" ?>
<gpx xmlns="http://www.topografix.com/GPX/1/1" xmlns:xsi="http://www.w3.org/2001/XMLSchema-instance" xsi:schemaLocation="http://www.topografix.com/GPX/1/1 http://www.topografix.com/GPX/1/1/gpx.xsd" version="1.1" creator="VisuGPX - https://www.visugpx.com">
  <metadata>
    <name>Col de Chassenoud</name>
    <desc><![CDATA[Analyse de la Sortie du mercredi 06 Mars 2019]]></desc>
  </metadata>
  <trk>
    <name><![CDATA[Longes - Randonnée pédestre]]></name>
    <trkseg>
      <trkpt lat="45.49585" lon="4.70888">
        <ele>556</ele>
        <time>2019-03-06T08:19:39.000Z</time>
      </trkpt>
      <trkpt lat="45.49585" lon="4.70888">
        <ele>556</ele>
        <time>2019-03-06T08:19:40.000Z</time>
      </trkpt>
      <trkpt lat="45.4958" lon="4.70885">
        <ele>555.79998779297</ele>
        <time>2019-03-06T08:19:46.000Z</time>
      </trkpt>
      <trkpt lat="45.49579" lon="4.70885">
        <ele>555.79998779297</ele>
        <time>2019-03-06T08:19:47.000Z</time>
      </trkpt>
      <trkpt lat="45.49577" lon="4.70885">
        <ele>556</ele>
        <time>2019-03-06T08:19:48.000Z</time>
      </trkpt>
      <trkpt lat="45.49576" lon="4.70884">
        <ele>555.79998779297</ele>
        <time>2019-03-06T08:19:49.000Z</time>
      </trkpt>
      <trkpt lat="45.49576" lon="4.70884">
        <ele>555.79998779297</ele>
        <time>2019-03-06T08:19:50.000Z</time>
      </trkpt>
      <trkpt lat="45.49574" lon="4.70883">
        <ele>555.79998779297</ele>
        <time>2019-03-06T08:19:51.000Z</time>
      </trkpt>
      <trkpt lat="45.49566" lon="4.70872">
        <ele>554.79998779297</ele>
        <time>2019-03-06T08:20:01.000Z</time>
      </trkpt>
      <trkpt lat="45.49564" lon="4.7086">
        <ele>553.59997558594</ele>
        <time>2019-03-06T08:20:09.000Z</time>
      </trkpt>
      <trkpt lat="45.49558" lon="4.70843">
        <ele>551.79998779297</ele>
        <time>2019-03-06T08:20:20.000Z</time>
      </trkpt>
      <trkpt lat="45.49553" lon="4.70827">
        <ele>550.40002441406</ele>
        <time>2019-03-06T08:20:30.000Z</time>
      </trkpt>
      <trkpt lat="45.49551" lon="4.70812">
        <ele>548.59997558594</ele>
        <time>2019-03-06T08:20:41.000Z</time>
      </trkpt>
      <trkpt lat="45.49549" lon="4.70809">
        <ele>548.59997558594</ele>
        <time>2019-03-06T08:20:49.000Z</time>
      </trkpt>
      <trkpt lat="45.49548" lon="4.70807">
        <ele>548.59997558594</ele>
        <time>2019-03-06T08:20:50.000Z</time>
      </trkpt>
      <trkpt lat="45.49543" lon="4.70786">
        <ele>547.59997558594</ele>
        <time>2019-03-06T08:21:03.000Z</time>
      </trkpt>
      <trkpt lat="45.49535" lon="4.70766">
        <ele>549.20001220703</ele>
        <time>2019-03-06T08:21:16.000Z</time>
      </trkpt>
      <trkpt lat="45.4953" lon="4.70749">
        <ele>549.59997558594</ele>
        <time>2019-03-06T08:21:26.000Z</time>
      </trkpt>
      <trkpt lat="45.49524" lon="4.70729">
        <ele>550.59997558594</ele>
        <time>2019-03-06T08:21:38.000Z</time>
      </trkpt>
      <trkpt lat="45.49523" lon="4.70724">
        <ele>550.59997558594</ele>
        <time>2019-03-06T08:21:41.000Z</time>
      </trkpt>
      <trkpt lat="45.49522" lon="4.7072">
        <ele>550.59997558594</ele>
        <time>2019-03-06T08:21:44.000Z</time>
      </trkpt>
      <trkpt lat="45.49522" lon="4.70718">
        <ele>550.59997558594</ele>
        <time>2019-03-06T08:21:45.000Z</time>
      </trkpt>
      <trkpt lat="45.49521" lon="4.70716">
        <ele>550.79998779297</ele>
        <time>2019-03-06T08:21:46.000Z</time>
      </trkpt>
      <trkpt lat="45.49515" lon="4.70698">
        <ele>552</ele>
        <time>2019-03-06T08:21:57.000Z</time>
      </trkpt>
      <trkpt lat="45.49509" lon="4.70681">
        <ele>553.40002441406</ele>
        <time>2019-03-06T08:22:07.000Z</time>
      </trkpt>
      <trkpt lat="45.49503" lon="4.70663">
        <ele>555</ele>
        <time>2019-03-06T08:22:18.000Z</time>
      </trkpt>
      <trkpt lat="45.495" lon="4.70646">
        <ele>555.79998779297</ele>
        <time>2019-03-06T08:22:27.000Z</time>
      </trkpt>
      <trkpt lat="45.49498" lon="4.7063">
        <ele>556.40002441406</ele>
        <time>2019-03-06T08:22:35.000Z</time>
      </trkpt>
      <trkpt lat="45.49499" lon="4.70628">
        <ele>556.59997558594</ele>
        <time>2019-03-06T08:22:36.000Z</time>
      </trkpt>
      <trkpt lat="45.49499" lon="4.70608">
        <ele>556</ele>
        <time>2019-03-06T08:22:46.000Z</time>
      </trkpt>
      <trkpt lat="45.49499" lon="4.70589">
        <ele>554.79998779297</ele>
        <time>2019-03-06T08:22:56.000Z</time>
      </trkpt>
      <trkpt lat="45.49499" lon="4.70565">
        <ele>553.20001220703</ele>
        <time>2019-03-06T08:23:10.000Z</time>
      </trkpt>
      <trkpt lat="45.49497" lon="4.70546">
        <ele>552.59997558594</ele>
        <time>2019-03-06T08:23:20.000Z</time>
      </trkpt>
      <trkpt lat="45.49497" lon="4.70544">
        <ele>552.40002441406</ele>
        <time>2019-03-06T08:23:21.000Z</time>
      </trkpt>
      <trkpt lat="45.49491" lon="4.7052">
        <ele>552</ele>
        <time>2019-03-06T08:23:36.000Z</time>
      </trkpt>
      <trkpt lat="45.49485" lon="4.70499">
        <ele>551.59997558594</ele>
        <time>2019-03-06T08:23:48.000Z</time>
      </trkpt>
      <trkpt lat="45.4948" lon="4.70481">
        <ele>551.20001220703</ele>
        <time>2019-03-06T08:23:59.000Z</time>
      </trkpt>
      <trkpt lat="45.49471" lon="4.70466">
        <ele>552</ele>
        <time>2019-03-06T08:24:10.000Z</time>
      </trkpt>
      <trkpt lat="45.49464" lon="4.7045">
        <ele>552.20001220703</ele>
        <time>2019-03-06T08:24:20.000Z</time>
      </trkpt>
      <trkpt lat="45.49455" lon="4.70438">
        <ele>553</ele>
        <time>2019-03-06T08:24:30.000Z</time>
      </trkpt>
      <trkpt lat="45.49448" lon="4.70424">
        <ele>553.40002441406</ele>
        <time>2019-03-06T08:24:39.000Z</time>
      </trkpt>
      <trkpt lat="45.49439" lon="4.70404">
        <ele>553.79998779297</ele>
        <time>2019-03-06T08:24:51.000Z</time>
      </trkpt>
      <trkpt lat="45.49434" lon="4.70382">
        <ele>553.20001220703</ele>
        <time>2019-03-06T08:25:02.000Z</time>
      </trkpt>
      <trkpt lat="45.49429" lon="4.70361">
        <ele>553.40002441406</ele>
        <time>2019-03-06T08:25:14.000Z</time>
      </trkpt>
      <trkpt lat="45.49428" lon="4.70359">
        <ele>553.59997558594</ele>
        <time>2019-03-06T08:25:15.000Z</time>
      </trkpt>
      <trkpt lat="45.49428" lon="4.70357">
        <ele>553.59997558594</ele>
        <time>2019-03-06T08:25:16.000Z</time>
      </trkpt>
      <trkpt lat="45.49428" lon="4.70355">
        <ele>553.59997558594</ele>
        <time>2019-03-06T08:25:17.000Z</time>
      </trkpt>
      <trkpt lat="45.49428" lon="4.70353">
        <ele>553.59997558594</ele>
        <time>2019-03-06T08:25:18.000Z</time>
      </trkpt>
      <trkpt lat="45.49428" lon="4.70351">
        <ele>553.59997558594</ele>
        <time>2019-03-06T08:25:19.000Z</time>
      </trkpt>
      <trkpt lat="45.49429" lon="4.7035">
        <ele>553.59997558594</ele>
        <time>2019-03-06T08:25:20.000Z</time>
      </trkpt>
      <trkpt lat="45.49429" lon="4.70348">
        <ele>553.59997558594</ele>
        <time>2019-03-06T08:25:21.000Z</time>
      </trkpt>
      <trkpt lat="45.49428" lon="4.70346">
        <ele>553.59997558594</ele>
        <time>2019-03-06T08:25:22.000Z</time>
      </trkpt>
      <trkpt lat="45.49428" lon="4.70344">
        <ele>553.59997558594</ele>
        <time>2019-03-06T08:25:23.000Z</time>
      </trkpt>
      <trkpt lat="45.49429" lon="4.70342">
        <ele>553.59997558594</ele>
        <time>2019-03-06T08:25:24.000Z</time>
      </trkpt>
      <trkpt lat="45.49429" lon="4.70341">
        <ele>553.59997558594</ele>
        <time>2019-03-06T08:25:25.000Z</time>
      </trkpt>
      <trkpt lat="45.49429" lon="4.70335">
        <ele>553.79998779297</ele>
        <time>2019-03-06T08:25:32.000Z</time>
      </trkpt>
      <trkpt lat="45.49429" lon="4.70327">
        <ele>553.79998779297</ele>
        <time>2019-03-06T08:25:39.000Z</time>
      </trkpt>
      <trkpt lat="45.49431" lon="4.70312">
        <ele>553.79998779297</ele>
        <time>2019-03-06T08:25:49.000Z</time>
      </trkpt>
      <trkpt lat="45.49432" lon="4.70309">
        <ele>553.59997558594</ele>
        <time>2019-03-06T08:25:51.000Z</time>
      </trkpt>
      <trkpt lat="45.49435" lon="4.70301">
        <ele>553.20001220703</ele>
        <time>2019-03-06T08:25:59.000Z</time>
      </trkpt>
      <trkpt lat="45.49435" lon="4.70299">
        <ele>553.40002441406</ele>
        <time>2019-03-06T08:26:00.000Z</time>
      </trkpt>
      <trkpt lat="45.49436" lon="4.70298">
        <ele>553.40002441406</ele>
        <time>2019-03-06T08:26:01.000Z</time>
      </trkpt>
      <trkpt lat="45.49436" lon="4.70296">
        <ele>553.40002441406</ele>
        <time>2019-03-06T08:26:02.000Z</time>
      </trkpt>
      <trkpt lat="45.49436" lon="4.70293">
        <ele>553.40002441406</ele>
        <time>2019-03-06T08:26:04.000Z</time>
      </trkpt>
      <trkpt lat="45.49436" lon="4.70291">
        <ele>553.40002441406</ele>
        <time>2019-03-06T08:26:05.000Z</time>
      </trkpt>
      <trkpt lat="45.49435" lon="4.70289">
        <ele>553.59997558594</ele>
        <time>2019-03-06T08:26:06.000Z</time>
      </trkpt>
      <trkpt lat="45.49435" lon="4.70288">
        <ele>553.59997558594</ele>
        <time>2019-03-06T08:26:07.000Z</time>
      </trkpt>
      <trkpt lat="45.49435" lon="4.70286">
        <ele>553.79998779297</ele>
        <time>2019-03-06T08:26:08.000Z</time>
      </trkpt>
      <trkpt lat="45.49435" lon="4.70284">
        <ele>554</ele>
        <time>2019-03-06T08:26:09.000Z</time>
      </trkpt>
      <trkpt lat="45.49435" lon="4.70282">
        <ele>554</ele>
        <time>2019-03-06T08:26:10.000Z</time>
      </trkpt>
      <trkpt lat="45.49435" lon="4.70281">
        <ele>554.20001220703</ele>
        <time>2019-03-06T08:26:11.000Z</time>
      </trkpt>
      <trkpt lat="45.49435" lon="4.70279">
        <ele>554.40002441406</ele>
        <time>2019-03-06T08:26:12.000Z</time>
      </trkpt>
      <trkpt lat="45.49433" lon="4.70269">
        <ele>555.40002441406</ele>
        <time>2019-03-06T08:26:18.000Z</time>
      </trkpt>
      <trkpt lat="45.49433" lon="4.70268">
        <ele>555.59997558594</ele>
        <time>2019-03-06T08:26:19.000Z</time>
      </trkpt>
      <trkpt lat="45.49433" lon="4.70266">
        <ele>555.79998779297</ele>
        <time>2019-03-06T08:26:20.000Z</time>
      </trkpt>
      <trkpt lat="45.49435" lon="4.70249">
        <ele>556.79998779297</ele>
        <time>2019-03-06T08:26:30.000Z</time>
      </trkpt>
      <trkpt lat="45.49435" lon="4.70246">
        <ele>556.79998779297</ele>
        <time>2019-03-06T08:26:32.000Z</time>
      </trkpt>
      <trkpt lat="45.49436" lon="4.70244">
        <ele>556.79998779297</ele>
        <time>2019-03-06T08:26:33.000Z</time>
      </trkpt>
      <trkpt lat="45.49436" lon="4.70243">
        <ele>556.79998779297</ele>
        <time>2019-03-06T08:26:34.000Z</time>
      </trkpt>
      <trkpt lat="45.49436" lon="4.70241">
        <ele>557</ele>
        <time>2019-03-06T08:26:35.000Z</time>
      </trkpt>
      <trkpt lat="45.49436" lon="4.70239">
        <ele>557</ele>
        <time>2019-03-06T08:26:36.000Z</time>
      </trkpt>
      <trkpt lat="45.49439" lon="4.70221">
        <ele>557.59997558594</ele>
        <time>2019-03-06T08:26:47.000Z</time>
      </trkpt>
      <trkpt lat="45.49444" lon="4.70205">
        <ele>557.59997558594</ele>
        <time>2019-03-06T08:26:57.000Z</time>
      </trkpt>
      <trkpt lat="45.49447" lon="4.70193">
        <ele>558.79998779297</ele>
        <time>2019-03-06T08:27:04.000Z</time>
      </trkpt>
      <trkpt lat="45.49448" lon="4.70192">
        <ele>558.79998779297</ele>
        <time>2019-03-06T08:27:05.000Z</time>
      </trkpt>
      <trkpt lat="45.4945" lon="4.70184">
        <ele>559.59997558594</ele>
        <time>2019-03-06T08:27:10.000Z</time>
      </trkpt>
      <trkpt lat="45.49458" lon="4.70171">
        <ele>559.20001220703</ele>
        <time>2019-03-06T08:27:20.000Z</time>
      </trkpt>
      <trkpt lat="45.49464" lon="4.70163">
        <ele>558.59997558594</ele>
        <time>2019-03-06T08:27:29.000Z</time>
      </trkpt>
      <trkpt lat="45.4947" lon="4.70149">
        <ele>558.59997558594</ele>
        <time>2019-03-06T08:27:41.000Z</time>
      </trkpt>
      <trkpt lat="45.49477" lon="4.70137">
        <ele>558.40002441406</ele>
        <time>2019-03-06T08:27:52.000Z</time>
      </trkpt>
      <trkpt lat="45.49478" lon="4.70124">
        <ele>560.20001220703</ele>
        <time>2019-03-06T08:28:03.000Z</time>
      </trkpt>
      <trkpt lat="45.49482" lon="4.7011">
        <ele>562</ele>
        <time>2019-03-06T08:28:15.000Z</time>
      </trkpt>
      <trkpt lat="45.49485" lon="4.70096">
        <ele>563.79998779297</ele>
        <time>2019-03-06T08:28:26.000Z</time>
      </trkpt>
      <trkpt lat="45.49486" lon="4.70085">
        <ele>565.40002441406</ele>
        <time>2019-03-06T08:28:34.000Z</time>
      </trkpt>
      <trkpt lat="45.49486" lon="4.70073">
        <ele>567.59997558594</ele>
        <time>2019-03-06T08:28:43.000Z</time>
      </trkpt>
      <trkpt lat="45.49486" lon="4.70059">
        <ele>569.79998779297</ele>
        <time>2019-03-06T08:28:54.000Z</time>
      </trkpt>
      <trkpt lat="45.49488" lon="4.7005">
        <ele>570.59997558594</ele>
        <time>2019-03-06T08:29:04.000Z</time>
      </trkpt>
      <trkpt lat="45.49494" lon="4.70038">
        <ele>571</ele>
        <time>2019-03-06T08:29:17.000Z</time>
      </trkpt>
      <trkpt lat="45.495" lon="4.70023">
        <ele>570.79998779297</ele>
        <time>2019-03-06T08:29:29.000Z</time>
      </trkpt>
      <trkpt lat="45.49502" lon="4.70014">
        <ele>571</ele>
        <time>2019-03-06T08:29:35.000Z</time>
      </trkpt>
      <trkpt lat="45.49505" lon="4.69999">
        <ele>571.40002441406</ele>
        <time>2019-03-06T08:29:46.000Z</time>
      </trkpt>
      <trkpt lat="45.49506" lon="4.69987">
        <ele>572.20001220703</ele>
        <time>2019-03-06T08:29:55.000Z</time>
      </trkpt>
      <trkpt lat="45.49507" lon="4.69977">
        <ele>573.20001220703</ele>
        <time>2019-03-06T08:30:03.000Z</time>
      </trkpt>
      <trkpt lat="45.49508" lon="4.69965">
        <ele>574.40002441406</ele>
        <time>2019-03-06T08:30:12.000Z</time>
      </trkpt>
      <trkpt lat="45.49509" lon="4.69954">
        <ele>575.40002441406</ele>
        <time>2019-03-06T08:30:21.000Z</time>
      </trkpt>
      <trkpt lat="45.49509" lon="4.69938">
        <ele>574.79998779297</ele>
        <time>2019-03-06T08:30:33.000Z</time>
      </trkpt>
      <trkpt lat="45.49507" lon="4.69924">
        <ele>574.79998779297</ele>
        <time>2019-03-06T08:30:43.000Z</time>
      </trkpt>
      <trkpt lat="45.49507" lon="4.69923">
        <ele>574.79998779297</ele>
        <time>2019-03-06T08:30:44.000Z</time>
      </trkpt>
      <trkpt lat="45.49501" lon="4.69914">
        <ele>575.40002441406</ele>
        <time>2019-03-06T08:30:55.000Z</time>
      </trkpt>
      <trkpt lat="45.49496" lon="4.6991">
        <ele>576.20001220703</ele>
        <time>2019-03-06T08:31:03.000Z</time>
      </trkpt>
      <trkpt lat="45.49494" lon="4.69909">
        <ele>576.40002441406</ele>
        <time>2019-03-06T08:31:05.000Z</time>
      </trkpt>
      <trkpt lat="45.49487" lon="4.69906">
        <ele>577.59997558594</ele>
        <time>2019-03-06T08:31:14.000Z</time>
      </trkpt>
      <trkpt lat="45.49476" lon="4.69905">
        <ele>579.59997558594</ele>
        <time>2019-03-06T08:31:26.000Z</time>
      </trkpt>
      <trkpt lat="45.49465" lon="4.69902">
        <ele>581.20001220703</ele>
        <time>2019-03-06T08:31:37.000Z</time>
      </trkpt>
      <trkpt lat="45.49456" lon="4.69903">
        <ele>582.20001220703</ele>
        <time>2019-03-06T08:31:46.000Z</time>
      </trkpt>
      <trkpt lat="45.49447" lon="4.699">
        <ele>583.20001220703</ele>
        <time>2019-03-06T08:31:56.000Z</time>
      </trkpt>
      <trkpt lat="45.49446" lon="4.69899">
        <ele>583.20001220703</ele>
        <time>2019-03-06T08:31:57.000Z</time>
      </trkpt>
      <trkpt lat="45.49435" lon="4.69896">
        <ele>584.40002441406</ele>
        <time>2019-03-06T08:32:08.000Z</time>
      </trkpt>
      <trkpt lat="45.49427" lon="4.69894">
        <ele>585.20001220703</ele>
        <time>2019-03-06T08:32:16.000Z</time>
      </trkpt>
      <trkpt lat="45.4942" lon="4.69892">
        <ele>585.79998779297</ele>
        <time>2019-03-06T08:32:23.000Z</time>
      </trkpt>
      <trkpt lat="45.49412" lon="4.69888">
        <ele>586.59997558594</ele>
        <time>2019-03-06T08:32:31.000Z</time>
      </trkpt>
      <trkpt lat="45.49404" lon="4.69885">
        <ele>587.20001220703</ele>
        <time>2019-03-06T08:32:40.000Z</time>
      </trkpt>
      <trkpt lat="45.49396" lon="4.69882">
        <ele>588</ele>
        <time>2019-03-06T08:32:47.000Z</time>
      </trkpt>
      <trkpt lat="45.49391" lon="4.69879">
        <ele>588.59997558594</ele>
        <time>2019-03-06T08:32:52.000Z</time>
      </trkpt>
      <trkpt lat="45.49379" lon="4.69875">
        <ele>590</ele>
        <time>2019-03-06T08:33:03.000Z</time>
      </trkpt>
      <trkpt lat="45.49375" lon="4.69873">
        <ele>590.20001220703</ele>
        <time>2019-03-06T08:33:06.000Z</time>
      </trkpt>
      <trkpt lat="45.49374" lon="4.69873">
        <ele>590.20001220703</ele>
        <time>2019-03-06T08:33:07.000Z</time>
      </trkpt>
      <trkpt lat="45.49373" lon="4.69872">
        <ele>590.40002441406</ele>
        <time>2019-03-06T08:33:08.000Z</time>
      </trkpt>
      <trkpt lat="45.49372" lon="4.69872">
        <ele>590.59997558594</ele>
        <time>2019-03-06T08:33:09.000Z</time>
      </trkpt>
      <trkpt lat="45.4937" lon="4.69872">
        <ele>590.59997558594</ele>
        <time>2019-03-06T08:33:10.000Z</time>
      </trkpt>
      <trkpt lat="45.49358" lon="4.69871">
        <ele>592</ele>
        <time>2019-03-06T08:33:20.000Z</time>
      </trkpt>
      <trkpt lat="45.49349" lon="4.69868">
        <ele>592.20001220703</ele>
        <time>2019-03-06T08:33:29.000Z</time>
      </trkpt>
      <trkpt lat="45.49341" lon="4.69866">
        <ele>592.59997558594</ele>
        <time>2019-03-06T08:33:38.000Z</time>
      </trkpt>
      <trkpt lat="45.49339" lon="4.69866">
        <ele>592.59997558594</ele>
        <time>2019-03-06T08:33:39.000Z</time>
      </trkpt>
      <trkpt lat="45.49338" lon="4.69866">
        <ele>592.79998779297</ele>
        <time>2019-03-06T08:33:40.000Z</time>
      </trkpt>
      <trkpt lat="45.49335" lon="4.69865">
        <ele>592.79998779297</ele>
        <time>2019-03-06T08:33:43.000Z</time>
      </trkpt>
      <trkpt lat="45.49322" lon="4.69863">
        <ele>593.79998779297</ele>
        <time>2019-03-06T08:33:54.000Z</time>
      </trkpt>
      <trkpt lat="45.4931" lon="4.6986">
        <ele>594</ele>
        <time>2019-03-06T08:34:04.000Z</time>
      </trkpt>
      <trkpt lat="45.49302" lon="4.69856">
        <ele>594</ele>
        <time>2019-03-06T08:34:11.000Z</time>
      </trkpt>
      <trkpt lat="45.49289" lon="4.69852">
        <ele>595.40002441406</ele>
        <time>2019-03-06T08:34:22.000Z</time>
      </trkpt>
      <trkpt lat="45.4928" lon="4.6985">
        <ele>596.59997558594</ele>
        <time>2019-03-06T08:34:30.000Z</time>
      </trkpt>
      <trkpt lat="45.4927" lon="4.69845">
        <ele>597.40002441406</ele>
        <time>2019-03-06T08:34:39.000Z</time>
      </trkpt>
      <trkpt lat="45.49262" lon="4.6984">
        <ele>597.40002441406</ele>
        <time>2019-03-06T08:34:47.000Z</time>
      </trkpt>
      <trkpt lat="45.49259" lon="4.69839">
        <ele>597.40002441406</ele>
        <time>2019-03-06T08:34:56.000Z</time>
      </trkpt>
      <trkpt lat="45.49252" lon="4.69836">
        <ele>598</ele>
        <time>2019-03-06T08:35:04.000Z</time>
      </trkpt>
      <trkpt lat="45.4925" lon="4.69835">
        <ele>598</ele>
        <time>2019-03-06T08:35:06.000Z</time>
      </trkpt>
      <trkpt lat="45.49249" lon="4.69835">
        <ele>598.20001220703</ele>
        <time>2019-03-06T08:35:07.000Z</time>
      </trkpt>
      <trkpt lat="45.49243" lon="4.69831">
        <ele>598.20001220703</ele>
        <time>2019-03-06T08:35:14.000Z</time>
      </trkpt>
      <trkpt lat="45.49232" lon="4.69827">
        <ele>599</ele>
        <time>2019-03-06T08:35:26.000Z</time>
      </trkpt>
      <trkpt lat="45.49231" lon="4.69827">
        <ele>599.20001220703</ele>
        <time>2019-03-06T08:35:27.000Z</time>
      </trkpt>
      <trkpt lat="45.49221" lon="4.69821">
        <ele>599.40002441406</ele>
        <time>2019-03-06T08:35:39.000Z</time>
      </trkpt>
      <trkpt lat="45.49215" lon="4.69819">
        <ele>599.79998779297</ele>
        <time>2019-03-06T08:35:44.000Z</time>
      </trkpt>
      <trkpt lat="45.49204" lon="4.69815">
        <ele>600.79998779297</ele>
        <time>2019-03-06T08:35:56.000Z</time>
      </trkpt>
      <trkpt lat="45.49194" lon="4.6981">
        <ele>601.59997558594</ele>
        <time>2019-03-06T08:36:04.000Z</time>
      </trkpt>
      <trkpt lat="45.49184" lon="4.69807">
        <ele>602.59997558594</ele>
        <time>2019-03-06T08:36:13.000Z</time>
      </trkpt>
      <trkpt lat="45.49174" lon="4.69803">
        <ele>603.59997558594</ele>
        <time>2019-03-06T08:36:21.000Z</time>
      </trkpt>
      <trkpt lat="45.49167" lon="4.698">
        <ele>604</ele>
        <time>2019-03-06T08:36:25.000Z</time>
      </trkpt>
      <trkpt lat="45.49166" lon="4.69799">
        <ele>604.20001220703</ele>
        <time>2019-03-06T08:36:26.000Z</time>
      </trkpt>
      <trkpt lat="45.49165" lon="4.69799">
        <ele>604.20001220703</ele>
        <time>2019-03-06T08:36:27.000Z</time>
      </trkpt>
      <trkpt lat="45.49164" lon="4.69798">
        <ele>604.20001220703</ele>
        <time>2019-03-06T08:36:28.000Z</time>
      </trkpt>
      <trkpt lat="45.49163" lon="4.69797">
        <ele>604.20001220703</ele>
        <time>2019-03-06T08:36:29.000Z</time>
      </trkpt>
      <trkpt lat="45.49146" lon="4.6979">
        <ele>605.40002441406</ele>
        <time>2019-03-06T08:36:41.000Z</time>
      </trkpt>
      <trkpt lat="45.49138" lon="4.69786">
        <ele>606.40002441406</ele>
        <time>2019-03-06T08:36:51.000Z</time>
      </trkpt>
      <trkpt lat="45.49129" lon="4.69782">
        <ele>609.20001220703</ele>
        <time>2019-03-06T08:36:59.000Z</time>
      </trkpt>
      <trkpt lat="45.49121" lon="4.69771">
        <ele>614</ele>
        <time>2019-03-06T08:37:09.000Z</time>
      </trkpt>
      <trkpt lat="45.49123" lon="4.69757">
        <ele>615.59997558594</ele>
        <time>2019-03-06T08:37:19.000Z</time>
      </trkpt>
      <trkpt lat="45.49127" lon="4.69752">
        <ele>615.20001220703</ele>
        <time>2019-03-06T08:37:23.000Z</time>
      </trkpt>
      <trkpt lat="45.49131" lon="4.69744">
        <ele>615</ele>
        <time>2019-03-06T08:37:32.000Z</time>
      </trkpt>
      <trkpt lat="45.49132" lon="4.69742">
        <ele>614.79998779297</ele>
        <time>2019-03-06T08:37:34.000Z</time>
      </trkpt>
      <trkpt lat="45.49135" lon="4.69738">
        <ele>614.79998779297</ele>
        <time>2019-03-06T08:37:37.000Z</time>
      </trkpt>
      <trkpt lat="45.49141" lon="4.69731">
        <ele>615</ele>
        <time>2019-03-06T08:37:45.000Z</time>
      </trkpt>
      <trkpt lat="45.49152" lon="4.6972">
        <ele>614.79998779297</ele>
        <time>2019-03-06T08:37:54.000Z</time>
      </trkpt>
      <trkpt lat="45.49153" lon="4.69718">
        <ele>614.40002441406</ele>
        <time>2019-03-06T08:37:55.000Z</time>
      </trkpt>
      <trkpt lat="45.49153" lon="4.69717">
        <ele>614</ele>
        <time>2019-03-06T08:37:56.000Z</time>
      </trkpt>
      <trkpt lat="45.49158" lon="4.69709">
        <ele>611.59997558594</ele>
        <time>2019-03-06T08:38:03.000Z</time>
      </trkpt>
      <trkpt lat="45.49159" lon="4.69708">
        <ele>611.20001220703</ele>
        <time>2019-03-06T08:38:04.000Z</time>
      </trkpt>
      <trkpt lat="45.4916" lon="4.69707">
        <ele>610.79998779297</ele>
        <time>2019-03-06T08:38:05.000Z</time>
      </trkpt>
      <trkpt lat="45.49162" lon="4.69706">
        <ele>610.20001220703</ele>
        <time>2019-03-06T08:38:06.000Z</time>
      </trkpt>
      <trkpt lat="45.49163" lon="4.69705">
        <ele>609.79998779297</ele>
        <time>2019-03-06T08:38:07.000Z</time>
      </trkpt>
      <trkpt lat="45.49168" lon="4.697">
        <ele>608.40002441406</ele>
        <time>2019-03-06T08:38:14.000Z</time>
      </trkpt>
      <trkpt lat="45.4918" lon="4.69686">
        <ele>606.40002441406</ele>
        <time>2019-03-06T08:38:26.000Z</time>
      </trkpt>
      <trkpt lat="45.49186" lon="4.69673">
        <ele>606.40002441406</ele>
        <time>2019-03-06T08:38:36.000Z</time>
      </trkpt>
      <trkpt lat="45.49196" lon="4.69657">
        <ele>605</ele>
        <time>2019-03-06T08:38:47.000Z</time>
      </trkpt>
      <trkpt lat="45.49197" lon="4.69638">
        <ele>607.59997558594</ele>
        <time>2019-03-06T08:38:59.000Z</time>
      </trkpt>
      <trkpt lat="45.49196" lon="4.69629">
        <ele>609.59997558594</ele>
        <time>2019-03-06T08:39:11.000Z</time>
      </trkpt>
      <trkpt lat="45.49194" lon="4.69615">
        <ele>613</ele>
        <time>2019-03-06T08:39:25.000Z</time>
      </trkpt>
      <trkpt lat="45.49193" lon="4.69609">
        <ele>614.59997558594</ele>
        <time>2019-03-06T08:39:37.000Z</time>
      </trkpt>
      <trkpt lat="45.49194" lon="4.69607">
        <ele>614.59997558594</ele>
        <time>2019-03-06T08:39:51.000Z</time>
      </trkpt>
      <trkpt lat="45.49194" lon="4.69607">
        <ele>614.20001220703</ele>
        <time>2019-03-06T08:40:10.000Z</time>
      </trkpt>
      <trkpt lat="45.49194" lon="4.69606">
        <ele>614.79998779297</ele>
        <time>2019-03-06T08:40:26.000Z</time>
      </trkpt>
      <trkpt lat="45.49192" lon="4.69601">
        <ele>616.59997558594</ele>
        <time>2019-03-06T08:40:37.000Z</time>
      </trkpt>
      <trkpt lat="45.49188" lon="4.69595">
        <ele>619.20001220703</ele>
        <time>2019-03-06T08:40:49.000Z</time>
      </trkpt>
      <trkpt lat="45.49192" lon="4.69593">
        <ele>618</ele>
        <time>2019-03-06T08:41:03.000Z</time>
      </trkpt>
      <trkpt lat="45.49197" lon="4.69592">
        <ele>616.20001220703</ele>
        <time>2019-03-06T08:41:22.000Z</time>
      </trkpt>
      <trkpt lat="45.49199" lon="4.69592">
        <ele>615.59997558594</ele>
        <time>2019-03-06T08:41:41.000Z</time>
      </trkpt>
      <trkpt lat="45.49192" lon="4.69587">
        <ele>619.20001220703</ele>
        <time>2019-03-06T08:41:53.000Z</time>
      </trkpt>
      <trkpt lat="45.49189" lon="4.69581">
        <ele>621.40002441406</ele>
        <time>2019-03-06T08:41:59.000Z</time>
      </trkpt>
      <trkpt lat="45.49185" lon="4.69571">
        <ele>625.40002441406</ele>
        <time>2019-03-06T08:42:09.000Z</time>
      </trkpt>
      <trkpt lat="45.49181" lon="4.69555">
        <ele>630.40002441406</ele>
        <time>2019-03-06T08:42:23.000Z</time>
      </trkpt>
      <trkpt lat="45.49183" lon="4.69544">
        <ele>632</ele>
        <time>2019-03-06T08:42:34.000Z</time>
      </trkpt>
      <trkpt lat="45.49189" lon="4.69529">
        <ele>633.20001220703</ele>
        <time>2019-03-06T08:42:46.000Z</time>
      </trkpt>
      <trkpt lat="45.49194" lon="4.69517">
        <ele>634</ele>
        <time>2019-03-06T08:42:56.000Z</time>
      </trkpt>
      <trkpt lat="45.49197" lon="4.69508">
        <ele>635</ele>
        <time>2019-03-06T08:43:06.000Z</time>
      </trkpt>
      <trkpt lat="45.49198" lon="4.69506">
        <ele>635.20001220703</ele>
        <time>2019-03-06T08:43:08.000Z</time>
      </trkpt>
      <trkpt lat="45.49203" lon="4.69495">
        <ele>636</ele>
        <time>2019-03-06T08:43:17.000Z</time>
      </trkpt>
      <trkpt lat="45.49209" lon="4.69482">
        <ele>637</ele>
        <time>2019-03-06T08:43:28.000Z</time>
      </trkpt>
      <trkpt lat="45.4921" lon="4.6948">
        <ele>637</ele>
        <time>2019-03-06T08:43:30.000Z</time>
      </trkpt>
      <trkpt lat="45.49213" lon="4.69475">
        <ele>637.20001220703</ele>
        <time>2019-03-06T08:43:36.000Z</time>
      </trkpt>
      <trkpt lat="45.49219" lon="4.69465">
        <ele>637.40002441406</ele>
        <time>2019-03-06T08:43:47.000Z</time>
      </trkpt>
      <trkpt lat="45.49221" lon="4.69456">
        <ele>639</ele>
        <time>2019-03-06T08:43:59.000Z</time>
      </trkpt>
      <trkpt lat="45.49226" lon="4.69443">
        <ele>638</ele>
        <time>2019-03-06T08:44:12.000Z</time>
      </trkpt>
      <trkpt lat="45.4923" lon="4.69432">
        <ele>637.59997558594</ele>
        <time>2019-03-06T08:44:25.000Z</time>
      </trkpt>
      <trkpt lat="45.49235" lon="4.69417">
        <ele>636.59997558594</ele>
        <time>2019-03-06T08:44:39.000Z</time>
      </trkpt>
      <trkpt lat="45.49241" lon="4.69407">
        <ele>635.20001220703</ele>
        <time>2019-03-06T08:44:49.000Z</time>
      </trkpt>
      <trkpt lat="45.49244" lon="4.69393">
        <ele>634.79998779297</ele>
        <time>2019-03-06T08:44:58.000Z</time>
      </trkpt>
      <trkpt lat="45.49246" lon="4.6938">
        <ele>634.79998779297</ele>
        <time>2019-03-06T08:45:08.000Z</time>
      </trkpt>
      <trkpt lat="45.4925" lon="4.69366">
        <ele>633.79998779297</ele>
        <time>2019-03-06T08:45:18.000Z</time>
      </trkpt>
      <trkpt lat="45.49252" lon="4.69348">
        <ele>634</ele>
        <time>2019-03-06T08:45:31.000Z</time>
      </trkpt>
      <trkpt lat="45.49255" lon="4.69332">
        <ele>633.59997558594</ele>
        <time>2019-03-06T08:45:42.000Z</time>
      </trkpt>
      <trkpt lat="45.49252" lon="4.69318">
        <ele>636.40002441406</ele>
        <time>2019-03-06T08:45:53.000Z</time>
      </trkpt>
      <trkpt lat="45.49245" lon="4.69302">
        <ele>641.59997558594</ele>
        <time>2019-03-06T08:46:06.000Z</time>
      </trkpt>
      <trkpt lat="45.49245" lon="4.69301">
        <ele>642</ele>
        <time>2019-03-06T08:46:07.000Z</time>
      </trkpt>
      <trkpt lat="45.49241" lon="4.69291">
        <ele>645</ele>
        <time>2019-03-06T08:46:15.000Z</time>
      </trkpt>
      <trkpt lat="45.49237" lon="4.69277">
        <ele>649.20001220703</ele>
        <time>2019-03-06T08:46:25.000Z</time>
      </trkpt>
      <trkpt lat="45.49233" lon="4.69265">
        <ele>653.40002441406</ele>
        <time>2019-03-06T08:46:34.000Z</time>
      </trkpt>
      <trkpt lat="45.49231" lon="4.69245">
        <ele>658.20001220703</ele>
        <time>2019-03-06T08:46:47.000Z</time>
      </trkpt>
      <trkpt lat="45.49239" lon="4.69239">
        <ele>657.20001220703</ele>
        <time>2019-03-06T08:46:54.000Z</time>
      </trkpt>
      <trkpt lat="45.49254" lon="4.69229">
        <ele>656</ele>
        <time>2019-03-06T08:47:03.000Z</time>
      </trkpt>
      <trkpt lat="45.49266" lon="4.69219">
        <ele>655.79998779297</ele>
        <time>2019-03-06T08:47:14.000Z</time>
      </trkpt>
      <trkpt lat="45.49268" lon="4.69218">
        <ele>655.59997558594</ele>
        <time>2019-03-06T08:47:18.000Z</time>
      </trkpt>
      <trkpt lat="45.49278" lon="4.6921">
        <ele>655.40002441406</ele>
        <time>2019-03-06T08:47:29.000Z</time>
      </trkpt>
      <trkpt lat="45.49286" lon="4.69204">
        <ele>655</ele>
        <time>2019-03-06T08:47:40.000Z</time>
      </trkpt>
      <trkpt lat="45.493" lon="4.69196">
        <ele>654</ele>
        <time>2019-03-06T08:47:48.000Z</time>
      </trkpt>
      <trkpt lat="45.4931" lon="4.69186">
        <ele>654</ele>
        <time>2019-03-06T08:47:58.000Z</time>
      </trkpt>
      <trkpt lat="45.49324" lon="4.69178">
        <ele>652.79998779297</ele>
        <time>2019-03-06T08:48:08.000Z</time>
      </trkpt>
      <trkpt lat="45.49329" lon="4.69174">
        <ele>652.59997558594</ele>
        <time>2019-03-06T08:48:16.000Z</time>
      </trkpt>
      <trkpt lat="45.49346" lon="4.6917">
        <ele>649.79998779297</ele>
        <time>2019-03-06T08:48:29.000Z</time>
      </trkpt>
      <trkpt lat="45.49351" lon="4.6917">
        <ele>648.40002441406</ele>
        <time>2019-03-06T08:48:33.000Z</time>
      </trkpt>
      <trkpt lat="45.49359" lon="4.69173">
        <ele>645.79998779297</ele>
        <time>2019-03-06T08:48:40.000Z</time>
      </trkpt>
      <trkpt lat="45.49367" lon="4.69175">
        <ele>643.40002441406</ele>
        <time>2019-03-06T08:48:50.000Z</time>
      </trkpt>
      <trkpt lat="45.49376" lon="4.69176">
        <ele>641</ele>
        <time>2019-03-06T08:48:56.000Z</time>
      </trkpt>
      <trkpt lat="45.49388" lon="4.69174">
        <ele>638.59997558594</ele>
        <time>2019-03-06T08:49:07.000Z</time>
      </trkpt>
      <trkpt lat="45.49394" lon="4.69174">
        <ele>637.20001220703</ele>
        <time>2019-03-06T08:49:14.000Z</time>
      </trkpt>
      <trkpt lat="45.49396" lon="4.69174">
        <ele>636.79998779297</ele>
        <time>2019-03-06T08:49:16.000Z</time>
      </trkpt>
      <trkpt lat="45.49411" lon="4.69167">
        <ele>634.79998779297</ele>
        <time>2019-03-06T08:49:28.000Z</time>
      </trkpt>
      <trkpt lat="45.49421" lon="4.69164">
        <ele>633.20001220703</ele>
        <time>2019-03-06T08:49:38.000Z</time>
      </trkpt>
      <trkpt lat="45.49426" lon="4.69162">
        <ele>632.59997558594</ele>
        <time>2019-03-06T08:49:42.000Z</time>
      </trkpt>
      <trkpt lat="45.49438" lon="4.69159">
        <ele>629.59997558594</ele>
        <time>2019-03-06T08:49:53.000Z</time>
      </trkpt>
      <trkpt lat="45.49447" lon="4.69154">
        <ele>628</ele>
        <time>2019-03-06T08:50:01.000Z</time>
      </trkpt>
      <trkpt lat="45.49456" lon="4.69148">
        <ele>626.59997558594</ele>
        <time>2019-03-06T08:50:11.000Z</time>
      </trkpt>
      <trkpt lat="45.49468" lon="4.6914">
        <ele>624.40002441406</ele>
        <time>2019-03-06T08:50:23.000Z</time>
      </trkpt>
      <trkpt lat="45.49477" lon="4.69133">
        <ele>622.79998779297</ele>
        <time>2019-03-06T08:50:33.000Z</time>
      </trkpt>
      <trkpt lat="45.4949" lon="4.69126">
        <ele>620</ele>
        <time>2019-03-06T08:50:44.000Z</time>
      </trkpt>
      <trkpt lat="45.49495" lon="4.69123">
        <ele>619</ele>
        <time>2019-03-06T08:50:49.000Z</time>
      </trkpt>
      <trkpt lat="45.495" lon="4.69121">
        <ele>618</ele>
        <time>2019-03-06T08:50:53.000Z</time>
      </trkpt>
      <trkpt lat="45.49505" lon="4.69118">
        <ele>617</ele>
        <time>2019-03-06T08:51:00.000Z</time>
      </trkpt>
      <trkpt lat="45.49517" lon="4.69111">
        <ele>614.79998779297</ele>
        <time>2019-03-06T08:51:12.000Z</time>
      </trkpt>
      <trkpt lat="45.49518" lon="4.6911">
        <ele>614.40002441406</ele>
        <time>2019-03-06T08:51:13.000Z</time>
      </trkpt>
      <trkpt lat="45.49528" lon="4.69105">
        <ele>612.40002441406</ele>
        <time>2019-03-06T08:51:23.000Z</time>
      </trkpt>
      <trkpt lat="45.49538" lon="4.69098">
        <ele>610.79998779297</ele>
        <time>2019-03-06T08:51:36.000Z</time>
      </trkpt>
      <trkpt lat="45.49543" lon="4.69096">
        <ele>609.59997558594</ele>
        <time>2019-03-06T08:51:45.000Z</time>
      </trkpt>
      <trkpt lat="45.49553" lon="4.69089">
        <ele>608.20001220703</ele>
        <time>2019-03-06T08:51:56.000Z</time>
      </trkpt>
      <trkpt lat="45.49562" lon="4.69084">
        <ele>607.20001220703</ele>
        <time>2019-03-06T08:52:08.000Z</time>
      </trkpt>
      <trkpt lat="45.49574" lon="4.6908">
        <ele>605</ele>
        <time>2019-03-06T08:52:18.000Z</time>
      </trkpt>
      <trkpt lat="45.49581" lon="4.69075">
        <ele>604.40002441406</ele>
        <time>2019-03-06T08:52:25.000Z</time>
      </trkpt>
      <trkpt lat="45.49592" lon="4.69072">
        <ele>602.40002441406</ele>
        <time>2019-03-06T08:52:35.000Z</time>
      </trkpt>
      <trkpt lat="45.49604" lon="4.69069">
        <ele>600</ele>
        <time>2019-03-06T08:52:47.000Z</time>
      </trkpt>
      <trkpt lat="45.49616" lon="4.69065">
        <ele>597.79998779297</ele>
        <time>2019-03-06T08:52:57.000Z</time>
      </trkpt>
      <trkpt lat="45.49622" lon="4.69061">
        <ele>597.40002441406</ele>
        <time>2019-03-06T08:53:03.000Z</time>
      </trkpt>
      <trkpt lat="45.49633" lon="4.69055">
        <ele>596</ele>
        <time>2019-03-06T08:53:11.000Z</time>
      </trkpt>
      <trkpt lat="45.49643" lon="4.69048">
        <ele>595</ele>
        <time>2019-03-06T08:53:22.000Z</time>
      </trkpt>
      <trkpt lat="45.49652" lon="4.69042">
        <ele>594.20001220703</ele>
        <time>2019-03-06T08:53:29.000Z</time>
      </trkpt>
      <trkpt lat="45.49656" lon="4.6904">
        <ele>593.59997558594</ele>
        <time>2019-03-06T08:53:32.000Z</time>
      </trkpt>
      <trkpt lat="45.49663" lon="4.69038">
        <ele>592.59997558594</ele>
        <time>2019-03-06T08:53:38.000Z</time>
      </trkpt>
      <trkpt lat="45.49678" lon="4.69033">
        <ele>589.59997558594</ele>
        <time>2019-03-06T08:53:50.000Z</time>
      </trkpt>
      <trkpt lat="45.49693" lon="4.69023">
        <ele>587</ele>
        <time>2019-03-06T08:54:02.000Z</time>
      </trkpt>
      <trkpt lat="45.49703" lon="4.69014">
        <ele>585.59997558594</ele>
        <time>2019-03-06T08:54:13.000Z</time>
      </trkpt>
      <trkpt lat="45.49712" lon="4.6901">
        <ele>584.59997558594</ele>
        <time>2019-03-06T08:54:23.000Z</time>
      </trkpt>
      <trkpt lat="45.49725" lon="4.69004">
        <ele>581.40002441406</ele>
        <time>2019-03-06T08:54:35.000Z</time>
      </trkpt>
      <trkpt lat="45.49738" lon="4.68997">
        <ele>578</ele>
        <time>2019-03-06T08:54:46.000Z</time>
      </trkpt>
      <trkpt lat="45.49749" lon="4.6899">
        <ele>575.20001220703</ele>
        <time>2019-03-06T08:54:58.000Z</time>
      </trkpt>
      <trkpt lat="45.49761" lon="4.68981">
        <ele>572.59997558594</ele>
        <time>2019-03-06T08:55:08.000Z</time>
      </trkpt>
      <trkpt lat="45.49764" lon="4.68979">
        <ele>572</ele>
        <time>2019-03-06T08:55:10.000Z</time>
      </trkpt>
      <trkpt lat="45.49765" lon="4.68978">
        <ele>571.79998779297</ele>
        <time>2019-03-06T08:55:11.000Z</time>
      </trkpt>
      <trkpt lat="45.49768" lon="4.68974">
        <ele>571.20001220703</ele>
        <time>2019-03-06T08:55:14.000Z</time>
      </trkpt>
      <trkpt lat="45.49776" lon="4.68966">
        <ele>570</ele>
        <time>2019-03-06T08:55:23.000Z</time>
      </trkpt>
      <trkpt lat="45.49785" lon="4.68956">
        <ele>568.40002441406</ele>
        <time>2019-03-06T08:55:33.000Z</time>
      </trkpt>
      <trkpt lat="45.49787" lon="4.68952">
        <ele>568.20001220703</ele>
        <time>2019-03-06T08:55:43.000Z</time>
      </trkpt>
      <trkpt lat="45.4979" lon="4.6895">
        <ele>567.20001220703</ele>
        <time>2019-03-06T08:55:46.000Z</time>
      </trkpt>
      <trkpt lat="45.49798" lon="4.6894">
        <ele>564.79998779297</ele>
        <time>2019-03-06T08:55:56.000Z</time>
      </trkpt>
      <trkpt lat="45.49801" lon="4.68939">
        <ele>564</ele>
        <time>2019-03-06T08:55:58.000Z</time>
      </trkpt>
      <trkpt lat="45.49808" lon="4.68932">
        <ele>562.40002441406</ele>
        <time>2019-03-06T08:56:05.000Z</time>
      </trkpt>
      <trkpt lat="45.49813" lon="4.68929">
        <ele>561.20001220703</ele>
        <time>2019-03-06T08:56:09.000Z</time>
      </trkpt>
      <trkpt lat="45.49817" lon="4.68925">
        <ele>560.20001220703</ele>
        <time>2019-03-06T08:56:13.000Z</time>
      </trkpt>
      <trkpt lat="45.49822" lon="4.68919">
        <ele>559</ele>
        <time>2019-03-06T08:56:20.000Z</time>
      </trkpt>
      <trkpt lat="45.4983" lon="4.68909">
        <ele>557.20001220703</ele>
        <time>2019-03-06T08:56:29.000Z</time>
      </trkpt>
      <trkpt lat="45.49836" lon="4.68899">
        <ele>556</ele>
        <time>2019-03-06T08:56:37.000Z</time>
      </trkpt>
      <trkpt lat="45.49843" lon="4.68887">
        <ele>554.59997558594</ele>
        <time>2019-03-06T08:56:46.000Z</time>
      </trkpt>
      <trkpt lat="45.49848" lon="4.6888">
        <ele>553.40002441406</ele>
        <time>2019-03-06T08:56:54.000Z</time>
      </trkpt>
      <trkpt lat="45.49853" lon="4.68871">
        <ele>552.59997558594</ele>
        <time>2019-03-06T08:57:01.000Z</time>
      </trkpt>
      <trkpt lat="45.49862" lon="4.68857">
        <ele>549.40002441406</ele>
        <time>2019-03-06T08:57:14.000Z</time>
      </trkpt>
      <trkpt lat="45.49864" lon="4.68853">
        <ele>548.59997558594</ele>
        <time>2019-03-06T08:57:20.000Z</time>
      </trkpt>
      <trkpt lat="45.49866" lon="4.68852">
        <ele>547.79998779297</ele>
        <time>2019-03-06T08:57:32.000Z</time>
      </trkpt>
      <trkpt lat="45.49864" lon="4.68847">
        <ele>548</ele>
        <time>2019-03-06T08:57:46.000Z</time>
      </trkpt>
      <trkpt lat="45.49865" lon="4.68846">
        <ele>547.79998779297</ele>
        <time>2019-03-06T08:57:54.000Z</time>
      </trkpt>
      <trkpt lat="45.49865" lon="4.68845">
        <ele>547.79998779297</ele>
        <time>2019-03-06T08:57:59.000Z</time>
      </trkpt>
      <trkpt lat="45.49867" lon="4.68846">
        <ele>547.20001220703</ele>
        <time>2019-03-06T08:58:16.000Z</time>
      </trkpt>
      <trkpt lat="45.49867" lon="4.68847">
        <ele>547.40002441406</ele>
        <time>2019-03-06T08:58:33.000Z</time>
      </trkpt>
      <trkpt lat="45.49867" lon="4.68846">
        <ele>547.20001220703</ele>
        <time>2019-03-06T08:58:44.000Z</time>
      </trkpt>
      <trkpt lat="45.49868" lon="4.68848">
        <ele>547.20001220703</ele>
        <time>2019-03-06T08:59:01.000Z</time>
      </trkpt>
      <trkpt lat="45.4987" lon="4.68848">
        <ele>546.59997558594</ele>
        <time>2019-03-06T08:59:14.000Z</time>
      </trkpt>
      <trkpt lat="45.49875" lon="4.68841">
        <ele>545.20001220703</ele>
        <time>2019-03-06T08:59:24.000Z</time>
      </trkpt>
      <trkpt lat="45.49885" lon="4.68841">
        <ele>542.79998779297</ele>
        <time>2019-03-06T08:59:37.000Z</time>
      </trkpt>
      <trkpt lat="45.499" lon="4.68841">
        <ele>539.59997558594</ele>
        <time>2019-03-06T08:59:51.000Z</time>
      </trkpt>
      <trkpt lat="45.4991" lon="4.6884">
        <ele>537.20001220703</ele>
        <time>2019-03-06T09:00:03.000Z</time>
      </trkpt>
      <trkpt lat="45.49921" lon="4.68837">
        <ele>534.40002441406</ele>
        <time>2019-03-06T09:00:14.000Z</time>
      </trkpt>
      <trkpt lat="45.4993" lon="4.68837">
        <ele>532.40002441406</ele>
        <time>2019-03-06T09:00:24.000Z</time>
      </trkpt>
      <trkpt lat="45.49934" lon="4.68835">
        <ele>531.40002441406</ele>
        <time>2019-03-06T09:00:28.000Z</time>
      </trkpt>
      <trkpt lat="45.49937" lon="4.68834">
        <ele>530.59997558594</ele>
        <time>2019-03-06T09:00:31.000Z</time>
      </trkpt>
      <trkpt lat="45.49939" lon="4.68832">
        <ele>530</ele>
        <time>2019-03-06T09:00:35.000Z</time>
      </trkpt>
      <trkpt lat="45.4994" lon="4.68832">
        <ele>529.79998779297</ele>
        <time>2019-03-06T09:00:38.000Z</time>
      </trkpt>
      <trkpt lat="45.49943" lon="4.68834">
        <ele>529.20001220703</ele>
        <time>2019-03-06T09:00:41.000Z</time>
      </trkpt>
      <trkpt lat="45.49953" lon="4.68831">
        <ele>526.40002441406</ele>
        <time>2019-03-06T09:00:51.000Z</time>
      </trkpt>
      <trkpt lat="45.4996" lon="4.6883">
        <ele>524.79998779297</ele>
        <time>2019-03-06T09:00:59.000Z</time>
      </trkpt>
      <trkpt lat="45.49964" lon="4.68825">
        <ele>523.40002441406</ele>
        <time>2019-03-06T09:01:07.000Z</time>
      </trkpt>
      <trkpt lat="45.49967" lon="4.68824">
        <ele>522.79998779297</ele>
        <time>2019-03-06T09:01:16.000Z</time>
      </trkpt>
      <trkpt lat="45.49972" lon="4.68825">
        <ele>521.79998779297</ele>
        <time>2019-03-06T09:01:21.000Z</time>
      </trkpt>
      <trkpt lat="45.49973" lon="4.68825">
        <ele>521.59997558594</ele>
        <time>2019-03-06T09:01:22.000Z</time>
      </trkpt>
      <trkpt lat="45.49974" lon="4.68825">
        <ele>521.40002441406</ele>
        <time>2019-03-06T09:01:23.000Z</time>
      </trkpt>
      <trkpt lat="45.49986" lon="4.68822">
        <ele>519</ele>
        <time>2019-03-06T09:01:35.000Z</time>
      </trkpt>
      <trkpt lat="45.49994" lon="4.68822">
        <ele>517.20001220703</ele>
        <time>2019-03-06T09:01:44.000Z</time>
      </trkpt>
      <trkpt lat="45.50006" lon="4.68818">
        <ele>514.79998779297</ele>
        <time>2019-03-06T09:01:55.000Z</time>
      </trkpt>
      <trkpt lat="45.50014" lon="4.68818">
        <ele>513.20001220703</ele>
        <time>2019-03-06T09:02:03.000Z</time>
      </trkpt>
      <trkpt lat="45.50026" lon="4.68818">
        <ele>510.79998779297</ele>
        <time>2019-03-06T09:02:15.000Z</time>
      </trkpt>
      <trkpt lat="45.50032" lon="4.68818">
        <ele>509.79998779297</ele>
        <time>2019-03-06T09:02:20.000Z</time>
      </trkpt>
      <trkpt lat="45.50042" lon="4.68818">
        <ele>508</ele>
        <time>2019-03-06T09:02:30.000Z</time>
      </trkpt>
      <trkpt lat="45.50049" lon="4.6882">
        <ele>506.60000610352</ele>
        <time>2019-03-06T09:02:38.000Z</time>
      </trkpt>
      <trkpt lat="45.50058" lon="4.68819">
        <ele>504.60000610352</ele>
        <time>2019-03-06T09:02:49.000Z</time>
      </trkpt>
      <trkpt lat="45.50064" lon="4.68819">
        <ele>503.60000610352</ele>
        <time>2019-03-06T09:02:55.000Z</time>
      </trkpt>
      <trkpt lat="45.50074" lon="4.68817">
        <ele>501.39999389648</ele>
        <time>2019-03-06T09:03:06.000Z</time>
      </trkpt>
      <trkpt lat="45.50086" lon="4.68816">
        <ele>498.79998779297</ele>
        <time>2019-03-06T09:03:18.000Z</time>
      </trkpt>
      <trkpt lat="45.50098" lon="4.68816">
        <ele>496.60000610352</ele>
        <time>2019-03-06T09:03:29.000Z</time>
      </trkpt>
      <trkpt lat="45.50112" lon="4.68811">
        <ele>494</ele>
        <time>2019-03-06T09:03:42.000Z</time>
      </trkpt>
      <trkpt lat="45.50118" lon="4.68809">
        <ele>493</ele>
        <time>2019-03-06T09:03:47.000Z</time>
      </trkpt>
      <trkpt lat="45.50121" lon="4.68808">
        <ele>492.20001220703</ele>
        <time>2019-03-06T09:03:50.000Z</time>
      </trkpt>
      <trkpt lat="45.50134" lon="4.68801">
        <ele>489.60000610352</ele>
        <time>2019-03-06T09:04:03.000Z</time>
      </trkpt>
      <trkpt lat="45.50148" lon="4.68794">
        <ele>487.39999389648</ele>
        <time>2019-03-06T09:04:16.000Z</time>
      </trkpt>
      <trkpt lat="45.50162" lon="4.68787">
        <ele>485.20001220703</ele>
        <time>2019-03-06T09:04:29.000Z</time>
      </trkpt>
      <trkpt lat="45.50169" lon="4.68782">
        <ele>484</ele>
        <time>2019-03-06T09:04:36.000Z</time>
      </trkpt>
      <trkpt lat="45.5018" lon="4.68776">
        <ele>482</ele>
        <time>2019-03-06T09:04:48.000Z</time>
      </trkpt>
      <trkpt lat="45.50182" lon="4.68768">
        <ele>481</ele>
        <time>2019-03-06T09:04:55.000Z</time>
      </trkpt>
      <trkpt lat="45.50182" lon="4.68766">
        <ele>480.79998779297</ele>
        <time>2019-03-06T09:04:56.000Z</time>
      </trkpt>
      <trkpt lat="45.50181" lon="4.68764">
        <ele>480.79998779297</ele>
        <time>2019-03-06T09:04:57.000Z</time>
      </trkpt>
      <trkpt lat="45.50181" lon="4.68762">
        <ele>480.79998779297</ele>
        <time>2019-03-06T09:04:58.000Z</time>
      </trkpt>
      <trkpt lat="45.5018" lon="4.68761">
        <ele>480.60000610352</ele>
        <time>2019-03-06T09:04:59.000Z</time>
      </trkpt>
      <trkpt lat="45.50179" lon="4.6876">
        <ele>480.79998779297</ele>
        <time>2019-03-06T09:05:00.000Z</time>
      </trkpt>
      <trkpt lat="45.50178" lon="4.68759">
        <ele>480.79998779297</ele>
        <time>2019-03-06T09:05:01.000Z</time>
      </trkpt>
      <trkpt lat="45.50167" lon="4.68746">
        <ele>481.20001220703</ele>
        <time>2019-03-06T09:05:14.000Z</time>
      </trkpt>
      <trkpt lat="45.50159" lon="4.68736">
        <ele>481.39999389648</ele>
        <time>2019-03-06T09:05:23.000Z</time>
      </trkpt>
      <trkpt lat="45.50147" lon="4.68727">
        <ele>482.20001220703</ele>
        <time>2019-03-06T09:05:34.000Z</time>
      </trkpt>
      <trkpt lat="45.50136" lon="4.68719">
        <ele>483</ele>
        <time>2019-03-06T09:05:45.000Z</time>
      </trkpt>
      <trkpt lat="45.50129" lon="4.68717">
        <ele>484</ele>
        <time>2019-03-06T09:05:52.000Z</time>
      </trkpt>
      <trkpt lat="45.50117" lon="4.68711">
        <ele>485.39999389648</ele>
        <time>2019-03-06T09:06:04.000Z</time>
      </trkpt>
      <trkpt lat="45.50105" lon="4.68702">
        <ele>486.20001220703</ele>
        <time>2019-03-06T09:06:14.000Z</time>
      </trkpt>
      <trkpt lat="45.501" lon="4.68698">
        <ele>486.60000610352</ele>
        <time>2019-03-06T09:06:19.000Z</time>
      </trkpt>
      <trkpt lat="45.50088" lon="4.68688">
        <ele>487.20001220703</ele>
        <time>2019-03-06T09:06:30.000Z</time>
      </trkpt>
      <trkpt lat="45.50076" lon="4.68679">
        <ele>488</ele>
        <time>2019-03-06T09:06:41.000Z</time>
      </trkpt>
      <trkpt lat="45.50062" lon="4.68668">
        <ele>488.79998779297</ele>
        <time>2019-03-06T09:06:54.000Z</time>
      </trkpt>
      <trkpt lat="45.50047" lon="4.68654">
        <ele>489.79998779297</ele>
        <time>2019-03-06T09:07:08.000Z</time>
      </trkpt>
      <trkpt lat="45.50044" lon="4.68653">
        <ele>490</ele>
        <time>2019-03-06T09:07:10.000Z</time>
      </trkpt>
      <trkpt lat="45.50038" lon="4.68647">
        <ele>490.60000610352</ele>
        <time>2019-03-06T09:07:16.000Z</time>
      </trkpt>
      <trkpt lat="45.50027" lon="4.68636">
        <ele>491.39999389648</ele>
        <time>2019-03-06T09:07:26.000Z</time>
      </trkpt>
      <trkpt lat="45.50014" lon="4.68621">
        <ele>492</ele>
        <time>2019-03-06T09:07:40.000Z</time>
      </trkpt>
      <trkpt lat="45.50003" lon="4.68607">
        <ele>491.79998779297</ele>
        <time>2019-03-06T09:07:52.000Z</time>
      </trkpt>
      <trkpt lat="45.49992" lon="4.68593">
        <ele>491.60000610352</ele>
        <time>2019-03-06T09:08:04.000Z</time>
      </trkpt>
      <trkpt lat="45.49978" lon="4.68573">
        <ele>491.20001220703</ele>
        <time>2019-03-06T09:08:19.000Z</time>
      </trkpt>
      <trkpt lat="45.49967" lon="4.68559">
        <ele>490.79998779297</ele>
        <time>2019-03-06T09:08:30.000Z</time>
      </trkpt>
      <trkpt lat="45.49955" lon="4.68539">
        <ele>489.60000610352</ele>
        <time>2019-03-06T09:08:44.000Z</time>
      </trkpt>
      <trkpt lat="45.49951" lon="4.68532">
        <ele>489.60000610352</ele>
        <time>2019-03-06T09:08:49.000Z</time>
      </trkpt>
      <trkpt lat="45.49942" lon="4.68514">
        <ele>489.20001220703</ele>
        <time>2019-03-06T09:09:01.000Z</time>
      </trkpt>
      <trkpt lat="45.49931" lon="4.68496">
        <ele>489</ele>
        <time>2019-03-06T09:09:14.000Z</time>
      </trkpt>
      <trkpt lat="45.49921" lon="4.68477">
        <ele>489</ele>
        <time>2019-03-06T09:09:27.000Z</time>
      </trkpt>
      <trkpt lat="45.49914" lon="4.68464">
        <ele>488.79998779297</ele>
        <time>2019-03-06T09:09:36.000Z</time>
      </trkpt>
      <trkpt lat="45.49911" lon="4.68456">
        <ele>488.60000610352</ele>
        <time>2019-03-06T09:09:41.000Z</time>
      </trkpt>
      <trkpt lat="45.49903" lon="4.68446">
        <ele>488.79998779297</ele>
        <time>2019-03-06T09:09:50.000Z</time>
      </trkpt>
      <trkpt lat="45.49901" lon="4.68441">
        <ele>488.60000610352</ele>
        <time>2019-03-06T09:09:54.000Z</time>
      </trkpt>
      <trkpt lat="45.49895" lon="4.68433">
        <ele>488.60000610352</ele>
        <time>2019-03-06T09:10:01.000Z</time>
      </trkpt>
      <trkpt lat="45.49889" lon="4.68422">
        <ele>488.39999389648</ele>
        <time>2019-03-06T09:10:09.000Z</time>
      </trkpt>
      <trkpt lat="45.49887" lon="4.68419">
        <ele>488.39999389648</ele>
        <time>2019-03-06T09:10:11.000Z</time>
      </trkpt>
      <trkpt lat="45.49874" lon="4.68404">
        <ele>488</ele>
        <time>2019-03-06T09:10:24.000Z</time>
      </trkpt>
      <trkpt lat="45.49868" lon="4.68397">
        <ele>487.60000610352</ele>
        <time>2019-03-06T09:10:31.000Z</time>
      </trkpt>
      <trkpt lat="45.49864" lon="4.68393">
        <ele>487.39999389648</ele>
        <time>2019-03-06T09:10:35.000Z</time>
      </trkpt>
      <trkpt lat="45.49851" lon="4.68383">
        <ele>487.39999389648</ele>
        <time>2019-03-06T09:10:47.000Z</time>
      </trkpt>
      <trkpt lat="45.49847" lon="4.68382">
        <ele>487.60000610352</ele>
        <time>2019-03-06T09:10:50.000Z</time>
      </trkpt>
      <trkpt lat="45.49845" lon="4.68382">
        <ele>487.60000610352</ele>
        <time>2019-03-06T09:10:52.000Z</time>
      </trkpt>
      <trkpt lat="45.49833" lon="4.6838">
        <ele>488.39999389648</ele>
        <time>2019-03-06T09:11:02.000Z</time>
      </trkpt>
      <trkpt lat="45.49824" lon="4.6838">
        <ele>489.20001220703</ele>
        <time>2019-03-06T09:11:09.000Z</time>
      </trkpt>
      <trkpt lat="45.49822" lon="4.68381">
        <ele>489.39999389648</ele>
        <time>2019-03-06T09:11:11.000Z</time>
      </trkpt>
      <trkpt lat="45.49812" lon="4.68383">
        <ele>490.60000610352</ele>
        <time>2019-03-06T09:11:19.000Z</time>
      </trkpt>
      <trkpt lat="45.49809" lon="4.68384">
        <ele>491</ele>
        <time>2019-03-06T09:11:22.000Z</time>
      </trkpt>
      <trkpt lat="45.49803" lon="4.68385">
        <ele>492.20001220703</ele>
        <time>2019-03-06T09:11:27.000Z</time>
      </trkpt>
      <trkpt lat="45.49793" lon="4.68385">
        <ele>493</ele>
        <time>2019-03-06T09:11:35.000Z</time>
      </trkpt>
      <trkpt lat="45.49783" lon="4.68386">
        <ele>494</ele>
        <time>2019-03-06T09:11:44.000Z</time>
      </trkpt>
      <trkpt lat="45.49772" lon="4.68386">
        <ele>494.79998779297</ele>
        <time>2019-03-06T09:11:53.000Z</time>
      </trkpt>
      <trkpt lat="45.49768" lon="4.68384">
        <ele>495</ele>
        <time>2019-03-06T09:11:57.000Z</time>
      </trkpt>
      <trkpt lat="45.49767" lon="4.68383">
        <ele>495</ele>
        <time>2019-03-06T09:11:58.000Z</time>
      </trkpt>
      <trkpt lat="45.49766" lon="4.68383">
        <ele>494.79998779297</ele>
        <time>2019-03-06T09:11:59.000Z</time>
      </trkpt>
      <trkpt lat="45.49764" lon="4.68382">
        <ele>495</ele>
        <time>2019-03-06T09:12:00.000Z</time>
      </trkpt>
      <trkpt lat="45.49763" lon="4.68381">
        <ele>494.79998779297</ele>
        <time>2019-03-06T09:12:01.000Z</time>
      </trkpt>
      <trkpt lat="45.49756" lon="4.68376">
        <ele>494.79998779297</ele>
        <time>2019-03-06T09:12:09.000Z</time>
      </trkpt>
      <trkpt lat="45.49755" lon="4.68376">
        <ele>494.79998779297</ele>
        <time>2019-03-06T09:12:10.000Z</time>
      </trkpt>
      <trkpt lat="45.49746" lon="4.68369">
        <ele>494.60000610352</ele>
        <time>2019-03-06T09:12:20.000Z</time>
      </trkpt>
      <trkpt lat="45.49736" lon="4.68363">
        <ele>495</ele>
        <time>2019-03-06T09:12:30.000Z</time>
      </trkpt>
      <trkpt lat="45.49725" lon="4.68356">
        <ele>495.39999389648</ele>
        <time>2019-03-06T09:12:40.000Z</time>
      </trkpt>
      <trkpt lat="45.49715" lon="4.68351">
        <ele>496.20001220703</ele>
        <time>2019-03-06T09:12:49.000Z</time>
      </trkpt>
      <trkpt lat="45.49705" lon="4.68348">
        <ele>498.79998779297</ele>
        <time>2019-03-06T09:12:58.000Z</time>
      </trkpt>
      <trkpt lat="45.49699" lon="4.68348">
        <ele>500.39999389648</ele>
        <time>2019-03-06T09:13:06.000Z</time>
      </trkpt>
      <trkpt lat="45.49697" lon="4.68347">
        <ele>500.79998779297</ele>
        <time>2019-03-06T09:13:07.000Z</time>
      </trkpt>
      <trkpt lat="45.49693" lon="4.68345">
        <ele>501.79998779297</ele>
        <time>2019-03-06T09:13:12.000Z</time>
      </trkpt>
      <trkpt lat="45.49692" lon="4.68345">
        <ele>502</ele>
        <time>2019-03-06T09:13:13.000Z</time>
      </trkpt>
      <trkpt lat="45.49691" lon="4.68344">
        <ele>502.20001220703</ele>
        <time>2019-03-06T09:13:14.000Z</time>
      </trkpt>
      <trkpt lat="45.49685" lon="4.68342">
        <ele>503.20001220703</ele>
        <time>2019-03-06T09:13:19.000Z</time>
      </trkpt>
      <trkpt lat="45.49676" lon="4.68338">
        <ele>504.79998779297</ele>
        <time>2019-03-06T09:13:25.000Z</time>
      </trkpt>
      <trkpt lat="45.49666" lon="4.68336">
        <ele>506.60000610352</ele>
        <time>2019-03-06T09:13:33.000Z</time>
      </trkpt>
      <trkpt lat="45.49663" lon="4.68335">
        <ele>507</ele>
        <time>2019-03-06T09:13:35.000Z</time>
      </trkpt>
      <trkpt lat="45.49655" lon="4.68326">
        <ele>508.60000610352</ele>
        <time>2019-03-06T09:13:43.000Z</time>
      </trkpt>
      <trkpt lat="45.49655" lon="4.68319">
        <ele>509</ele>
        <time>2019-03-06T09:13:47.000Z</time>
      </trkpt>
      <trkpt lat="45.49663" lon="4.68299">
        <ele>507</ele>
        <time>2019-03-06T09:13:58.000Z</time>
      </trkpt>
      <trkpt lat="45.49664" lon="4.68296">
        <ele>506.60000610352</ele>
        <time>2019-03-06T09:14:00.000Z</time>
      </trkpt>
      <trkpt lat="45.49669" lon="4.68274">
        <ele>505</ele>
        <time>2019-03-06T09:14:13.000Z</time>
      </trkpt>
      <trkpt lat="45.49669" lon="4.68273">
        <ele>504.79998779297</ele>
        <time>2019-03-06T09:14:14.000Z</time>
      </trkpt>
      <trkpt lat="45.49671" lon="4.68261">
        <ele>504.60000610352</ele>
        <time>2019-03-06T09:14:22.000Z</time>
      </trkpt>
      <trkpt lat="45.49674" lon="4.6825">
        <ele>504.20001220703</ele>
        <time>2019-03-06T09:14:29.000Z</time>
      </trkpt>
      <trkpt lat="45.49677" lon="4.68234">
        <ele>503.39999389648</ele>
        <time>2019-03-06T09:14:38.000Z</time>
      </trkpt>
      <trkpt lat="45.49679" lon="4.68221">
        <ele>502.79998779297</ele>
        <time>2019-03-06T09:14:47.000Z</time>
      </trkpt>
      <trkpt lat="45.49679" lon="4.68214">
        <ele>503</ele>
        <time>2019-03-06T09:14:51.000Z</time>
      </trkpt>
      <trkpt lat="45.49678" lon="4.68212">
        <ele>503.20001220703</ele>
        <time>2019-03-06T09:14:52.000Z</time>
      </trkpt>
      <trkpt lat="45.49677" lon="4.68207">
        <ele>503.39999389648</ele>
        <time>2019-03-06T09:14:55.000Z</time>
      </trkpt>
      <trkpt lat="45.49677" lon="4.68194">
        <ele>503</ele>
        <time>2019-03-06T09:15:04.000Z</time>
      </trkpt>
      <trkpt lat="45.49676" lon="4.68189">
        <ele>502.79998779297</ele>
        <time>2019-03-06T09:15:08.000Z</time>
      </trkpt>
      <trkpt lat="45.49676" lon="4.68175">
        <ele>502</ele>
        <time>2019-03-06T09:15:16.000Z</time>
      </trkpt>
      <trkpt lat="45.49677" lon="4.6817">
        <ele>501.60000610352</ele>
        <time>2019-03-06T09:15:19.000Z</time>
      </trkpt>
      <trkpt lat="45.49677" lon="4.68169">
        <ele>501.39999389648</ele>
        <time>2019-03-06T09:15:20.000Z</time>
      </trkpt>
      <trkpt lat="45.49678" lon="4.68167">
        <ele>501</ele>
        <time>2019-03-06T09:15:21.000Z</time>
      </trkpt>
      <trkpt lat="45.49677" lon="4.68159">
        <ele>501</ele>
        <time>2019-03-06T09:15:27.000Z</time>
      </trkpt>
      <trkpt lat="45.49675" lon="4.68152">
        <ele>501.20001220703</ele>
        <time>2019-03-06T09:15:32.000Z</time>
      </trkpt>
      <trkpt lat="45.49674" lon="4.68144">
        <ele>501.60000610352</ele>
        <time>2019-03-06T09:15:37.000Z</time>
      </trkpt>
      <trkpt lat="45.49674" lon="4.68119">
        <ele>501.20001220703</ele>
        <time>2019-03-06T09:15:50.000Z</time>
      </trkpt>
      <trkpt lat="45.49674" lon="4.68109">
        <ele>501</ele>
        <time>2019-03-06T09:15:57.000Z</time>
      </trkpt>
      <trkpt lat="45.49671" lon="4.68095">
        <ele>501</ele>
        <time>2019-03-06T09:16:06.000Z</time>
      </trkpt>
      <trkpt lat="45.49671" lon="4.68093">
        <ele>501</ele>
        <time>2019-03-06T09:16:07.000Z</time>
      </trkpt>
      <trkpt lat="45.49671" lon="4.68091">
        <ele>501</ele>
        <time>2019-03-06T09:16:08.000Z</time>
      </trkpt>
      <trkpt lat="45.4967" lon="4.68088">
        <ele>501</ele>
        <time>2019-03-06T09:16:09.000Z</time>
      </trkpt>
      <trkpt lat="45.4967" lon="4.68086">
        <ele>501</ele>
        <time>2019-03-06T09:16:10.000Z</time>
      </trkpt>
      <trkpt lat="45.49669" lon="4.68084">
        <ele>501</ele>
        <time>2019-03-06T09:16:11.000Z</time>
      </trkpt>
      <trkpt lat="45.49669" lon="4.68082">
        <ele>501.20001220703</ele>
        <time>2019-03-06T09:16:12.000Z</time>
      </trkpt>
      <trkpt lat="45.49668" lon="4.6808">
        <ele>501.39999389648</ele>
        <time>2019-03-06T09:16:13.000Z</time>
      </trkpt>
      <trkpt lat="45.49667" lon="4.68078">
        <ele>501.39999389648</ele>
        <time>2019-03-06T09:16:14.000Z</time>
      </trkpt>
      <trkpt lat="45.4966" lon="4.6806">
        <ele>502.60000610352</ele>
        <time>2019-03-06T09:16:25.000Z</time>
      </trkpt>
      <trkpt lat="45.49649" lon="4.68043">
        <ele>504.79998779297</ele>
        <time>2019-03-06T09:16:37.000Z</time>
      </trkpt>
      <trkpt lat="45.49644" lon="4.68032">
        <ele>506</ele>
        <time>2019-03-06T09:16:45.000Z</time>
      </trkpt>
      <trkpt lat="45.4964" lon="4.68021">
        <ele>507</ele>
        <time>2019-03-06T09:16:53.000Z</time>
      </trkpt>
      <trkpt lat="45.49638" lon="4.68012">
        <ele>507.39999389648</ele>
        <time>2019-03-06T09:17:02.000Z</time>
      </trkpt>
      <trkpt lat="45.49636" lon="4.68">
        <ele>508</ele>
        <time>2019-03-06T09:17:10.000Z</time>
      </trkpt>
      <trkpt lat="45.49634" lon="4.6799">
        <ele>508.39999389648</ele>
        <time>2019-03-06T09:17:19.000Z</time>
      </trkpt>
      <trkpt lat="45.49634" lon="4.67977">
        <ele>508.60000610352</ele>
        <time>2019-03-06T09:17:29.000Z</time>
      </trkpt>
      <trkpt lat="45.4963" lon="4.6796">
        <ele>509.79998779297</ele>
        <time>2019-03-06T09:17:42.000Z</time>
      </trkpt>
      <trkpt lat="45.49625" lon="4.67952">
        <ele>511</ele>
        <time>2019-03-06T09:17:51.000Z</time>
      </trkpt>
      <trkpt lat="45.49623" lon="4.67947">
        <ele>511.20001220703</ele>
        <time>2019-03-06T09:17:55.000Z</time>
      </trkpt>
      <trkpt lat="45.49618" lon="4.67941">
        <ele>512.20001220703</ele>
        <time>2019-03-06T09:18:03.000Z</time>
      </trkpt>
      <trkpt lat="45.49614" lon="4.67937">
        <ele>513</ele>
        <time>2019-03-06T09:18:08.000Z</time>
      </trkpt>
      <trkpt lat="45.49606" lon="4.67929">
        <ele>514.59997558594</ele>
        <time>2019-03-06T09:18:19.000Z</time>
      </trkpt>
      <trkpt lat="45.496" lon="4.67922">
        <ele>515.59997558594</ele>
        <time>2019-03-06T09:18:28.000Z</time>
      </trkpt>
      <trkpt lat="45.49591" lon="4.67913">
        <ele>517.20001220703</ele>
        <time>2019-03-06T09:18:41.000Z</time>
      </trkpt>
      <trkpt lat="45.49586" lon="4.67906">
        <ele>518</ele>
        <time>2019-03-06T09:18:49.000Z</time>
      </trkpt>
      <trkpt lat="45.49581" lon="4.67898">
        <ele>518.79998779297</ele>
        <time>2019-03-06T09:18:55.000Z</time>
      </trkpt>
      <trkpt lat="45.49576" lon="4.67891">
        <ele>519.79998779297</ele>
        <time>2019-03-06T09:19:03.000Z</time>
      </trkpt>
      <trkpt lat="45.4957" lon="4.67882">
        <ele>520.59997558594</ele>
        <time>2019-03-06T09:19:14.000Z</time>
      </trkpt>
      <trkpt lat="45.49569" lon="4.67879">
        <ele>520.79998779297</ele>
        <time>2019-03-06T09:19:17.000Z</time>
      </trkpt>
      <trkpt lat="45.49561" lon="4.67868">
        <ele>522.20001220703</ele>
        <time>2019-03-06T09:19:28.000Z</time>
      </trkpt>
      <trkpt lat="45.49559" lon="4.67867">
        <ele>522.59997558594</ele>
        <time>2019-03-06T09:19:30.000Z</time>
      </trkpt>
      <trkpt lat="45.49558" lon="4.67865">
        <ele>522.79998779297</ele>
        <time>2019-03-06T09:19:31.000Z</time>
      </trkpt>
      <trkpt lat="45.49554" lon="4.67863">
        <ele>523.59997558594</ele>
        <time>2019-03-06T09:19:35.000Z</time>
      </trkpt>
      <trkpt lat="45.4955" lon="4.67858">
        <ele>524.20001220703</ele>
        <time>2019-03-06T09:19:42.000Z</time>
      </trkpt>
      <trkpt lat="45.49541" lon="4.67852">
        <ele>526.59997558594</ele>
        <time>2019-03-06T09:19:54.000Z</time>
      </trkpt>
      <trkpt lat="45.49536" lon="4.67846">
        <ele>527.79998779297</ele>
        <time>2019-03-06T09:20:01.000Z</time>
      </trkpt>
      <trkpt lat="45.49533" lon="4.67843">
        <ele>528.59997558594</ele>
        <time>2019-03-06T09:20:05.000Z</time>
      </trkpt>
      <trkpt lat="45.49532" lon="4.67842">
        <ele>528.79998779297</ele>
        <time>2019-03-06T09:20:06.000Z</time>
      </trkpt>
      <trkpt lat="45.49531" lon="4.67841">
        <ele>529</ele>
        <time>2019-03-06T09:20:07.000Z</time>
      </trkpt>
      <trkpt lat="45.49527" lon="4.67838">
        <ele>530</ele>
        <time>2019-03-06T09:20:11.000Z</time>
      </trkpt>
      <trkpt lat="45.4952" lon="4.67829">
        <ele>531.59997558594</ele>
        <time>2019-03-06T09:20:21.000Z</time>
      </trkpt>
      <trkpt lat="45.49509" lon="4.67824">
        <ele>534.59997558594</ele>
        <time>2019-03-06T09:20:32.000Z</time>
      </trkpt>
      <trkpt lat="45.49503" lon="4.67821">
        <ele>536.20001220703</ele>
        <time>2019-03-06T09:20:38.000Z</time>
      </trkpt>
      <trkpt lat="45.49502" lon="4.6782">
        <ele>536.40002441406</ele>
        <time>2019-03-06T09:20:39.000Z</time>
      </trkpt>
      <trkpt lat="45.49496" lon="4.67816">
        <ele>538</ele>
        <time>2019-03-06T09:20:47.000Z</time>
      </trkpt>
      <trkpt lat="45.4949" lon="4.6781">
        <ele>539.40002441406</ele>
        <time>2019-03-06T09:20:54.000Z</time>
      </trkpt>
      <trkpt lat="45.49484" lon="4.67798">
        <ele>540.59997558594</ele>
        <time>2019-03-06T09:21:05.000Z</time>
      </trkpt>
      <trkpt lat="45.4948" lon="4.67786">
        <ele>541</ele>
        <time>2019-03-06T09:21:15.000Z</time>
      </trkpt>
      <trkpt lat="45.49478" lon="4.67779">
        <ele>541</ele>
        <time>2019-03-06T09:21:21.000Z</time>
      </trkpt>
      <trkpt lat="45.49473" lon="4.67766">
        <ele>541.20001220703</ele>
        <time>2019-03-06T09:21:32.000Z</time>
      </trkpt>
      <trkpt lat="45.49466" lon="4.67756">
        <ele>542.40002441406</ele>
        <time>2019-03-06T09:21:42.000Z</time>
      </trkpt>
      <trkpt lat="45.49461" lon="4.67747">
        <ele>542.79998779297</ele>
        <time>2019-03-06T09:21:52.000Z</time>
      </trkpt>
      <trkpt lat="45.49458" lon="4.67741">
        <ele>543.40002441406</ele>
        <time>2019-03-06T09:21:57.000Z</time>
      </trkpt>
      <trkpt lat="45.49451" lon="4.67732">
        <ele>544.59997558594</ele>
        <time>2019-03-06T09:22:06.000Z</time>
      </trkpt>
      <trkpt lat="45.49444" lon="4.67721">
        <ele>545.79998779297</ele>
        <time>2019-03-06T09:22:19.000Z</time>
      </trkpt>
      <trkpt lat="45.49442" lon="4.67719">
        <ele>546.20001220703</ele>
        <time>2019-03-06T09:22:33.000Z</time>
      </trkpt>
      <trkpt lat="45.49442" lon="4.67719">
        <ele>546.20001220703</ele>
        <time>2019-03-06T09:22:48.000Z</time>
      </trkpt>
      <trkpt lat="45.49442" lon="4.67719">
        <ele>546.40002441406</ele>
        <time>2019-03-06T09:22:52.000Z</time>
      </trkpt>
      <trkpt lat="45.49441" lon="4.67717">
        <ele>546.40002441406</ele>
        <time>2019-03-06T09:23:06.000Z</time>
      </trkpt>
      <trkpt lat="45.49441" lon="4.67717">
        <ele>546.40002441406</ele>
        <time>2019-03-06T09:23:10.000Z</time>
      </trkpt>
      <trkpt lat="45.49442" lon="4.67717">
        <ele>546</ele>
        <time>2019-03-06T09:23:28.000Z</time>
      </trkpt>
      <trkpt lat="45.49444" lon="4.67715">
        <ele>545.20001220703</ele>
        <time>2019-03-06T09:23:45.000Z</time>
      </trkpt>
      <trkpt lat="45.49437" lon="4.6771">
        <ele>546.79998779297</ele>
        <time>2019-03-06T09:23:57.000Z</time>
      </trkpt>
      <trkpt lat="45.49432" lon="4.67704">
        <ele>547.79998779297</ele>
        <time>2019-03-06T09:24:06.000Z</time>
      </trkpt>
      <trkpt lat="45.49425" lon="4.67691">
        <ele>548.59997558594</ele>
        <time>2019-03-06T09:24:18.000Z</time>
      </trkpt>
      <trkpt lat="45.49423" lon="4.67687">
        <ele>548.79998779297</ele>
        <time>2019-03-06T09:24:22.000Z</time>
      </trkpt>
      <trkpt lat="45.49416" lon="4.67679">
        <ele>550.20001220703</ele>
        <time>2019-03-06T09:24:33.000Z</time>
      </trkpt>
      <trkpt lat="45.49411" lon="4.67671">
        <ele>550.79998779297</ele>
        <time>2019-03-06T09:24:42.000Z</time>
      </trkpt>
      <trkpt lat="45.49404" lon="4.67661">
        <ele>552</ele>
        <time>2019-03-06T09:24:53.000Z</time>
      </trkpt>
      <trkpt lat="45.49397" lon="4.67653">
        <ele>553.20001220703</ele>
        <time>2019-03-06T09:25:03.000Z</time>
      </trkpt>
      <trkpt lat="45.49389" lon="4.67644">
        <ele>554.79998779297</ele>
        <time>2019-03-06T09:25:12.000Z</time>
      </trkpt>
      <trkpt lat="45.49383" lon="4.67635">
        <ele>556</ele>
        <time>2019-03-06T09:25:21.000Z</time>
      </trkpt>
      <trkpt lat="45.49375" lon="4.67625">
        <ele>558.20001220703</ele>
        <time>2019-03-06T09:25:31.000Z</time>
      </trkpt>
      <trkpt lat="45.49368" lon="4.67615">
        <ele>560.59997558594</ele>
        <time>2019-03-06T09:25:41.000Z</time>
      </trkpt>
      <trkpt lat="45.49366" lon="4.67613">
        <ele>561.40002441406</ele>
        <time>2019-03-06T09:25:43.000Z</time>
      </trkpt>
      <trkpt lat="45.49365" lon="4.67612">
        <ele>561.79998779297</ele>
        <time>2019-03-06T09:25:44.000Z</time>
      </trkpt>
      <trkpt lat="45.49357" lon="4.67603">
        <ele>565</ele>
        <time>2019-03-06T09:25:52.000Z</time>
      </trkpt>
      <trkpt lat="45.49354" lon="4.67594">
        <ele>566.40002441406</ele>
        <time>2019-03-06T09:25:59.000Z</time>
      </trkpt>
      <trkpt lat="45.49354" lon="4.67578">
        <ele>567.40002441406</ele>
        <time>2019-03-06T09:26:10.000Z</time>
      </trkpt>
      <trkpt lat="45.49356" lon="4.67562">
        <ele>568.40002441406</ele>
        <time>2019-03-06T09:26:19.000Z</time>
      </trkpt>
      <trkpt lat="45.49358" lon="4.67554">
        <ele>568.59997558594</ele>
        <time>2019-03-06T09:26:24.000Z</time>
      </trkpt>
      <trkpt lat="45.49365" lon="4.67543">
        <ele>567.20001220703</ele>
        <time>2019-03-06T09:26:34.000Z</time>
      </trkpt>
      <trkpt lat="45.49371" lon="4.67531">
        <ele>566.20001220703</ele>
        <time>2019-03-06T09:26:44.000Z</time>
      </trkpt>
      <trkpt lat="45.49374" lon="4.67515">
        <ele>566</ele>
        <time>2019-03-06T09:26:54.000Z</time>
      </trkpt>
      <trkpt lat="45.49383" lon="4.67496">
        <ele>564.59997558594</ele>
        <time>2019-03-06T09:27:06.000Z</time>
      </trkpt>
      <trkpt lat="45.49389" lon="4.67485">
        <ele>563.40002441406</ele>
        <time>2019-03-06T09:27:14.000Z</time>
      </trkpt>
      <trkpt lat="45.49399" lon="4.67473">
        <ele>561.40002441406</ele>
        <time>2019-03-06T09:27:25.000Z</time>
      </trkpt>
      <trkpt lat="45.49403" lon="4.67471">
        <ele>560.79998779297</ele>
        <time>2019-03-06T09:27:28.000Z</time>
      </trkpt>
      <trkpt lat="45.49404" lon="4.6747">
        <ele>560.59997558594</ele>
        <time>2019-03-06T09:27:29.000Z</time>
      </trkpt>
      <trkpt lat="45.49414" lon="4.67463">
        <ele>558.20001220703</ele>
        <time>2019-03-06T09:27:38.000Z</time>
      </trkpt>
      <trkpt lat="45.49423" lon="4.67458">
        <ele>556.20001220703</ele>
        <time>2019-03-06T09:27:46.000Z</time>
      </trkpt>
      <trkpt lat="45.49431" lon="4.67452">
        <ele>554.59997558594</ele>
        <time>2019-03-06T09:27:54.000Z</time>
      </trkpt>
      <trkpt lat="45.49436" lon="4.67443">
        <ele>553.20001220703</ele>
        <time>2019-03-06T09:28:02.000Z</time>
      </trkpt>
      <trkpt lat="45.4944" lon="4.67436">
        <ele>552.40002441406</ele>
        <time>2019-03-06T09:28:08.000Z</time>
      </trkpt>
      <trkpt lat="45.49444" lon="4.67425">
        <ele>551.40002441406</ele>
        <time>2019-03-06T09:28:16.000Z</time>
      </trkpt>
      <trkpt lat="45.49446" lon="4.6741">
        <ele>550.79998779297</ele>
        <time>2019-03-06T09:28:25.000Z</time>
      </trkpt>
      <trkpt lat="45.49446" lon="4.67397">
        <ele>550.59997558594</ele>
        <time>2019-03-06T09:28:33.000Z</time>
      </trkpt>
      <trkpt lat="45.49446" lon="4.6738">
        <ele>550.20001220703</ele>
        <time>2019-03-06T09:28:43.000Z</time>
      </trkpt>
      <trkpt lat="45.49448" lon="4.67362">
        <ele>548.79998779297</ele>
        <time>2019-03-06T09:28:53.000Z</time>
      </trkpt>
      <trkpt lat="45.49448" lon="4.67346">
        <ele>547.79998779297</ele>
        <time>2019-03-06T09:29:03.000Z</time>
      </trkpt>
      <trkpt lat="45.49448" lon="4.67331">
        <ele>546.79998779297</ele>
        <time>2019-03-06T09:29:12.000Z</time>
      </trkpt>
      <trkpt lat="45.4945" lon="4.67313">
        <ele>545.20001220703</ele>
        <time>2019-03-06T09:29:22.000Z</time>
      </trkpt>
      <trkpt lat="45.49451" lon="4.67306">
        <ele>544.59997558594</ele>
        <time>2019-03-06T09:29:26.000Z</time>
      </trkpt>
      <trkpt lat="45.49452" lon="4.67293">
        <ele>543.40002441406</ele>
        <time>2019-03-06T09:29:34.000Z</time>
      </trkpt>
      <trkpt lat="45.49452" lon="4.67283">
        <ele>542.59997558594</ele>
        <time>2019-03-06T09:29:40.000Z</time>
      </trkpt>
      <trkpt lat="45.49451" lon="4.6728">
        <ele>542.40002441406</ele>
        <time>2019-03-06T09:29:41.000Z</time>
      </trkpt>
      <trkpt lat="45.4945" lon="4.67263">
        <ele>540.59997558594</ele>
        <time>2019-03-06T09:29:50.000Z</time>
      </trkpt>
      <trkpt lat="45.49447" lon="4.67247">
        <ele>539.40002441406</ele>
        <time>2019-03-06T09:29:59.000Z</time>
      </trkpt>
      <trkpt lat="45.49443" lon="4.67228">
        <ele>538.40002441406</ele>
        <time>2019-03-06T09:30:09.000Z</time>
      </trkpt>
      <trkpt lat="45.49437" lon="4.67208">
        <ele>537.59997558594</ele>
        <time>2019-03-06T09:30:22.000Z</time>
      </trkpt>
      <trkpt lat="45.49431" lon="4.67192">
        <ele>536.59997558594</ele>
        <time>2019-03-06T09:30:33.000Z</time>
      </trkpt>
      <trkpt lat="45.49425" lon="4.67179">
        <ele>535.79998779297</ele>
        <time>2019-03-06T09:30:43.000Z</time>
      </trkpt>
      <trkpt lat="45.49423" lon="4.67174">
        <ele>535.40002441406</ele>
        <time>2019-03-06T09:30:47.000Z</time>
      </trkpt>
      <trkpt lat="45.49422" lon="4.67171">
        <ele>535</ele>
        <time>2019-03-06T09:30:49.000Z</time>
      </trkpt>
      <trkpt lat="45.49418" lon="4.67157">
        <ele>533.40002441406</ele>
        <time>2019-03-06T09:30:59.000Z</time>
      </trkpt>
      <trkpt lat="45.49415" lon="4.67145">
        <ele>532.40002441406</ele>
        <time>2019-03-06T09:31:08.000Z</time>
      </trkpt>
      <trkpt lat="45.49408" lon="4.67131">
        <ele>531.20001220703</ele>
        <time>2019-03-06T09:31:18.000Z</time>
      </trkpt>
      <trkpt lat="45.49402" lon="4.67115">
        <ele>530.20001220703</ele>
        <time>2019-03-06T09:31:27.000Z</time>
      </trkpt>
      <trkpt lat="45.49394" lon="4.67099">
        <ele>528.59997558594</ele>
        <time>2019-03-06T09:31:38.000Z</time>
      </trkpt>
      <trkpt lat="45.49385" lon="4.67086">
        <ele>528.59997558594</ele>
        <time>2019-03-06T09:31:48.000Z</time>
      </trkpt>
      <trkpt lat="45.49383" lon="4.67082">
        <ele>528.20001220703</ele>
        <time>2019-03-06T09:31:51.000Z</time>
      </trkpt>
      <trkpt lat="45.49382" lon="4.67079">
        <ele>527.79998779297</ele>
        <time>2019-03-06T09:31:53.000Z</time>
      </trkpt>
      <trkpt lat="45.49372" lon="4.67067">
        <ele>527.59997558594</ele>
        <time>2019-03-06T09:32:05.000Z</time>
      </trkpt>
      <trkpt lat="45.49372" lon="4.67066">
        <ele>527.59997558594</ele>
        <time>2019-03-06T09:32:18.000Z</time>
      </trkpt>
      <trkpt lat="45.4937" lon="4.67064">
        <ele>527.59997558594</ele>
        <time>2019-03-06T09:32:29.000Z</time>
      </trkpt>
      <trkpt lat="45.49369" lon="4.67061">
        <ele>527.40002441406</ele>
        <time>2019-03-06T09:32:31.000Z</time>
      </trkpt>
      <trkpt lat="45.49368" lon="4.6706">
        <ele>527.20001220703</ele>
        <time>2019-03-06T09:32:32.000Z</time>
      </trkpt>
      <trkpt lat="45.49357" lon="4.67046">
        <ele>526.59997558594</ele>
        <time>2019-03-06T09:32:45.000Z</time>
      </trkpt>
      <trkpt lat="45.49344" lon="4.67033">
        <ele>527.40002441406</ele>
        <time>2019-03-06T09:32:58.000Z</time>
      </trkpt>
      <trkpt lat="45.49336" lon="4.67018">
        <ele>528.59997558594</ele>
        <time>2019-03-06T09:33:09.000Z</time>
      </trkpt>
      <trkpt lat="45.49327" lon="4.66995">
        <ele>529.59997558594</ele>
        <time>2019-03-06T09:33:24.000Z</time>
      </trkpt>
      <trkpt lat="45.4932" lon="4.66975">
        <ele>530.40002441406</ele>
        <time>2019-03-06T09:33:37.000Z</time>
      </trkpt>
      <trkpt lat="45.49317" lon="4.66958">
        <ele>529.40002441406</ele>
        <time>2019-03-06T09:33:47.000Z</time>
      </trkpt>
      <trkpt lat="45.49315" lon="4.66941">
        <ele>529</ele>
        <time>2019-03-06T09:33:56.000Z</time>
      </trkpt>
      <trkpt lat="45.49315" lon="4.66919">
        <ele>528.59997558594</ele>
        <time>2019-03-06T09:34:07.000Z</time>
      </trkpt>
      <trkpt lat="45.49316" lon="4.66903">
        <ele>528</ele>
        <time>2019-03-06T09:34:16.000Z</time>
      </trkpt>
      <trkpt lat="45.49317" lon="4.66889">
        <ele>527</ele>
        <time>2019-03-06T09:34:25.000Z</time>
      </trkpt>
      <trkpt lat="45.49319" lon="4.66877">
        <ele>527.20001220703</ele>
        <time>2019-03-06T09:34:32.000Z</time>
      </trkpt>
      <trkpt lat="45.49319" lon="4.66864">
        <ele>527</ele>
        <time>2019-03-06T09:34:40.000Z</time>
      </trkpt>
      <trkpt lat="45.49319" lon="4.6686">
        <ele>526.79998779297</ele>
        <time>2019-03-06T09:34:42.000Z</time>
      </trkpt>
      <trkpt lat="45.4932" lon="4.66849">
        <ele>525.79998779297</ele>
        <time>2019-03-06T09:34:49.000Z</time>
      </trkpt>
      <trkpt lat="45.49316" lon="4.66826">
        <ele>524.79998779297</ele>
        <time>2019-03-06T09:35:01.000Z</time>
      </trkpt>
      <trkpt lat="45.49315" lon="4.66816">
        <ele>524.59997558594</ele>
        <time>2019-03-06T09:35:07.000Z</time>
      </trkpt>
      <trkpt lat="45.49314" lon="4.66814">
        <ele>524.59997558594</ele>
        <time>2019-03-06T09:35:08.000Z</time>
      </trkpt>
      <trkpt lat="45.49309" lon="4.66799">
        <ele>524.79998779297</ele>
        <time>2019-03-06T09:35:17.000Z</time>
      </trkpt>
      <trkpt lat="45.49303" lon="4.66784">
        <ele>525.20001220703</ele>
        <time>2019-03-06T09:35:26.000Z</time>
      </trkpt>
      <trkpt lat="45.49297" lon="4.66767">
        <ele>525.40002441406</ele>
        <time>2019-03-06T09:35:37.000Z</time>
      </trkpt>
      <trkpt lat="45.49291" lon="4.66746">
        <ele>525</ele>
        <time>2019-03-06T09:35:51.000Z</time>
      </trkpt>
      <trkpt lat="45.49289" lon="4.66737">
        <ele>524.59997558594</ele>
        <time>2019-03-06T09:35:59.000Z</time>
      </trkpt>
      <trkpt lat="45.49288" lon="4.66734">
        <ele>524.59997558594</ele>
        <time>2019-03-06T09:36:02.000Z</time>
      </trkpt>
      <trkpt lat="45.49287" lon="4.66729">
        <ele>524.59997558594</ele>
        <time>2019-03-06T09:36:05.000Z</time>
      </trkpt>
      <trkpt lat="45.49286" lon="4.66728">
        <ele>524.59997558594</ele>
        <time>2019-03-06T09:36:06.000Z</time>
      </trkpt>
      <trkpt lat="45.49286" lon="4.66726">
        <ele>524.59997558594</ele>
        <time>2019-03-06T09:36:07.000Z</time>
      </trkpt>
      <trkpt lat="45.49286" lon="4.66725">
        <ele>524.59997558594</ele>
        <time>2019-03-06T09:36:08.000Z</time>
      </trkpt>
      <trkpt lat="45.49285" lon="4.66723">
        <ele>524.40002441406</ele>
        <time>2019-03-06T09:36:09.000Z</time>
      </trkpt>
      <trkpt lat="45.49285" lon="4.66721">
        <ele>524.40002441406</ele>
        <time>2019-03-06T09:36:10.000Z</time>
      </trkpt>
      <trkpt lat="45.49284" lon="4.66719">
        <ele>524.40002441406</ele>
        <time>2019-03-06T09:36:11.000Z</time>
      </trkpt>
      <trkpt lat="45.49279" lon="4.66702">
        <ele>524.20001220703</ele>
        <time>2019-03-06T09:36:22.000Z</time>
      </trkpt>
      <trkpt lat="45.49276" lon="4.66692">
        <ele>524</ele>
        <time>2019-03-06T09:36:28.000Z</time>
      </trkpt>
      <trkpt lat="45.49274" lon="4.66682">
        <ele>523.79998779297</ele>
        <time>2019-03-06T09:36:34.000Z</time>
      </trkpt>
      <trkpt lat="45.49274" lon="4.66681">
        <ele>523.79998779297</ele>
        <time>2019-03-06T09:36:35.000Z</time>
      </trkpt>
      <trkpt lat="45.49268" lon="4.66654">
        <ele>523.59997558594</ele>
        <time>2019-03-06T09:36:50.000Z</time>
      </trkpt>
      <trkpt lat="45.49263" lon="4.66634">
        <ele>523.79998779297</ele>
        <time>2019-03-06T09:37:02.000Z</time>
      </trkpt>
      <trkpt lat="45.49261" lon="4.66629">
        <ele>523.79998779297</ele>
        <time>2019-03-06T09:37:05.000Z</time>
      </trkpt>
      <trkpt lat="45.49256" lon="4.66603">
        <ele>523.59997558594</ele>
        <time>2019-03-06T09:37:19.000Z</time>
      </trkpt>
      <trkpt lat="45.49253" lon="4.66587">
        <ele>523.20001220703</ele>
        <time>2019-03-06T09:37:28.000Z</time>
      </trkpt>
      <trkpt lat="45.49251" lon="4.66582">
        <ele>523.40002441406</ele>
        <time>2019-03-06T09:37:31.000Z</time>
      </trkpt>
      <trkpt lat="45.4925" lon="4.66572">
        <ele>523</ele>
        <time>2019-03-06T09:37:36.000Z</time>
      </trkpt>
      <trkpt lat="45.49248" lon="4.66558">
        <ele>523.40002441406</ele>
        <time>2019-03-06T09:37:45.000Z</time>
      </trkpt>
      <trkpt lat="45.49248" lon="4.66557">
        <ele>523.59997558594</ele>
        <time>2019-03-06T09:37:46.000Z</time>
      </trkpt>
      <trkpt lat="45.49247" lon="4.66555">
        <ele>523.59997558594</ele>
        <time>2019-03-06T09:37:47.000Z</time>
      </trkpt>
      <trkpt lat="45.49246" lon="4.66553">
        <ele>523.79998779297</ele>
        <time>2019-03-06T09:37:48.000Z</time>
      </trkpt>
      <trkpt lat="45.49246" lon="4.66551">
        <ele>523.79998779297</ele>
        <time>2019-03-06T09:37:49.000Z</time>
      </trkpt>
      <trkpt lat="45.49245" lon="4.66549">
        <ele>524</ele>
        <time>2019-03-06T09:37:50.000Z</time>
      </trkpt>
      <trkpt lat="45.49245" lon="4.66533">
        <ele>524.20001220703</ele>
        <time>2019-03-06T09:37:59.000Z</time>
      </trkpt>
      <trkpt lat="45.49245" lon="4.66531">
        <ele>524.20001220703</ele>
        <time>2019-03-06T09:38:00.000Z</time>
      </trkpt>
      <trkpt lat="45.49246" lon="4.66528">
        <ele>524</ele>
        <time>2019-03-06T09:38:02.000Z</time>
      </trkpt>
      <trkpt lat="45.49246" lon="4.66526">
        <ele>524</ele>
        <time>2019-03-06T09:38:03.000Z</time>
      </trkpt>
      <trkpt lat="45.49246" lon="4.66524">
        <ele>524</ele>
        <time>2019-03-06T09:38:04.000Z</time>
      </trkpt>
      <trkpt lat="45.49248" lon="4.66506">
        <ele>523.59997558594</ele>
        <time>2019-03-06T09:38:14.000Z</time>
      </trkpt>
      <trkpt lat="45.49248" lon="4.66504">
        <ele>523.59997558594</ele>
        <time>2019-03-06T09:38:15.000Z</time>
      </trkpt>
      <trkpt lat="45.49248" lon="4.66485">
        <ele>523.40002441406</ele>
        <time>2019-03-06T09:38:25.000Z</time>
      </trkpt>
      <trkpt lat="45.4925" lon="4.66465">
        <ele>524.40002441406</ele>
        <time>2019-03-06T09:38:36.000Z</time>
      </trkpt>
      <trkpt lat="45.49252" lon="4.6645">
        <ele>525.20001220703</ele>
        <time>2019-03-06T09:38:44.000Z</time>
      </trkpt>
      <trkpt lat="45.49254" lon="4.66443">
        <ele>525</ele>
        <time>2019-03-06T09:38:49.000Z</time>
      </trkpt>
      <trkpt lat="45.49255" lon="4.66442">
        <ele>525</ele>
        <time>2019-03-06T09:38:50.000Z</time>
      </trkpt>
      <trkpt lat="45.49255" lon="4.6644">
        <ele>525</ele>
        <time>2019-03-06T09:38:51.000Z</time>
      </trkpt>
      <trkpt lat="45.49255" lon="4.66434">
        <ele>525</ele>
        <time>2019-03-06T09:38:55.000Z</time>
      </trkpt>
      <trkpt lat="45.49255" lon="4.66432">
        <ele>525</ele>
        <time>2019-03-06T09:38:56.000Z</time>
      </trkpt>
      <trkpt lat="45.49255" lon="4.6643">
        <ele>525</ele>
        <time>2019-03-06T09:38:57.000Z</time>
      </trkpt>
      <trkpt lat="45.49255" lon="4.66429">
        <ele>525</ele>
        <time>2019-03-06T09:38:58.000Z</time>
      </trkpt>
      <trkpt lat="45.49254" lon="4.66427">
        <ele>525</ele>
        <time>2019-03-06T09:38:59.000Z</time>
      </trkpt>
      <trkpt lat="45.49254" lon="4.66425">
        <ele>525.20001220703</ele>
        <time>2019-03-06T09:39:00.000Z</time>
      </trkpt>
      <trkpt lat="45.49253" lon="4.66424">
        <ele>525.20001220703</ele>
        <time>2019-03-06T09:39:01.000Z</time>
      </trkpt>
      <trkpt lat="45.49252" lon="4.66422">
        <ele>525.20001220703</ele>
        <time>2019-03-06T09:39:02.000Z</time>
      </trkpt>
      <trkpt lat="45.49251" lon="4.66421">
        <ele>525.20001220703</ele>
        <time>2019-03-06T09:39:03.000Z</time>
      </trkpt>
      <trkpt lat="45.4925" lon="4.6642">
        <ele>525.20001220703</ele>
        <time>2019-03-06T09:39:04.000Z</time>
      </trkpt>
      <trkpt lat="45.49249" lon="4.66419">
        <ele>525.20001220703</ele>
        <time>2019-03-06T09:39:05.000Z</time>
      </trkpt>
      <trkpt lat="45.49238" lon="4.66413">
        <ele>525.40002441406</ele>
        <time>2019-03-06T09:39:15.000Z</time>
      </trkpt>
      <trkpt lat="45.49227" lon="4.66408">
        <ele>525.79998779297</ele>
        <time>2019-03-06T09:39:24.000Z</time>
      </trkpt>
      <trkpt lat="45.49215" lon="4.66405">
        <ele>526</ele>
        <time>2019-03-06T09:39:34.000Z</time>
      </trkpt>
      <trkpt lat="45.49199" lon="4.66401">
        <ele>525.20001220703</ele>
        <time>2019-03-06T09:39:46.000Z</time>
      </trkpt>
      <trkpt lat="45.49186" lon="4.66397">
        <ele>524.59997558594</ele>
        <time>2019-03-06T09:39:57.000Z</time>
      </trkpt>
      <trkpt lat="45.49177" lon="4.66393">
        <ele>524.20001220703</ele>
        <time>2019-03-06T09:40:05.000Z</time>
      </trkpt>
      <trkpt lat="45.49166" lon="4.6639">
        <ele>523.59997558594</ele>
        <time>2019-03-06T09:40:14.000Z</time>
      </trkpt>
      <trkpt lat="45.49151" lon="4.66386">
        <ele>522.79998779297</ele>
        <time>2019-03-06T09:40:26.000Z</time>
      </trkpt>
      <trkpt lat="45.49134" lon="4.66382">
        <ele>523</ele>
        <time>2019-03-06T09:40:39.000Z</time>
      </trkpt>
      <trkpt lat="45.49131" lon="4.6638">
        <ele>522.79998779297</ele>
        <time>2019-03-06T09:40:42.000Z</time>
      </trkpt>
      <trkpt lat="45.49121" lon="4.66377">
        <ele>522.20001220703</ele>
        <time>2019-03-06T09:40:50.000Z</time>
      </trkpt>
      <trkpt lat="45.49107" lon="4.66373">
        <ele>521.59997558594</ele>
        <time>2019-03-06T09:41:01.000Z</time>
      </trkpt>
      <trkpt lat="45.49102" lon="4.66372">
        <ele>521.40002441406</ele>
        <time>2019-03-06T09:41:05.000Z</time>
      </trkpt>
      <trkpt lat="45.49084" lon="4.66368">
        <ele>520.79998779297</ele>
        <time>2019-03-06T09:41:19.000Z</time>
      </trkpt>
      <trkpt lat="45.49071" lon="4.66364">
        <ele>520.40002441406</ele>
        <time>2019-03-06T09:41:30.000Z</time>
      </trkpt>
      <trkpt lat="45.49068" lon="4.66363">
        <ele>520.40002441406</ele>
        <time>2019-03-06T09:41:36.000Z</time>
      </trkpt>
      <trkpt lat="45.49067" lon="4.66362">
        <ele>520.40002441406</ele>
        <time>2019-03-06T09:41:37.000Z</time>
      </trkpt>
      <trkpt lat="45.49066" lon="4.66362">
        <ele>520.40002441406</ele>
        <time>2019-03-06T09:41:38.000Z</time>
      </trkpt>
      <trkpt lat="45.49065" lon="4.66361">
        <ele>520.20001220703</ele>
        <time>2019-03-06T09:41:39.000Z</time>
      </trkpt>
      <trkpt lat="45.49064" lon="4.66361">
        <ele>520.20001220703</ele>
        <time>2019-03-06T09:41:40.000Z</time>
      </trkpt>
      <trkpt lat="45.49064" lon="4.6636">
        <ele>520.20001220703</ele>
        <time>2019-03-06T09:41:41.000Z</time>
      </trkpt>
      <trkpt lat="45.4906" lon="4.66355">
        <ele>520</ele>
        <time>2019-03-06T09:41:46.000Z</time>
      </trkpt>
      <trkpt lat="45.49055" lon="4.6635">
        <ele>519.79998779297</ele>
        <time>2019-03-06T09:41:52.000Z</time>
      </trkpt>
      <trkpt lat="45.49053" lon="4.66348">
        <ele>519.79998779297</ele>
        <time>2019-03-06T09:41:54.000Z</time>
      </trkpt>
      <trkpt lat="45.49052" lon="4.66347">
        <ele>519.79998779297</ele>
        <time>2019-03-06T09:41:55.000Z</time>
      </trkpt>
      <trkpt lat="45.49047" lon="4.66341">
        <ele>519.40002441406</ele>
        <time>2019-03-06T09:42:01.000Z</time>
      </trkpt>
      <trkpt lat="45.4904" lon="4.66332">
        <ele>518.59997558594</ele>
        <time>2019-03-06T09:42:09.000Z</time>
      </trkpt>
      <trkpt lat="45.4903" lon="4.66322">
        <ele>517.40002441406</ele>
        <time>2019-03-06T09:42:20.000Z</time>
      </trkpt>
      <trkpt lat="45.4902" lon="4.66316">
        <ele>516.20001220703</ele>
        <time>2019-03-06T09:42:30.000Z</time>
      </trkpt>
      <trkpt lat="45.49007" lon="4.6631">
        <ele>514.59997558594</ele>
        <time>2019-03-06T09:42:41.000Z</time>
      </trkpt>
      <trkpt lat="45.48996" lon="4.66305">
        <ele>513.40002441406</ele>
        <time>2019-03-06T09:42:49.000Z</time>
      </trkpt>
      <trkpt lat="45.48992" lon="4.66302">
        <ele>512.79998779297</ele>
        <time>2019-03-06T09:42:53.000Z</time>
      </trkpt>
      <trkpt lat="45.48979" lon="4.663">
        <ele>511.60000610352</ele>
        <time>2019-03-06T09:43:03.000Z</time>
      </trkpt>
      <trkpt lat="45.48967" lon="4.663">
        <ele>510.79998779297</ele>
        <time>2019-03-06T09:43:13.000Z</time>
      </trkpt>
      <trkpt lat="45.48952" lon="4.66302">
        <ele>510.20001220703</ele>
        <time>2019-03-06T09:43:24.000Z</time>
      </trkpt>
      <trkpt lat="45.4894" lon="4.66302">
        <ele>509.39999389648</ele>
        <time>2019-03-06T09:43:34.000Z</time>
      </trkpt>
      <trkpt lat="45.48932" lon="4.66303">
        <ele>509</ele>
        <time>2019-03-06T09:43:39.000Z</time>
      </trkpt>
      <trkpt lat="45.48931" lon="4.66302">
        <ele>508.79998779297</ele>
        <time>2019-03-06T09:43:40.000Z</time>
      </trkpt>
      <trkpt lat="45.4893" lon="4.66302">
        <ele>508.79998779297</ele>
        <time>2019-03-06T09:43:41.000Z</time>
      </trkpt>
      <trkpt lat="45.48929" lon="4.66302">
        <ele>508.60000610352</ele>
        <time>2019-03-06T09:43:42.000Z</time>
      </trkpt>
      <trkpt lat="45.48928" lon="4.66302">
        <ele>508.60000610352</ele>
        <time>2019-03-06T09:43:43.000Z</time>
      </trkpt>
      <trkpt lat="45.48926" lon="4.66302">
        <ele>508.60000610352</ele>
        <time>2019-03-06T09:43:44.000Z</time>
      </trkpt>
      <trkpt lat="45.48925" lon="4.66302">
        <ele>508.39999389648</ele>
        <time>2019-03-06T09:43:45.000Z</time>
      </trkpt>
      <trkpt lat="45.48924" lon="4.66302">
        <ele>508.39999389648</ele>
        <time>2019-03-06T09:43:46.000Z</time>
      </trkpt>
      <trkpt lat="45.48922" lon="4.66302">
        <ele>508.20001220703</ele>
        <time>2019-03-06T09:43:47.000Z</time>
      </trkpt>
      <trkpt lat="45.48921" lon="4.66302">
        <ele>508.20001220703</ele>
        <time>2019-03-06T09:43:48.000Z</time>
      </trkpt>
      <trkpt lat="45.4892" lon="4.66302">
        <ele>508.20001220703</ele>
        <time>2019-03-06T09:43:49.000Z</time>
      </trkpt>
      <trkpt lat="45.48907" lon="4.66302">
        <ele>507.39999389648</ele>
        <time>2019-03-06T09:43:59.000Z</time>
      </trkpt>
      <trkpt lat="45.48896" lon="4.66302">
        <ele>506.79998779297</ele>
        <time>2019-03-06T09:44:08.000Z</time>
      </trkpt>
      <trkpt lat="45.48885" lon="4.66303">
        <ele>506.39999389648</ele>
        <time>2019-03-06T09:44:17.000Z</time>
      </trkpt>
      <trkpt lat="45.48876" lon="4.66303">
        <ele>505.39999389648</ele>
        <time>2019-03-06T09:44:24.000Z</time>
      </trkpt>
      <trkpt lat="45.48872" lon="4.66302">
        <ele>505</ele>
        <time>2019-03-06T09:44:28.000Z</time>
      </trkpt>
      <trkpt lat="45.4887" lon="4.66303">
        <ele>504.79998779297</ele>
        <time>2019-03-06T09:44:29.000Z</time>
      </trkpt>
      <trkpt lat="45.48869" lon="4.66303">
        <ele>504.60000610352</ele>
        <time>2019-03-06T09:44:30.000Z</time>
      </trkpt>
      <trkpt lat="45.48868" lon="4.66303">
        <ele>504.39999389648</ele>
        <time>2019-03-06T09:44:31.000Z</time>
      </trkpt>
      <trkpt lat="45.48866" lon="4.66303">
        <ele>504.39999389648</ele>
        <time>2019-03-06T09:44:32.000Z</time>
      </trkpt>
      <trkpt lat="45.48864" lon="4.66302">
        <ele>504.20001220703</ele>
        <time>2019-03-06T09:44:33.000Z</time>
      </trkpt>
      <trkpt lat="45.48863" lon="4.66303">
        <ele>504</ele>
        <time>2019-03-06T09:44:34.000Z</time>
      </trkpt>
      <trkpt lat="45.48861" lon="4.66302">
        <ele>503.79998779297</ele>
        <time>2019-03-06T09:44:35.000Z</time>
      </trkpt>
      <trkpt lat="45.4886" lon="4.66302">
        <ele>503.60000610352</ele>
        <time>2019-03-06T09:44:36.000Z</time>
      </trkpt>
      <trkpt lat="45.48859" lon="4.66302">
        <ele>503.60000610352</ele>
        <time>2019-03-06T09:44:37.000Z</time>
      </trkpt>
      <trkpt lat="45.48858" lon="4.66302">
        <ele>503.39999389648</ele>
        <time>2019-03-06T09:44:38.000Z</time>
      </trkpt>
      <trkpt lat="45.48856" lon="4.66302">
        <ele>503.20001220703</ele>
        <time>2019-03-06T09:44:39.000Z</time>
      </trkpt>
      <trkpt lat="45.48851" lon="4.66302">
        <ele>502.60000610352</ele>
        <time>2019-03-06T09:44:43.000Z</time>
      </trkpt>
      <trkpt lat="45.4885" lon="4.66301">
        <ele>502.60000610352</ele>
        <time>2019-03-06T09:44:44.000Z</time>
      </trkpt>
      <trkpt lat="45.48842" lon="4.663">
        <ele>501.60000610352</ele>
        <time>2019-03-06T09:44:51.000Z</time>
      </trkpt>
      <trkpt lat="45.4883" lon="4.66295">
        <ele>500</ele>
        <time>2019-03-06T09:45:01.000Z</time>
      </trkpt>
      <trkpt lat="45.48829" lon="4.66295">
        <ele>499.79998779297</ele>
        <time>2019-03-06T09:45:02.000Z</time>
      </trkpt>
      <trkpt lat="45.48828" lon="4.66295">
        <ele>499.60000610352</ele>
        <time>2019-03-06T09:45:03.000Z</time>
      </trkpt>
      <trkpt lat="45.48827" lon="4.66294">
        <ele>499.39999389648</ele>
        <time>2019-03-06T09:45:04.000Z</time>
      </trkpt>
      <trkpt lat="45.48826" lon="4.66293">
        <ele>499.39999389648</ele>
        <time>2019-03-06T09:45:05.000Z</time>
      </trkpt>
      <trkpt lat="45.48814" lon="4.66289">
        <ele>497.79998779297</ele>
        <time>2019-03-06T09:45:15.000Z</time>
      </trkpt>
      <trkpt lat="45.48805" lon="4.66283">
        <ele>496.79998779297</ele>
        <time>2019-03-06T09:45:24.000Z</time>
      </trkpt>
      <trkpt lat="45.48802" lon="4.66282">
        <ele>496.60000610352</ele>
        <time>2019-03-06T09:45:27.000Z</time>
      </trkpt>
      <trkpt lat="45.488" lon="4.6628">
        <ele>496.39999389648</ele>
        <time>2019-03-06T09:45:29.000Z</time>
      </trkpt>
      <trkpt lat="45.48799" lon="4.66279">
        <ele>496.39999389648</ele>
        <time>2019-03-06T09:45:30.000Z</time>
      </trkpt>
      <trkpt lat="45.48798" lon="4.66278">
        <ele>496.20001220703</ele>
        <time>2019-03-06T09:45:31.000Z</time>
      </trkpt>
      <trkpt lat="45.48797" lon="4.66277">
        <ele>495.79998779297</ele>
        <time>2019-03-06T09:45:32.000Z</time>
      </trkpt>
      <trkpt lat="45.48795" lon="4.66277">
        <ele>495.60000610352</ele>
        <time>2019-03-06T09:45:33.000Z</time>
      </trkpt>
      <trkpt lat="45.48785" lon="4.66268">
        <ele>494.20001220703</ele>
        <time>2019-03-06T09:45:41.000Z</time>
      </trkpt>
      <trkpt lat="45.48782" lon="4.66266">
        <ele>493.60000610352</ele>
        <time>2019-03-06T09:45:44.000Z</time>
      </trkpt>
      <trkpt lat="45.48773" lon="4.66259">
        <ele>492.20001220703</ele>
        <time>2019-03-06T09:45:53.000Z</time>
      </trkpt>
      <trkpt lat="45.48766" lon="4.66253">
        <ele>491.20001220703</ele>
        <time>2019-03-06T09:46:01.000Z</time>
      </trkpt>
      <trkpt lat="45.48761" lon="4.66247">
        <ele>490.39999389648</ele>
        <time>2019-03-06T09:46:08.000Z</time>
      </trkpt>
      <trkpt lat="45.48751" lon="4.66241">
        <ele>489.20001220703</ele>
        <time>2019-03-06T09:46:17.000Z</time>
      </trkpt>
      <trkpt lat="45.48744" lon="4.66231">
        <ele>488</ele>
        <time>2019-03-06T09:46:27.000Z</time>
      </trkpt>
      <trkpt lat="45.48735" lon="4.66224">
        <ele>486.79998779297</ele>
        <time>2019-03-06T09:46:38.000Z</time>
      </trkpt>
      <trkpt lat="45.4873" lon="4.66219">
        <ele>486</ele>
        <time>2019-03-06T09:46:45.000Z</time>
      </trkpt>
      <trkpt lat="45.4872" lon="4.66214">
        <ele>484.79998779297</ele>
        <time>2019-03-06T09:46:56.000Z</time>
      </trkpt>
      <trkpt lat="45.48715" lon="4.66213">
        <ele>484.20001220703</ele>
        <time>2019-03-06T09:47:05.000Z</time>
      </trkpt>
      <trkpt lat="45.4871" lon="4.66211">
        <ele>483.39999389648</ele>
        <time>2019-03-06T09:47:13.000Z</time>
      </trkpt>
      <trkpt lat="45.48705" lon="4.66211">
        <ele>482.60000610352</ele>
        <time>2019-03-06T09:47:22.000Z</time>
      </trkpt>
      <trkpt lat="45.487" lon="4.66217">
        <ele>482</ele>
        <time>2019-03-06T09:47:32.000Z</time>
      </trkpt>
      <trkpt lat="45.48696" lon="4.6622">
        <ele>481.60000610352</ele>
        <time>2019-03-06T09:47:38.000Z</time>
      </trkpt>
      <trkpt lat="45.4869" lon="4.66228">
        <ele>481</ele>
        <time>2019-03-06T09:47:47.000Z</time>
      </trkpt>
      <trkpt lat="45.48684" lon="4.66235">
        <ele>480.39999389648</ele>
        <time>2019-03-06T09:47:55.000Z</time>
      </trkpt>
      <trkpt lat="45.48676" lon="4.66242">
        <ele>479.60000610352</ele>
        <time>2019-03-06T09:48:04.000Z</time>
      </trkpt>
      <trkpt lat="45.48671" lon="4.66246">
        <ele>479.20001220703</ele>
        <time>2019-03-06T09:48:09.000Z</time>
      </trkpt>
      <trkpt lat="45.48664" lon="4.66252">
        <ele>478.79998779297</ele>
        <time>2019-03-06T09:48:17.000Z</time>
      </trkpt>
      <trkpt lat="45.48654" lon="4.66257">
        <ele>478</ele>
        <time>2019-03-06T09:48:27.000Z</time>
      </trkpt>
      <trkpt lat="45.48644" lon="4.66259">
        <ele>477.20001220703</ele>
        <time>2019-03-06T09:48:35.000Z</time>
      </trkpt>
      <trkpt lat="45.48638" lon="4.66261">
        <ele>476.60000610352</ele>
        <time>2019-03-06T09:48:43.000Z</time>
      </trkpt>
      <trkpt lat="45.48635" lon="4.66261">
        <ele>476.20001220703</ele>
        <time>2019-03-06T09:48:45.000Z</time>
      </trkpt>
      <trkpt lat="45.48629" lon="4.66258">
        <ele>476.60000610352</ele>
        <time>2019-03-06T09:48:53.000Z</time>
      </trkpt>
      <trkpt lat="45.48624" lon="4.66262">
        <ele>477.79998779297</ele>
        <time>2019-03-06T09:49:00.000Z</time>
      </trkpt>
      <trkpt lat="45.4861" lon="4.66263">
        <ele>480.39999389648</ele>
        <time>2019-03-06T09:49:14.000Z</time>
      </trkpt>
      <trkpt lat="45.48601" lon="4.66264">
        <ele>480.79998779297</ele>
        <time>2019-03-06T09:49:26.000Z</time>
      </trkpt>
      <trkpt lat="45.48591" lon="4.66265">
        <ele>481.20001220703</ele>
        <time>2019-03-06T09:49:37.000Z</time>
      </trkpt>
      <trkpt lat="45.48587" lon="4.66259">
        <ele>481.79998779297</ele>
        <time>2019-03-06T09:49:47.000Z</time>
      </trkpt>
      <trkpt lat="45.48592" lon="4.66251">
        <ele>482</ele>
        <time>2019-03-06T09:49:57.000Z</time>
      </trkpt>
      <trkpt lat="45.486" lon="4.66244">
        <ele>480.79998779297</ele>
        <time>2019-03-06T09:50:08.000Z</time>
      </trkpt>
      <trkpt lat="45.48608" lon="4.66239">
        <ele>478.79998779297</ele>
        <time>2019-03-06T09:50:18.000Z</time>
      </trkpt>
      <trkpt lat="45.48615" lon="4.6623">
        <ele>476.79998779297</ele>
        <time>2019-03-06T09:50:29.000Z</time>
      </trkpt>
      <trkpt lat="45.48621" lon="4.66222">
        <ele>474.79998779297</ele>
        <time>2019-03-06T09:50:39.000Z</time>
      </trkpt>
      <trkpt lat="45.48622" lon="4.6622">
        <ele>474.60000610352</ele>
        <time>2019-03-06T09:50:41.000Z</time>
      </trkpt>
      <trkpt lat="45.48623" lon="4.66208">
        <ele>473.39999389648</ele>
        <time>2019-03-06T09:50:52.000Z</time>
      </trkpt>
      <trkpt lat="45.48621" lon="4.662">
        <ele>473.20001220703</ele>
        <time>2019-03-06T09:50:59.000Z</time>
      </trkpt>
      <trkpt lat="45.48618" lon="4.66192">
        <ele>473</ele>
        <time>2019-03-06T09:51:05.000Z</time>
      </trkpt>
      <trkpt lat="45.48612" lon="4.66182">
        <ele>473.39999389648</ele>
        <time>2019-03-06T09:51:14.000Z</time>
      </trkpt>
      <trkpt lat="45.48605" lon="4.66171">
        <ele>474</ele>
        <time>2019-03-06T09:51:24.000Z</time>
      </trkpt>
      <trkpt lat="45.48598" lon="4.6616">
        <ele>474.79998779297</ele>
        <time>2019-03-06T09:51:33.000Z</time>
      </trkpt>
      <trkpt lat="45.48594" lon="4.66153">
        <ele>475.20001220703</ele>
        <time>2019-03-06T09:51:40.000Z</time>
      </trkpt>
      <trkpt lat="45.48586" lon="4.66143">
        <ele>476</ele>
        <time>2019-03-06T09:51:50.000Z</time>
      </trkpt>
      <trkpt lat="45.48578" lon="4.66129">
        <ele>477</ele>
        <time>2019-03-06T09:52:01.000Z</time>
      </trkpt>
      <trkpt lat="45.48569" lon="4.66117">
        <ele>477.79998779297</ele>
        <time>2019-03-06T09:52:10.000Z</time>
      </trkpt>
      <trkpt lat="45.48563" lon="4.66106">
        <ele>477.60000610352</ele>
        <time>2019-03-06T09:52:19.000Z</time>
      </trkpt>
      <trkpt lat="45.48556" lon="4.66096">
        <ele>477.60000610352</ele>
        <time>2019-03-06T09:52:28.000Z</time>
      </trkpt>
      <trkpt lat="45.48551" lon="4.66088">
        <ele>477.60000610352</ele>
        <time>2019-03-06T09:52:35.000Z</time>
      </trkpt>
      <trkpt lat="45.4855" lon="4.66086">
        <ele>477.60000610352</ele>
        <time>2019-03-06T09:52:36.000Z</time>
      </trkpt>
      <trkpt lat="45.48543" lon="4.66073">
        <ele>477.79998779297</ele>
        <time>2019-03-06T09:52:47.000Z</time>
      </trkpt>
      <trkpt lat="45.48535" lon="4.66059">
        <ele>478.39999389648</ele>
        <time>2019-03-06T09:52:57.000Z</time>
      </trkpt>
      <trkpt lat="45.48526" lon="4.66044">
        <ele>478.79998779297</ele>
        <time>2019-03-06T09:53:08.000Z</time>
      </trkpt>
      <trkpt lat="45.48518" lon="4.66031">
        <ele>479.20001220703</ele>
        <time>2019-03-06T09:53:18.000Z</time>
      </trkpt>
      <trkpt lat="45.48505" lon="4.66019">
        <ele>480.20001220703</ele>
        <time>2019-03-06T09:53:30.000Z</time>
      </trkpt>
      <trkpt lat="45.48494" lon="4.6601">
        <ele>481.20001220703</ele>
        <time>2019-03-06T09:53:40.000Z</time>
      </trkpt>
      <trkpt lat="45.48487" lon="4.66006">
        <ele>482.20001220703</ele>
        <time>2019-03-06T09:53:47.000Z</time>
      </trkpt>
      <trkpt lat="45.48477" lon="4.66002">
        <ele>483.39999389648</ele>
        <time>2019-03-06T09:53:56.000Z</time>
      </trkpt>
      <trkpt lat="45.48466" lon="4.65996">
        <ele>484.79998779297</ele>
        <time>2019-03-06T09:54:05.000Z</time>
      </trkpt>
      <trkpt lat="45.48466" lon="4.65995">
        <ele>484.79998779297</ele>
        <time>2019-03-06T09:54:06.000Z</time>
      </trkpt>
      <trkpt lat="45.48465" lon="4.65994">
        <ele>484.79998779297</ele>
        <time>2019-03-06T09:54:07.000Z</time>
      </trkpt>
      <trkpt lat="45.48462" lon="4.65976">
        <ele>483.60000610352</ele>
        <time>2019-03-06T09:54:17.000Z</time>
      </trkpt>
      <trkpt lat="45.48462" lon="4.65973">
        <ele>483.20001220703</ele>
        <time>2019-03-06T09:54:19.000Z</time>
      </trkpt>
      <trkpt lat="45.48461" lon="4.65972">
        <ele>483.20001220703</ele>
        <time>2019-03-06T09:54:20.000Z</time>
      </trkpt>
      <trkpt lat="45.48456" lon="4.65962">
        <ele>483.39999389648</ele>
        <time>2019-03-06T09:54:28.000Z</time>
      </trkpt>
      <trkpt lat="45.48451" lon="4.65948">
        <ele>483.20001220703</ele>
        <time>2019-03-06T09:54:39.000Z</time>
      </trkpt>
      <trkpt lat="45.48448" lon="4.65954">
        <ele>484.20001220703</ele>
        <time>2019-03-06T09:54:55.000Z</time>
      </trkpt>
      <trkpt lat="45.4845" lon="4.65956">
        <ele>484.20001220703</ele>
        <time>2019-03-06T09:55:09.000Z</time>
      </trkpt>
      <trkpt lat="45.4845" lon="4.65956">
        <ele>484.20001220703</ele>
        <time>2019-03-06T09:55:11.000Z</time>
      </trkpt>
      <trkpt lat="45.48449" lon="4.65957">
        <ele>484.60000610352</ele>
        <time>2019-03-06T09:55:22.000Z</time>
      </trkpt>
      <trkpt lat="45.48449" lon="4.65956">
        <ele>484.20001220703</ele>
        <time>2019-03-06T09:55:42.000Z</time>
      </trkpt>
      <trkpt lat="45.48447" lon="4.65957">
        <ele>485</ele>
        <time>2019-03-06T09:55:59.000Z</time>
      </trkpt>
      <trkpt lat="45.48444" lon="4.65962">
        <ele>486.20001220703</ele>
        <time>2019-03-06T09:56:15.000Z</time>
      </trkpt>
      <trkpt lat="45.4845" lon="4.65955">
        <ele>484.20001220703</ele>
        <time>2019-03-06T09:56:30.000Z</time>
      </trkpt>
      <trkpt lat="45.48457" lon="4.65953">
        <ele>482.20001220703</ele>
        <time>2019-03-06T09:56:44.000Z</time>
      </trkpt>
      <trkpt lat="45.48456" lon="4.65952">
        <ele>482.39999389648</ele>
        <time>2019-03-06T09:57:00.000Z</time>
      </trkpt>
      <trkpt lat="45.48462" lon="4.65951">
        <ele>481</ele>
        <time>2019-03-06T09:57:18.000Z</time>
      </trkpt>
      <trkpt lat="45.48463" lon="4.6595">
        <ele>480.79998779297</ele>
        <time>2019-03-06T09:57:23.000Z</time>
      </trkpt>
      <trkpt lat="45.48457" lon="4.65947">
        <ele>481.79998779297</ele>
        <time>2019-03-06T09:57:40.000Z</time>
      </trkpt>
      <trkpt lat="45.48456" lon="4.65948">
        <ele>482.20001220703</ele>
        <time>2019-03-06T09:57:45.000Z</time>
      </trkpt>
      <trkpt lat="45.48452" lon="4.65947">
        <ele>483</ele>
        <time>2019-03-06T09:58:02.000Z</time>
      </trkpt>
      <trkpt lat="45.4845" lon="4.65948">
        <ele>483.60000610352</ele>
        <time>2019-03-06T09:58:19.000Z</time>
      </trkpt>
      <trkpt lat="45.48449" lon="4.65951">
        <ele>483.79998779297</ele>
        <time>2019-03-06T09:58:33.000Z</time>
      </trkpt>
      <trkpt lat="45.48446" lon="4.65946">
        <ele>484.20001220703</ele>
        <time>2019-03-06T09:58:41.000Z</time>
      </trkpt>
      <trkpt lat="45.48444" lon="4.65939">
        <ele>484.60000610352</ele>
        <time>2019-03-06T09:58:46.000Z</time>
      </trkpt>
      <trkpt lat="45.4844" lon="4.65927">
        <ele>484.79998779297</ele>
        <time>2019-03-06T09:58:55.000Z</time>
      </trkpt>
      <trkpt lat="45.48435" lon="4.65917">
        <ele>485.20001220703</ele>
        <time>2019-03-06T09:59:05.000Z</time>
      </trkpt>
      <trkpt lat="45.48432" lon="4.65908">
        <ele>485.20001220703</ele>
        <time>2019-03-06T09:59:15.000Z</time>
      </trkpt>
      <trkpt lat="45.48432" lon="4.65908">
        <ele>485.39999389648</ele>
        <time>2019-03-06T09:59:16.000Z</time>
      </trkpt>
      <trkpt lat="45.4843" lon="4.65904">
        <ele>485.20001220703</ele>
        <time>2019-03-06T09:59:29.000Z</time>
      </trkpt>
      <trkpt lat="45.48427" lon="4.65897">
        <ele>485.60000610352</ele>
        <time>2019-03-06T09:59:42.000Z</time>
      </trkpt>
      <trkpt lat="45.48425" lon="4.65893">
        <ele>485.60000610352</ele>
        <time>2019-03-06T09:59:53.000Z</time>
      </trkpt>
      <trkpt lat="45.48426" lon="4.6589">
        <ele>485.20001220703</ele>
        <time>2019-03-06T10:00:08.000Z</time>
      </trkpt>
      <trkpt lat="45.48418" lon="4.65881">
        <ele>486.39999389648</ele>
        <time>2019-03-06T10:00:19.000Z</time>
      </trkpt>
      <trkpt lat="45.48413" lon="4.6587">
        <ele>487</ele>
        <time>2019-03-06T10:00:29.000Z</time>
      </trkpt>
      <trkpt lat="45.48409" lon="4.65852">
        <ele>487.79998779297</ele>
        <time>2019-03-06T10:00:40.000Z</time>
      </trkpt>
      <trkpt lat="45.48406" lon="4.65836">
        <ele>488.79998779297</ele>
        <time>2019-03-06T10:00:51.000Z</time>
      </trkpt>
      <trkpt lat="45.48405" lon="4.65831">
        <ele>489</ele>
        <time>2019-03-06T10:00:54.000Z</time>
      </trkpt>
      <trkpt lat="45.48407" lon="4.65817">
        <ele>488.60000610352</ele>
        <time>2019-03-06T10:01:02.000Z</time>
      </trkpt>
      <trkpt lat="45.4841" lon="4.65802">
        <ele>487.20001220703</ele>
        <time>2019-03-06T10:01:11.000Z</time>
      </trkpt>
      <trkpt lat="45.48413" lon="4.65788">
        <ele>485.39999389648</ele>
        <time>2019-03-06T10:01:21.000Z</time>
      </trkpt>
      <trkpt lat="45.48415" lon="4.65774">
        <ele>483.39999389648</ele>
        <time>2019-03-06T10:01:30.000Z</time>
      </trkpt>
      <trkpt lat="45.48415" lon="4.65761">
        <ele>481.79998779297</ele>
        <time>2019-03-06T10:01:38.000Z</time>
      </trkpt>
      <trkpt lat="45.48414" lon="4.65751">
        <ele>480.60000610352</ele>
        <time>2019-03-06T10:01:45.000Z</time>
      </trkpt>
      <trkpt lat="45.48412" lon="4.65732">
        <ele>479</ele>
        <time>2019-03-06T10:01:59.000Z</time>
      </trkpt>
      <trkpt lat="45.48411" lon="4.65723">
        <ele>479.60000610352</ele>
        <time>2019-03-06T10:02:05.000Z</time>
      </trkpt>
      <trkpt lat="45.48404" lon="4.65705">
        <ele>481.20001220703</ele>
        <time>2019-03-06T10:02:17.000Z</time>
      </trkpt>
      <trkpt lat="45.484" lon="4.65699">
        <ele>481.20001220703</ele>
        <time>2019-03-06T10:02:22.000Z</time>
      </trkpt>
      <trkpt lat="45.48391" lon="4.65685">
        <ele>480.79998779297</ele>
        <time>2019-03-06T10:02:34.000Z</time>
      </trkpt>
      <trkpt lat="45.48384" lon="4.6568">
        <ele>481</ele>
        <time>2019-03-06T10:02:40.000Z</time>
      </trkpt>
      <trkpt lat="45.48373" lon="4.65672">
        <ele>480.39999389648</ele>
        <time>2019-03-06T10:02:50.000Z</time>
      </trkpt>
      <trkpt lat="45.48363" lon="4.65665">
        <ele>479.79998779297</ele>
        <time>2019-03-06T10:02:59.000Z</time>
      </trkpt>
      <trkpt lat="45.48351" lon="4.65656">
        <ele>479.20001220703</ele>
        <time>2019-03-06T10:03:11.000Z</time>
      </trkpt>
      <trkpt lat="45.4834" lon="4.6565">
        <ele>478.79998779297</ele>
        <time>2019-03-06T10:03:21.000Z</time>
      </trkpt>
      <trkpt lat="45.48332" lon="4.65646">
        <ele>478.60000610352</ele>
        <time>2019-03-06T10:03:28.000Z</time>
      </trkpt>
      <trkpt lat="45.48328" lon="4.65645">
        <ele>478.60000610352</ele>
        <time>2019-03-06T10:03:31.000Z</time>
      </trkpt>
      <trkpt lat="45.48325" lon="4.65643">
        <ele>478.39999389648</ele>
        <time>2019-03-06T10:03:34.000Z</time>
      </trkpt>
      <trkpt lat="45.48322" lon="4.65641">
        <ele>478.39999389648</ele>
        <time>2019-03-06T10:03:37.000Z</time>
      </trkpt>
      <trkpt lat="45.48312" lon="4.65635">
        <ele>478</ele>
        <time>2019-03-06T10:03:46.000Z</time>
      </trkpt>
      <trkpt lat="45.48298" lon="4.65625">
        <ele>477.39999389648</ele>
        <time>2019-03-06T10:03:58.000Z</time>
      </trkpt>
      <trkpt lat="45.48288" lon="4.65616">
        <ele>476.60000610352</ele>
        <time>2019-03-06T10:04:08.000Z</time>
      </trkpt>
      <trkpt lat="45.48272" lon="4.65605">
        <ele>475.79998779297</ele>
        <time>2019-03-06T10:04:22.000Z</time>
      </trkpt>
      <trkpt lat="45.48258" lon="4.65597">
        <ele>475.39999389648</ele>
        <time>2019-03-06T10:04:34.000Z</time>
      </trkpt>
      <trkpt lat="45.48243" lon="4.65591">
        <ele>475.60000610352</ele>
        <time>2019-03-06T10:04:46.000Z</time>
      </trkpt>
      <trkpt lat="45.48241" lon="4.65589">
        <ele>475.39999389648</ele>
        <time>2019-03-06T10:04:48.000Z</time>
      </trkpt>
      <trkpt lat="45.48224" lon="4.65584">
        <ele>476</ele>
        <time>2019-03-06T10:05:01.000Z</time>
      </trkpt>
      <trkpt lat="45.4822" lon="4.65582">
        <ele>476.20001220703</ele>
        <time>2019-03-06T10:05:04.000Z</time>
      </trkpt>
      <trkpt lat="45.48208" lon="4.65577">
        <ele>476.39999389648</ele>
        <time>2019-03-06T10:05:14.000Z</time>
      </trkpt>
      <trkpt lat="45.48205" lon="4.65575">
        <ele>476.39999389648</ele>
        <time>2019-03-06T10:05:17.000Z</time>
      </trkpt>
      <trkpt lat="45.48204" lon="4.65574">
        <ele>476.39999389648</ele>
        <time>2019-03-06T10:05:18.000Z</time>
      </trkpt>
      <trkpt lat="45.48202" lon="4.65574">
        <ele>476.39999389648</ele>
        <time>2019-03-06T10:05:19.000Z</time>
      </trkpt>
      <trkpt lat="45.48201" lon="4.65573">
        <ele>476.39999389648</ele>
        <time>2019-03-06T10:05:20.000Z</time>
      </trkpt>
      <trkpt lat="45.482" lon="4.65573">
        <ele>476.60000610352</ele>
        <time>2019-03-06T10:05:21.000Z</time>
      </trkpt>
      <trkpt lat="45.48199" lon="4.65572">
        <ele>476.60000610352</ele>
        <time>2019-03-06T10:05:22.000Z</time>
      </trkpt>
      <trkpt lat="45.48197" lon="4.65572">
        <ele>476.60000610352</ele>
        <time>2019-03-06T10:05:23.000Z</time>
      </trkpt>
      <trkpt lat="45.48193" lon="4.65568">
        <ele>476.39999389648</ele>
        <time>2019-03-06T10:05:28.000Z</time>
      </trkpt>
      <trkpt lat="45.48192" lon="4.65567">
        <ele>476.39999389648</ele>
        <time>2019-03-06T10:05:29.000Z</time>
      </trkpt>
      <trkpt lat="45.4819" lon="4.65566">
        <ele>476.39999389648</ele>
        <time>2019-03-06T10:05:30.000Z</time>
      </trkpt>
      <trkpt lat="45.48189" lon="4.65565">
        <ele>476.20001220703</ele>
        <time>2019-03-06T10:05:31.000Z</time>
      </trkpt>
      <trkpt lat="45.48188" lon="4.65565">
        <ele>476.20001220703</ele>
        <time>2019-03-06T10:05:32.000Z</time>
      </trkpt>
      <trkpt lat="45.48187" lon="4.65564">
        <ele>476.20001220703</ele>
        <time>2019-03-06T10:05:33.000Z</time>
      </trkpt>
      <trkpt lat="45.48186" lon="4.65562">
        <ele>476</ele>
        <time>2019-03-06T10:05:34.000Z</time>
      </trkpt>
      <trkpt lat="45.48177" lon="4.65554">
        <ele>475.39999389648</ele>
        <time>2019-03-06T10:05:43.000Z</time>
      </trkpt>
      <trkpt lat="45.4817" lon="4.65546">
        <ele>474.60000610352</ele>
        <time>2019-03-06T10:05:50.000Z</time>
      </trkpt>
      <trkpt lat="45.48169" lon="4.65546">
        <ele>474.60000610352</ele>
        <time>2019-03-06T10:05:51.000Z</time>
      </trkpt>
      <trkpt lat="45.48163" lon="4.65539">
        <ele>474.20001220703</ele>
        <time>2019-03-06T10:05:57.000Z</time>
      </trkpt>
      <trkpt lat="45.4816" lon="4.65536">
        <ele>473.79998779297</ele>
        <time>2019-03-06T10:06:00.000Z</time>
      </trkpt>
      <trkpt lat="45.48152" lon="4.65525">
        <ele>472.60000610352</ele>
        <time>2019-03-06T10:06:09.000Z</time>
      </trkpt>
      <trkpt lat="45.48145" lon="4.65518">
        <ele>472.39999389648</ele>
        <time>2019-03-06T10:06:16.000Z</time>
      </trkpt>
      <trkpt lat="45.48142" lon="4.65514">
        <ele>472</ele>
        <time>2019-03-06T10:06:19.000Z</time>
      </trkpt>
      <trkpt lat="45.48132" lon="4.65504">
        <ele>471.39999389648</ele>
        <time>2019-03-06T10:06:28.000Z</time>
      </trkpt>
      <trkpt lat="45.48126" lon="4.65496">
        <ele>471.20001220703</ele>
        <time>2019-03-06T10:06:35.000Z</time>
      </trkpt>
      <trkpt lat="45.48125" lon="4.65494">
        <ele>471</ele>
        <time>2019-03-06T10:06:36.000Z</time>
      </trkpt>
      <trkpt lat="45.48125" lon="4.65493">
        <ele>471</ele>
        <time>2019-03-06T10:06:37.000Z</time>
      </trkpt>
      <trkpt lat="45.48124" lon="4.65491">
        <ele>470.79998779297</ele>
        <time>2019-03-06T10:06:38.000Z</time>
      </trkpt>
      <trkpt lat="45.48124" lon="4.6549">
        <ele>470.60000610352</ele>
        <time>2019-03-06T10:06:39.000Z</time>
      </trkpt>
      <trkpt lat="45.48123" lon="4.65488">
        <ele>470.39999389648</ele>
        <time>2019-03-06T10:06:40.000Z</time>
      </trkpt>
      <trkpt lat="45.48122" lon="4.65472">
        <ele>467.79998779297</ele>
        <time>2019-03-06T10:06:49.000Z</time>
      </trkpt>
      <trkpt lat="45.48124" lon="4.65454">
        <ele>464</ele>
        <time>2019-03-06T10:06:59.000Z</time>
      </trkpt>
      <trkpt lat="45.48122" lon="4.65433">
        <ele>461.39999389648</ele>
        <time>2019-03-06T10:07:08.000Z</time>
      </trkpt>
      <trkpt lat="45.48116" lon="4.65417">
        <ele>460</ele>
        <time>2019-03-06T10:07:17.000Z</time>
      </trkpt>
      <trkpt lat="45.48111" lon="4.65402">
        <ele>459</ele>
        <time>2019-03-06T10:07:26.000Z</time>
      </trkpt>
      <trkpt lat="45.48103" lon="4.65387">
        <ele>458.39999389648</ele>
        <time>2019-03-06T10:07:37.000Z</time>
      </trkpt>
      <trkpt lat="45.481" lon="4.65383">
        <ele>458.20001220703</ele>
        <time>2019-03-06T10:07:40.000Z</time>
      </trkpt>
      <trkpt lat="45.48099" lon="4.65381">
        <ele>458.20001220703</ele>
        <time>2019-03-06T10:07:41.000Z</time>
      </trkpt>
      <trkpt lat="45.48099" lon="4.6538">
        <ele>458.20001220703</ele>
        <time>2019-03-06T10:07:42.000Z</time>
      </trkpt>
      <trkpt lat="45.48087" lon="4.65366">
        <ele>458.39999389648</ele>
        <time>2019-03-06T10:07:54.000Z</time>
      </trkpt>
      <trkpt lat="45.48077" lon="4.65355">
        <ele>459</ele>
        <time>2019-03-06T10:08:04.000Z</time>
      </trkpt>
      <trkpt lat="45.48071" lon="4.65351">
        <ele>459.39999389648</ele>
        <time>2019-03-06T10:08:09.000Z</time>
      </trkpt>
      <trkpt lat="45.4806" lon="4.65339">
        <ele>460</ele>
        <time>2019-03-06T10:08:20.000Z</time>
      </trkpt>
      <trkpt lat="45.48051" lon="4.65327">
        <ele>460.20001220703</ele>
        <time>2019-03-06T10:08:30.000Z</time>
      </trkpt>
      <trkpt lat="45.48041" lon="4.65315">
        <ele>460.79998779297</ele>
        <time>2019-03-06T10:08:40.000Z</time>
      </trkpt>
      <trkpt lat="45.48033" lon="4.653">
        <ele>460.60000610352</ele>
        <time>2019-03-06T10:08:50.000Z</time>
      </trkpt>
      <trkpt lat="45.48025" lon="4.65285">
        <ele>460.20001220703</ele>
        <time>2019-03-06T10:09:00.000Z</time>
      </trkpt>
      <trkpt lat="45.48018" lon="4.65266">
        <ele>459.60000610352</ele>
        <time>2019-03-06T10:09:12.000Z</time>
      </trkpt>
      <trkpt lat="45.48012" lon="4.65254">
        <ele>459.79998779297</ele>
        <time>2019-03-06T10:09:20.000Z</time>
      </trkpt>
      <trkpt lat="45.48005" lon="4.65238">
        <ele>459.39999389648</ele>
        <time>2019-03-06T10:09:31.000Z</time>
      </trkpt>
      <trkpt lat="45.48004" lon="4.65237">
        <ele>459.39999389648</ele>
        <time>2019-03-06T10:09:32.000Z</time>
      </trkpt>
      <trkpt lat="45.48004" lon="4.65235">
        <ele>459.20001220703</ele>
        <time>2019-03-06T10:09:33.000Z</time>
      </trkpt>
      <trkpt lat="45.47999" lon="4.65221">
        <ele>458.20001220703</ele>
        <time>2019-03-06T10:09:43.000Z</time>
      </trkpt>
      <trkpt lat="45.47995" lon="4.65208">
        <ele>457.20001220703</ele>
        <time>2019-03-06T10:09:51.000Z</time>
      </trkpt>
      <trkpt lat="45.47994" lon="4.65186">
        <ele>454.39999389648</ele>
        <time>2019-03-06T10:10:03.000Z</time>
      </trkpt>
      <trkpt lat="45.47994" lon="4.65166">
        <ele>451.39999389648</ele>
        <time>2019-03-06T10:10:15.000Z</time>
      </trkpt>
      <trkpt lat="45.47994" lon="4.65151">
        <ele>449.20001220703</ele>
        <time>2019-03-06T10:10:24.000Z</time>
      </trkpt>
      <trkpt lat="45.47993" lon="4.65132">
        <ele>448</ele>
        <time>2019-03-06T10:10:36.000Z</time>
      </trkpt>
      <trkpt lat="45.4799" lon="4.65116">
        <ele>447</ele>
        <time>2019-03-06T10:10:47.000Z</time>
      </trkpt>
      <trkpt lat="45.47988" lon="4.65108">
        <ele>446</ele>
        <time>2019-03-06T10:10:55.000Z</time>
      </trkpt>
      <trkpt lat="45.47988" lon="4.65102">
        <ele>445.20001220703</ele>
        <time>2019-03-06T10:11:05.000Z</time>
      </trkpt>
      <trkpt lat="45.47986" lon="4.65097">
        <ele>444.79998779297</ele>
        <time>2019-03-06T10:11:10.000Z</time>
      </trkpt>
      <trkpt lat="45.47981" lon="4.65087">
        <ele>444.39999389648</ele>
        <time>2019-03-06T10:11:20.000Z</time>
      </trkpt>
      <trkpt lat="45.47979" lon="4.65085">
        <ele>444.20001220703</ele>
        <time>2019-03-06T10:11:22.000Z</time>
      </trkpt>
      <trkpt lat="45.47979" lon="4.65084">
        <ele>444</ele>
        <time>2019-03-06T10:11:23.000Z</time>
      </trkpt>
      <trkpt lat="45.47973" lon="4.65065">
        <ele>442.20001220703</ele>
        <time>2019-03-06T10:11:34.000Z</time>
      </trkpt>
      <trkpt lat="45.4797" lon="4.65045">
        <ele>439.79998779297</ele>
        <time>2019-03-06T10:11:47.000Z</time>
      </trkpt>
      <trkpt lat="45.4797" lon="4.65044">
        <ele>439.60000610352</ele>
        <time>2019-03-06T10:11:48.000Z</time>
      </trkpt>
      <trkpt lat="45.47967" lon="4.65032">
        <ele>438.79998779297</ele>
        <time>2019-03-06T10:11:56.000Z</time>
      </trkpt>
      <trkpt lat="45.47966" lon="4.6502">
        <ele>438</ele>
        <time>2019-03-06T10:12:03.000Z</time>
      </trkpt>
      <trkpt lat="45.47964" lon="4.65005">
        <ele>437.39999389648</ele>
        <time>2019-03-06T10:12:12.000Z</time>
      </trkpt>
      <trkpt lat="45.47962" lon="4.64999">
        <ele>437.20001220703</ele>
        <time>2019-03-06T10:12:17.000Z</time>
      </trkpt>
      <trkpt lat="45.4796" lon="4.64985">
        <ele>436.79998779297</ele>
        <time>2019-03-06T10:12:25.000Z</time>
      </trkpt>
      <trkpt lat="45.47959" lon="4.64974">
        <ele>436.20001220703</ele>
        <time>2019-03-06T10:12:33.000Z</time>
      </trkpt>
      <trkpt lat="45.47957" lon="4.6496">
        <ele>435.60000610352</ele>
        <time>2019-03-06T10:12:41.000Z</time>
      </trkpt>
      <trkpt lat="45.47956" lon="4.64955">
        <ele>435.39999389648</ele>
        <time>2019-03-06T10:12:44.000Z</time>
      </trkpt>
      <trkpt lat="45.47956" lon="4.64953">
        <ele>435.20001220703</ele>
        <time>2019-03-06T10:12:45.000Z</time>
      </trkpt>
      <trkpt lat="45.47956" lon="4.64951">
        <ele>435</ele>
        <time>2019-03-06T10:12:46.000Z</time>
      </trkpt>
      <trkpt lat="45.47956" lon="4.64949">
        <ele>435</ele>
        <time>2019-03-06T10:12:47.000Z</time>
      </trkpt>
      <trkpt lat="45.47954" lon="4.64945">
        <ele>434.79998779297</ele>
        <time>2019-03-06T10:12:50.000Z</time>
      </trkpt>
      <trkpt lat="45.47953" lon="4.64944">
        <ele>434.79998779297</ele>
        <time>2019-03-06T10:12:51.000Z</time>
      </trkpt>
      <trkpt lat="45.47953" lon="4.64942">
        <ele>434.60000610352</ele>
        <time>2019-03-06T10:12:52.000Z</time>
      </trkpt>
      <trkpt lat="45.47953" lon="4.6494">
        <ele>434.39999389648</ele>
        <time>2019-03-06T10:12:53.000Z</time>
      </trkpt>
      <trkpt lat="45.47953" lon="4.64938">
        <ele>434.20001220703</ele>
        <time>2019-03-06T10:12:54.000Z</time>
      </trkpt>
      <trkpt lat="45.47953" lon="4.64936">
        <ele>434.20001220703</ele>
        <time>2019-03-06T10:12:55.000Z</time>
      </trkpt>
      <trkpt lat="45.47952" lon="4.64935">
        <ele>434.20001220703</ele>
        <time>2019-03-06T10:12:56.000Z</time>
      </trkpt>
      <trkpt lat="45.47951" lon="4.64923">
        <ele>434</ele>
        <time>2019-03-06T10:13:03.000Z</time>
      </trkpt>
      <trkpt lat="45.47948" lon="4.64909">
        <ele>434.20001220703</ele>
        <time>2019-03-06T10:13:11.000Z</time>
      </trkpt>
      <trkpt lat="45.47945" lon="4.64894">
        <ele>434.20001220703</ele>
        <time>2019-03-06T10:13:20.000Z</time>
      </trkpt>
      <trkpt lat="45.47942" lon="4.64883">
        <ele>434.20001220703</ele>
        <time>2019-03-06T10:13:27.000Z</time>
      </trkpt>
      <trkpt lat="45.47943" lon="4.64873">
        <ele>434</ele>
        <time>2019-03-06T10:13:33.000Z</time>
      </trkpt>
      <trkpt lat="45.47941" lon="4.6486">
        <ele>432.39999389648</ele>
        <time>2019-03-06T10:13:42.000Z</time>
      </trkpt>
      <trkpt lat="45.47939" lon="4.64852">
        <ele>431.20001220703</ele>
        <time>2019-03-06T10:13:47.000Z</time>
      </trkpt>
      <trkpt lat="45.47937" lon="4.64842">
        <ele>429.60000610352</ele>
        <time>2019-03-06T10:13:53.000Z</time>
      </trkpt>
      <trkpt lat="45.47937" lon="4.64828">
        <ele>428.60000610352</ele>
        <time>2019-03-06T10:14:02.000Z</time>
      </trkpt>
      <trkpt lat="45.47941" lon="4.64808">
        <ele>427.39999389648</ele>
        <time>2019-03-06T10:14:15.000Z</time>
      </trkpt>
      <trkpt lat="45.47939" lon="4.64798">
        <ele>426.79998779297</ele>
        <time>2019-03-06T10:14:22.000Z</time>
      </trkpt>
      <trkpt lat="45.47935" lon="4.64783">
        <ele>425.79998779297</ele>
        <time>2019-03-06T10:14:31.000Z</time>
      </trkpt>
      <trkpt lat="45.47934" lon="4.64779">
        <ele>425.60000610352</ele>
        <time>2019-03-06T10:14:34.000Z</time>
      </trkpt>
      <trkpt lat="45.47934" lon="4.64767">
        <ele>424.79998779297</ele>
        <time>2019-03-06T10:14:42.000Z</time>
      </trkpt>
      <trkpt lat="45.47932" lon="4.64757">
        <ele>424.20001220703</ele>
        <time>2019-03-06T10:14:52.000Z</time>
      </trkpt>
      <trkpt lat="45.47933" lon="4.64752">
        <ele>424</ele>
        <time>2019-03-06T10:15:00.000Z</time>
      </trkpt>
      <trkpt lat="45.47933" lon="4.64754">
        <ele>424</ele>
        <time>2019-03-06T10:15:13.000Z</time>
      </trkpt>
      <trkpt lat="45.47933" lon="4.64753">
        <ele>424</ele>
        <time>2019-03-06T10:15:21.000Z</time>
      </trkpt>
      <trkpt lat="45.4793" lon="4.64737">
        <ele>423</ele>
        <time>2019-03-06T10:15:32.000Z</time>
      </trkpt>
      <trkpt lat="45.47918" lon="4.64729">
        <ele>422.60000610352</ele>
        <time>2019-03-06T10:15:40.000Z</time>
      </trkpt>
      <trkpt lat="45.47918" lon="4.64729">
        <ele>422.60000610352</ele>
        <time>2019-03-06T10:15:46.000Z</time>
      </trkpt>
      <trkpt lat="45.47913" lon="4.64723">
        <ele>422.20001220703</ele>
        <time>2019-03-06T10:15:54.000Z</time>
      </trkpt>
      <trkpt lat="45.47911" lon="4.6472">
        <ele>422</ele>
        <time>2019-03-06T10:15:56.000Z</time>
      </trkpt>
      <trkpt lat="45.47907" lon="4.64717">
        <ele>421.79998779297</ele>
        <time>2019-03-06T10:16:05.000Z</time>
      </trkpt>
      <trkpt lat="45.47908" lon="4.64714">
        <ele>421.60000610352</ele>
        <time>2019-03-06T10:16:19.000Z</time>
      </trkpt>
      <trkpt lat="45.47912" lon="4.64705">
        <ele>420.79998779297</ele>
        <time>2019-03-06T10:16:29.000Z</time>
      </trkpt>
      <trkpt lat="45.47917" lon="4.64703">
        <ele>420.60000610352</ele>
        <time>2019-03-06T10:16:37.000Z</time>
      </trkpt>
      <trkpt lat="45.47921" lon="4.64701">
        <ele>420.60000610352</ele>
        <time>2019-03-06T10:16:42.000Z</time>
      </trkpt>
      <trkpt lat="45.4793" lon="4.64675">
        <ele>420.39999389648</ele>
        <time>2019-03-06T10:17:15.000Z</time>
      </trkpt>
      <trkpt lat="45.47929" lon="4.64677">
        <ele>420.39999389648</ele>
        <time>2019-03-06T10:17:30.000Z</time>
      </trkpt>
      <trkpt lat="45.47928" lon="4.64677">
        <ele>420.39999389648</ele>
        <time>2019-03-06T10:17:46.000Z</time>
      </trkpt>
      <trkpt lat="45.4793" lon="4.64679">
        <ele>420.39999389648</ele>
        <time>2019-03-06T10:17:50.000Z</time>
      </trkpt>
      <trkpt lat="45.47928" lon="4.6469">
        <ele>420.39999389648</ele>
        <time>2019-03-06T10:17:58.000Z</time>
      </trkpt>
      <trkpt lat="45.47918" lon="4.64707">
        <ele>421</ele>
        <time>2019-03-06T10:18:11.000Z</time>
      </trkpt>
      <trkpt lat="45.47914" lon="4.64711">
        <ele>421.20001220703</ele>
        <time>2019-03-06T10:18:13.000Z</time>
      </trkpt>
      <trkpt lat="45.47912" lon="4.64713">
        <ele>421.39999389648</ele>
        <time>2019-03-06T10:18:14.000Z</time>
      </trkpt>
      <trkpt lat="45.4791" lon="4.64714">
        <ele>421.39999389648</ele>
        <time>2019-03-06T10:18:15.000Z</time>
      </trkpt>
      <trkpt lat="45.47901" lon="4.64716">
        <ele>421.79998779297</ele>
        <time>2019-03-06T10:18:22.000Z</time>
      </trkpt>
      <trkpt lat="45.47894" lon="4.64715">
        <ele>421.79998779297</ele>
        <time>2019-03-06T10:18:31.000Z</time>
      </trkpt>
      <trkpt lat="45.47886" lon="4.64709">
        <ele>421.39999389648</ele>
        <time>2019-03-06T10:18:41.000Z</time>
      </trkpt>
      <trkpt lat="45.47875" lon="4.64703">
        <ele>421.79998779297</ele>
        <time>2019-03-06T10:18:51.000Z</time>
      </trkpt>
      <trkpt lat="45.47866" lon="4.64696">
        <ele>423.20001220703</ele>
        <time>2019-03-06T10:19:00.000Z</time>
      </trkpt>
      <trkpt lat="45.47859" lon="4.64688">
        <ele>424.79998779297</ele>
        <time>2019-03-06T10:19:10.000Z</time>
      </trkpt>
      <trkpt lat="45.47859" lon="4.64687">
        <ele>424.79998779297</ele>
        <time>2019-03-06T10:19:21.000Z</time>
      </trkpt>
      <trkpt lat="45.47851" lon="4.64684">
        <ele>425.79998779297</ele>
        <time>2019-03-06T10:19:30.000Z</time>
      </trkpt>
      <trkpt lat="45.47846" lon="4.64679">
        <ele>427</ele>
        <time>2019-03-06T10:19:36.000Z</time>
      </trkpt>
      <trkpt lat="45.47839" lon="4.64675">
        <ele>428</ele>
        <time>2019-03-06T10:19:43.000Z</time>
      </trkpt>
      <trkpt lat="45.47829" lon="4.6467">
        <ele>429.39999389648</ele>
        <time>2019-03-06T10:19:52.000Z</time>
      </trkpt>
      <trkpt lat="45.47822" lon="4.64665">
        <ele>430.60000610352</ele>
        <time>2019-03-06T10:20:01.000Z</time>
      </trkpt>
      <trkpt lat="45.47819" lon="4.64663">
        <ele>431.20001220703</ele>
        <time>2019-03-06T10:20:13.000Z</time>
      </trkpt>
      <trkpt lat="45.47815" lon="4.64658">
        <ele>432</ele>
        <time>2019-03-06T10:20:18.000Z</time>
      </trkpt>
      <trkpt lat="45.47812" lon="4.64657">
        <ele>432.39999389648</ele>
        <time>2019-03-06T10:20:20.000Z</time>
      </trkpt>
      <trkpt lat="45.4781" lon="4.64657">
        <ele>432.60000610352</ele>
        <time>2019-03-06T10:20:21.000Z</time>
      </trkpt>
      <trkpt lat="45.47809" lon="4.64655">
        <ele>432.79998779297</ele>
        <time>2019-03-06T10:20:22.000Z</time>
      </trkpt>
      <trkpt lat="45.47808" lon="4.64655">
        <ele>433</ele>
        <time>2019-03-06T10:20:23.000Z</time>
      </trkpt>
      <trkpt lat="45.47806" lon="4.64656">
        <ele>433</ele>
        <time>2019-03-06T10:20:24.000Z</time>
      </trkpt>
      <trkpt lat="45.47805" lon="4.64655">
        <ele>433.20001220703</ele>
        <time>2019-03-06T10:20:25.000Z</time>
      </trkpt>
      <trkpt lat="45.47804" lon="4.64654">
        <ele>433.39999389648</ele>
        <time>2019-03-06T10:20:26.000Z</time>
      </trkpt>
      <trkpt lat="45.47803" lon="4.64654">
        <ele>433.60000610352</ele>
        <time>2019-03-06T10:20:27.000Z</time>
      </trkpt>
      <trkpt lat="45.47802" lon="4.64652">
        <ele>433.79998779297</ele>
        <time>2019-03-06T10:20:28.000Z</time>
      </trkpt>
      <trkpt lat="45.47791" lon="4.64648">
        <ele>435.60000610352</ele>
        <time>2019-03-06T10:20:37.000Z</time>
      </trkpt>
      <trkpt lat="45.47784" lon="4.64646">
        <ele>436.60000610352</ele>
        <time>2019-03-06T10:20:44.000Z</time>
      </trkpt>
      <trkpt lat="45.47778" lon="4.64646">
        <ele>437.39999389648</ele>
        <time>2019-03-06T10:20:50.000Z</time>
      </trkpt>
      <trkpt lat="45.47768" lon="4.64646">
        <ele>438.60000610352</ele>
        <time>2019-03-06T10:20:58.000Z</time>
      </trkpt>
      <trkpt lat="45.47765" lon="4.64646">
        <ele>439</ele>
        <time>2019-03-06T10:21:01.000Z</time>
      </trkpt>
      <trkpt lat="45.47759" lon="4.64648">
        <ele>439.39999389648</ele>
        <time>2019-03-06T10:21:07.000Z</time>
      </trkpt>
      <trkpt lat="45.47753" lon="4.6465">
        <ele>439.79998779297</ele>
        <time>2019-03-06T10:21:12.000Z</time>
      </trkpt>
      <trkpt lat="45.47747" lon="4.64655">
        <ele>439.79998779297</ele>
        <time>2019-03-06T10:21:19.000Z</time>
      </trkpt>
      <trkpt lat="45.47747" lon="4.64658">
        <ele>439.60000610352</ele>
        <time>2019-03-06T10:21:22.000Z</time>
      </trkpt>
      <trkpt lat="45.47745" lon="4.64668">
        <ele>438.20001220703</ele>
        <time>2019-03-06T10:21:31.000Z</time>
      </trkpt>
      <trkpt lat="45.47738" lon="4.64679">
        <ele>437.39999389648</ele>
        <time>2019-03-06T10:21:40.000Z</time>
      </trkpt>
      <trkpt lat="45.47734" lon="4.64687">
        <ele>436.60000610352</ele>
        <time>2019-03-06T10:21:49.000Z</time>
      </trkpt>
      <trkpt lat="45.4773" lon="4.64698">
        <ele>435.20001220703</ele>
        <time>2019-03-06T10:22:00.000Z</time>
      </trkpt>
      <trkpt lat="45.47725" lon="4.64708">
        <ele>435</ele>
        <time>2019-03-06T10:22:09.000Z</time>
      </trkpt>
      <trkpt lat="45.47722" lon="4.64717">
        <ele>434.60000610352</ele>
        <time>2019-03-06T10:22:19.000Z</time>
      </trkpt>
      <trkpt lat="45.47714" lon="4.64728">
        <ele>434.39999389648</ele>
        <time>2019-03-06T10:22:32.000Z</time>
      </trkpt>
      <trkpt lat="45.47708" lon="4.64737">
        <ele>434.39999389648</ele>
        <time>2019-03-06T10:22:43.000Z</time>
      </trkpt>
      <trkpt lat="45.47706" lon="4.64741">
        <ele>434.20001220703</ele>
        <time>2019-03-06T10:22:48.000Z</time>
      </trkpt>
      <trkpt lat="45.47697" lon="4.64743">
        <ele>435</ele>
        <time>2019-03-06T10:22:59.000Z</time>
      </trkpt>
      <trkpt lat="45.47688" lon="4.64742">
        <ele>435.79998779297</ele>
        <time>2019-03-06T10:23:10.000Z</time>
      </trkpt>
      <trkpt lat="45.47678" lon="4.64746">
        <ele>436.60000610352</ele>
        <time>2019-03-06T10:23:21.000Z</time>
      </trkpt>
      <trkpt lat="45.47675" lon="4.64748">
        <ele>437</ele>
        <time>2019-03-06T10:23:25.000Z</time>
      </trkpt>
      <trkpt lat="45.47667" lon="4.64749">
        <ele>438.79998779297</ele>
        <time>2019-03-06T10:23:36.000Z</time>
      </trkpt>
      <trkpt lat="45.4766" lon="4.64747">
        <ele>440</ele>
        <time>2019-03-06T10:23:46.000Z</time>
      </trkpt>
      <trkpt lat="45.47653" lon="4.64747">
        <ele>441.60000610352</ele>
        <time>2019-03-06T10:23:57.000Z</time>
      </trkpt>
      <trkpt lat="45.47647" lon="4.64747">
        <ele>442.79998779297</ele>
        <time>2019-03-06T10:24:06.000Z</time>
      </trkpt>
      <trkpt lat="45.47642" lon="4.64748">
        <ele>443.79998779297</ele>
        <time>2019-03-06T10:24:11.000Z</time>
      </trkpt>
      <trkpt lat="45.47635" lon="4.64748">
        <ele>445.20001220703</ele>
        <time>2019-03-06T10:24:19.000Z</time>
      </trkpt>
      <trkpt lat="45.47632" lon="4.64748">
        <ele>445.79998779297</ele>
        <time>2019-03-06T10:24:22.000Z</time>
      </trkpt>
      <trkpt lat="45.47626" lon="4.64749">
        <ele>446.79998779297</ele>
        <time>2019-03-06T10:24:30.000Z</time>
      </trkpt>
      <trkpt lat="45.47621" lon="4.64749">
        <ele>447.60000610352</ele>
        <time>2019-03-06T10:24:37.000Z</time>
      </trkpt>
      <trkpt lat="45.47614" lon="4.64749">
        <ele>448.79998779297</ele>
        <time>2019-03-06T10:24:47.000Z</time>
      </trkpt>
      <trkpt lat="45.47607" lon="4.64749">
        <ele>450</ele>
        <time>2019-03-06T10:24:58.000Z</time>
      </trkpt>
      <trkpt lat="45.476" lon="4.64751">
        <ele>451.20001220703</ele>
        <time>2019-03-06T10:25:07.000Z</time>
      </trkpt>
      <trkpt lat="45.47597" lon="4.64751">
        <ele>451.79998779297</ele>
        <time>2019-03-06T10:25:11.000Z</time>
      </trkpt>
      <trkpt lat="45.4759" lon="4.6475">
        <ele>453</ele>
        <time>2019-03-06T10:25:21.000Z</time>
      </trkpt>
      <trkpt lat="45.47583" lon="4.6475">
        <ele>454.39999389648</ele>
        <time>2019-03-06T10:25:31.000Z</time>
      </trkpt>
      <trkpt lat="45.47575" lon="4.6475">
        <ele>456</ele>
        <time>2019-03-06T10:25:42.000Z</time>
      </trkpt>
      <trkpt lat="45.47567" lon="4.6475">
        <ele>457.60000610352</ele>
        <time>2019-03-06T10:25:53.000Z</time>
      </trkpt>
      <trkpt lat="45.47565" lon="4.6475">
        <ele>458</ele>
        <time>2019-03-06T10:25:56.000Z</time>
      </trkpt>
      <trkpt lat="45.47556" lon="4.64751">
        <ele>459.60000610352</ele>
        <time>2019-03-06T10:26:07.000Z</time>
      </trkpt>
      <trkpt lat="45.47548" lon="4.64753">
        <ele>461.20001220703</ele>
        <time>2019-03-06T10:26:17.000Z</time>
      </trkpt>
      <trkpt lat="45.47544" lon="4.64753">
        <ele>462.20001220703</ele>
        <time>2019-03-06T10:26:23.000Z</time>
      </trkpt>
      <trkpt lat="45.47534" lon="4.64754">
        <ele>464.20001220703</ele>
        <time>2019-03-06T10:26:35.000Z</time>
      </trkpt>
      <trkpt lat="45.47527" lon="4.64754">
        <ele>465.79998779297</ele>
        <time>2019-03-06T10:26:45.000Z</time>
      </trkpt>
      <trkpt lat="45.47516" lon="4.64755">
        <ele>468</ele>
        <time>2019-03-06T10:26:59.000Z</time>
      </trkpt>
      <trkpt lat="45.47508" lon="4.64756">
        <ele>469.39999389648</ele>
        <time>2019-03-06T10:27:08.000Z</time>
      </trkpt>
      <trkpt lat="45.475" lon="4.64757">
        <ele>471</ele>
        <time>2019-03-06T10:27:18.000Z</time>
      </trkpt>
      <trkpt lat="45.47492" lon="4.64755">
        <ele>472.39999389648</ele>
        <time>2019-03-06T10:27:28.000Z</time>
      </trkpt>
      <trkpt lat="45.4749" lon="4.64755">
        <ele>472.60000610352</ele>
        <time>2019-03-06T10:27:35.000Z</time>
      </trkpt>
      <trkpt lat="45.4749" lon="4.64754">
        <ele>472.60000610352</ele>
        <time>2019-03-06T10:27:38.000Z</time>
      </trkpt>
      <trkpt lat="45.47489" lon="4.64753">
        <ele>472.79998779297</ele>
        <time>2019-03-06T10:27:51.000Z</time>
      </trkpt>
      <trkpt lat="45.47489" lon="4.64753">
        <ele>472.79998779297</ele>
        <time>2019-03-06T10:28:09.000Z</time>
      </trkpt>
      <trkpt lat="45.47489" lon="4.64754">
        <ele>472.79998779297</ele>
        <time>2019-03-06T10:28:27.000Z</time>
      </trkpt>
      <trkpt lat="45.47488" lon="4.64756">
        <ele>473</ele>
        <time>2019-03-06T10:28:45.000Z</time>
      </trkpt>
      <trkpt lat="45.47485" lon="4.64756">
        <ele>473.39999389648</ele>
        <time>2019-03-06T10:28:59.000Z</time>
      </trkpt>
      <trkpt lat="45.47481" lon="4.64752">
        <ele>474</ele>
        <time>2019-03-06T10:29:08.000Z</time>
      </trkpt>
      <trkpt lat="45.47474" lon="4.64751">
        <ele>475.39999389648</ele>
        <time>2019-03-06T10:29:22.000Z</time>
      </trkpt>
      <trkpt lat="45.47463" lon="4.64749">
        <ele>477.20001220703</ele>
        <time>2019-03-06T10:29:34.000Z</time>
      </trkpt>
      <trkpt lat="45.47455" lon="4.64746">
        <ele>478.60000610352</ele>
        <time>2019-03-06T10:29:44.000Z</time>
      </trkpt>
      <trkpt lat="45.47448" lon="4.64743">
        <ele>479.79998779297</ele>
        <time>2019-03-06T10:29:54.000Z</time>
      </trkpt>
      <trkpt lat="45.4744" lon="4.64741">
        <ele>481.20001220703</ele>
        <time>2019-03-06T10:30:05.000Z</time>
      </trkpt>
      <trkpt lat="45.47439" lon="4.64741">
        <ele>481.20001220703</ele>
        <time>2019-03-06T10:30:06.000Z</time>
      </trkpt>
      <trkpt lat="45.47432" lon="4.64739">
        <ele>482.60000610352</ele>
        <time>2019-03-06T10:30:16.000Z</time>
      </trkpt>
      <trkpt lat="45.47424" lon="4.64737">
        <ele>483.79998779297</ele>
        <time>2019-03-06T10:30:26.000Z</time>
      </trkpt>
      <trkpt lat="45.47416" lon="4.64737">
        <ele>485.39999389648</ele>
        <time>2019-03-06T10:30:37.000Z</time>
      </trkpt>
      <trkpt lat="45.47413" lon="4.64736">
        <ele>485.79998779297</ele>
        <time>2019-03-06T10:30:42.000Z</time>
      </trkpt>
      <trkpt lat="45.4741" lon="4.64736">
        <ele>486.20001220703</ele>
        <time>2019-03-06T10:30:46.000Z</time>
      </trkpt>
      <trkpt lat="45.47402" lon="4.64732">
        <ele>487.39999389648</ele>
        <time>2019-03-06T10:30:58.000Z</time>
      </trkpt>
      <trkpt lat="45.47394" lon="4.64732">
        <ele>488.60000610352</ele>
        <time>2019-03-06T10:31:07.000Z</time>
      </trkpt>
      <trkpt lat="45.47388" lon="4.64732">
        <ele>489.60000610352</ele>
        <time>2019-03-06T10:31:15.000Z</time>
      </trkpt>
      <trkpt lat="45.47382" lon="4.64733">
        <ele>490.60000610352</ele>
        <time>2019-03-06T10:31:25.000Z</time>
      </trkpt>
      <trkpt lat="45.47375" lon="4.64731">
        <ele>491.79998779297</ele>
        <time>2019-03-06T10:31:35.000Z</time>
      </trkpt>
      <trkpt lat="45.47369" lon="4.64731">
        <ele>493</ele>
        <time>2019-03-06T10:31:44.000Z</time>
      </trkpt>
      <trkpt lat="45.47366" lon="4.64732">
        <ele>493.39999389648</ele>
        <time>2019-03-06T10:31:47.000Z</time>
      </trkpt>
      <trkpt lat="45.47364" lon="4.64732">
        <ele>493.79998779297</ele>
        <time>2019-03-06T10:31:50.000Z</time>
      </trkpt>
      <trkpt lat="45.47359" lon="4.64729">
        <ele>494.79998779297</ele>
        <time>2019-03-06T10:31:59.000Z</time>
      </trkpt>
      <trkpt lat="45.47355" lon="4.64727">
        <ele>495.20001220703</ele>
        <time>2019-03-06T10:32:04.000Z</time>
      </trkpt>
      <trkpt lat="45.47349" lon="4.64729">
        <ele>496.60000610352</ele>
        <time>2019-03-06T10:32:14.000Z</time>
      </trkpt>
      <trkpt lat="45.47341" lon="4.6473">
        <ele>497.79998779297</ele>
        <time>2019-03-06T10:32:24.000Z</time>
      </trkpt>
      <trkpt lat="45.47337" lon="4.64729">
        <ele>498.60000610352</ele>
        <time>2019-03-06T10:32:31.000Z</time>
      </trkpt>
      <trkpt lat="45.47331" lon="4.64728">
        <ele>499.79998779297</ele>
        <time>2019-03-06T10:32:41.000Z</time>
      </trkpt>
      <trkpt lat="45.47326" lon="4.64727">
        <ele>500.60000610352</ele>
        <time>2019-03-06T10:32:49.000Z</time>
      </trkpt>
      <trkpt lat="45.4732" lon="4.64727">
        <ele>501.60000610352</ele>
        <time>2019-03-06T10:32:57.000Z</time>
      </trkpt>
      <trkpt lat="45.47315" lon="4.64726">
        <ele>502.60000610352</ele>
        <time>2019-03-06T10:33:05.000Z</time>
      </trkpt>
      <trkpt lat="45.47311" lon="4.64725">
        <ele>503.39999389648</ele>
        <time>2019-03-06T10:33:11.000Z</time>
      </trkpt>
      <trkpt lat="45.47306" lon="4.64725">
        <ele>504.39999389648</ele>
        <time>2019-03-06T10:33:17.000Z</time>
      </trkpt>
      <trkpt lat="45.47298" lon="4.64725">
        <ele>506.20001220703</ele>
        <time>2019-03-06T10:33:29.000Z</time>
      </trkpt>
      <trkpt lat="45.47292" lon="4.64724">
        <ele>507.79998779297</ele>
        <time>2019-03-06T10:33:38.000Z</time>
      </trkpt>
      <trkpt lat="45.47291" lon="4.64724">
        <ele>508.20001220703</ele>
        <time>2019-03-06T10:33:40.000Z</time>
      </trkpt>
      <trkpt lat="45.47288" lon="4.64725">
        <ele>509</ele>
        <time>2019-03-06T10:33:44.000Z</time>
      </trkpt>
      <trkpt lat="45.47284" lon="4.64724">
        <ele>510.39999389648</ele>
        <time>2019-03-06T10:33:50.000Z</time>
      </trkpt>
      <trkpt lat="45.47276" lon="4.64723">
        <ele>512.59997558594</ele>
        <time>2019-03-06T10:34:01.000Z</time>
      </trkpt>
      <trkpt lat="45.47274" lon="4.64723">
        <ele>513.20001220703</ele>
        <time>2019-03-06T10:34:04.000Z</time>
      </trkpt>
      <trkpt lat="45.47266" lon="4.64724">
        <ele>515.40002441406</ele>
        <time>2019-03-06T10:34:16.000Z</time>
      </trkpt>
      <trkpt lat="45.47256" lon="4.64728">
        <ele>518.40002441406</ele>
        <time>2019-03-06T10:34:30.000Z</time>
      </trkpt>
      <trkpt lat="45.47248" lon="4.6473">
        <ele>520.79998779297</ele>
        <time>2019-03-06T10:34:43.000Z</time>
      </trkpt>
      <trkpt lat="45.47243" lon="4.64731">
        <ele>522.40002441406</ele>
        <time>2019-03-06T10:34:55.000Z</time>
      </trkpt>
      <trkpt lat="45.47235" lon="4.64734">
        <ele>524.59997558594</ele>
        <time>2019-03-06T10:35:08.000Z</time>
      </trkpt>
      <trkpt lat="45.4723" lon="4.64741">
        <ele>526.59997558594</ele>
        <time>2019-03-06T10:35:23.000Z</time>
      </trkpt>
      <trkpt lat="45.47223" lon="4.64747">
        <ele>528.59997558594</ele>
        <time>2019-03-06T10:35:36.000Z</time>
      </trkpt>
      <trkpt lat="45.47222" lon="4.64748">
        <ele>529</ele>
        <time>2019-03-06T10:35:38.000Z</time>
      </trkpt>
      <trkpt lat="45.47222" lon="4.6475">
        <ele>529.20001220703</ele>
        <time>2019-03-06T10:35:51.000Z</time>
      </trkpt>
      <trkpt lat="45.4722" lon="4.64747">
        <ele>529.40002441406</ele>
        <time>2019-03-06T10:36:10.000Z</time>
      </trkpt>
      <trkpt lat="45.47219" lon="4.64749">
        <ele>530</ele>
        <time>2019-03-06T10:36:29.000Z</time>
      </trkpt>
      <trkpt lat="45.4722" lon="4.6475">
        <ele>529.59997558594</ele>
        <time>2019-03-06T10:36:44.000Z</time>
      </trkpt>
      <trkpt lat="45.47218" lon="4.64753">
        <ele>530.20001220703</ele>
        <time>2019-03-06T10:36:58.000Z</time>
      </trkpt>
      <trkpt lat="45.4721" lon="4.64758">
        <ele>532.20001220703</ele>
        <time>2019-03-06T10:37:11.000Z</time>
      </trkpt>
      <trkpt lat="45.47201" lon="4.64768">
        <ele>534.40002441406</ele>
        <time>2019-03-06T10:37:23.000Z</time>
      </trkpt>
      <trkpt lat="45.47197" lon="4.64772">
        <ele>535.59997558594</ele>
        <time>2019-03-06T10:37:30.000Z</time>
      </trkpt>
      <trkpt lat="45.47196" lon="4.64773">
        <ele>536</ele>
        <time>2019-03-06T10:37:33.000Z</time>
      </trkpt>
      <trkpt lat="45.47192" lon="4.64776">
        <ele>537.59997558594</ele>
        <time>2019-03-06T10:37:46.000Z</time>
      </trkpt>
      <trkpt lat="45.47185" lon="4.64782">
        <ele>540</ele>
        <time>2019-03-06T10:37:58.000Z</time>
      </trkpt>
      <trkpt lat="45.4718" lon="4.64788">
        <ele>542</ele>
        <time>2019-03-06T10:38:10.000Z</time>
      </trkpt>
      <trkpt lat="45.47171" lon="4.64791">
        <ele>544.40002441406</ele>
        <time>2019-03-06T10:38:23.000Z</time>
      </trkpt>
      <trkpt lat="45.47165" lon="4.64791">
        <ele>546</ele>
        <time>2019-03-06T10:38:34.000Z</time>
      </trkpt>
      <trkpt lat="45.47158" lon="4.64791">
        <ele>547.79998779297</ele>
        <time>2019-03-06T10:38:43.000Z</time>
      </trkpt>
      <trkpt lat="45.47149" lon="4.64792">
        <ele>550.40002441406</ele>
        <time>2019-03-06T10:38:56.000Z</time>
      </trkpt>
      <trkpt lat="45.47144" lon="4.64791">
        <ele>551.79998779297</ele>
        <time>2019-03-06T10:39:08.000Z</time>
      </trkpt>
      <trkpt lat="45.47137" lon="4.64793">
        <ele>554</ele>
        <time>2019-03-06T10:39:17.000Z</time>
      </trkpt>
      <trkpt lat="45.47126" lon="4.64796">
        <ele>556.20001220703</ele>
        <time>2019-03-06T10:39:31.000Z</time>
      </trkpt>
      <trkpt lat="45.47117" lon="4.64796">
        <ele>557.40002441406</ele>
        <time>2019-03-06T10:39:44.000Z</time>
      </trkpt>
      <trkpt lat="45.47107" lon="4.64794">
        <ele>558.59997558594</ele>
        <time>2019-03-06T10:39:58.000Z</time>
      </trkpt>
      <trkpt lat="45.47102" lon="4.64795">
        <ele>559.40002441406</ele>
        <time>2019-03-06T10:40:08.000Z</time>
      </trkpt>
      <trkpt lat="45.47094" lon="4.64799">
        <ele>560.59997558594</ele>
        <time>2019-03-06T10:40:23.000Z</time>
      </trkpt>
      <trkpt lat="45.47085" lon="4.64801">
        <ele>561.79998779297</ele>
        <time>2019-03-06T10:40:34.000Z</time>
      </trkpt>
      <trkpt lat="45.47077" lon="4.64801">
        <ele>562.79998779297</ele>
        <time>2019-03-06T10:40:46.000Z</time>
      </trkpt>
      <trkpt lat="45.47072" lon="4.64804">
        <ele>563.79998779297</ele>
        <time>2019-03-06T10:40:54.000Z</time>
      </trkpt>
      <trkpt lat="45.47064" lon="4.64809">
        <ele>565.40002441406</ele>
        <time>2019-03-06T10:41:06.000Z</time>
      </trkpt>
      <trkpt lat="45.47056" lon="4.64814">
        <ele>567.20001220703</ele>
        <time>2019-03-06T10:41:16.000Z</time>
      </trkpt>
      <trkpt lat="45.47047" lon="4.64822">
        <ele>569.20001220703</ele>
        <time>2019-03-06T10:41:28.000Z</time>
      </trkpt>
      <trkpt lat="45.47038" lon="4.64832">
        <ele>570.40002441406</ele>
        <time>2019-03-06T10:41:40.000Z</time>
      </trkpt>
      <trkpt lat="45.47031" lon="4.64839">
        <ele>571.40002441406</ele>
        <time>2019-03-06T10:41:49.000Z</time>
      </trkpt>
      <trkpt lat="45.47021" lon="4.64845">
        <ele>572.79998779297</ele>
        <time>2019-03-06T10:42:00.000Z</time>
      </trkpt>
      <trkpt lat="45.4701" lon="4.6485">
        <ele>574.79998779297</ele>
        <time>2019-03-06T10:42:10.000Z</time>
      </trkpt>
      <trkpt lat="45.47" lon="4.64853">
        <ele>576.40002441406</ele>
        <time>2019-03-06T10:42:20.000Z</time>
      </trkpt>
      <trkpt lat="45.4699" lon="4.64859">
        <ele>578.59997558594</ele>
        <time>2019-03-06T10:42:32.000Z</time>
      </trkpt>
      <trkpt lat="45.46982" lon="4.64864">
        <ele>580.20001220703</ele>
        <time>2019-03-06T10:42:43.000Z</time>
      </trkpt>
      <trkpt lat="45.46979" lon="4.64865">
        <ele>580.79998779297</ele>
        <time>2019-03-06T10:42:48.000Z</time>
      </trkpt>
      <trkpt lat="45.46978" lon="4.64866">
        <ele>581.20001220703</ele>
        <time>2019-03-06T10:42:50.000Z</time>
      </trkpt>
      <trkpt lat="45.46971" lon="4.64869">
        <ele>582.40002441406</ele>
        <time>2019-03-06T10:42:59.000Z</time>
      </trkpt>
      <trkpt lat="45.46968" lon="4.64872">
        <ele>582.79998779297</ele>
        <time>2019-03-06T10:43:03.000Z</time>
      </trkpt>
      <trkpt lat="45.46961" lon="4.64876">
        <ele>583.20001220703</ele>
        <time>2019-03-06T10:43:12.000Z</time>
      </trkpt>
      <trkpt lat="45.46956" lon="4.64884">
        <ele>583.20001220703</ele>
        <time>2019-03-06T10:43:22.000Z</time>
      </trkpt>
      <trkpt lat="45.46949" lon="4.64891">
        <ele>583.40002441406</ele>
        <time>2019-03-06T10:43:33.000Z</time>
      </trkpt>
      <trkpt lat="45.46942" lon="4.64895">
        <ele>583.59997558594</ele>
        <time>2019-03-06T10:43:43.000Z</time>
      </trkpt>
      <trkpt lat="45.46936" lon="4.64899">
        <ele>583.79998779297</ele>
        <time>2019-03-06T10:43:51.000Z</time>
      </trkpt>
      <trkpt lat="45.46929" lon="4.64903">
        <ele>583.79998779297</ele>
        <time>2019-03-06T10:44:00.000Z</time>
      </trkpt>
      <trkpt lat="45.46926" lon="4.64905">
        <ele>584</ele>
        <time>2019-03-06T10:44:04.000Z</time>
      </trkpt>
      <trkpt lat="45.46921" lon="4.64907">
        <ele>584</ele>
        <time>2019-03-06T10:44:09.000Z</time>
      </trkpt>
      <trkpt lat="45.46911" lon="4.64912">
        <ele>585.40002441406</ele>
        <time>2019-03-06T10:44:21.000Z</time>
      </trkpt>
      <trkpt lat="45.46902" lon="4.64915">
        <ele>586.40002441406</ele>
        <time>2019-03-06T10:44:33.000Z</time>
      </trkpt>
      <trkpt lat="45.46893" lon="4.64919">
        <ele>587.59997558594</ele>
        <time>2019-03-06T10:44:43.000Z</time>
      </trkpt>
      <trkpt lat="45.46884" lon="4.64922">
        <ele>588.59997558594</ele>
        <time>2019-03-06T10:44:53.000Z</time>
      </trkpt>
      <trkpt lat="45.4688" lon="4.64924">
        <ele>589</ele>
        <time>2019-03-06T10:44:59.000Z</time>
      </trkpt>
      <trkpt lat="45.46879" lon="4.64925">
        <ele>589.20001220703</ele>
        <time>2019-03-06T10:45:01.000Z</time>
      </trkpt>
      <trkpt lat="45.46874" lon="4.64926">
        <ele>589.40002441406</ele>
        <time>2019-03-06T10:45:06.000Z</time>
      </trkpt>
      <trkpt lat="45.46871" lon="4.64927">
        <ele>589.59997558594</ele>
        <time>2019-03-06T10:45:10.000Z</time>
      </trkpt>
      <trkpt lat="45.46869" lon="4.64927">
        <ele>589.59997558594</ele>
        <time>2019-03-06T10:45:18.000Z</time>
      </trkpt>
      <trkpt lat="45.46869" lon="4.64927">
        <ele>589.59997558594</ele>
        <time>2019-03-06T10:45:21.000Z</time>
      </trkpt>
      <trkpt lat="45.4687" lon="4.64927">
        <ele>589.59997558594</ele>
        <time>2019-03-06T10:45:40.000Z</time>
      </trkpt>
      <trkpt lat="45.4687" lon="4.64926">
        <ele>589.59997558594</ele>
        <time>2019-03-06T10:46:04.000Z</time>
      </trkpt>
      <trkpt lat="45.46869" lon="4.64927">
        <ele>589.59997558594</ele>
        <time>2019-03-06T10:46:17.000Z</time>
      </trkpt>
      <trkpt lat="45.46868" lon="4.64926">
        <ele>589.59997558594</ele>
        <time>2019-03-06T10:46:33.000Z</time>
      </trkpt>
      <trkpt lat="45.46868" lon="4.64926">
        <ele>589.59997558594</ele>
        <time>2019-03-06T10:46:37.000Z</time>
      </trkpt>
      <trkpt lat="45.46869" lon="4.64926">
        <ele>589.59997558594</ele>
        <time>2019-03-06T10:46:55.000Z</time>
      </trkpt>
      <trkpt lat="45.4687" lon="4.64925">
        <ele>589.40002441406</ele>
        <time>2019-03-06T10:47:12.000Z</time>
      </trkpt>
      <trkpt lat="45.46872" lon="4.64925">
        <ele>589.40002441406</ele>
        <time>2019-03-06T10:47:29.000Z</time>
      </trkpt>
      <trkpt lat="45.46873" lon="4.64928">
        <ele>589.59997558594</ele>
        <time>2019-03-06T10:47:43.000Z</time>
      </trkpt>
      <trkpt lat="45.46862" lon="4.6493">
        <ele>590.20001220703</ele>
        <time>2019-03-06T10:47:53.000Z</time>
      </trkpt>
      <trkpt lat="45.4686" lon="4.64931">
        <ele>590.40002441406</ele>
        <time>2019-03-06T10:47:55.000Z</time>
      </trkpt>
      <trkpt lat="45.46859" lon="4.64932">
        <ele>590.59997558594</ele>
        <time>2019-03-06T10:47:57.000Z</time>
      </trkpt>
      <trkpt lat="45.46856" lon="4.6494">
        <ele>592</ele>
        <time>2019-03-06T10:48:05.000Z</time>
      </trkpt>
      <trkpt lat="45.46856" lon="4.64943">
        <ele>592.40002441406</ele>
        <time>2019-03-06T10:48:07.000Z</time>
      </trkpt>
      <trkpt lat="45.46855" lon="4.64953">
        <ele>593.59997558594</ele>
        <time>2019-03-06T10:48:14.000Z</time>
      </trkpt>
      <trkpt lat="45.46855" lon="4.64972">
        <ele>592.59997558594</ele>
        <time>2019-03-06T10:48:26.000Z</time>
      </trkpt>
      <trkpt lat="45.4685" lon="4.64993">
        <ele>591.59997558594</ele>
        <time>2019-03-06T10:48:40.000Z</time>
      </trkpt>
      <trkpt lat="45.46846" lon="4.64999">
        <ele>591.79998779297</ele>
        <time>2019-03-06T10:48:49.000Z</time>
      </trkpt>
      <trkpt lat="45.46843" lon="4.64998">
        <ele>592.40002441406</ele>
        <time>2019-03-06T10:48:54.000Z</time>
      </trkpt>
      <trkpt lat="45.46837" lon="4.64998">
        <ele>593.20001220703</ele>
        <time>2019-03-06T10:49:03.000Z</time>
      </trkpt>
      <trkpt lat="45.46831" lon="4.64995">
        <ele>594.20001220703</ele>
        <time>2019-03-06T10:49:10.000Z</time>
      </trkpt>
      <trkpt lat="45.46828" lon="4.64992">
        <ele>594.79998779297</ele>
        <time>2019-03-06T10:49:16.000Z</time>
      </trkpt>
      <trkpt lat="45.46822" lon="4.64987">
        <ele>595.59997558594</ele>
        <time>2019-03-06T10:49:25.000Z</time>
      </trkpt>
      <trkpt lat="45.46816" lon="4.6498">
        <ele>596.59997558594</ele>
        <time>2019-03-06T10:49:35.000Z</time>
      </trkpt>
      <trkpt lat="45.46809" lon="4.64972">
        <ele>597.59997558594</ele>
        <time>2019-03-06T10:49:46.000Z</time>
      </trkpt>
      <trkpt lat="45.46806" lon="4.64967">
        <ele>598</ele>
        <time>2019-03-06T10:49:51.000Z</time>
      </trkpt>
      <trkpt lat="45.46801" lon="4.6496">
        <ele>598.79998779297</ele>
        <time>2019-03-06T10:49:59.000Z</time>
      </trkpt>
      <trkpt lat="45.46795" lon="4.64953">
        <ele>599.59997558594</ele>
        <time>2019-03-06T10:50:08.000Z</time>
      </trkpt>
      <trkpt lat="45.46787" lon="4.64947">
        <ele>599.79998779297</ele>
        <time>2019-03-06T10:50:17.000Z</time>
      </trkpt>
      <trkpt lat="45.4678" lon="4.6494">
        <ele>600</ele>
        <time>2019-03-06T10:50:26.000Z</time>
      </trkpt>
      <trkpt lat="45.46773" lon="4.64933">
        <ele>599.59997558594</ele>
        <time>2019-03-06T10:50:35.000Z</time>
      </trkpt>
      <trkpt lat="45.46765" lon="4.64925">
        <ele>599.59997558594</ele>
        <time>2019-03-06T10:50:44.000Z</time>
      </trkpt>
      <trkpt lat="45.46764" lon="4.64924">
        <ele>599.59997558594</ele>
        <time>2019-03-06T10:50:45.000Z</time>
      </trkpt>
      <trkpt lat="45.46756" lon="4.64919">
        <ele>600.20001220703</ele>
        <time>2019-03-06T10:50:55.000Z</time>
      </trkpt>
      <trkpt lat="45.46753" lon="4.64917">
        <ele>600.20001220703</ele>
        <time>2019-03-06T10:50:58.000Z</time>
      </trkpt>
      <trkpt lat="45.46745" lon="4.64912">
        <ele>600.40002441406</ele>
        <time>2019-03-06T10:51:07.000Z</time>
      </trkpt>
      <trkpt lat="45.46736" lon="4.64909">
        <ele>601.40002441406</ele>
        <time>2019-03-06T10:51:17.000Z</time>
      </trkpt>
      <trkpt lat="45.46729" lon="4.6491">
        <ele>602.40002441406</ele>
        <time>2019-03-06T10:51:26.000Z</time>
      </trkpt>
      <trkpt lat="45.46725" lon="4.64911">
        <ele>603.20001220703</ele>
        <time>2019-03-06T10:51:30.000Z</time>
      </trkpt>
      <trkpt lat="45.46722" lon="4.64912">
        <ele>603.79998779297</ele>
        <time>2019-03-06T10:51:34.000Z</time>
      </trkpt>
      <trkpt lat="45.46717" lon="4.64916">
        <ele>605.20001220703</ele>
        <time>2019-03-06T10:51:43.000Z</time>
      </trkpt>
      <trkpt lat="45.46715" lon="4.64919">
        <ele>605.79998779297</ele>
        <time>2019-03-06T10:51:47.000Z</time>
      </trkpt>
      <trkpt lat="45.46714" lon="4.6492">
        <ele>606.20001220703</ele>
        <time>2019-03-06T10:51:49.000Z</time>
      </trkpt>
      <trkpt lat="45.46706" lon="4.64924">
        <ele>608.20001220703</ele>
        <time>2019-03-06T10:52:02.000Z</time>
      </trkpt>
      <trkpt lat="45.46706" lon="4.64925">
        <ele>608.40002441406</ele>
        <time>2019-03-06T10:52:03.000Z</time>
      </trkpt>
      <trkpt lat="45.46703" lon="4.64926">
        <ele>609</ele>
        <time>2019-03-06T10:52:07.000Z</time>
      </trkpt>
      <trkpt lat="45.46701" lon="4.64926">
        <ele>609.59997558594</ele>
        <time>2019-03-06T10:52:10.000Z</time>
      </trkpt>
      <trkpt lat="45.46694" lon="4.64928">
        <ele>611</ele>
        <time>2019-03-06T10:52:21.000Z</time>
      </trkpt>
      <trkpt lat="45.46683" lon="4.64933">
        <ele>613.20001220703</ele>
        <time>2019-03-06T10:52:34.000Z</time>
      </trkpt>
      <trkpt lat="45.46674" lon="4.64936">
        <ele>615</ele>
        <time>2019-03-06T10:52:46.000Z</time>
      </trkpt>
      <trkpt lat="45.46667" lon="4.64938">
        <ele>616.20001220703</ele>
        <time>2019-03-06T10:52:55.000Z</time>
      </trkpt>
      <trkpt lat="45.4666" lon="4.64939">
        <ele>617.20001220703</ele>
        <time>2019-03-06T10:53:04.000Z</time>
      </trkpt>
      <trkpt lat="45.46651" lon="4.64941">
        <ele>618.79998779297</ele>
        <time>2019-03-06T10:53:15.000Z</time>
      </trkpt>
      <trkpt lat="45.46648" lon="4.64943">
        <ele>619.59997558594</ele>
        <time>2019-03-06T10:53:19.000Z</time>
      </trkpt>
      <trkpt lat="45.46644" lon="4.64945">
        <ele>620.40002441406</ele>
        <time>2019-03-06T10:53:24.000Z</time>
      </trkpt>
      <trkpt lat="45.46639" lon="4.64947">
        <ele>621.20001220703</ele>
        <time>2019-03-06T10:53:29.000Z</time>
      </trkpt>
      <trkpt lat="45.46638" lon="4.64948">
        <ele>621.59997558594</ele>
        <time>2019-03-06T10:53:31.000Z</time>
      </trkpt>
      <trkpt lat="45.46628" lon="4.64952">
        <ele>623.59997558594</ele>
        <time>2019-03-06T10:53:42.000Z</time>
      </trkpt>
      <trkpt lat="45.46627" lon="4.64953">
        <ele>623.79998779297</ele>
        <time>2019-03-06T10:53:43.000Z</time>
      </trkpt>
      <trkpt lat="45.46626" lon="4.64953">
        <ele>624</ele>
        <time>2019-03-06T10:53:44.000Z</time>
      </trkpt>
      <trkpt lat="45.46618" lon="4.64956">
        <ele>625</ele>
        <time>2019-03-06T10:53:52.000Z</time>
      </trkpt>
      <trkpt lat="45.46617" lon="4.64957">
        <ele>625.20001220703</ele>
        <time>2019-03-06T10:53:54.000Z</time>
      </trkpt>
      <trkpt lat="45.46609" lon="4.64958">
        <ele>626.20001220703</ele>
        <time>2019-03-06T10:54:04.000Z</time>
      </trkpt>
      <trkpt lat="45.46601" lon="4.64955">
        <ele>627.20001220703</ele>
        <time>2019-03-06T10:54:15.000Z</time>
      </trkpt>
      <trkpt lat="45.466" lon="4.64955">
        <ele>627.40002441406</ele>
        <time>2019-03-06T10:54:16.000Z</time>
      </trkpt>
      <trkpt lat="45.46593" lon="4.64955">
        <ele>628.40002441406</ele>
        <time>2019-03-06T10:54:23.000Z</time>
      </trkpt>
      <trkpt lat="45.4659" lon="4.64956">
        <ele>628.79998779297</ele>
        <time>2019-03-06T10:54:26.000Z</time>
      </trkpt>
      <trkpt lat="45.46586" lon="4.64955">
        <ele>629.20001220703</ele>
        <time>2019-03-06T10:54:31.000Z</time>
      </trkpt>
      <trkpt lat="45.4658" lon="4.64956">
        <ele>630</ele>
        <time>2019-03-06T10:54:37.000Z</time>
      </trkpt>
      <trkpt lat="45.46573" lon="4.64952">
        <ele>630.79998779297</ele>
        <time>2019-03-06T10:54:46.000Z</time>
      </trkpt>
      <trkpt lat="45.46566" lon="4.64949">
        <ele>631.20001220703</ele>
        <time>2019-03-06T10:54:55.000Z</time>
      </trkpt>
      <trkpt lat="45.46559" lon="4.64948">
        <ele>632.20001220703</ele>
        <time>2019-03-06T10:55:05.000Z</time>
      </trkpt>
      <trkpt lat="45.46553" lon="4.64947">
        <ele>632.79998779297</ele>
        <time>2019-03-06T10:55:14.000Z</time>
      </trkpt>
      <trkpt lat="45.4655" lon="4.64946">
        <ele>633</ele>
        <time>2019-03-06T10:55:17.000Z</time>
      </trkpt>
      <trkpt lat="45.46549" lon="4.64946">
        <ele>633</ele>
        <time>2019-03-06T10:55:18.000Z</time>
      </trkpt>
      <trkpt lat="45.46546" lon="4.64945">
        <ele>633.20001220703</ele>
        <time>2019-03-06T10:55:22.000Z</time>
      </trkpt>
      <trkpt lat="45.46544" lon="4.64944">
        <ele>633.40002441406</ele>
        <time>2019-03-06T10:55:26.000Z</time>
      </trkpt>
      <trkpt lat="45.46539" lon="4.64943">
        <ele>633.79998779297</ele>
        <time>2019-03-06T10:55:33.000Z</time>
      </trkpt>
      <trkpt lat="45.46535" lon="4.64943">
        <ele>634.20001220703</ele>
        <time>2019-03-06T10:55:38.000Z</time>
      </trkpt>
      <trkpt lat="45.46527" lon="4.64942">
        <ele>635</ele>
        <time>2019-03-06T10:55:50.000Z</time>
      </trkpt>
      <trkpt lat="45.46525" lon="4.64941">
        <ele>635</ele>
        <time>2019-03-06T10:55:53.000Z</time>
      </trkpt>
      <trkpt lat="45.46517" lon="4.64942">
        <ele>636</ele>
        <time>2019-03-06T10:56:03.000Z</time>
      </trkpt>
      <trkpt lat="45.4651" lon="4.64941">
        <ele>636.59997558594</ele>
        <time>2019-03-06T10:56:13.000Z</time>
      </trkpt>
      <trkpt lat="45.46502" lon="4.6494">
        <ele>637.20001220703</ele>
        <time>2019-03-06T10:56:24.000Z</time>
      </trkpt>
      <trkpt lat="45.46496" lon="4.64938">
        <ele>637.79998779297</ele>
        <time>2019-03-06T10:56:34.000Z</time>
      </trkpt>
      <trkpt lat="45.4649" lon="4.64937">
        <ele>638.20001220703</ele>
        <time>2019-03-06T10:56:42.000Z</time>
      </trkpt>
      <trkpt lat="45.4648" lon="4.64938">
        <ele>639.20001220703</ele>
        <time>2019-03-06T10:56:54.000Z</time>
      </trkpt>
      <trkpt lat="45.4647" lon="4.64938">
        <ele>640.40002441406</ele>
        <time>2019-03-06T10:57:08.000Z</time>
      </trkpt>
      <trkpt lat="45.46462" lon="4.64939">
        <ele>641.59997558594</ele>
        <time>2019-03-06T10:57:19.000Z</time>
      </trkpt>
      <trkpt lat="45.46455" lon="4.6494">
        <ele>642.79998779297</ele>
        <time>2019-03-06T10:57:28.000Z</time>
      </trkpt>
      <trkpt lat="45.46444" lon="4.6494">
        <ele>644.40002441406</ele>
        <time>2019-03-06T10:57:40.000Z</time>
      </trkpt>
      <trkpt lat="45.46438" lon="4.64937">
        <ele>644.79998779297</ele>
        <time>2019-03-06T10:57:46.000Z</time>
      </trkpt>
      <trkpt lat="45.46436" lon="4.64936">
        <ele>645</ele>
        <time>2019-03-06T10:57:49.000Z</time>
      </trkpt>
      <trkpt lat="45.46431" lon="4.64934">
        <ele>645.40002441406</ele>
        <time>2019-03-06T10:57:55.000Z</time>
      </trkpt>
      <trkpt lat="45.46419" lon="4.6493">
        <ele>646.59997558594</ele>
        <time>2019-03-06T10:58:07.000Z</time>
      </trkpt>
      <trkpt lat="45.46409" lon="4.6493">
        <ele>648</ele>
        <time>2019-03-06T10:58:16.000Z</time>
      </trkpt>
      <trkpt lat="45.464" lon="4.6493">
        <ele>649.20001220703</ele>
        <time>2019-03-06T10:58:25.000Z</time>
      </trkpt>
      <trkpt lat="45.46393" lon="4.64928">
        <ele>650</ele>
        <time>2019-03-06T10:58:31.000Z</time>
      </trkpt>
      <trkpt lat="45.46388" lon="4.64927">
        <ele>650.59997558594</ele>
        <time>2019-03-06T10:58:36.000Z</time>
      </trkpt>
      <trkpt lat="45.46385" lon="4.64926">
        <ele>651</ele>
        <time>2019-03-06T10:58:39.000Z</time>
      </trkpt>
      <trkpt lat="45.46381" lon="4.64925">
        <ele>651.40002441406</ele>
        <time>2019-03-06T10:58:43.000Z</time>
      </trkpt>
      <trkpt lat="45.46377" lon="4.64924">
        <ele>651.79998779297</ele>
        <time>2019-03-06T10:58:47.000Z</time>
      </trkpt>
      <trkpt lat="45.46368" lon="4.64919">
        <ele>652.40002441406</ele>
        <time>2019-03-06T10:58:56.000Z</time>
      </trkpt>
      <trkpt lat="45.4636" lon="4.64913">
        <ele>652.59997558594</ele>
        <time>2019-03-06T10:59:06.000Z</time>
      </trkpt>
      <trkpt lat="45.46357" lon="4.64912">
        <ele>652.79998779297</ele>
        <time>2019-03-06T10:59:09.000Z</time>
      </trkpt>
      <trkpt lat="45.46352" lon="4.64908">
        <ele>653</ele>
        <time>2019-03-06T10:59:15.000Z</time>
      </trkpt>
      <trkpt lat="45.46351" lon="4.64908">
        <ele>653.20001220703</ele>
        <time>2019-03-06T10:59:16.000Z</time>
      </trkpt>
      <trkpt lat="45.46347" lon="4.64905">
        <ele>653.20001220703</ele>
        <time>2019-03-06T10:59:20.000Z</time>
      </trkpt>
      <trkpt lat="45.46345" lon="4.64904">
        <ele>653.40002441406</ele>
        <time>2019-03-06T10:59:22.000Z</time>
      </trkpt>
      <trkpt lat="45.46341" lon="4.64903">
        <ele>654</ele>
        <time>2019-03-06T10:59:27.000Z</time>
      </trkpt>
      <trkpt lat="45.46333" lon="4.649">
        <ele>654.59997558594</ele>
        <time>2019-03-06T10:59:34.000Z</time>
      </trkpt>
      <trkpt lat="45.46325" lon="4.64897">
        <ele>655.20001220703</ele>
        <time>2019-03-06T10:59:42.000Z</time>
      </trkpt>
      <trkpt lat="45.46318" lon="4.64895">
        <ele>655.40002441406</ele>
        <time>2019-03-06T10:59:52.000Z</time>
      </trkpt>
      <trkpt lat="45.46311" lon="4.64894">
        <ele>655.59997558594</ele>
        <time>2019-03-06T11:00:03.000Z</time>
      </trkpt>
      <trkpt lat="45.46311" lon="4.64895">
        <ele>655.59997558594</ele>
        <time>2019-03-06T11:00:15.000Z</time>
      </trkpt>
      <trkpt lat="45.46312" lon="4.64896">
        <ele>655.59997558594</ele>
        <time>2019-03-06T11:00:31.000Z</time>
      </trkpt>
      <trkpt lat="45.46312" lon="4.64894">
        <ele>655.59997558594</ele>
        <time>2019-03-06T11:00:47.000Z</time>
      </trkpt>
      <trkpt lat="45.46311" lon="4.64894">
        <ele>655.59997558594</ele>
        <time>2019-03-06T11:01:01.000Z</time>
      </trkpt>
      <trkpt lat="45.46313" lon="4.64894">
        <ele>655.59997558594</ele>
        <time>2019-03-06T11:01:17.000Z</time>
      </trkpt>
      <trkpt lat="45.46313" lon="4.64895">
        <ele>655.59997558594</ele>
        <time>2019-03-06T11:01:34.000Z</time>
      </trkpt>
      <trkpt lat="45.46312" lon="4.64894">
        <ele>655.59997558594</ele>
        <time>2019-03-06T11:01:53.000Z</time>
      </trkpt>
      <trkpt lat="45.46307" lon="4.64893">
        <ele>655.79998779297</ele>
        <time>2019-03-06T11:02:03.000Z</time>
      </trkpt>
      <trkpt lat="45.46302" lon="4.64895">
        <ele>656.20001220703</ele>
        <time>2019-03-06T11:02:12.000Z</time>
      </trkpt>
      <trkpt lat="45.46295" lon="4.64894">
        <ele>657</ele>
        <time>2019-03-06T11:02:19.000Z</time>
      </trkpt>
      <trkpt lat="45.46291" lon="4.64895">
        <ele>657.79998779297</ele>
        <time>2019-03-06T11:02:23.000Z</time>
      </trkpt>
      <trkpt lat="45.46283" lon="4.64899">
        <ele>659.20001220703</ele>
        <time>2019-03-06T11:02:32.000Z</time>
      </trkpt>
      <trkpt lat="45.46274" lon="4.64903">
        <ele>660.79998779297</ele>
        <time>2019-03-06T11:02:43.000Z</time>
      </trkpt>
      <trkpt lat="45.46267" lon="4.6491">
        <ele>662.40002441406</ele>
        <time>2019-03-06T11:02:53.000Z</time>
      </trkpt>
      <trkpt lat="45.46259" lon="4.64918">
        <ele>663.79998779297</ele>
        <time>2019-03-06T11:03:06.000Z</time>
      </trkpt>
      <trkpt lat="45.46254" lon="4.64921">
        <ele>664.40002441406</ele>
        <time>2019-03-06T11:03:14.000Z</time>
      </trkpt>
      <trkpt lat="45.46248" lon="4.64926">
        <ele>665.20001220703</ele>
        <time>2019-03-06T11:03:21.000Z</time>
      </trkpt>
      <trkpt lat="45.46244" lon="4.64929">
        <ele>665.59997558594</ele>
        <time>2019-03-06T11:03:29.000Z</time>
      </trkpt>
      <trkpt lat="45.46239" lon="4.64933">
        <ele>666.20001220703</ele>
        <time>2019-03-06T11:03:37.000Z</time>
      </trkpt>
      <trkpt lat="45.46237" lon="4.64934">
        <ele>666.59997558594</ele>
        <time>2019-03-06T11:03:40.000Z</time>
      </trkpt>
      <trkpt lat="45.46232" lon="4.64936">
        <ele>667</ele>
        <time>2019-03-06T11:03:45.000Z</time>
      </trkpt>
      <trkpt lat="45.46226" lon="4.64939">
        <ele>667.79998779297</ele>
        <time>2019-03-06T11:03:53.000Z</time>
      </trkpt>
      <trkpt lat="45.46215" lon="4.64944">
        <ele>669.40002441406</ele>
        <time>2019-03-06T11:04:05.000Z</time>
      </trkpt>
      <trkpt lat="45.46206" lon="4.64948">
        <ele>671.40002441406</ele>
        <time>2019-03-06T11:04:17.000Z</time>
      </trkpt>
      <trkpt lat="45.46199" lon="4.64956">
        <ele>672.40002441406</ele>
        <time>2019-03-06T11:04:29.000Z</time>
      </trkpt>
      <trkpt lat="45.46189" lon="4.6497">
        <ele>673</ele>
        <time>2019-03-06T11:04:44.000Z</time>
      </trkpt>
      <trkpt lat="45.46188" lon="4.64971">
        <ele>673</ele>
        <time>2019-03-06T11:04:45.000Z</time>
      </trkpt>
      <trkpt lat="45.46188" lon="4.64972">
        <ele>673</ele>
        <time>2019-03-06T11:04:46.000Z</time>
      </trkpt>
      <trkpt lat="45.46183" lon="4.6498">
        <ele>673.20001220703</ele>
        <time>2019-03-06T11:04:55.000Z</time>
      </trkpt>
      <trkpt lat="45.46183" lon="4.64981">
        <ele>673.20001220703</ele>
        <time>2019-03-06T11:04:56.000Z</time>
      </trkpt>
      <trkpt lat="45.46181" lon="4.64984">
        <ele>673.20001220703</ele>
        <time>2019-03-06T11:05:01.000Z</time>
      </trkpt>
      <trkpt lat="45.46171" lon="4.64996">
        <ele>674.20001220703</ele>
        <time>2019-03-06T11:05:14.000Z</time>
      </trkpt>
      <trkpt lat="45.46167" lon="4.65001">
        <ele>674.79998779297</ele>
        <time>2019-03-06T11:05:19.000Z</time>
      </trkpt>
      <trkpt lat="45.46163" lon="4.65007">
        <ele>675.40002441406</ele>
        <time>2019-03-06T11:05:27.000Z</time>
      </trkpt>
      <trkpt lat="45.46157" lon="4.65014">
        <ele>676.40002441406</ele>
        <time>2019-03-06T11:05:34.000Z</time>
      </trkpt>
      <trkpt lat="45.46151" lon="4.65021">
        <ele>677.40002441406</ele>
        <time>2019-03-06T11:05:44.000Z</time>
      </trkpt>
      <trkpt lat="45.46141" lon="4.65033">
        <ele>679.20001220703</ele>
        <time>2019-03-06T11:05:58.000Z</time>
      </trkpt>
      <trkpt lat="45.46134" lon="4.65047">
        <ele>680.20001220703</ele>
        <time>2019-03-06T11:06:11.000Z</time>
      </trkpt>
      <trkpt lat="45.46132" lon="4.65048">
        <ele>680.59997558594</ele>
        <time>2019-03-06T11:06:16.000Z</time>
      </trkpt>
      <trkpt lat="45.46132" lon="4.65047">
        <ele>680.79998779297</ele>
        <time>2019-03-06T11:06:17.000Z</time>
      </trkpt>
      <trkpt lat="45.46125" lon="4.65058">
        <ele>682.20001220703</ele>
        <time>2019-03-06T11:06:29.000Z</time>
      </trkpt>
      <trkpt lat="45.46121" lon="4.65064">
        <ele>683.20001220703</ele>
        <time>2019-03-06T11:06:36.000Z</time>
      </trkpt>
      <trkpt lat="45.46119" lon="4.65066">
        <ele>683.40002441406</ele>
        <time>2019-03-06T11:06:38.000Z</time>
      </trkpt>
      <trkpt lat="45.46113" lon="4.65074">
        <ele>684.79998779297</ele>
        <time>2019-03-06T11:06:47.000Z</time>
      </trkpt>
      <trkpt lat="45.46109" lon="4.6508">
        <ele>685.59997558594</ele>
        <time>2019-03-06T11:06:55.000Z</time>
      </trkpt>
      <trkpt lat="45.46103" lon="4.65084">
        <ele>687.20001220703</ele>
        <time>2019-03-06T11:07:05.000Z</time>
      </trkpt>
      <trkpt lat="45.46095" lon="4.65081">
        <ele>689.59997558594</ele>
        <time>2019-03-06T11:07:17.000Z</time>
      </trkpt>
      <trkpt lat="45.46084" lon="4.65086">
        <ele>692.20001220703</ele>
        <time>2019-03-06T11:07:30.000Z</time>
      </trkpt>
      <trkpt lat="45.46075" lon="4.65093">
        <ele>693.79998779297</ele>
        <time>2019-03-06T11:07:42.000Z</time>
      </trkpt>
      <trkpt lat="45.46071" lon="4.65095">
        <ele>694.79998779297</ele>
        <time>2019-03-06T11:07:48.000Z</time>
      </trkpt>
      <trkpt lat="45.4607" lon="4.65095">
        <ele>694.79998779297</ele>
        <time>2019-03-06T11:07:49.000Z</time>
      </trkpt>
      <trkpt lat="45.46058" lon="4.65103">
        <ele>697.20001220703</ele>
        <time>2019-03-06T11:08:03.000Z</time>
      </trkpt>
      <trkpt lat="45.4605" lon="4.6511">
        <ele>698.59997558594</ele>
        <time>2019-03-06T11:08:13.000Z</time>
      </trkpt>
      <trkpt lat="45.46043" lon="4.65116">
        <ele>699.79998779297</ele>
        <time>2019-03-06T11:08:23.000Z</time>
      </trkpt>
      <trkpt lat="45.46033" lon="4.65119">
        <ele>701.59997558594</ele>
        <time>2019-03-06T11:08:34.000Z</time>
      </trkpt>
      <trkpt lat="45.46025" lon="4.65123">
        <ele>702.79998779297</ele>
        <time>2019-03-06T11:08:43.000Z</time>
      </trkpt>
      <trkpt lat="45.46015" lon="4.65128">
        <ele>704</ele>
        <time>2019-03-06T11:08:54.000Z</time>
      </trkpt>
      <trkpt lat="45.46007" lon="4.65134">
        <ele>705</ele>
        <time>2019-03-06T11:09:03.000Z</time>
      </trkpt>
      <trkpt lat="45.45997" lon="4.6514">
        <ele>706.40002441406</ele>
        <time>2019-03-06T11:09:14.000Z</time>
      </trkpt>
      <trkpt lat="45.45987" lon="4.65147">
        <ele>707.59997558594</ele>
        <time>2019-03-06T11:09:26.000Z</time>
      </trkpt>
      <trkpt lat="45.45977" lon="4.65152">
        <ele>708.79998779297</ele>
        <time>2019-03-06T11:09:36.000Z</time>
      </trkpt>
      <trkpt lat="45.45966" lon="4.65158">
        <ele>710.40002441406</ele>
        <time>2019-03-06T11:09:48.000Z</time>
      </trkpt>
      <trkpt lat="45.45956" lon="4.65165">
        <ele>710.79998779297</ele>
        <time>2019-03-06T11:10:00.000Z</time>
      </trkpt>
      <trkpt lat="45.45948" lon="4.65173">
        <ele>711</ele>
        <time>2019-03-06T11:10:10.000Z</time>
      </trkpt>
      <trkpt lat="45.45942" lon="4.65176">
        <ele>711.40002441406</ele>
        <time>2019-03-06T11:10:17.000Z</time>
      </trkpt>
      <trkpt lat="45.45935" lon="4.6518">
        <ele>712.20001220703</ele>
        <time>2019-03-06T11:10:27.000Z</time>
      </trkpt>
      <trkpt lat="45.45929" lon="4.65182">
        <ele>713</ele>
        <time>2019-03-06T11:10:36.000Z</time>
      </trkpt>
      <trkpt lat="45.4592" lon="4.6518">
        <ele>714.79998779297</ele>
        <time>2019-03-06T11:10:47.000Z</time>
      </trkpt>
      <trkpt lat="45.45912" lon="4.65181">
        <ele>715.79998779297</ele>
        <time>2019-03-06T11:10:57.000Z</time>
      </trkpt>
      <trkpt lat="45.45904" lon="4.65183">
        <ele>717</ele>
        <time>2019-03-06T11:11:07.000Z</time>
      </trkpt>
      <trkpt lat="45.45896" lon="4.65186">
        <ele>718</ele>
        <time>2019-03-06T11:11:18.000Z</time>
      </trkpt>
      <trkpt lat="45.45885" lon="4.65187">
        <ele>719.59997558594</ele>
        <time>2019-03-06T11:11:32.000Z</time>
      </trkpt>
      <trkpt lat="45.45874" lon="4.65188">
        <ele>720.20001220703</ele>
        <time>2019-03-06T11:11:43.000Z</time>
      </trkpt>
      <trkpt lat="45.45872" lon="4.65186">
        <ele>720.40002441406</ele>
        <time>2019-03-06T11:11:46.000Z</time>
      </trkpt>
      <trkpt lat="45.45869" lon="4.65183">
        <ele>721</ele>
        <time>2019-03-06T11:11:51.000Z</time>
      </trkpt>
      <trkpt lat="45.45867" lon="4.65181">
        <ele>721.20001220703</ele>
        <time>2019-03-06T11:11:54.000Z</time>
      </trkpt>
      <trkpt lat="45.45861" lon="4.65174">
        <ele>722.20001220703</ele>
        <time>2019-03-06T11:12:02.000Z</time>
      </trkpt>
      <trkpt lat="45.45855" lon="4.6516">
        <ele>724.40002441406</ele>
        <time>2019-03-06T11:12:13.000Z</time>
      </trkpt>
      <trkpt lat="45.45853" lon="4.65156">
        <ele>724.79998779297</ele>
        <time>2019-03-06T11:12:16.000Z</time>
      </trkpt>
      <trkpt lat="45.45851" lon="4.65144">
        <ele>726.59997558594</ele>
        <time>2019-03-06T11:12:24.000Z</time>
      </trkpt>
      <trkpt lat="45.45848" lon="4.65138">
        <ele>727.40002441406</ele>
        <time>2019-03-06T11:12:29.000Z</time>
      </trkpt>
      <trkpt lat="45.45846" lon="4.65128">
        <ele>728.59997558594</ele>
        <time>2019-03-06T11:12:37.000Z</time>
      </trkpt>
      <trkpt lat="45.45845" lon="4.65126">
        <ele>729</ele>
        <time>2019-03-06T11:12:39.000Z</time>
      </trkpt>
      <trkpt lat="45.45837" lon="4.65118">
        <ele>730.40002441406</ele>
        <time>2019-03-06T11:12:48.000Z</time>
      </trkpt>
      <trkpt lat="45.45827" lon="4.65112">
        <ele>731.79998779297</ele>
        <time>2019-03-06T11:12:58.000Z</time>
      </trkpt>
      <trkpt lat="45.45825" lon="4.65111">
        <ele>732</ele>
        <time>2019-03-06T11:13:00.000Z</time>
      </trkpt>
      <trkpt lat="45.45817" lon="4.65103">
        <ele>733.59997558594</ele>
        <time>2019-03-06T11:13:10.000Z</time>
      </trkpt>
      <trkpt lat="45.45806" lon="4.65095">
        <ele>735.59997558594</ele>
        <time>2019-03-06T11:13:23.000Z</time>
      </trkpt>
      <trkpt lat="45.45796" lon="4.65087">
        <ele>737</ele>
        <time>2019-03-06T11:13:34.000Z</time>
      </trkpt>
      <trkpt lat="45.45788" lon="4.65077">
        <ele>738.59997558594</ele>
        <time>2019-03-06T11:13:45.000Z</time>
      </trkpt>
      <trkpt lat="45.45785" lon="4.65072">
        <ele>739.40002441406</ele>
        <time>2019-03-06T11:13:53.000Z</time>
      </trkpt>
      <trkpt lat="45.45783" lon="4.6507">
        <ele>739.59997558594</ele>
        <time>2019-03-06T11:13:56.000Z</time>
      </trkpt>
      <trkpt lat="45.45783" lon="4.6507">
        <ele>739.79998779297</ele>
        <time>2019-03-06T11:14:09.000Z</time>
      </trkpt>
      <trkpt lat="45.45783" lon="4.65068">
        <ele>740</ele>
        <time>2019-03-06T11:14:21.000Z</time>
      </trkpt>
      <trkpt lat="45.45782" lon="4.65067">
        <ele>740.20001220703</ele>
        <time>2019-03-06T11:14:30.000Z</time>
      </trkpt>
      <trkpt lat="45.45783" lon="4.65065">
        <ele>740.59997558594</ele>
        <time>2019-03-06T11:14:49.000Z</time>
      </trkpt>
      <trkpt lat="45.45783" lon="4.65065">
        <ele>740.59997558594</ele>
        <time>2019-03-06T11:14:56.000Z</time>
      </trkpt>
      <trkpt lat="45.45783" lon="4.65065">
        <ele>740.59997558594</ele>
        <time>2019-03-06T11:15:08.000Z</time>
      </trkpt>
      <trkpt lat="45.45782" lon="4.65066">
        <ele>740.40002441406</ele>
        <time>2019-03-06T11:15:20.000Z</time>
      </trkpt>
      <trkpt lat="45.45781" lon="4.65064">
        <ele>740.79998779297</ele>
        <time>2019-03-06T11:15:37.000Z</time>
      </trkpt>
      <trkpt lat="45.45773" lon="4.65057">
        <ele>741.79998779297</ele>
        <time>2019-03-06T11:15:48.000Z</time>
      </trkpt>
      <trkpt lat="45.4577" lon="4.65054">
        <ele>742</ele>
        <time>2019-03-06T11:15:51.000Z</time>
      </trkpt>
      <trkpt lat="45.45761" lon="4.65042">
        <ele>744</ele>
        <time>2019-03-06T11:16:02.000Z</time>
      </trkpt>
      <trkpt lat="45.45761" lon="4.6504">
        <ele>744.20001220703</ele>
        <time>2019-03-06T11:16:04.000Z</time>
      </trkpt>
      <trkpt lat="45.45757" lon="4.65036">
        <ele>745</ele>
        <time>2019-03-06T11:16:09.000Z</time>
      </trkpt>
      <trkpt lat="45.45748" lon="4.65025">
        <ele>746.40002441406</ele>
        <time>2019-03-06T11:16:21.000Z</time>
      </trkpt>
      <trkpt lat="45.45742" lon="4.65012">
        <ele>748.40002441406</ele>
        <time>2019-03-06T11:16:32.000Z</time>
      </trkpt>
      <trkpt lat="45.45734" lon="4.64999">
        <ele>750</ele>
        <time>2019-03-06T11:16:43.000Z</time>
      </trkpt>
      <trkpt lat="45.45726" lon="4.64987">
        <ele>751.79998779297</ele>
        <time>2019-03-06T11:16:54.000Z</time>
      </trkpt>
      <trkpt lat="45.45721" lon="4.64978">
        <ele>753</ele>
        <time>2019-03-06T11:17:02.000Z</time>
      </trkpt>
      <trkpt lat="45.45715" lon="4.64966">
        <ele>754.79998779297</ele>
        <time>2019-03-06T11:17:13.000Z</time>
      </trkpt>
      <trkpt lat="45.45712" lon="4.64955">
        <ele>756</ele>
        <time>2019-03-06T11:17:23.000Z</time>
      </trkpt>
      <trkpt lat="45.45708" lon="4.64945">
        <ele>756.59997558594</ele>
        <time>2019-03-06T11:17:32.000Z</time>
      </trkpt>
      <trkpt lat="45.45705" lon="4.64937">
        <ele>757.40002441406</ele>
        <time>2019-03-06T11:17:39.000Z</time>
      </trkpt>
      <trkpt lat="45.45701" lon="4.64926">
        <ele>758</ele>
        <time>2019-03-06T11:17:48.000Z</time>
      </trkpt>
      <trkpt lat="45.45698" lon="4.64919">
        <ele>758.59997558594</ele>
        <time>2019-03-06T11:17:55.000Z</time>
      </trkpt>
      <trkpt lat="45.45692" lon="4.64908">
        <ele>759.20001220703</ele>
        <time>2019-03-06T11:18:05.000Z</time>
      </trkpt>
      <trkpt lat="45.45687" lon="4.64895">
        <ele>760</ele>
        <time>2019-03-06T11:18:16.000Z</time>
      </trkpt>
      <trkpt lat="45.45681" lon="4.64883">
        <ele>760.59997558594</ele>
        <time>2019-03-06T11:18:26.000Z</time>
      </trkpt>
      <trkpt lat="45.45678" lon="4.6487">
        <ele>762</ele>
        <time>2019-03-06T11:18:38.000Z</time>
      </trkpt>
      <trkpt lat="45.45676" lon="4.64865">
        <ele>762.40002441406</ele>
        <time>2019-03-06T11:18:44.000Z</time>
      </trkpt>
      <trkpt lat="45.4567" lon="4.64853">
        <ele>763.59997558594</ele>
        <time>2019-03-06T11:18:54.000Z</time>
      </trkpt>
      <trkpt lat="45.45664" lon="4.64839">
        <ele>765</ele>
        <time>2019-03-06T11:19:06.000Z</time>
      </trkpt>
      <trkpt lat="45.45659" lon="4.64828">
        <ele>766</ele>
        <time>2019-03-06T11:19:17.000Z</time>
      </trkpt>
      <trkpt lat="45.45653" lon="4.64817">
        <ele>767</ele>
        <time>2019-03-06T11:19:28.000Z</time>
      </trkpt>
      <trkpt lat="45.45653" lon="4.64815">
        <ele>767.20001220703</ele>
        <time>2019-03-06T11:19:29.000Z</time>
      </trkpt>
      <trkpt lat="45.45645" lon="4.64807">
        <ele>767.40002441406</ele>
        <time>2019-03-06T11:19:39.000Z</time>
      </trkpt>
      <trkpt lat="45.45637" lon="4.64798">
        <ele>767.59997558594</ele>
        <time>2019-03-06T11:19:49.000Z</time>
      </trkpt>
      <trkpt lat="45.45629" lon="4.64794">
        <ele>767.40002441406</ele>
        <time>2019-03-06T11:20:00.000Z</time>
      </trkpt>
      <trkpt lat="45.45625" lon="4.64791">
        <ele>767.20001220703</ele>
        <time>2019-03-06T11:20:04.000Z</time>
      </trkpt>
      <trkpt lat="45.45611" lon="4.64787">
        <ele>766.79998779297</ele>
        <time>2019-03-06T11:20:14.000Z</time>
      </trkpt>
      <trkpt lat="45.45605" lon="4.64784">
        <ele>766.79998779297</ele>
        <time>2019-03-06T11:20:20.000Z</time>
      </trkpt>
      <trkpt lat="45.45592" lon="4.64779">
        <ele>766.79998779297</ele>
        <time>2019-03-06T11:20:31.000Z</time>
      </trkpt>
      <trkpt lat="45.45587" lon="4.64777">
        <ele>767</ele>
        <time>2019-03-06T11:20:36.000Z</time>
      </trkpt>
      <trkpt lat="45.45583" lon="4.64775">
        <ele>766.79998779297</ele>
        <time>2019-03-06T11:20:39.000Z</time>
      </trkpt>
      <trkpt lat="45.45574" lon="4.64773">
        <ele>766.40002441406</ele>
        <time>2019-03-06T11:20:47.000Z</time>
      </trkpt>
      <trkpt lat="45.45562" lon="4.64772">
        <ele>765.59997558594</ele>
        <time>2019-03-06T11:20:57.000Z</time>
      </trkpt>
      <trkpt lat="45.45552" lon="4.64772">
        <ele>764.79998779297</ele>
        <time>2019-03-06T11:21:06.000Z</time>
      </trkpt>
      <trkpt lat="45.45541" lon="4.64772">
        <ele>765</ele>
        <time>2019-03-06T11:21:15.000Z</time>
      </trkpt>
      <trkpt lat="45.45532" lon="4.64774">
        <ele>764.79998779297</ele>
        <time>2019-03-06T11:21:23.000Z</time>
      </trkpt>
      <trkpt lat="45.45521" lon="4.64779">
        <ele>763.79998779297</ele>
        <time>2019-03-06T11:21:33.000Z</time>
      </trkpt>
      <trkpt lat="45.45514" lon="4.64782">
        <ele>763.20001220703</ele>
        <time>2019-03-06T11:21:41.000Z</time>
      </trkpt>
      <trkpt lat="45.45501" lon="4.64791">
        <ele>761.59997558594</ele>
        <time>2019-03-06T11:21:53.000Z</time>
      </trkpt>
      <trkpt lat="45.45487" lon="4.64799">
        <ele>760.40002441406</ele>
        <time>2019-03-06T11:22:06.000Z</time>
      </trkpt>
      <trkpt lat="45.45477" lon="4.64807">
        <ele>759.59997558594</ele>
        <time>2019-03-06T11:22:17.000Z</time>
      </trkpt>
      <trkpt lat="45.4547" lon="4.64812">
        <ele>759</ele>
        <time>2019-03-06T11:22:25.000Z</time>
      </trkpt>
      <trkpt lat="45.45462" lon="4.64818">
        <ele>758.59997558594</ele>
        <time>2019-03-06T11:22:34.000Z</time>
      </trkpt>
      <trkpt lat="45.45451" lon="4.64825">
        <ele>758.40002441406</ele>
        <time>2019-03-06T11:22:44.000Z</time>
      </trkpt>
      <trkpt lat="45.45442" lon="4.64831">
        <ele>758.40002441406</ele>
        <time>2019-03-06T11:22:53.000Z</time>
      </trkpt>
      <trkpt lat="45.45434" lon="4.64839">
        <ele>757.79998779297</ele>
        <time>2019-03-06T11:23:01.000Z</time>
      </trkpt>
      <trkpt lat="45.45423" lon="4.64843">
        <ele>758</ele>
        <time>2019-03-06T11:23:11.000Z</time>
      </trkpt>
      <trkpt lat="45.45408" lon="4.64844">
        <ele>759.40002441406</ele>
        <time>2019-03-06T11:23:24.000Z</time>
      </trkpt>
      <trkpt lat="45.454" lon="4.64844">
        <ele>760.20001220703</ele>
        <time>2019-03-06T11:23:33.000Z</time>
      </trkpt>
      <trkpt lat="45.45391" lon="4.64842">
        <ele>761.40002441406</ele>
        <time>2019-03-06T11:23:42.000Z</time>
      </trkpt>
      <trkpt lat="45.45386" lon="4.64841">
        <ele>762</ele>
        <time>2019-03-06T11:23:46.000Z</time>
      </trkpt>
      <trkpt lat="45.45374" lon="4.6484">
        <ele>763.59997558594</ele>
        <time>2019-03-06T11:23:57.000Z</time>
      </trkpt>
      <trkpt lat="45.45364" lon="4.6484">
        <ele>764.59997558594</ele>
        <time>2019-03-06T11:24:06.000Z</time>
      </trkpt>
      <trkpt lat="45.45354" lon="4.64842">
        <ele>765.20001220703</ele>
        <time>2019-03-06T11:24:15.000Z</time>
      </trkpt>
      <trkpt lat="45.45347" lon="4.64845">
        <ele>765.20001220703</ele>
        <time>2019-03-06T11:24:24.000Z</time>
      </trkpt>
      <trkpt lat="45.45338" lon="4.6485">
        <ele>764.79998779297</ele>
        <time>2019-03-06T11:24:35.000Z</time>
      </trkpt>
      <trkpt lat="45.45336" lon="4.64852">
        <ele>764.59997558594</ele>
        <time>2019-03-06T11:24:38.000Z</time>
      </trkpt>
      <trkpt lat="45.45326" lon="4.64863">
        <ele>763</ele>
        <time>2019-03-06T11:24:52.000Z</time>
      </trkpt>
      <trkpt lat="45.45319" lon="4.64871">
        <ele>762</ele>
        <time>2019-03-06T11:25:03.000Z</time>
      </trkpt>
      <trkpt lat="45.45315" lon="4.6488">
        <ele>761.40002441406</ele>
        <time>2019-03-06T11:25:13.000Z</time>
      </trkpt>
      <trkpt lat="45.45312" lon="4.64891">
        <ele>761</ele>
        <time>2019-03-06T11:25:24.000Z</time>
      </trkpt>
      <trkpt lat="45.45307" lon="4.64905">
        <ele>760.79998779297</ele>
        <time>2019-03-06T11:25:34.000Z</time>
      </trkpt>
      <trkpt lat="45.45303" lon="4.6492">
        <ele>760.40002441406</ele>
        <time>2019-03-06T11:25:48.000Z</time>
      </trkpt>
      <trkpt lat="45.45297" lon="4.6493">
        <ele>761</ele>
        <time>2019-03-06T11:26:00.000Z</time>
      </trkpt>
      <trkpt lat="45.45288" lon="4.64941">
        <ele>762.59997558594</ele>
        <time>2019-03-06T11:26:13.000Z</time>
      </trkpt>
      <trkpt lat="45.45286" lon="4.64943">
        <ele>763</ele>
        <time>2019-03-06T11:26:16.000Z</time>
      </trkpt>
      <trkpt lat="45.45285" lon="4.64945">
        <ele>763</ele>
        <time>2019-03-06T11:26:19.000Z</time>
      </trkpt>
      <trkpt lat="45.4528" lon="4.64957">
        <ele>764.20001220703</ele>
        <time>2019-03-06T11:26:31.000Z</time>
      </trkpt>
      <trkpt lat="45.45273" lon="4.64969">
        <ele>765.79998779297</ele>
        <time>2019-03-06T11:26:43.000Z</time>
      </trkpt>
      <trkpt lat="45.45268" lon="4.64979">
        <ele>767.20001220703</ele>
        <time>2019-03-06T11:26:55.000Z</time>
      </trkpt>
      <trkpt lat="45.45264" lon="4.64992">
        <ele>768.20001220703</ele>
        <time>2019-03-06T11:27:09.000Z</time>
      </trkpt>
      <trkpt lat="45.45261" lon="4.65002">
        <ele>769</ele>
        <time>2019-03-06T11:27:23.000Z</time>
      </trkpt>
      <trkpt lat="45.45259" lon="4.65005">
        <ele>769.59997558594</ele>
        <time>2019-03-06T11:27:32.000Z</time>
      </trkpt>
      <trkpt lat="45.45258" lon="4.65015">
        <ele>769.79998779297</ele>
        <time>2019-03-06T11:27:43.000Z</time>
      </trkpt>
      <trkpt lat="45.45258" lon="4.65024">
        <ele>770</ele>
        <time>2019-03-06T11:27:49.000Z</time>
      </trkpt>
      <trkpt lat="45.45258" lon="4.6503">
        <ele>769.79998779297</ele>
        <time>2019-03-06T11:27:54.000Z</time>
      </trkpt>
      <trkpt lat="45.45259" lon="4.65037">
        <ele>769.59997558594</ele>
        <time>2019-03-06T11:27:58.000Z</time>
      </trkpt>
      <trkpt lat="45.4526" lon="4.65038">
        <ele>769.40002441406</ele>
        <time>2019-03-06T11:27:59.000Z</time>
      </trkpt>
      <trkpt lat="45.45262" lon="4.6505">
        <ele>769.40002441406</ele>
        <time>2019-03-06T11:28:08.000Z</time>
      </trkpt>
      <trkpt lat="45.4526" lon="4.65063">
        <ele>770.20001220703</ele>
        <time>2019-03-06T11:28:19.000Z</time>
      </trkpt>
      <trkpt lat="45.45259" lon="4.65062">
        <ele>770.59997558594</ele>
        <time>2019-03-06T11:28:21.000Z</time>
      </trkpt>
      <trkpt lat="45.45256" lon="4.65058">
        <ele>771.20001220703</ele>
        <time>2019-03-06T11:28:25.000Z</time>
      </trkpt>
      <trkpt lat="45.45249" lon="4.65045">
        <ele>772.59997558594</ele>
        <time>2019-03-06T11:28:36.000Z</time>
      </trkpt>
      <trkpt lat="45.45245" lon="4.65037">
        <ele>773.20001220703</ele>
        <time>2019-03-06T11:28:43.000Z</time>
      </trkpt>
      <trkpt lat="45.45238" lon="4.65028">
        <ele>775</ele>
        <time>2019-03-06T11:28:53.000Z</time>
      </trkpt>
      <trkpt lat="45.45232" lon="4.65022">
        <ele>776.79998779297</ele>
        <time>2019-03-06T11:29:01.000Z</time>
      </trkpt>
      <trkpt lat="45.45223" lon="4.65013">
        <ele>779.20001220703</ele>
        <time>2019-03-06T11:29:13.000Z</time>
      </trkpt>
      <trkpt lat="45.45216" lon="4.65006">
        <ele>781</ele>
        <time>2019-03-06T11:29:24.000Z</time>
      </trkpt>
      <trkpt lat="45.45215" lon="4.65005">
        <ele>781.20001220703</ele>
        <time>2019-03-06T11:29:25.000Z</time>
      </trkpt>
      <trkpt lat="45.45206" lon="4.65001">
        <ele>783.20001220703</ele>
        <time>2019-03-06T11:29:36.000Z</time>
      </trkpt>
      <trkpt lat="45.45201" lon="4.65004">
        <ele>784</ele>
        <time>2019-03-06T11:29:47.000Z</time>
      </trkpt>
      <trkpt lat="45.45201" lon="4.65004">
        <ele>784</ele>
        <time>2019-03-06T11:30:09.000Z</time>
      </trkpt>
      <trkpt lat="45.45201" lon="4.65004">
        <ele>784</ele>
        <time>2019-03-06T11:30:31.000Z</time>
      </trkpt>
      <trkpt lat="45.45202" lon="4.65012">
        <ele>783.79998779297</ele>
        <time>2019-03-06T11:30:43.000Z</time>
      </trkpt>
      <trkpt lat="45.45204" lon="4.65024">
        <ele>783.40002441406</ele>
        <time>2019-03-06T11:30:54.000Z</time>
      </trkpt>
      <trkpt lat="45.45205" lon="4.65031">
        <ele>783.20001220703</ele>
        <time>2019-03-06T11:31:04.000Z</time>
      </trkpt>
      <trkpt lat="45.45204" lon="4.65041">
        <ele>783.59997558594</ele>
        <time>2019-03-06T11:31:14.000Z</time>
      </trkpt>
      <trkpt lat="45.45199" lon="4.65047">
        <ele>784.79998779297</ele>
        <time>2019-03-06T11:31:23.000Z</time>
      </trkpt>
      <trkpt lat="45.45194" lon="4.6505">
        <ele>786</ele>
        <time>2019-03-06T11:31:31.000Z</time>
      </trkpt>
      <trkpt lat="45.45188" lon="4.65051">
        <ele>787.20001220703</ele>
        <time>2019-03-06T11:31:39.000Z</time>
      </trkpt>
      <trkpt lat="45.45182" lon="4.65053">
        <ele>788.59997558594</ele>
        <time>2019-03-06T11:31:48.000Z</time>
      </trkpt>
      <trkpt lat="45.45179" lon="4.65054">
        <ele>789.20001220703</ele>
        <time>2019-03-06T11:31:53.000Z</time>
      </trkpt>
      <trkpt lat="45.45173" lon="4.65056">
        <ele>790.40002441406</ele>
        <time>2019-03-06T11:32:03.000Z</time>
      </trkpt>
      <trkpt lat="45.45166" lon="4.65055">
        <ele>791.79998779297</ele>
        <time>2019-03-06T11:32:13.000Z</time>
      </trkpt>
      <trkpt lat="45.45159" lon="4.65052">
        <ele>793</ele>
        <time>2019-03-06T11:32:24.000Z</time>
      </trkpt>
      <trkpt lat="45.45151" lon="4.6505">
        <ele>794.59997558594</ele>
        <time>2019-03-06T11:32:35.000Z</time>
      </trkpt>
      <trkpt lat="45.45144" lon="4.65049">
        <ele>796</ele>
        <time>2019-03-06T11:32:46.000Z</time>
      </trkpt>
      <trkpt lat="45.45143" lon="4.65048">
        <ele>796.20001220703</ele>
        <time>2019-03-06T11:32:49.000Z</time>
      </trkpt>
      <trkpt lat="45.45139" lon="4.65048">
        <ele>797</ele>
        <time>2019-03-06T11:32:58.000Z</time>
      </trkpt>
      <trkpt lat="45.45132" lon="4.65047">
        <ele>798.20001220703</ele>
        <time>2019-03-06T11:33:09.000Z</time>
      </trkpt>
      <trkpt lat="45.45129" lon="4.65047">
        <ele>798.79998779297</ele>
        <time>2019-03-06T11:33:17.000Z</time>
      </trkpt>
      <trkpt lat="45.45123" lon="4.65046">
        <ele>800</ele>
        <time>2019-03-06T11:33:26.000Z</time>
      </trkpt>
      <trkpt lat="45.45118" lon="4.65045">
        <ele>801</ele>
        <time>2019-03-06T11:33:33.000Z</time>
      </trkpt>
      <trkpt lat="45.45111" lon="4.65046">
        <ele>802.40002441406</ele>
        <time>2019-03-06T11:33:42.000Z</time>
      </trkpt>
      <trkpt lat="45.45107" lon="4.65046">
        <ele>803.20001220703</ele>
        <time>2019-03-06T11:33:49.000Z</time>
      </trkpt>
      <trkpt lat="45.45105" lon="4.65046">
        <ele>803.59997558594</ele>
        <time>2019-03-06T11:33:51.000Z</time>
      </trkpt>
      <trkpt lat="45.451" lon="4.65045">
        <ele>804.59997558594</ele>
        <time>2019-03-06T11:34:02.000Z</time>
      </trkpt>
      <trkpt lat="45.45093" lon="4.65045">
        <ele>806.20001220703</ele>
        <time>2019-03-06T11:34:15.000Z</time>
      </trkpt>
      <trkpt lat="45.4509" lon="4.65045">
        <ele>806.79998779297</ele>
        <time>2019-03-06T11:34:20.000Z</time>
      </trkpt>
      <trkpt lat="45.45081" lon="4.65045">
        <ele>808.59997558594</ele>
        <time>2019-03-06T11:34:34.000Z</time>
      </trkpt>
      <trkpt lat="45.45075" lon="4.65039">
        <ele>809.79998779297</ele>
        <time>2019-03-06T11:34:46.000Z</time>
      </trkpt>
      <trkpt lat="45.4507" lon="4.65032">
        <ele>810.59997558594</ele>
        <time>2019-03-06T11:34:55.000Z</time>
      </trkpt>
      <trkpt lat="45.45064" lon="4.65022">
        <ele>812</ele>
        <time>2019-03-06T11:35:07.000Z</time>
      </trkpt>
      <trkpt lat="45.45058" lon="4.65012">
        <ele>813.20001220703</ele>
        <time>2019-03-06T11:35:19.000Z</time>
      </trkpt>
      <trkpt lat="45.45054" lon="4.65005">
        <ele>814.20001220703</ele>
        <time>2019-03-06T11:35:28.000Z</time>
      </trkpt>
      <trkpt lat="45.45049" lon="4.64997">
        <ele>815</ele>
        <time>2019-03-06T11:35:38.000Z</time>
      </trkpt>
      <trkpt lat="45.45043" lon="4.6499">
        <ele>816</ele>
        <time>2019-03-06T11:35:47.000Z</time>
      </trkpt>
      <trkpt lat="45.45043" lon="4.64989">
        <ele>816.20001220703</ele>
        <time>2019-03-06T11:35:48.000Z</time>
      </trkpt>
      <trkpt lat="45.45036" lon="4.64978">
        <ele>817.40002441406</ele>
        <time>2019-03-06T11:36:01.000Z</time>
      </trkpt>
      <trkpt lat="45.45031" lon="4.64971">
        <ele>818.20001220703</ele>
        <time>2019-03-06T11:36:11.000Z</time>
      </trkpt>
      <trkpt lat="45.45028" lon="4.64967">
        <ele>818.79998779297</ele>
        <time>2019-03-06T11:36:16.000Z</time>
      </trkpt>
      <trkpt lat="45.45028" lon="4.64967">
        <ele>818.79998779297</ele>
        <time>2019-03-06T11:36:17.000Z</time>
      </trkpt>
      <trkpt lat="45.45022" lon="4.64957">
        <ele>820</ele>
        <time>2019-03-06T11:36:29.000Z</time>
      </trkpt>
      <trkpt lat="45.45017" lon="4.64949">
        <ele>821.20001220703</ele>
        <time>2019-03-06T11:36:38.000Z</time>
      </trkpt>
      <trkpt lat="45.45011" lon="4.64941">
        <ele>822.79998779297</ele>
        <time>2019-03-06T11:36:48.000Z</time>
      </trkpt>
      <trkpt lat="45.45008" lon="4.64937">
        <ele>823.79998779297</ele>
        <time>2019-03-06T11:36:54.000Z</time>
      </trkpt>
      <trkpt lat="45.45004" lon="4.64926">
        <ele>825.20001220703</ele>
        <time>2019-03-06T11:37:04.000Z</time>
      </trkpt>
      <trkpt lat="45.45001" lon="4.64917">
        <ele>826.59997558594</ele>
        <time>2019-03-06T11:37:13.000Z</time>
      </trkpt>
      <trkpt lat="45.44997" lon="4.64909">
        <ele>828</ele>
        <time>2019-03-06T11:37:23.000Z</time>
      </trkpt>
      <trkpt lat="45.4499" lon="4.64897">
        <ele>830.20001220703</ele>
        <time>2019-03-06T11:37:36.000Z</time>
      </trkpt>
      <trkpt lat="45.44985" lon="4.64888">
        <ele>832</ele>
        <time>2019-03-06T11:37:46.000Z</time>
      </trkpt>
      <trkpt lat="45.44981" lon="4.6488">
        <ele>833.59997558594</ele>
        <time>2019-03-06T11:37:56.000Z</time>
      </trkpt>
      <trkpt lat="45.44976" lon="4.64874">
        <ele>834.79998779297</ele>
        <time>2019-03-06T11:38:04.000Z</time>
      </trkpt>
      <trkpt lat="45.4497" lon="4.64865">
        <ele>836.59997558594</ele>
        <time>2019-03-06T11:38:14.000Z</time>
      </trkpt>
      <trkpt lat="45.44965" lon="4.64857">
        <ele>838.20001220703</ele>
        <time>2019-03-06T11:38:24.000Z</time>
      </trkpt>
      <trkpt lat="45.4496" lon="4.64849">
        <ele>839</ele>
        <time>2019-03-06T11:38:33.000Z</time>
      </trkpt>
      <trkpt lat="45.44957" lon="4.64845">
        <ele>839.40002441406</ele>
        <time>2019-03-06T11:38:44.000Z</time>
      </trkpt>
      <trkpt lat="45.44957" lon="4.64845">
        <ele>839.40002441406</ele>
        <time>2019-03-06T11:38:59.000Z</time>
      </trkpt>
      <trkpt lat="45.44955" lon="4.64845">
        <ele>839.20001220703</ele>
        <time>2019-03-06T11:39:10.000Z</time>
      </trkpt>
      <trkpt lat="45.44954" lon="4.64846">
        <ele>839.20001220703</ele>
        <time>2019-03-06T11:39:19.000Z</time>
      </trkpt>
      <trkpt lat="45.44953" lon="4.64848">
        <ele>839</ele>
        <time>2019-03-06T11:39:27.000Z</time>
      </trkpt>
      <trkpt lat="45.44952" lon="4.64848">
        <ele>839</ele>
        <time>2019-03-06T11:39:49.000Z</time>
      </trkpt>
      <trkpt lat="45.44953" lon="4.64848">
        <ele>839</ele>
        <time>2019-03-06T11:40:06.000Z</time>
      </trkpt>
      <trkpt lat="45.44952" lon="4.64851">
        <ele>838.79998779297</ele>
        <time>2019-03-06T11:40:18.000Z</time>
      </trkpt>
      <trkpt lat="45.44951" lon="4.64854">
        <ele>838.40002441406</ele>
        <time>2019-03-06T11:40:31.000Z</time>
      </trkpt>
      <trkpt lat="45.44951" lon="4.64857">
        <ele>838.20001220703</ele>
        <time>2019-03-06T11:40:39.000Z</time>
      </trkpt>
      <trkpt lat="45.44952" lon="4.64859">
        <ele>838</ele>
        <time>2019-03-06T11:40:49.000Z</time>
      </trkpt>
      <trkpt lat="45.44952" lon="4.64859">
        <ele>838</ele>
        <time>2019-03-06T11:41:04.000Z</time>
      </trkpt>
      <trkpt lat="45.44951" lon="4.64859">
        <ele>838</ele>
        <time>2019-03-06T11:41:23.000Z</time>
      </trkpt>
      <trkpt lat="45.44951" lon="4.64859">
        <ele>838</ele>
        <time>2019-03-06T11:41:35.000Z</time>
      </trkpt>
      <trkpt lat="45.44951" lon="4.64863">
        <ele>837.59997558594</ele>
        <time>2019-03-06T11:41:44.000Z</time>
      </trkpt>
      <trkpt lat="45.4495" lon="4.64874">
        <ele>836.59997558594</ele>
        <time>2019-03-06T11:41:52.000Z</time>
      </trkpt>
      <trkpt lat="45.4495" lon="4.64879">
        <ele>836.20001220703</ele>
        <time>2019-03-06T11:41:55.000Z</time>
      </trkpt>
      <trkpt lat="45.44949" lon="4.64896">
        <ele>834.79998779297</ele>
        <time>2019-03-06T11:42:06.000Z</time>
      </trkpt>
      <trkpt lat="45.44948" lon="4.64913">
        <ele>833.40002441406</ele>
        <time>2019-03-06T11:42:18.000Z</time>
      </trkpt>
      <trkpt lat="45.44946" lon="4.64933">
        <ele>831.59997558594</ele>
        <time>2019-03-06T11:42:31.000Z</time>
      </trkpt>
      <trkpt lat="45.44946" lon="4.64935">
        <ele>831.59997558594</ele>
        <time>2019-03-06T11:42:33.000Z</time>
      </trkpt>
      <trkpt lat="45.44945" lon="4.64943">
        <ele>831.20001220703</ele>
        <time>2019-03-06T11:42:39.000Z</time>
      </trkpt>
      <trkpt lat="45.44945" lon="4.64945">
        <ele>831.20001220703</ele>
        <time>2019-03-06T11:42:40.000Z</time>
      </trkpt>
      <trkpt lat="45.44944" lon="4.64946">
        <ele>831</ele>
        <time>2019-03-06T11:42:41.000Z</time>
      </trkpt>
      <trkpt lat="45.44944" lon="4.64948">
        <ele>831</ele>
        <time>2019-03-06T11:42:42.000Z</time>
      </trkpt>
      <trkpt lat="45.44944" lon="4.6495">
        <ele>831</ele>
        <time>2019-03-06T11:42:43.000Z</time>
      </trkpt>
      <trkpt lat="45.44944" lon="4.64951">
        <ele>830.79998779297</ele>
        <time>2019-03-06T11:42:44.000Z</time>
      </trkpt>
      <trkpt lat="45.44945" lon="4.64967">
        <ele>830.79998779297</ele>
        <time>2019-03-06T11:42:54.000Z</time>
      </trkpt>
      <trkpt lat="45.44944" lon="4.64986">
        <ele>830.79998779297</ele>
        <time>2019-03-06T11:43:06.000Z</time>
      </trkpt>
      <trkpt lat="45.44943" lon="4.64988">
        <ele>830.79998779297</ele>
        <time>2019-03-06T11:43:07.000Z</time>
      </trkpt>
      <trkpt lat="45.44943" lon="4.65007">
        <ele>830.79998779297</ele>
        <time>2019-03-06T11:43:19.000Z</time>
      </trkpt>
      <trkpt lat="45.44942" lon="4.65024">
        <ele>831</ele>
        <time>2019-03-06T11:43:30.000Z</time>
      </trkpt>
      <trkpt lat="45.44942" lon="4.65036">
        <ele>831.20001220703</ele>
        <time>2019-03-06T11:43:39.000Z</time>
      </trkpt>
      <trkpt lat="45.44942" lon="4.65053">
        <ele>832.59997558594</ele>
        <time>2019-03-06T11:43:52.000Z</time>
      </trkpt>
      <trkpt lat="45.44942" lon="4.65065">
        <ele>833.59997558594</ele>
        <time>2019-03-06T11:44:02.000Z</time>
      </trkpt>
      <trkpt lat="45.44942" lon="4.65077">
        <ele>834.59997558594</ele>
        <time>2019-03-06T11:44:13.000Z</time>
      </trkpt>
      <trkpt lat="45.44943" lon="4.65086">
        <ele>835.20001220703</ele>
        <time>2019-03-06T11:44:20.000Z</time>
      </trkpt>
      <trkpt lat="45.44943" lon="4.65093">
        <ele>836</ele>
        <time>2019-03-06T11:44:28.000Z</time>
      </trkpt>
      <trkpt lat="45.44943" lon="4.65099">
        <ele>836.40002441406</ele>
        <time>2019-03-06T11:44:34.000Z</time>
      </trkpt>
      <trkpt lat="45.44943" lon="4.651">
        <ele>836.40002441406</ele>
        <time>2019-03-06T11:44:36.000Z</time>
      </trkpt>
      <trkpt lat="45.44941" lon="4.6511">
        <ele>837.20001220703</ele>
        <time>2019-03-06T11:44:47.000Z</time>
      </trkpt>
      <trkpt lat="45.44939" lon="4.65122">
        <ele>838.20001220703</ele>
        <time>2019-03-06T11:44:58.000Z</time>
      </trkpt>
      <trkpt lat="45.44942" lon="4.65132">
        <ele>839</ele>
        <time>2019-03-06T11:45:08.000Z</time>
      </trkpt>
      <trkpt lat="45.44939" lon="4.65145">
        <ele>840.20001220703</ele>
        <time>2019-03-06T11:45:20.000Z</time>
      </trkpt>
      <trkpt lat="45.44934" lon="4.65149">
        <ele>840.59997558594</ele>
        <time>2019-03-06T11:45:28.000Z</time>
      </trkpt>
      <trkpt lat="45.44928" lon="4.65162">
        <ele>842</ele>
        <time>2019-03-06T11:45:43.000Z</time>
      </trkpt>
      <trkpt lat="45.44926" lon="4.65171">
        <ele>843.20001220703</ele>
        <time>2019-03-06T11:45:53.000Z</time>
      </trkpt>
      <trkpt lat="45.44928" lon="4.65176">
        <ele>843.59997558594</ele>
        <time>2019-03-06T11:46:00.000Z</time>
      </trkpt>
      <trkpt lat="45.44929" lon="4.65179">
        <ele>844</ele>
        <time>2019-03-06T11:46:05.000Z</time>
      </trkpt>
      <trkpt lat="45.44932" lon="4.65189">
        <ele>845</ele>
        <time>2019-03-06T11:46:17.000Z</time>
      </trkpt>
      <trkpt lat="45.44931" lon="4.65199">
        <ele>846.40002441406</ele>
        <time>2019-03-06T11:46:27.000Z</time>
      </trkpt>
      <trkpt lat="45.44929" lon="4.65207">
        <ele>847.40002441406</ele>
        <time>2019-03-06T11:46:36.000Z</time>
      </trkpt>
      <trkpt lat="45.44927" lon="4.65215">
        <ele>848</ele>
        <time>2019-03-06T11:46:44.000Z</time>
      </trkpt>
      <trkpt lat="45.44924" lon="4.65223">
        <ele>848.79998779297</ele>
        <time>2019-03-06T11:46:53.000Z</time>
      </trkpt>
      <trkpt lat="45.44923" lon="4.65225">
        <ele>849</ele>
        <time>2019-03-06T11:46:55.000Z</time>
      </trkpt>
      <trkpt lat="45.44921" lon="4.65228">
        <ele>849.20001220703</ele>
        <time>2019-03-06T11:47:04.000Z</time>
      </trkpt>
      <trkpt lat="45.44919" lon="4.65232">
        <ele>849.59997558594</ele>
        <time>2019-03-06T11:47:15.000Z</time>
      </trkpt>
      <trkpt lat="45.44918" lon="4.65242">
        <ele>850.40002441406</ele>
        <time>2019-03-06T11:47:24.000Z</time>
      </trkpt>
      <trkpt lat="45.44917" lon="4.65243">
        <ele>850.59997558594</ele>
        <time>2019-03-06T11:47:25.000Z</time>
      </trkpt>
      <trkpt lat="45.44915" lon="4.65249">
        <ele>851.40002441406</ele>
        <time>2019-03-06T11:47:31.000Z</time>
      </trkpt>
      <trkpt lat="45.44913" lon="4.65253">
        <ele>852</ele>
        <time>2019-03-06T11:47:35.000Z</time>
      </trkpt>
      <trkpt lat="45.44911" lon="4.65254">
        <ele>852.40002441406</ele>
        <time>2019-03-06T11:47:44.000Z</time>
      </trkpt>
      <trkpt lat="45.4491" lon="4.65254">
        <ele>852.40002441406</ele>
        <time>2019-03-06T11:47:48.000Z</time>
      </trkpt>
      <trkpt lat="45.4491" lon="4.65254">
        <ele>852.40002441406</ele>
        <time>2019-03-06T11:48:02.000Z</time>
      </trkpt>
      <trkpt lat="45.4491" lon="4.65254">
        <ele>852.40002441406</ele>
        <time>2019-03-06T11:48:07.000Z</time>
      </trkpt>
      <trkpt lat="45.4491" lon="4.65254">
        <ele>852.40002441406</ele>
        <time>2019-03-06T11:48:08.000Z</time>
      </trkpt>
      <trkpt lat="45.44907" lon="4.65265">
        <ele>853.59997558594</ele>
        <time>2019-03-06T11:48:18.000Z</time>
      </trkpt>
      <trkpt lat="45.44906" lon="4.65268">
        <ele>854</ele>
        <time>2019-03-06T11:48:20.000Z</time>
      </trkpt>
      <trkpt lat="45.44906" lon="4.65281">
        <ele>855</ele>
        <time>2019-03-06T11:48:30.000Z</time>
      </trkpt>
      <trkpt lat="45.44906" lon="4.6529">
        <ele>855.79998779297</ele>
        <time>2019-03-06T11:48:39.000Z</time>
      </trkpt>
      <trkpt lat="45.44906" lon="4.65296">
        <ele>856.20001220703</ele>
        <time>2019-03-06T11:48:44.000Z</time>
      </trkpt>
      <trkpt lat="45.44905" lon="4.65308">
        <ele>857.20001220703</ele>
        <time>2019-03-06T11:48:53.000Z</time>
      </trkpt>
      <trkpt lat="45.44903" lon="4.65321">
        <ele>858.59997558594</ele>
        <time>2019-03-06T11:49:04.000Z</time>
      </trkpt>
      <trkpt lat="45.44903" lon="4.65331">
        <ele>859.40002441406</ele>
        <time>2019-03-06T11:49:13.000Z</time>
      </trkpt>
      <trkpt lat="45.44903" lon="4.6534">
        <ele>860.20001220703</ele>
        <time>2019-03-06T11:49:22.000Z</time>
      </trkpt>
      <trkpt lat="45.44902" lon="4.65352">
        <ele>861.20001220703</ele>
        <time>2019-03-06T11:49:32.000Z</time>
      </trkpt>
      <trkpt lat="45.44902" lon="4.65365">
        <ele>862.40002441406</ele>
        <time>2019-03-06T11:49:42.000Z</time>
      </trkpt>
      <trkpt lat="45.44902" lon="4.65372">
        <ele>862.79998779297</ele>
        <time>2019-03-06T11:49:47.000Z</time>
      </trkpt>
      <trkpt lat="45.44902" lon="4.65375">
        <ele>863.20001220703</ele>
        <time>2019-03-06T11:49:49.000Z</time>
      </trkpt>
      <trkpt lat="45.44901" lon="4.65384">
        <ele>864</ele>
        <time>2019-03-06T11:49:56.000Z</time>
      </trkpt>
      <trkpt lat="45.449" lon="4.65388">
        <ele>864.20001220703</ele>
        <time>2019-03-06T11:49:59.000Z</time>
      </trkpt>
      <trkpt lat="45.44897" lon="4.65402">
        <ele>865.59997558594</ele>
        <time>2019-03-06T11:50:10.000Z</time>
      </trkpt>
      <trkpt lat="45.44895" lon="4.65418">
        <ele>867</ele>
        <time>2019-03-06T11:50:21.000Z</time>
      </trkpt>
      <trkpt lat="45.44895" lon="4.65419">
        <ele>867</ele>
        <time>2019-03-06T11:50:22.000Z</time>
      </trkpt>
      <trkpt lat="45.44896" lon="4.65421">
        <ele>867.20001220703</ele>
        <time>2019-03-06T11:50:23.000Z</time>
      </trkpt>
      <trkpt lat="45.44902" lon="4.65432">
        <ele>867.20001220703</ele>
        <time>2019-03-06T11:50:33.000Z</time>
      </trkpt>
      <trkpt lat="45.44906" lon="4.65441">
        <ele>867.40002441406</ele>
        <time>2019-03-06T11:50:41.000Z</time>
      </trkpt>
      <trkpt lat="45.44913" lon="4.65456">
        <ele>867.40002441406</ele>
        <time>2019-03-06T11:50:52.000Z</time>
      </trkpt>
      <trkpt lat="45.44918" lon="4.65472">
        <ele>867.40002441406</ele>
        <time>2019-03-06T11:51:03.000Z</time>
      </trkpt>
      <trkpt lat="45.44927" lon="4.65486">
        <ele>866.79998779297</ele>
        <time>2019-03-06T11:51:15.000Z</time>
      </trkpt>
      <trkpt lat="45.44936" lon="4.65497">
        <ele>866.20001220703</ele>
        <time>2019-03-06T11:51:25.000Z</time>
      </trkpt>
      <trkpt lat="45.4494" lon="4.65511">
        <ele>866.20001220703</ele>
        <time>2019-03-06T11:51:35.000Z</time>
      </trkpt>
      <trkpt lat="45.44944" lon="4.65525">
        <ele>866</ele>
        <time>2019-03-06T11:51:45.000Z</time>
      </trkpt>
      <trkpt lat="45.44946" lon="4.65529">
        <ele>865.79998779297</ele>
        <time>2019-03-06T11:51:48.000Z</time>
      </trkpt>
      <trkpt lat="45.44947" lon="4.65535">
        <ele>865.79998779297</ele>
        <time>2019-03-06T11:51:53.000Z</time>
      </trkpt>
      <trkpt lat="45.44947" lon="4.65544">
        <ele>866</ele>
        <time>2019-03-06T11:52:02.000Z</time>
      </trkpt>
      <trkpt lat="45.44946" lon="4.65547">
        <ele>866</ele>
        <time>2019-03-06T11:52:12.000Z</time>
      </trkpt>
      <trkpt lat="45.44944" lon="4.65553">
        <ele>866.40002441406</ele>
        <time>2019-03-06T11:52:22.000Z</time>
      </trkpt>
      <trkpt lat="45.44944" lon="4.65553">
        <ele>866.40002441406</ele>
        <time>2019-03-06T11:52:33.000Z</time>
      </trkpt>
      <trkpt lat="45.44944" lon="4.65553">
        <ele>866.40002441406</ele>
        <time>2019-03-06T11:52:40.000Z</time>
      </trkpt>
      <trkpt lat="45.44942" lon="4.65553">
        <ele>866.40002441406</ele>
        <time>2019-03-06T11:52:47.000Z</time>
      </trkpt>
      <trkpt lat="45.44942" lon="4.65553">
        <ele>866.40002441406</ele>
        <time>2019-03-06T11:52:48.000Z</time>
      </trkpt>
      <trkpt lat="45.44943" lon="4.65553">
        <ele>866.40002441406</ele>
        <time>2019-03-06T11:53:04.000Z</time>
      </trkpt>
      <trkpt lat="45.44943" lon="4.65554">
        <ele>866.40002441406</ele>
        <time>2019-03-06T11:53:24.000Z</time>
      </trkpt>
      <trkpt lat="45.44944" lon="4.65554">
        <ele>866.40002441406</ele>
        <time>2019-03-06T11:53:36.000Z</time>
      </trkpt>
      <trkpt lat="45.44945" lon="4.65554">
        <ele>866.20001220703</ele>
        <time>2019-03-06T11:53:47.000Z</time>
      </trkpt>
      <trkpt lat="45.44944" lon="4.65554">
        <ele>866.40002441406</ele>
        <time>2019-03-06T11:54:02.000Z</time>
      </trkpt>
      <trkpt lat="45.44944" lon="4.65555">
        <ele>866.40002441406</ele>
        <time>2019-03-06T11:54:09.000Z</time>
      </trkpt>
      <trkpt lat="45.44944" lon="4.65553">
        <ele>866.40002441406</ele>
        <time>2019-03-06T11:54:24.000Z</time>
      </trkpt>
      <trkpt lat="45.44945" lon="4.65555">
        <ele>866.20001220703</ele>
        <time>2019-03-06T11:54:39.000Z</time>
      </trkpt>
      <trkpt lat="45.44946" lon="4.65556">
        <ele>866.20001220703</ele>
        <time>2019-03-06T11:54:56.000Z</time>
      </trkpt>
      <trkpt lat="45.44946" lon="4.65558">
        <ele>866.20001220703</ele>
        <time>2019-03-06T11:55:17.000Z</time>
      </trkpt>
      <trkpt lat="45.44946" lon="4.65557">
        <ele>866.20001220703</ele>
        <time>2019-03-06T11:55:32.000Z</time>
      </trkpt>
      <trkpt lat="45.44945" lon="4.65556">
        <ele>866.20001220703</ele>
        <time>2019-03-06T11:55:50.000Z</time>
      </trkpt>
      <trkpt lat="45.44945" lon="4.65556">
        <ele>866.20001220703</ele>
        <time>2019-03-06T11:56:08.000Z</time>
      </trkpt>
      <trkpt lat="45.44944" lon="4.65556">
        <ele>866.20001220703</ele>
        <time>2019-03-06T11:56:32.000Z</time>
      </trkpt>
      <trkpt lat="45.44944" lon="4.65555">
        <ele>866.40002441406</ele>
        <time>2019-03-06T11:56:51.000Z</time>
      </trkpt>
      <trkpt lat="45.44944" lon="4.65555">
        <ele>866.40002441406</ele>
        <time>2019-03-06T11:57:19.000Z</time>
      </trkpt>
      <trkpt lat="45.44943" lon="4.65555">
        <ele>866.40002441406</ele>
        <time>2019-03-06T11:57:39.000Z</time>
      </trkpt>
      <trkpt lat="45.44942" lon="4.65555">
        <ele>866.40002441406</ele>
        <time>2019-03-06T11:57:55.000Z</time>
      </trkpt>
      <trkpt lat="45.44943" lon="4.65554">
        <ele>866.40002441406</ele>
        <time>2019-03-06T11:58:12.000Z</time>
      </trkpt>
      <trkpt lat="45.44943" lon="4.65554">
        <ele>866.40002441406</ele>
        <time>2019-03-06T11:58:13.000Z</time>
      </trkpt>
      <trkpt lat="45.44943" lon="4.65556">
        <ele>866.40002441406</ele>
        <time>2019-03-06T11:58:28.000Z</time>
      </trkpt>
      <trkpt lat="45.44944" lon="4.65557">
        <ele>866.40002441406</ele>
        <time>2019-03-06T11:58:45.000Z</time>
      </trkpt>
      <trkpt lat="45.44944" lon="4.65556">
        <ele>866.40002441406</ele>
        <time>2019-03-06T11:59:04.000Z</time>
      </trkpt>
      <trkpt lat="45.44946" lon="4.65556">
        <ele>866.20001220703</ele>
        <time>2019-03-06T11:59:24.000Z</time>
      </trkpt>
      <trkpt lat="45.44947" lon="4.65556">
        <ele>866</ele>
        <time>2019-03-06T11:59:41.000Z</time>
      </trkpt>
      <trkpt lat="45.44947" lon="4.65558">
        <ele>866</ele>
        <time>2019-03-06T11:59:56.000Z</time>
      </trkpt>
      <trkpt lat="45.44947" lon="4.65557">
        <ele>866</ele>
        <time>2019-03-06T12:00:15.000Z</time>
      </trkpt>
      <trkpt lat="45.44946" lon="4.65559">
        <ele>866.20001220703</ele>
        <time>2019-03-06T12:00:32.000Z</time>
      </trkpt>
      <trkpt lat="45.44945" lon="4.65559">
        <ele>866.40002441406</ele>
        <time>2019-03-06T12:00:38.000Z</time>
      </trkpt>
      <trkpt lat="45.44946" lon="4.65559">
        <ele>866.20001220703</ele>
        <time>2019-03-06T12:00:53.000Z</time>
      </trkpt>
      <trkpt lat="45.44947" lon="4.6556">
        <ele>866</ele>
        <time>2019-03-06T12:01:13.000Z</time>
      </trkpt>
      <trkpt lat="45.44947" lon="4.6556">
        <ele>866</ele>
        <time>2019-03-06T12:01:23.000Z</time>
      </trkpt>
      <trkpt lat="45.44947" lon="4.6556">
        <ele>866</ele>
        <time>2019-03-06T12:01:33.000Z</time>
      </trkpt>
      <trkpt lat="45.44947" lon="4.6556">
        <ele>866.20001220703</ele>
        <time>2019-03-06T12:01:35.000Z</time>
      </trkpt>
      <trkpt lat="45.44947" lon="4.65559">
        <ele>866.20001220703</ele>
        <time>2019-03-06T12:01:48.000Z</time>
      </trkpt>
      <trkpt lat="45.44946" lon="4.65558">
        <ele>866.20001220703</ele>
        <time>2019-03-06T12:02:05.000Z</time>
      </trkpt>
      <trkpt lat="45.44947" lon="4.65556">
        <ele>866</ele>
        <time>2019-03-06T12:02:23.000Z</time>
      </trkpt>
      <trkpt lat="45.44945" lon="4.65556">
        <ele>866.20001220703</ele>
        <time>2019-03-06T12:02:39.000Z</time>
      </trkpt>
      <trkpt lat="45.44945" lon="4.65555">
        <ele>866.20001220703</ele>
        <time>2019-03-06T12:02:45.000Z</time>
      </trkpt>
      <trkpt lat="45.44945" lon="4.65556">
        <ele>866.20001220703</ele>
        <time>2019-03-06T12:02:51.000Z</time>
      </trkpt>
      <trkpt lat="45.44946" lon="4.65555">
        <ele>866.20001220703</ele>
        <time>2019-03-06T12:03:09.000Z</time>
      </trkpt>
      <trkpt lat="45.44944" lon="4.65555">
        <ele>866.40002441406</ele>
        <time>2019-03-06T12:03:32.000Z</time>
      </trkpt>
      <trkpt lat="45.44944" lon="4.65555">
        <ele>866.40002441406</ele>
        <time>2019-03-06T12:03:34.000Z</time>
      </trkpt>
      <trkpt lat="45.44944" lon="4.65555">
        <ele>866.40002441406</ele>
        <time>2019-03-06T12:03:38.000Z</time>
      </trkpt>
      <trkpt lat="45.44943" lon="4.65556">
        <ele>866.40002441406</ele>
        <time>2019-03-06T12:03:56.000Z</time>
      </trkpt>
      <trkpt lat="45.44943" lon="4.65555">
        <ele>866.40002441406</ele>
        <time>2019-03-06T12:04:12.000Z</time>
      </trkpt>
      <trkpt lat="45.44943" lon="4.65555">
        <ele>866.40002441406</ele>
        <time>2019-03-06T12:04:38.000Z</time>
      </trkpt>
      <trkpt lat="45.44943" lon="4.65555">
        <ele>866.40002441406</ele>
        <time>2019-03-06T12:04:42.000Z</time>
      </trkpt>
      <trkpt lat="45.44943" lon="4.65555">
        <ele>866.40002441406</ele>
        <time>2019-03-06T12:05:13.000Z</time>
      </trkpt>
      <trkpt lat="45.44943" lon="4.65555">
        <ele>866.40002441406</ele>
        <time>2019-03-06T12:05:29.000Z</time>
      </trkpt>
      <trkpt lat="45.44944" lon="4.65554">
        <ele>866.40002441406</ele>
        <time>2019-03-06T12:05:46.000Z</time>
      </trkpt>
      <trkpt lat="45.44944" lon="4.65555">
        <ele>866.40002441406</ele>
        <time>2019-03-06T12:06:06.000Z</time>
      </trkpt>
      <trkpt lat="45.44944" lon="4.65555">
        <ele>866.40002441406</ele>
        <time>2019-03-06T12:06:16.000Z</time>
      </trkpt>
      <trkpt lat="45.44945" lon="4.65555">
        <ele>866.20001220703</ele>
        <time>2019-03-06T12:06:24.000Z</time>
      </trkpt>
      <trkpt lat="45.44945" lon="4.65554">
        <ele>866.20001220703</ele>
        <time>2019-03-06T12:06:28.000Z</time>
      </trkpt>
      <trkpt lat="45.44945" lon="4.65554">
        <ele>866.20001220703</ele>
        <time>2019-03-06T12:06:45.000Z</time>
      </trkpt>
      <trkpt lat="45.44945" lon="4.65555">
        <ele>866.20001220703</ele>
        <time>2019-03-06T12:07:05.000Z</time>
      </trkpt>
      <trkpt lat="45.44946" lon="4.65555">
        <ele>866.20001220703</ele>
        <time>2019-03-06T12:07:21.000Z</time>
      </trkpt>
      <trkpt lat="45.44947" lon="4.65557">
        <ele>866.20001220703</ele>
        <time>2019-03-06T12:07:41.000Z</time>
      </trkpt>
      <trkpt lat="45.44946" lon="4.65557">
        <ele>866.20001220703</ele>
        <time>2019-03-06T12:07:43.000Z</time>
      </trkpt>
      <trkpt lat="45.44946" lon="4.65557">
        <ele>866.20001220703</ele>
        <time>2019-03-06T12:08:01.000Z</time>
      </trkpt>
      <trkpt lat="45.44946" lon="4.65557">
        <ele>866.20001220703</ele>
        <time>2019-03-06T12:08:18.000Z</time>
      </trkpt>
      <trkpt lat="45.44946" lon="4.65558">
        <ele>866.20001220703</ele>
        <time>2019-03-06T12:08:32.000Z</time>
      </trkpt>
      <trkpt lat="45.44946" lon="4.65559">
        <ele>866.20001220703</ele>
        <time>2019-03-06T12:08:49.000Z</time>
      </trkpt>
      <trkpt lat="45.44945" lon="4.6556">
        <ele>866.20001220703</ele>
        <time>2019-03-06T12:09:05.000Z</time>
      </trkpt>
      <trkpt lat="45.44945" lon="4.6556">
        <ele>866.40002441406</ele>
        <time>2019-03-06T12:09:23.000Z</time>
      </trkpt>
      <trkpt lat="45.44945" lon="4.6556">
        <ele>866.40002441406</ele>
        <time>2019-03-06T12:09:24.000Z</time>
      </trkpt>
      <trkpt lat="45.44944" lon="4.65559">
        <ele>866.40002441406</ele>
        <time>2019-03-06T12:09:38.000Z</time>
      </trkpt>
      <trkpt lat="45.44944" lon="4.65557">
        <ele>866.40002441406</ele>
        <time>2019-03-06T12:09:54.000Z</time>
      </trkpt>
      <trkpt lat="45.44944" lon="4.65558">
        <ele>866.40002441406</ele>
        <time>2019-03-06T12:10:09.000Z</time>
      </trkpt>
      <trkpt lat="45.44945" lon="4.65558">
        <ele>866.40002441406</ele>
        <time>2019-03-06T12:10:27.000Z</time>
      </trkpt>
      <trkpt lat="45.44946" lon="4.65556">
        <ele>866.20001220703</ele>
        <time>2019-03-06T12:10:44.000Z</time>
      </trkpt>
      <trkpt lat="45.44947" lon="4.65555">
        <ele>866</ele>
        <time>2019-03-06T12:11:01.000Z</time>
      </trkpt>
      <trkpt lat="45.44947" lon="4.65554">
        <ele>866</ele>
        <time>2019-03-06T12:11:20.000Z</time>
      </trkpt>
      <trkpt lat="45.44946" lon="4.65553">
        <ele>866.20001220703</ele>
        <time>2019-03-06T12:11:38.000Z</time>
      </trkpt>
      <trkpt lat="45.44945" lon="4.65553">
        <ele>866.20001220703</ele>
        <time>2019-03-06T12:11:54.000Z</time>
      </trkpt>
      <trkpt lat="45.44946" lon="4.65554">
        <ele>866.20001220703</ele>
        <time>2019-03-06T12:12:13.000Z</time>
      </trkpt>
      <trkpt lat="45.44945" lon="4.65556">
        <ele>866.20001220703</ele>
        <time>2019-03-06T12:12:31.000Z</time>
      </trkpt>
      <trkpt lat="45.44944" lon="4.65555">
        <ele>866.20001220703</ele>
        <time>2019-03-06T12:12:46.000Z</time>
      </trkpt>
      <trkpt lat="45.44945" lon="4.65557">
        <ele>866.20001220703</ele>
        <time>2019-03-06T12:13:01.000Z</time>
      </trkpt>
      <trkpt lat="45.44945" lon="4.65556">
        <ele>866.20001220703</ele>
        <time>2019-03-06T12:13:14.000Z</time>
      </trkpt>
      <trkpt lat="45.44945" lon="4.65555">
        <ele>866.20001220703</ele>
        <time>2019-03-06T12:13:28.000Z</time>
      </trkpt>
      <trkpt lat="45.44945" lon="4.65555">
        <ele>866.20001220703</ele>
        <time>2019-03-06T12:13:29.000Z</time>
      </trkpt>
      <trkpt lat="45.44946" lon="4.65554">
        <ele>866.20001220703</ele>
        <time>2019-03-06T12:14:01.000Z</time>
      </trkpt>
      <trkpt lat="45.44946" lon="4.65554">
        <ele>866.20001220703</ele>
        <time>2019-03-06T12:14:02.000Z</time>
      </trkpt>
      <trkpt lat="45.44947" lon="4.65553">
        <ele>866</ele>
        <time>2019-03-06T12:14:45.000Z</time>
      </trkpt>
      <trkpt lat="45.44946" lon="4.65553">
        <ele>866</ele>
        <time>2019-03-06T12:15:10.000Z</time>
      </trkpt>
      <trkpt lat="45.44946" lon="4.65552">
        <ele>866</ele>
        <time>2019-03-06T12:15:25.000Z</time>
      </trkpt>
      <trkpt lat="45.44945" lon="4.65552">
        <ele>866.20001220703</ele>
        <time>2019-03-06T12:15:45.000Z</time>
      </trkpt>
      <trkpt lat="45.44944" lon="4.65554">
        <ele>866.20001220703</ele>
        <time>2019-03-06T12:16:02.000Z</time>
      </trkpt>
      <trkpt lat="45.44945" lon="4.65554">
        <ele>866.20001220703</ele>
        <time>2019-03-06T12:16:20.000Z</time>
      </trkpt>
      <trkpt lat="45.44944" lon="4.65553">
        <ele>866.20001220703</ele>
        <time>2019-03-06T12:16:37.000Z</time>
      </trkpt>
      <trkpt lat="45.44945" lon="4.65553">
        <ele>866.20001220703</ele>
        <time>2019-03-06T12:16:55.000Z</time>
      </trkpt>
      <trkpt lat="45.44945" lon="4.65553">
        <ele>866.20001220703</ele>
        <time>2019-03-06T12:16:59.000Z</time>
      </trkpt>
      <trkpt lat="45.44945" lon="4.65553">
        <ele>866.20001220703</ele>
        <time>2019-03-06T12:17:17.000Z</time>
      </trkpt>
      <trkpt lat="45.44946" lon="4.65551">
        <ele>866.20001220703</ele>
        <time>2019-03-06T12:17:42.000Z</time>
      </trkpt>
      <trkpt lat="45.44946" lon="4.65551">
        <ele>866</ele>
        <time>2019-03-06T12:18:10.000Z</time>
      </trkpt>
      <trkpt lat="45.44946" lon="4.6555">
        <ele>866</ele>
        <time>2019-03-06T12:18:36.000Z</time>
      </trkpt>
      <trkpt lat="45.44945" lon="4.65551">
        <ele>866.20001220703</ele>
        <time>2019-03-06T12:18:49.000Z</time>
      </trkpt>
      <trkpt lat="45.44943" lon="4.65552">
        <ele>866.40002441406</ele>
        <time>2019-03-06T12:19:06.000Z</time>
      </trkpt>
      <trkpt lat="45.44944" lon="4.65553">
        <ele>866.20001220703</ele>
        <time>2019-03-06T12:19:21.000Z</time>
      </trkpt>
      <trkpt lat="45.44945" lon="4.65554">
        <ele>866.20001220703</ele>
        <time>2019-03-06T12:19:37.000Z</time>
      </trkpt>
      <trkpt lat="45.44942" lon="4.65558">
        <ele>866.59997558594</ele>
        <time>2019-03-06T12:19:47.000Z</time>
      </trkpt>
      <trkpt lat="45.4494" lon="4.6556">
        <ele>866.79998779297</ele>
        <time>2019-03-06T12:19:58.000Z</time>
      </trkpt>
      <trkpt lat="45.44933" lon="4.65557">
        <ele>867.40002441406</ele>
        <time>2019-03-06T12:20:11.000Z</time>
      </trkpt>
      <trkpt lat="45.44923" lon="4.65553">
        <ele>868.40002441406</ele>
        <time>2019-03-06T12:20:25.000Z</time>
      </trkpt>
      <trkpt lat="45.44917" lon="4.65549">
        <ele>868.79998779297</ele>
        <time>2019-03-06T12:20:35.000Z</time>
      </trkpt>
      <trkpt lat="45.44917" lon="4.65549">
        <ele>868.79998779297</ele>
        <time>2019-03-06T12:20:36.000Z</time>
      </trkpt>
      <trkpt lat="45.44916" lon="4.65549">
        <ele>869</ele>
        <time>2019-03-06T12:20:39.000Z</time>
      </trkpt>
      <trkpt lat="45.44916" lon="4.65548">
        <ele>869</ele>
        <time>2019-03-06T12:20:51.000Z</time>
      </trkpt>
      <trkpt lat="45.44922" lon="4.65552">
        <ele>868.40002441406</ele>
        <time>2019-03-06T12:21:02.000Z</time>
      </trkpt>
      <trkpt lat="45.44929" lon="4.65555">
        <ele>867.79998779297</ele>
        <time>2019-03-06T12:21:12.000Z</time>
      </trkpt>
      <trkpt lat="45.44936" lon="4.65556">
        <ele>867.20001220703</ele>
        <time>2019-03-06T12:21:22.000Z</time>
      </trkpt>
      <trkpt lat="45.44938" lon="4.65558">
        <ele>867</ele>
        <time>2019-03-06T12:21:28.000Z</time>
      </trkpt>
      <trkpt lat="45.44942" lon="4.6556">
        <ele>866.59997558594</ele>
        <time>2019-03-06T12:21:42.000Z</time>
      </trkpt>
      <trkpt lat="45.44942" lon="4.6556">
        <ele>866.59997558594</ele>
        <time>2019-03-06T12:21:43.000Z</time>
      </trkpt>
      <trkpt lat="45.44942" lon="4.65562">
        <ele>866.59997558594</ele>
        <time>2019-03-06T12:21:59.000Z</time>
      </trkpt>
      <trkpt lat="45.44941" lon="4.65564">
        <ele>866.79998779297</ele>
        <time>2019-03-06T12:22:19.000Z</time>
      </trkpt>
      <trkpt lat="45.4494" lon="4.65565">
        <ele>866.79998779297</ele>
        <time>2019-03-06T12:22:44.000Z</time>
      </trkpt>
      <trkpt lat="45.44941" lon="4.65566">
        <ele>866.79998779297</ele>
        <time>2019-03-06T12:23:00.000Z</time>
      </trkpt>
      <trkpt lat="45.44941" lon="4.65565">
        <ele>866.79998779297</ele>
        <time>2019-03-06T12:23:15.000Z</time>
      </trkpt>
      <trkpt lat="45.44939" lon="4.65567">
        <ele>867</ele>
        <time>2019-03-06T12:23:30.000Z</time>
      </trkpt>
      <trkpt lat="45.4494" lon="4.65577">
        <ele>867</ele>
        <time>2019-03-06T12:23:38.000Z</time>
      </trkpt>
      <trkpt lat="45.44941" lon="4.65582">
        <ele>867</ele>
        <time>2019-03-06T12:23:43.000Z</time>
      </trkpt>
      <trkpt lat="45.44939" lon="4.65589">
        <ele>867.20001220703</ele>
        <time>2019-03-06T12:23:49.000Z</time>
      </trkpt>
      <trkpt lat="45.44938" lon="4.65592">
        <ele>867.40002441406</ele>
        <time>2019-03-06T12:23:51.000Z</time>
      </trkpt>
      <trkpt lat="45.44935" lon="4.65604">
        <ele>867.40002441406</ele>
        <time>2019-03-06T12:23:59.000Z</time>
      </trkpt>
      <trkpt lat="45.44935" lon="4.65606">
        <ele>867.40002441406</ele>
        <time>2019-03-06T12:24:00.000Z</time>
      </trkpt>
      <trkpt lat="45.44935" lon="4.65607">
        <ele>867.40002441406</ele>
        <time>2019-03-06T12:24:01.000Z</time>
      </trkpt>
      <trkpt lat="45.44935" lon="4.65617">
        <ele>867.20001220703</ele>
        <time>2019-03-06T12:24:09.000Z</time>
      </trkpt>
      <trkpt lat="45.44935" lon="4.65625">
        <ele>866.79998779297</ele>
        <time>2019-03-06T12:24:15.000Z</time>
      </trkpt>
      <trkpt lat="45.44933" lon="4.65644">
        <ele>865.20001220703</ele>
        <time>2019-03-06T12:24:26.000Z</time>
      </trkpt>
      <trkpt lat="45.44932" lon="4.6566">
        <ele>864</ele>
        <time>2019-03-06T12:24:36.000Z</time>
      </trkpt>
      <trkpt lat="45.4493" lon="4.6568">
        <ele>863</ele>
        <time>2019-03-06T12:24:49.000Z</time>
      </trkpt>
      <trkpt lat="45.44924" lon="4.65699">
        <ele>862.59997558594</ele>
        <time>2019-03-06T12:25:01.000Z</time>
      </trkpt>
      <trkpt lat="45.44926" lon="4.6571">
        <ele>861</ele>
        <time>2019-03-06T12:25:10.000Z</time>
      </trkpt>
      <trkpt lat="45.44928" lon="4.65724">
        <ele>858.40002441406</ele>
        <time>2019-03-06T12:25:23.000Z</time>
      </trkpt>
      <trkpt lat="45.44922" lon="4.65737">
        <ele>857</ele>
        <time>2019-03-06T12:25:34.000Z</time>
      </trkpt>
      <trkpt lat="45.44917" lon="4.65748">
        <ele>856.20001220703</ele>
        <time>2019-03-06T12:25:45.000Z</time>
      </trkpt>
      <trkpt lat="45.4491" lon="4.65764">
        <ele>855.40002441406</ele>
        <time>2019-03-06T12:25:58.000Z</time>
      </trkpt>
      <trkpt lat="45.44901" lon="4.65781">
        <ele>854.79998779297</ele>
        <time>2019-03-06T12:26:11.000Z</time>
      </trkpt>
      <trkpt lat="45.44891" lon="4.65801">
        <ele>854</ele>
        <time>2019-03-06T12:26:24.000Z</time>
      </trkpt>
      <trkpt lat="45.4489" lon="4.65819">
        <ele>852</ele>
        <time>2019-03-06T12:26:35.000Z</time>
      </trkpt>
      <trkpt lat="45.44888" lon="4.65837">
        <ele>850.20001220703</ele>
        <time>2019-03-06T12:26:44.000Z</time>
      </trkpt>
      <trkpt lat="45.44886" lon="4.65855">
        <ele>848.20001220703</ele>
        <time>2019-03-06T12:26:53.000Z</time>
      </trkpt>
      <trkpt lat="45.44886" lon="4.65858">
        <ele>848</ele>
        <time>2019-03-06T12:26:54.000Z</time>
      </trkpt>
      <trkpt lat="45.44887" lon="4.65874">
        <ele>846.59997558594</ele>
        <time>2019-03-06T12:27:02.000Z</time>
      </trkpt>
      <trkpt lat="45.44887" lon="4.65876">
        <ele>846.59997558594</ele>
        <time>2019-03-06T12:27:03.000Z</time>
      </trkpt>
      <trkpt lat="45.4489" lon="4.65887">
        <ele>846.20001220703</ele>
        <time>2019-03-06T12:27:10.000Z</time>
      </trkpt>
      <trkpt lat="45.44891" lon="4.65892">
        <ele>846.40002441406</ele>
        <time>2019-03-06T12:27:13.000Z</time>
      </trkpt>
      <trkpt lat="45.44892" lon="4.65894">
        <ele>846.40002441406</ele>
        <time>2019-03-06T12:27:14.000Z</time>
      </trkpt>
      <trkpt lat="45.44892" lon="4.65896">
        <ele>846.40002441406</ele>
        <time>2019-03-06T12:27:15.000Z</time>
      </trkpt>
      <trkpt lat="45.44892" lon="4.65898">
        <ele>846.40002441406</ele>
        <time>2019-03-06T12:27:16.000Z</time>
      </trkpt>
      <trkpt lat="45.44892" lon="4.659">
        <ele>846.59997558594</ele>
        <time>2019-03-06T12:27:17.000Z</time>
      </trkpt>
      <trkpt lat="45.44892" lon="4.65907">
        <ele>846.79998779297</ele>
        <time>2019-03-06T12:27:21.000Z</time>
      </trkpt>
      <trkpt lat="45.44892" lon="4.65909">
        <ele>846.79998779297</ele>
        <time>2019-03-06T12:27:22.000Z</time>
      </trkpt>
      <trkpt lat="45.44893" lon="4.65916">
        <ele>847</ele>
        <time>2019-03-06T12:27:27.000Z</time>
      </trkpt>
      <trkpt lat="45.44893" lon="4.6593">
        <ele>847.40002441406</ele>
        <time>2019-03-06T12:27:37.000Z</time>
      </trkpt>
      <trkpt lat="45.44888" lon="4.65945">
        <ele>848.79998779297</ele>
        <time>2019-03-06T12:27:48.000Z</time>
      </trkpt>
      <trkpt lat="45.44889" lon="4.65961">
        <ele>850</ele>
        <time>2019-03-06T12:27:59.000Z</time>
      </trkpt>
      <trkpt lat="45.44894" lon="4.65974">
        <ele>850.79998779297</ele>
        <time>2019-03-06T12:28:12.000Z</time>
      </trkpt>
      <trkpt lat="45.44895" lon="4.65989">
        <ele>852.40002441406</ele>
        <time>2019-03-06T12:28:24.000Z</time>
      </trkpt>
      <trkpt lat="45.44896" lon="4.6599">
        <ele>852.40002441406</ele>
        <time>2019-03-06T12:28:34.000Z</time>
      </trkpt>
      <trkpt lat="45.44894" lon="4.66">
        <ele>854</ele>
        <time>2019-03-06T12:28:43.000Z</time>
      </trkpt>
      <trkpt lat="45.44893" lon="4.66011">
        <ele>855.40002441406</ele>
        <time>2019-03-06T12:28:55.000Z</time>
      </trkpt>
      <trkpt lat="45.44886" lon="4.6602">
        <ele>857.59997558594</ele>
        <time>2019-03-06T12:29:08.000Z</time>
      </trkpt>
      <trkpt lat="45.44873" lon="4.66027">
        <ele>858.20001220703</ele>
        <time>2019-03-06T12:29:19.000Z</time>
      </trkpt>
      <trkpt lat="45.44861" lon="4.66031">
        <ele>857.40002441406</ele>
        <time>2019-03-06T12:29:32.000Z</time>
      </trkpt>
      <trkpt lat="45.44853" lon="4.66028">
        <ele>856.40002441406</ele>
        <time>2019-03-06T12:29:43.000Z</time>
      </trkpt>
      <trkpt lat="45.44849" lon="4.66024">
        <ele>855.59997558594</ele>
        <time>2019-03-06T12:29:53.000Z</time>
      </trkpt>
      <trkpt lat="45.44847" lon="4.66024">
        <ele>855.40002441406</ele>
        <time>2019-03-06T12:30:01.000Z</time>
      </trkpt>
      <trkpt lat="45.44847" lon="4.66023">
        <ele>855.40002441406</ele>
        <time>2019-03-06T12:30:14.000Z</time>
      </trkpt>
      <trkpt lat="45.44845" lon="4.66021">
        <ele>855</ele>
        <time>2019-03-06T12:30:23.000Z</time>
      </trkpt>
      <trkpt lat="45.44844" lon="4.66016">
        <ele>854.40002441406</ele>
        <time>2019-03-06T12:30:34.000Z</time>
      </trkpt>
      <trkpt lat="45.44841" lon="4.66008">
        <ele>853.20001220703</ele>
        <time>2019-03-06T12:30:47.000Z</time>
      </trkpt>
      <trkpt lat="45.44838" lon="4.66003">
        <ele>852.59997558594</ele>
        <time>2019-03-06T12:30:55.000Z</time>
      </trkpt>
      <trkpt lat="45.44838" lon="4.66001">
        <ele>852.40002441406</ele>
        <time>2019-03-06T12:31:06.000Z</time>
      </trkpt>
      <trkpt lat="45.44833" lon="4.65991">
        <ele>851</ele>
        <time>2019-03-06T12:31:20.000Z</time>
      </trkpt>
      <trkpt lat="45.44824" lon="4.65989">
        <ele>849.79998779297</ele>
        <time>2019-03-06T12:31:34.000Z</time>
      </trkpt>
      <trkpt lat="45.44823" lon="4.65988">
        <ele>849.59997558594</ele>
        <time>2019-03-06T12:31:36.000Z</time>
      </trkpt>
      <trkpt lat="45.4482" lon="4.65985">
        <ele>849.20001220703</ele>
        <time>2019-03-06T12:31:43.000Z</time>
      </trkpt>
      <trkpt lat="45.44817" lon="4.65975">
        <ele>847.79998779297</ele>
        <time>2019-03-06T12:31:55.000Z</time>
      </trkpt>
      <trkpt lat="45.44817" lon="4.65967">
        <ele>847</ele>
        <time>2019-03-06T12:32:00.000Z</time>
      </trkpt>
      <trkpt lat="45.44819" lon="4.65964">
        <ele>846.79998779297</ele>
        <time>2019-03-06T12:32:02.000Z</time>
      </trkpt>
      <trkpt lat="45.44819" lon="4.65963">
        <ele>846.59997558594</ele>
        <time>2019-03-06T12:32:03.000Z</time>
      </trkpt>
      <trkpt lat="45.44818" lon="4.65952">
        <ele>845.40002441406</ele>
        <time>2019-03-06T12:32:11.000Z</time>
      </trkpt>
      <trkpt lat="45.44812" lon="4.65954">
        <ele>845</ele>
        <time>2019-03-06T12:32:22.000Z</time>
      </trkpt>
      <trkpt lat="45.44808" lon="4.65954">
        <ele>844.79998779297</ele>
        <time>2019-03-06T12:32:29.000Z</time>
      </trkpt>
      <trkpt lat="45.44801" lon="4.65949">
        <ele>844.20001220703</ele>
        <time>2019-03-06T12:32:39.000Z</time>
      </trkpt>
      <trkpt lat="45.44796" lon="4.65945">
        <ele>843</ele>
        <time>2019-03-06T12:32:45.000Z</time>
      </trkpt>
      <trkpt lat="45.44785" lon="4.65947">
        <ele>840</ele>
        <time>2019-03-06T12:32:56.000Z</time>
      </trkpt>
      <trkpt lat="45.44782" lon="4.65954">
        <ele>839.59997558594</ele>
        <time>2019-03-06T12:33:07.000Z</time>
      </trkpt>
      <trkpt lat="45.44779" lon="4.65968">
        <ele>840</ele>
        <time>2019-03-06T12:33:17.000Z</time>
      </trkpt>
      <trkpt lat="45.44775" lon="4.65983">
        <ele>840.20001220703</ele>
        <time>2019-03-06T12:33:28.000Z</time>
      </trkpt>
      <trkpt lat="45.44772" lon="4.65998">
        <ele>840.79998779297</ele>
        <time>2019-03-06T12:33:37.000Z</time>
      </trkpt>
      <trkpt lat="45.44771" lon="4.66">
        <ele>840.79998779297</ele>
        <time>2019-03-06T12:33:38.000Z</time>
      </trkpt>
      <trkpt lat="45.44765" lon="4.66014">
        <ele>839.59997558594</ele>
        <time>2019-03-06T12:33:48.000Z</time>
      </trkpt>
      <trkpt lat="45.44758" lon="4.66033">
        <ele>837.20001220703</ele>
        <time>2019-03-06T12:34:00.000Z</time>
      </trkpt>
      <trkpt lat="45.44758" lon="4.66046">
        <ele>837.59997558594</ele>
        <time>2019-03-06T12:34:07.000Z</time>
      </trkpt>
      <trkpt lat="45.44758" lon="4.66047">
        <ele>837.79998779297</ele>
        <time>2019-03-06T12:34:08.000Z</time>
      </trkpt>
      <trkpt lat="45.44758" lon="4.66068">
        <ele>839</ele>
        <time>2019-03-06T12:34:20.000Z</time>
      </trkpt>
      <trkpt lat="45.44755" lon="4.66083">
        <ele>838.79998779297</ele>
        <time>2019-03-06T12:34:30.000Z</time>
      </trkpt>
      <trkpt lat="45.44755" lon="4.66089">
        <ele>838.59997558594</ele>
        <time>2019-03-06T12:34:37.000Z</time>
      </trkpt>
      <trkpt lat="45.44755" lon="4.66089">
        <ele>838.59997558594</ele>
        <time>2019-03-06T12:34:38.000Z</time>
      </trkpt>
      <trkpt lat="45.44754" lon="4.66097">
        <ele>838.79998779297</ele>
        <time>2019-03-06T12:34:49.000Z</time>
      </trkpt>
      <trkpt lat="45.4475" lon="4.66117">
        <ele>837.20001220703</ele>
        <time>2019-03-06T12:35:01.000Z</time>
      </trkpt>
      <trkpt lat="45.4475" lon="4.66123">
        <ele>837.59997558594</ele>
        <time>2019-03-06T12:35:08.000Z</time>
      </trkpt>
      <trkpt lat="45.44743" lon="4.66146">
        <ele>835.20001220703</ele>
        <time>2019-03-06T12:35:22.000Z</time>
      </trkpt>
      <trkpt lat="45.44737" lon="4.66153">
        <ele>833</ele>
        <time>2019-03-06T12:35:28.000Z</time>
      </trkpt>
      <trkpt lat="45.44731" lon="4.66164">
        <ele>830.59997558594</ele>
        <time>2019-03-06T12:35:38.000Z</time>
      </trkpt>
      <trkpt lat="45.44724" lon="4.66176">
        <ele>827.79998779297</ele>
        <time>2019-03-06T12:35:48.000Z</time>
      </trkpt>
      <trkpt lat="45.44723" lon="4.66177">
        <ele>827.40002441406</ele>
        <time>2019-03-06T12:35:49.000Z</time>
      </trkpt>
      <trkpt lat="45.44715" lon="4.6619">
        <ele>824.20001220703</ele>
        <time>2019-03-06T12:36:00.000Z</time>
      </trkpt>
      <trkpt lat="45.44713" lon="4.662">
        <ele>823.40002441406</ele>
        <time>2019-03-06T12:36:08.000Z</time>
      </trkpt>
      <trkpt lat="45.44712" lon="4.66211">
        <ele>823.20001220703</ele>
        <time>2019-03-06T12:36:15.000Z</time>
      </trkpt>
      <trkpt lat="45.44709" lon="4.66224">
        <ele>821.59997558594</ele>
        <time>2019-03-06T12:36:25.000Z</time>
      </trkpt>
      <trkpt lat="45.44708" lon="4.66235">
        <ele>821</ele>
        <time>2019-03-06T12:36:33.000Z</time>
      </trkpt>
      <trkpt lat="45.44708" lon="4.66244">
        <ele>820.79998779297</ele>
        <time>2019-03-06T12:36:46.000Z</time>
      </trkpt>
      <trkpt lat="45.44702" lon="4.66264">
        <ele>817.59997558594</ele>
        <time>2019-03-06T12:37:00.000Z</time>
      </trkpt>
      <trkpt lat="45.44696" lon="4.66278">
        <ele>815</ele>
        <time>2019-03-06T12:37:11.000Z</time>
      </trkpt>
      <trkpt lat="45.44696" lon="4.66291">
        <ele>815.20001220703</ele>
        <time>2019-03-06T12:37:22.000Z</time>
      </trkpt>
      <trkpt lat="45.44698" lon="4.66308">
        <ele>814.79998779297</ele>
        <time>2019-03-06T12:37:35.000Z</time>
      </trkpt>
      <trkpt lat="45.44696" lon="4.66324">
        <ele>813.20001220703</ele>
        <time>2019-03-06T12:37:45.000Z</time>
      </trkpt>
      <trkpt lat="45.44697" lon="4.66345">
        <ele>812.59997558594</ele>
        <time>2019-03-06T12:37:57.000Z</time>
      </trkpt>
      <trkpt lat="45.447" lon="4.66366">
        <ele>813.40002441406</ele>
        <time>2019-03-06T12:38:09.000Z</time>
      </trkpt>
      <trkpt lat="45.44702" lon="4.66382">
        <ele>812.59997558594</ele>
        <time>2019-03-06T12:38:20.000Z</time>
      </trkpt>
      <trkpt lat="45.44702" lon="4.66404">
        <ele>810.59997558594</ele>
        <time>2019-03-06T12:38:32.000Z</time>
      </trkpt>
      <trkpt lat="45.44703" lon="4.6642">
        <ele>809</ele>
        <time>2019-03-06T12:38:41.000Z</time>
      </trkpt>
      <trkpt lat="45.44701" lon="4.66439">
        <ele>806.20001220703</ele>
        <time>2019-03-06T12:38:52.000Z</time>
      </trkpt>
      <trkpt lat="45.44701" lon="4.66457">
        <ele>805</ele>
        <time>2019-03-06T12:39:03.000Z</time>
      </trkpt>
      <trkpt lat="45.44701" lon="4.66478">
        <ele>803.20001220703</ele>
        <time>2019-03-06T12:39:15.000Z</time>
      </trkpt>
      <trkpt lat="45.447" lon="4.66494">
        <ele>801.20001220703</ele>
        <time>2019-03-06T12:39:24.000Z</time>
      </trkpt>
      <trkpt lat="45.447" lon="4.66511">
        <ele>799.59997558594</ele>
        <time>2019-03-06T12:39:36.000Z</time>
      </trkpt>
      <trkpt lat="45.447" lon="4.6653">
        <ele>797.79998779297</ele>
        <time>2019-03-06T12:39:48.000Z</time>
      </trkpt>
      <trkpt lat="45.447" lon="4.66545">
        <ele>796.40002441406</ele>
        <time>2019-03-06T12:39:57.000Z</time>
      </trkpt>
      <trkpt lat="45.447" lon="4.66547">
        <ele>796.20001220703</ele>
        <time>2019-03-06T12:39:58.000Z</time>
      </trkpt>
      <trkpt lat="45.44701" lon="4.66557">
        <ele>795.40002441406</ele>
        <time>2019-03-06T12:40:05.000Z</time>
      </trkpt>
      <trkpt lat="45.44699" lon="4.66579">
        <ele>792</ele>
        <time>2019-03-06T12:40:17.000Z</time>
      </trkpt>
      <trkpt lat="45.447" lon="4.66594">
        <ele>790.40002441406</ele>
        <time>2019-03-06T12:40:28.000Z</time>
      </trkpt>
      <trkpt lat="45.44699" lon="4.66608">
        <ele>788.79998779297</ele>
        <time>2019-03-06T12:40:37.000Z</time>
      </trkpt>
      <trkpt lat="45.44699" lon="4.66609">
        <ele>788.59997558594</ele>
        <time>2019-03-06T12:40:38.000Z</time>
      </trkpt>
      <trkpt lat="45.447" lon="4.66617">
        <ele>788</ele>
        <time>2019-03-06T12:40:42.000Z</time>
      </trkpt>
      <trkpt lat="45.44708" lon="4.6663">
        <ele>789</ele>
        <time>2019-03-06T12:40:53.000Z</time>
      </trkpt>
      <trkpt lat="45.44709" lon="4.66631">
        <ele>789</ele>
        <time>2019-03-06T12:40:54.000Z</time>
      </trkpt>
      <trkpt lat="45.4471" lon="4.66632">
        <ele>789</ele>
        <time>2019-03-06T12:40:55.000Z</time>
      </trkpt>
      <trkpt lat="45.44711" lon="4.66633">
        <ele>789.20001220703</ele>
        <time>2019-03-06T12:40:56.000Z</time>
      </trkpt>
      <trkpt lat="45.44719" lon="4.66639">
        <ele>790.79998779297</ele>
        <time>2019-03-06T12:41:03.000Z</time>
      </trkpt>
      <trkpt lat="45.4472" lon="4.6664">
        <ele>791</ele>
        <time>2019-03-06T12:41:04.000Z</time>
      </trkpt>
      <trkpt lat="45.44725" lon="4.66655">
        <ele>790.20001220703</ele>
        <time>2019-03-06T12:41:14.000Z</time>
      </trkpt>
      <trkpt lat="45.44725" lon="4.66657">
        <ele>790</ele>
        <time>2019-03-06T12:41:15.000Z</time>
      </trkpt>
      <trkpt lat="45.44727" lon="4.66664">
        <ele>789.40002441406</ele>
        <time>2019-03-06T12:41:19.000Z</time>
      </trkpt>
      <trkpt lat="45.44727" lon="4.66666">
        <ele>789.40002441406</ele>
        <time>2019-03-06T12:41:20.000Z</time>
      </trkpt>
      <trkpt lat="45.44728" lon="4.66668">
        <ele>789.20001220703</ele>
        <time>2019-03-06T12:41:21.000Z</time>
      </trkpt>
      <trkpt lat="45.44729" lon="4.66671">
        <ele>789</ele>
        <time>2019-03-06T12:41:23.000Z</time>
      </trkpt>
      <trkpt lat="45.4473" lon="4.66675">
        <ele>789</ele>
        <time>2019-03-06T12:41:25.000Z</time>
      </trkpt>
      <trkpt lat="45.44731" lon="4.66676">
        <ele>789</ele>
        <time>2019-03-06T12:41:26.000Z</time>
      </trkpt>
      <trkpt lat="45.44732" lon="4.66678">
        <ele>788.79998779297</ele>
        <time>2019-03-06T12:41:27.000Z</time>
      </trkpt>
      <trkpt lat="45.44735" lon="4.66686">
        <ele>788.59997558594</ele>
        <time>2019-03-06T12:41:32.000Z</time>
      </trkpt>
      <trkpt lat="45.44736" lon="4.66687">
        <ele>788.79998779297</ele>
        <time>2019-03-06T12:41:33.000Z</time>
      </trkpt>
      <trkpt lat="45.44736" lon="4.66689">
        <ele>788.59997558594</ele>
        <time>2019-03-06T12:41:34.000Z</time>
      </trkpt>
      <trkpt lat="45.44736" lon="4.66691">
        <ele>788.40002441406</ele>
        <time>2019-03-06T12:41:35.000Z</time>
      </trkpt>
      <trkpt lat="45.44737" lon="4.66692">
        <ele>788.20001220703</ele>
        <time>2019-03-06T12:41:36.000Z</time>
      </trkpt>
      <trkpt lat="45.44737" lon="4.66694">
        <ele>788.20001220703</ele>
        <time>2019-03-06T12:41:37.000Z</time>
      </trkpt>
      <trkpt lat="45.44738" lon="4.66695">
        <ele>788.20001220703</ele>
        <time>2019-03-06T12:41:38.000Z</time>
      </trkpt>
      <trkpt lat="45.44739" lon="4.66696">
        <ele>788.20001220703</ele>
        <time>2019-03-06T12:41:39.000Z</time>
      </trkpt>
      <trkpt lat="45.44739" lon="4.66698">
        <ele>788</ele>
        <time>2019-03-06T12:41:40.000Z</time>
      </trkpt>
      <trkpt lat="45.4474" lon="4.667">
        <ele>788</ele>
        <time>2019-03-06T12:41:41.000Z</time>
      </trkpt>
      <trkpt lat="45.4474" lon="4.66701">
        <ele>787.79998779297</ele>
        <time>2019-03-06T12:41:42.000Z</time>
      </trkpt>
      <trkpt lat="45.44741" lon="4.66703">
        <ele>787.79998779297</ele>
        <time>2019-03-06T12:41:43.000Z</time>
      </trkpt>
      <trkpt lat="45.44742" lon="4.66704">
        <ele>787.79998779297</ele>
        <time>2019-03-06T12:41:44.000Z</time>
      </trkpt>
      <trkpt lat="45.44746" lon="4.66712">
        <ele>787.59997558594</ele>
        <time>2019-03-06T12:41:50.000Z</time>
      </trkpt>
      <trkpt lat="45.4475" lon="4.66721">
        <ele>787.20001220703</ele>
        <time>2019-03-06T12:41:57.000Z</time>
      </trkpt>
      <trkpt lat="45.44755" lon="4.66734">
        <ele>786.40002441406</ele>
        <time>2019-03-06T12:42:05.000Z</time>
      </trkpt>
      <trkpt lat="45.44757" lon="4.66736">
        <ele>786.59997558594</ele>
        <time>2019-03-06T12:42:07.000Z</time>
      </trkpt>
      <trkpt lat="45.4476" lon="4.66741">
        <ele>786.59997558594</ele>
        <time>2019-03-06T12:42:11.000Z</time>
      </trkpt>
      <trkpt lat="45.44764" lon="4.66747">
        <ele>786.79998779297</ele>
        <time>2019-03-06T12:42:17.000Z</time>
      </trkpt>
      <trkpt lat="45.44771" lon="4.66755">
        <ele>787.20001220703</ele>
        <time>2019-03-06T12:42:25.000Z</time>
      </trkpt>
      <trkpt lat="45.44772" lon="4.66759">
        <ele>786.79998779297</ele>
        <time>2019-03-06T12:42:27.000Z</time>
      </trkpt>
      <trkpt lat="45.44774" lon="4.6676">
        <ele>787</ele>
        <time>2019-03-06T12:42:28.000Z</time>
      </trkpt>
      <trkpt lat="45.44776" lon="4.66764">
        <ele>787.20001220703</ele>
        <time>2019-03-06T12:42:31.000Z</time>
      </trkpt>
      <trkpt lat="45.44777" lon="4.66766">
        <ele>787</ele>
        <time>2019-03-06T12:42:32.000Z</time>
      </trkpt>
      <trkpt lat="45.44778" lon="4.66767">
        <ele>787.20001220703</ele>
        <time>2019-03-06T12:42:33.000Z</time>
      </trkpt>
      <trkpt lat="45.44779" lon="4.66768">
        <ele>787.40002441406</ele>
        <time>2019-03-06T12:42:34.000Z</time>
      </trkpt>
      <trkpt lat="45.44788" lon="4.66775">
        <ele>788.59997558594</ele>
        <time>2019-03-06T12:42:41.000Z</time>
      </trkpt>
      <trkpt lat="45.44788" lon="4.66777">
        <ele>788.40002441406</ele>
        <time>2019-03-06T12:42:42.000Z</time>
      </trkpt>
      <trkpt lat="45.44789" lon="4.66778">
        <ele>788.40002441406</ele>
        <time>2019-03-06T12:42:43.000Z</time>
      </trkpt>
      <trkpt lat="45.44797" lon="4.66786">
        <ele>789.40002441406</ele>
        <time>2019-03-06T12:42:50.000Z</time>
      </trkpt>
      <trkpt lat="45.44797" lon="4.66788">
        <ele>789.20001220703</ele>
        <time>2019-03-06T12:42:51.000Z</time>
      </trkpt>
      <trkpt lat="45.44799" lon="4.66789">
        <ele>789.40002441406</ele>
        <time>2019-03-06T12:42:53.000Z</time>
      </trkpt>
      <trkpt lat="45.44809" lon="4.66797">
        <ele>791.20001220703</ele>
        <time>2019-03-06T12:43:02.000Z</time>
      </trkpt>
      <trkpt lat="45.44815" lon="4.66806">
        <ele>791.20001220703</ele>
        <time>2019-03-06T12:43:09.000Z</time>
      </trkpt>
      <trkpt lat="45.44817" lon="4.6681">
        <ele>791.20001220703</ele>
        <time>2019-03-06T12:43:12.000Z</time>
      </trkpt>
      <trkpt lat="45.4482" lon="4.66813">
        <ele>791.59997558594</ele>
        <time>2019-03-06T12:43:15.000Z</time>
      </trkpt>
      <trkpt lat="45.44827" lon="4.66822">
        <ele>792.20001220703</ele>
        <time>2019-03-06T12:43:23.000Z</time>
      </trkpt>
      <trkpt lat="45.44828" lon="4.66823">
        <ele>792.20001220703</ele>
        <time>2019-03-06T12:43:24.000Z</time>
      </trkpt>
      <trkpt lat="45.44829" lon="4.66824">
        <ele>792.40002441406</ele>
        <time>2019-03-06T12:43:25.000Z</time>
      </trkpt>
      <trkpt lat="45.44834" lon="4.66831">
        <ele>792.59997558594</ele>
        <time>2019-03-06T12:43:33.000Z</time>
      </trkpt>
      <trkpt lat="45.44837" lon="4.66834">
        <ele>793</ele>
        <time>2019-03-06T12:43:36.000Z</time>
      </trkpt>
      <trkpt lat="45.44845" lon="4.66841">
        <ele>794.40002441406</ele>
        <time>2019-03-06T12:43:43.000Z</time>
      </trkpt>
      <trkpt lat="45.44854" lon="4.66848">
        <ele>796</ele>
        <time>2019-03-06T12:43:50.000Z</time>
      </trkpt>
      <trkpt lat="45.44857" lon="4.66852">
        <ele>796.20001220703</ele>
        <time>2019-03-06T12:43:53.000Z</time>
      </trkpt>
      <trkpt lat="45.44861" lon="4.66855">
        <ele>796.79998779297</ele>
        <time>2019-03-06T12:43:57.000Z</time>
      </trkpt>
      <trkpt lat="45.44862" lon="4.66857">
        <ele>796.79998779297</ele>
        <time>2019-03-06T12:43:58.000Z</time>
      </trkpt>
      <trkpt lat="45.44863" lon="4.66858">
        <ele>797</ele>
        <time>2019-03-06T12:43:59.000Z</time>
      </trkpt>
      <trkpt lat="45.44872" lon="4.66865">
        <ele>798.59997558594</ele>
        <time>2019-03-06T12:44:07.000Z</time>
      </trkpt>
      <trkpt lat="45.44875" lon="4.66866">
        <ele>799</ele>
        <time>2019-03-06T12:44:09.000Z</time>
      </trkpt>
      <trkpt lat="45.44876" lon="4.66867">
        <ele>799.20001220703</ele>
        <time>2019-03-06T12:44:10.000Z</time>
      </trkpt>
      <trkpt lat="45.44878" lon="4.6687">
        <ele>799.40002441406</ele>
        <time>2019-03-06T12:44:12.000Z</time>
      </trkpt>
      <trkpt lat="45.4488" lon="4.66872">
        <ele>799.40002441406</ele>
        <time>2019-03-06T12:44:14.000Z</time>
      </trkpt>
      <trkpt lat="45.4488" lon="4.66873">
        <ele>799.40002441406</ele>
        <time>2019-03-06T12:44:15.000Z</time>
      </trkpt>
      <trkpt lat="45.44881" lon="4.66874">
        <ele>799.59997558594</ele>
        <time>2019-03-06T12:44:16.000Z</time>
      </trkpt>
      <trkpt lat="45.44887" lon="4.66884">
        <ele>799.20001220703</ele>
        <time>2019-03-06T12:44:24.000Z</time>
      </trkpt>
      <trkpt lat="45.44892" lon="4.66895">
        <ele>798.20001220703</ele>
        <time>2019-03-06T12:44:32.000Z</time>
      </trkpt>
      <trkpt lat="45.44898" lon="4.66911">
        <ele>796.40002441406</ele>
        <time>2019-03-06T12:44:43.000Z</time>
      </trkpt>
      <trkpt lat="45.44905" lon="4.66926">
        <ele>795</ele>
        <time>2019-03-06T12:44:54.000Z</time>
      </trkpt>
      <trkpt lat="45.44909" lon="4.6694">
        <ele>793</ele>
        <time>2019-03-06T12:45:03.000Z</time>
      </trkpt>
      <trkpt lat="45.44914" lon="4.66954">
        <ele>791.40002441406</ele>
        <time>2019-03-06T12:45:13.000Z</time>
      </trkpt>
      <trkpt lat="45.44915" lon="4.66957">
        <ele>791.40002441406</ele>
        <time>2019-03-06T12:45:15.000Z</time>
      </trkpt>
      <trkpt lat="45.44915" lon="4.66959">
        <ele>791.20001220703</ele>
        <time>2019-03-06T12:45:16.000Z</time>
      </trkpt>
      <trkpt lat="45.44916" lon="4.66961">
        <ele>791.20001220703</ele>
        <time>2019-03-06T12:45:17.000Z</time>
      </trkpt>
      <trkpt lat="45.44916" lon="4.66962">
        <ele>791.20001220703</ele>
        <time>2019-03-06T12:45:18.000Z</time>
      </trkpt>
      <trkpt lat="45.44917" lon="4.66963">
        <ele>791.20001220703</ele>
        <time>2019-03-06T12:45:19.000Z</time>
      </trkpt>
      <trkpt lat="45.44918" lon="4.66964">
        <ele>791.40002441406</ele>
        <time>2019-03-06T12:45:20.000Z</time>
      </trkpt>
      <trkpt lat="45.44921" lon="4.66971">
        <ele>791.40002441406</ele>
        <time>2019-03-06T12:45:25.000Z</time>
      </trkpt>
      <trkpt lat="45.44921" lon="4.66972">
        <ele>791.40002441406</ele>
        <time>2019-03-06T12:45:26.000Z</time>
      </trkpt>
      <trkpt lat="45.44926" lon="4.66985">
        <ele>791</ele>
        <time>2019-03-06T12:45:35.000Z</time>
      </trkpt>
      <trkpt lat="45.4493" lon="4.66997">
        <ele>790.40002441406</ele>
        <time>2019-03-06T12:45:43.000Z</time>
      </trkpt>
      <trkpt lat="45.44934" lon="4.67002">
        <ele>790.79998779297</ele>
        <time>2019-03-06T12:45:47.000Z</time>
      </trkpt>
      <trkpt lat="45.44936" lon="4.67007">
        <ele>791</ele>
        <time>2019-03-06T12:45:50.000Z</time>
      </trkpt>
      <trkpt lat="45.44936" lon="4.67009">
        <ele>790.59997558594</ele>
        <time>2019-03-06T12:45:51.000Z</time>
      </trkpt>
      <trkpt lat="45.44936" lon="4.67012">
        <ele>790.20001220703</ele>
        <time>2019-03-06T12:45:52.000Z</time>
      </trkpt>
      <trkpt lat="45.44937" lon="4.67014">
        <ele>790.20001220703</ele>
        <time>2019-03-06T12:45:53.000Z</time>
      </trkpt>
      <trkpt lat="45.44937" lon="4.67015">
        <ele>790.20001220703</ele>
        <time>2019-03-06T12:45:54.000Z</time>
      </trkpt>
      <trkpt lat="45.44938" lon="4.67017">
        <ele>790</ele>
        <time>2019-03-06T12:45:55.000Z</time>
      </trkpt>
      <trkpt lat="45.44939" lon="4.67018">
        <ele>790</ele>
        <time>2019-03-06T12:45:56.000Z</time>
      </trkpt>
      <trkpt lat="45.4494" lon="4.67021">
        <ele>790</ele>
        <time>2019-03-06T12:45:58.000Z</time>
      </trkpt>
      <trkpt lat="45.44942" lon="4.67021">
        <ele>790.59997558594</ele>
        <time>2019-03-06T12:45:59.000Z</time>
      </trkpt>
      <trkpt lat="45.44948" lon="4.6703">
        <ele>791.40002441406</ele>
        <time>2019-03-06T12:46:07.000Z</time>
      </trkpt>
      <trkpt lat="45.44954" lon="4.67042">
        <ele>791.79998779297</ele>
        <time>2019-03-06T12:46:16.000Z</time>
      </trkpt>
      <trkpt lat="45.44956" lon="4.67046">
        <ele>791.79998779297</ele>
        <time>2019-03-06T12:46:19.000Z</time>
      </trkpt>
      <trkpt lat="45.44956" lon="4.67052">
        <ele>791.40002441406</ele>
        <time>2019-03-06T12:46:22.000Z</time>
      </trkpt>
      <trkpt lat="45.44957" lon="4.67053">
        <ele>791.59997558594</ele>
        <time>2019-03-06T12:46:23.000Z</time>
      </trkpt>
      <trkpt lat="45.44963" lon="4.67063">
        <ele>792.40002441406</ele>
        <time>2019-03-06T12:46:32.000Z</time>
      </trkpt>
      <trkpt lat="45.44967" lon="4.67074">
        <ele>792.79998779297</ele>
        <time>2019-03-06T12:46:39.000Z</time>
      </trkpt>
      <trkpt lat="45.44969" lon="4.67078">
        <ele>792.79998779297</ele>
        <time>2019-03-06T12:46:41.000Z</time>
      </trkpt>
      <trkpt lat="45.44972" lon="4.67091">
        <ele>792.79998779297</ele>
        <time>2019-03-06T12:46:48.000Z</time>
      </trkpt>
      <trkpt lat="45.44975" lon="4.67102">
        <ele>792.59997558594</ele>
        <time>2019-03-06T12:46:53.000Z</time>
      </trkpt>
      <trkpt lat="45.44977" lon="4.67105">
        <ele>793.20001220703</ele>
        <time>2019-03-06T12:46:56.000Z</time>
      </trkpt>
      <trkpt lat="45.44981" lon="4.6712">
        <ele>793</ele>
        <time>2019-03-06T12:47:05.000Z</time>
      </trkpt>
      <trkpt lat="45.44982" lon="4.67124">
        <ele>792.79998779297</ele>
        <time>2019-03-06T12:47:07.000Z</time>
      </trkpt>
      <trkpt lat="45.44987" lon="4.67136">
        <ele>793</ele>
        <time>2019-03-06T12:47:15.000Z</time>
      </trkpt>
      <trkpt lat="45.4499" lon="4.67146">
        <ele>793</ele>
        <time>2019-03-06T12:47:21.000Z</time>
      </trkpt>
      <trkpt lat="45.44993" lon="4.67157">
        <ele>792.79998779297</ele>
        <time>2019-03-06T12:47:27.000Z</time>
      </trkpt>
      <trkpt lat="45.44995" lon="4.67172">
        <ele>792.40002441406</ele>
        <time>2019-03-06T12:47:35.000Z</time>
      </trkpt>
      <trkpt lat="45.44999" lon="4.67179">
        <ele>792.79998779297</ele>
        <time>2019-03-06T12:47:40.000Z</time>
      </trkpt>
      <trkpt lat="45.45" lon="4.67184">
        <ele>792.79998779297</ele>
        <time>2019-03-06T12:47:43.000Z</time>
      </trkpt>
      <trkpt lat="45.45" lon="4.67185">
        <ele>792.79998779297</ele>
        <time>2019-03-06T12:47:44.000Z</time>
      </trkpt>
      <trkpt lat="45.45" lon="4.67188">
        <ele>792.59997558594</ele>
        <time>2019-03-06T12:47:45.000Z</time>
      </trkpt>
      <trkpt lat="45.45001" lon="4.6719">
        <ele>792.59997558594</ele>
        <time>2019-03-06T12:47:46.000Z</time>
      </trkpt>
      <trkpt lat="45.45001" lon="4.67192">
        <ele>792.40002441406</ele>
        <time>2019-03-06T12:47:47.000Z</time>
      </trkpt>
      <trkpt lat="45.45001" lon="4.67194">
        <ele>792.40002441406</ele>
        <time>2019-03-06T12:47:48.000Z</time>
      </trkpt>
      <trkpt lat="45.45002" lon="4.67195">
        <ele>792.40002441406</ele>
        <time>2019-03-06T12:47:49.000Z</time>
      </trkpt>
      <trkpt lat="45.45002" lon="4.67197">
        <ele>792.40002441406</ele>
        <time>2019-03-06T12:47:50.000Z</time>
      </trkpt>
      <trkpt lat="45.45003" lon="4.67198">
        <ele>792.40002441406</ele>
        <time>2019-03-06T12:47:51.000Z</time>
      </trkpt>
      <trkpt lat="45.45003" lon="4.672">
        <ele>792.20001220703</ele>
        <time>2019-03-06T12:47:52.000Z</time>
      </trkpt>
      <trkpt lat="45.45004" lon="4.67201">
        <ele>792.40002441406</ele>
        <time>2019-03-06T12:47:53.000Z</time>
      </trkpt>
      <trkpt lat="45.45004" lon="4.67202">
        <ele>792.59997558594</ele>
        <time>2019-03-06T12:47:54.000Z</time>
      </trkpt>
      <trkpt lat="45.45005" lon="4.67203">
        <ele>792.79998779297</ele>
        <time>2019-03-06T12:47:55.000Z</time>
      </trkpt>
      <trkpt lat="45.45006" lon="4.67205">
        <ele>793</ele>
        <time>2019-03-06T12:47:56.000Z</time>
      </trkpt>
      <trkpt lat="45.4501" lon="4.6721">
        <ele>793.40002441406</ele>
        <time>2019-03-06T12:48:00.000Z</time>
      </trkpt>
      <trkpt lat="45.45011" lon="4.67211">
        <ele>793.79998779297</ele>
        <time>2019-03-06T12:48:01.000Z</time>
      </trkpt>
      <trkpt lat="45.45012" lon="4.67213">
        <ele>793.79998779297</ele>
        <time>2019-03-06T12:48:02.000Z</time>
      </trkpt>
      <trkpt lat="45.45012" lon="4.67215">
        <ele>793.79998779297</ele>
        <time>2019-03-06T12:48:03.000Z</time>
      </trkpt>
      <trkpt lat="45.45013" lon="4.67216">
        <ele>794</ele>
        <time>2019-03-06T12:48:04.000Z</time>
      </trkpt>
      <trkpt lat="45.45015" lon="4.6722">
        <ele>794</ele>
        <time>2019-03-06T12:48:07.000Z</time>
      </trkpt>
      <trkpt lat="45.45018" lon="4.67229">
        <ele>794.20001220703</ele>
        <time>2019-03-06T12:48:14.000Z</time>
      </trkpt>
      <trkpt lat="45.4502" lon="4.67241">
        <ele>793.79998779297</ele>
        <time>2019-03-06T12:48:23.000Z</time>
      </trkpt>
      <trkpt lat="45.45024" lon="4.67249">
        <ele>794</ele>
        <time>2019-03-06T12:48:29.000Z</time>
      </trkpt>
      <trkpt lat="45.45024" lon="4.6725">
        <ele>794</ele>
        <time>2019-03-06T12:48:30.000Z</time>
      </trkpt>
      <trkpt lat="45.45024" lon="4.67252">
        <ele>793.79998779297</ele>
        <time>2019-03-06T12:48:31.000Z</time>
      </trkpt>
      <trkpt lat="45.45029" lon="4.67269">
        <ele>793.59997558594</ele>
        <time>2019-03-06T12:48:40.000Z</time>
      </trkpt>
      <trkpt lat="45.45031" lon="4.67271">
        <ele>793.79998779297</ele>
        <time>2019-03-06T12:48:42.000Z</time>
      </trkpt>
      <trkpt lat="45.45032" lon="4.67272">
        <ele>794</ele>
        <time>2019-03-06T12:48:43.000Z</time>
      </trkpt>
      <trkpt lat="45.45032" lon="4.67274">
        <ele>794</ele>
        <time>2019-03-06T12:48:44.000Z</time>
      </trkpt>
      <trkpt lat="45.45033" lon="4.67275">
        <ele>794</ele>
        <time>2019-03-06T12:48:45.000Z</time>
      </trkpt>
      <trkpt lat="45.45035" lon="4.6728">
        <ele>794.20001220703</ele>
        <time>2019-03-06T12:48:49.000Z</time>
      </trkpt>
      <trkpt lat="45.45036" lon="4.67281">
        <ele>794.40002441406</ele>
        <time>2019-03-06T12:48:50.000Z</time>
      </trkpt>
      <trkpt lat="45.45042" lon="4.67291">
        <ele>795</ele>
        <time>2019-03-06T12:48:58.000Z</time>
      </trkpt>
      <trkpt lat="45.45045" lon="4.67298">
        <ele>795</ele>
        <time>2019-03-06T12:49:05.000Z</time>
      </trkpt>
      <trkpt lat="45.45045" lon="4.673">
        <ele>794.79998779297</ele>
        <time>2019-03-06T12:49:06.000Z</time>
      </trkpt>
      <trkpt lat="45.45046" lon="4.67302">
        <ele>794.79998779297</ele>
        <time>2019-03-06T12:49:07.000Z</time>
      </trkpt>
      <trkpt lat="45.45046" lon="4.67303">
        <ele>794.59997558594</ele>
        <time>2019-03-06T12:49:08.000Z</time>
      </trkpt>
      <trkpt lat="45.45047" lon="4.67305">
        <ele>794.59997558594</ele>
        <time>2019-03-06T12:49:09.000Z</time>
      </trkpt>
      <trkpt lat="45.45048" lon="4.67308">
        <ele>794.40002441406</ele>
        <time>2019-03-06T12:49:11.000Z</time>
      </trkpt>
      <trkpt lat="45.45049" lon="4.67308">
        <ele>794.79998779297</ele>
        <time>2019-03-06T12:49:12.000Z</time>
      </trkpt>
      <trkpt lat="45.4505" lon="4.6731">
        <ele>794.79998779297</ele>
        <time>2019-03-06T12:49:13.000Z</time>
      </trkpt>
      <trkpt lat="45.4505" lon="4.67311">
        <ele>794.79998779297</ele>
        <time>2019-03-06T12:49:14.000Z</time>
      </trkpt>
      <trkpt lat="45.45051" lon="4.67312">
        <ele>794.79998779297</ele>
        <time>2019-03-06T12:49:15.000Z</time>
      </trkpt>
      <trkpt lat="45.45052" lon="4.67314">
        <ele>795</ele>
        <time>2019-03-06T12:49:16.000Z</time>
      </trkpt>
      <trkpt lat="45.45053" lon="4.67315">
        <ele>795</ele>
        <time>2019-03-06T12:49:17.000Z</time>
      </trkpt>
      <trkpt lat="45.45055" lon="4.67325">
        <ele>794.40002441406</ele>
        <time>2019-03-06T12:49:23.000Z</time>
      </trkpt>
      <trkpt lat="45.45056" lon="4.67326">
        <ele>794.59997558594</ele>
        <time>2019-03-06T12:49:24.000Z</time>
      </trkpt>
      <trkpt lat="45.45057" lon="4.67329">
        <ele>794.40002441406</ele>
        <time>2019-03-06T12:49:26.000Z</time>
      </trkpt>
      <trkpt lat="45.45062" lon="4.67341">
        <ele>794.40002441406</ele>
        <time>2019-03-06T12:49:33.000Z</time>
      </trkpt>
      <trkpt lat="45.45064" lon="4.67345">
        <ele>794.40002441406</ele>
        <time>2019-03-06T12:49:36.000Z</time>
      </trkpt>
      <trkpt lat="45.45066" lon="4.67346">
        <ele>794.59997558594</ele>
        <time>2019-03-06T12:49:37.000Z</time>
      </trkpt>
      <trkpt lat="45.45067" lon="4.67347">
        <ele>794.79998779297</ele>
        <time>2019-03-06T12:49:38.000Z</time>
      </trkpt>
      <trkpt lat="45.45067" lon="4.67354">
        <ele>794</ele>
        <time>2019-03-06T12:49:42.000Z</time>
      </trkpt>
      <trkpt lat="45.45068" lon="4.67356">
        <ele>794</ele>
        <time>2019-03-06T12:49:43.000Z</time>
      </trkpt>
      <trkpt lat="45.45068" lon="4.67357">
        <ele>794</ele>
        <time>2019-03-06T12:49:44.000Z</time>
      </trkpt>
      <trkpt lat="45.45069" lon="4.67358">
        <ele>794</ele>
        <time>2019-03-06T12:49:45.000Z</time>
      </trkpt>
      <trkpt lat="45.4507" lon="4.6736">
        <ele>794.20001220703</ele>
        <time>2019-03-06T12:49:46.000Z</time>
      </trkpt>
      <trkpt lat="45.45071" lon="4.67361">
        <ele>794.40002441406</ele>
        <time>2019-03-06T12:49:47.000Z</time>
      </trkpt>
      <trkpt lat="45.45072" lon="4.67363">
        <ele>794.40002441406</ele>
        <time>2019-03-06T12:49:48.000Z</time>
      </trkpt>
      <trkpt lat="45.45074" lon="4.67367">
        <ele>794.20001220703</ele>
        <time>2019-03-06T12:49:51.000Z</time>
      </trkpt>
      <trkpt lat="45.45074" lon="4.67369">
        <ele>794</ele>
        <time>2019-03-06T12:49:52.000Z</time>
      </trkpt>
      <trkpt lat="45.45076" lon="4.67374">
        <ele>794</ele>
        <time>2019-03-06T12:49:55.000Z</time>
      </trkpt>
      <trkpt lat="45.45076" lon="4.67376">
        <ele>794</ele>
        <time>2019-03-06T12:49:56.000Z</time>
      </trkpt>
      <trkpt lat="45.45077" lon="4.67377">
        <ele>793.79998779297</ele>
        <time>2019-03-06T12:49:57.000Z</time>
      </trkpt>
      <trkpt lat="45.45079" lon="4.67387">
        <ele>793.20001220703</ele>
        <time>2019-03-06T12:50:03.000Z</time>
      </trkpt>
      <trkpt lat="45.4508" lon="4.67389">
        <ele>793.40002441406</ele>
        <time>2019-03-06T12:50:04.000Z</time>
      </trkpt>
      <trkpt lat="45.4508" lon="4.6739">
        <ele>793.40002441406</ele>
        <time>2019-03-06T12:50:05.000Z</time>
      </trkpt>
      <trkpt lat="45.45081" lon="4.67392">
        <ele>793.20001220703</ele>
        <time>2019-03-06T12:50:06.000Z</time>
      </trkpt>
      <trkpt lat="45.45086" lon="4.67404">
        <ele>793.20001220703</ele>
        <time>2019-03-06T12:50:14.000Z</time>
      </trkpt>
      <trkpt lat="45.45094" lon="4.67414">
        <ele>794.79998779297</ele>
        <time>2019-03-06T12:50:23.000Z</time>
      </trkpt>
      <trkpt lat="45.45095" lon="4.67417">
        <ele>794.59997558594</ele>
        <time>2019-03-06T12:50:25.000Z</time>
      </trkpt>
      <trkpt lat="45.45096" lon="4.67419">
        <ele>794.59997558594</ele>
        <time>2019-03-06T12:50:26.000Z</time>
      </trkpt>
      <trkpt lat="45.45096" lon="4.6742">
        <ele>794.59997558594</ele>
        <time>2019-03-06T12:50:27.000Z</time>
      </trkpt>
      <trkpt lat="45.45097" lon="4.67422">
        <ele>794.59997558594</ele>
        <time>2019-03-06T12:50:28.000Z</time>
      </trkpt>
      <trkpt lat="45.45097" lon="4.67423">
        <ele>794.59997558594</ele>
        <time>2019-03-06T12:50:29.000Z</time>
      </trkpt>
      <trkpt lat="45.45098" lon="4.67425">
        <ele>794.40002441406</ele>
        <time>2019-03-06T12:50:30.000Z</time>
      </trkpt>
      <trkpt lat="45.45099" lon="4.67426">
        <ele>794.59997558594</ele>
        <time>2019-03-06T12:50:31.000Z</time>
      </trkpt>
      <trkpt lat="45.45099" lon="4.67428">
        <ele>794.59997558594</ele>
        <time>2019-03-06T12:50:32.000Z</time>
      </trkpt>
      <trkpt lat="45.451" lon="4.67429">
        <ele>794.79998779297</ele>
        <time>2019-03-06T12:50:33.000Z</time>
      </trkpt>
      <trkpt lat="45.45101" lon="4.6743">
        <ele>794.79998779297</ele>
        <time>2019-03-06T12:50:34.000Z</time>
      </trkpt>
      <trkpt lat="45.45102" lon="4.67432">
        <ele>794.79998779297</ele>
        <time>2019-03-06T12:50:35.000Z</time>
      </trkpt>
      <trkpt lat="45.45102" lon="4.67434">
        <ele>794.59997558594</ele>
        <time>2019-03-06T12:50:36.000Z</time>
      </trkpt>
      <trkpt lat="45.45102" lon="4.67436">
        <ele>794.40002441406</ele>
        <time>2019-03-06T12:50:37.000Z</time>
      </trkpt>
      <trkpt lat="45.45102" lon="4.67438">
        <ele>794.20001220703</ele>
        <time>2019-03-06T12:50:38.000Z</time>
      </trkpt>
      <trkpt lat="45.45108" lon="4.67442">
        <ele>795.40002441406</ele>
        <time>2019-03-06T12:50:43.000Z</time>
      </trkpt>
      <trkpt lat="45.45113" lon="4.67451">
        <ele>796</ele>
        <time>2019-03-06T12:50:49.000Z</time>
      </trkpt>
      <trkpt lat="45.45118" lon="4.67462">
        <ele>795.79998779297</ele>
        <time>2019-03-06T12:50:58.000Z</time>
      </trkpt>
      <trkpt lat="45.4512" lon="4.67465">
        <ele>795.79998779297</ele>
        <time>2019-03-06T12:51:00.000Z</time>
      </trkpt>
      <trkpt lat="45.4512" lon="4.67467">
        <ele>795.59997558594</ele>
        <time>2019-03-06T12:51:01.000Z</time>
      </trkpt>
      <trkpt lat="45.45121" lon="4.67468">
        <ele>795.40002441406</ele>
        <time>2019-03-06T12:51:02.000Z</time>
      </trkpt>
      <trkpt lat="45.45123" lon="4.67469">
        <ele>795.79998779297</ele>
        <time>2019-03-06T12:51:03.000Z</time>
      </trkpt>
      <trkpt lat="45.45124" lon="4.67471">
        <ele>795.79998779297</ele>
        <time>2019-03-06T12:51:04.000Z</time>
      </trkpt>
      <trkpt lat="45.45131" lon="4.67482">
        <ele>796.20001220703</ele>
        <time>2019-03-06T12:51:12.000Z</time>
      </trkpt>
      <trkpt lat="45.45138" lon="4.6749">
        <ele>796.59997558594</ele>
        <time>2019-03-06T12:51:20.000Z</time>
      </trkpt>
      <trkpt lat="45.45138" lon="4.67491">
        <ele>796.59997558594</ele>
        <time>2019-03-06T12:51:21.000Z</time>
      </trkpt>
      <trkpt lat="45.45144" lon="4.67498">
        <ele>796.59997558594</ele>
        <time>2019-03-06T12:51:28.000Z</time>
      </trkpt>
      <trkpt lat="45.45145" lon="4.67503">
        <ele>795.79998779297</ele>
        <time>2019-03-06T12:51:31.000Z</time>
      </trkpt>
      <trkpt lat="45.45146" lon="4.67505">
        <ele>795.79998779297</ele>
        <time>2019-03-06T12:51:32.000Z</time>
      </trkpt>
      <trkpt lat="45.45147" lon="4.67506">
        <ele>795.79998779297</ele>
        <time>2019-03-06T12:51:33.000Z</time>
      </trkpt>
      <trkpt lat="45.45148" lon="4.67507">
        <ele>795.79998779297</ele>
        <time>2019-03-06T12:51:34.000Z</time>
      </trkpt>
      <trkpt lat="45.45148" lon="4.67508">
        <ele>795.59997558594</ele>
        <time>2019-03-06T12:51:35.000Z</time>
      </trkpt>
      <trkpt lat="45.45149" lon="4.6751">
        <ele>795.59997558594</ele>
        <time>2019-03-06T12:51:36.000Z</time>
      </trkpt>
      <trkpt lat="45.4515" lon="4.67511">
        <ele>795.40002441406</ele>
        <time>2019-03-06T12:51:37.000Z</time>
      </trkpt>
      <trkpt lat="45.45151" lon="4.67512">
        <ele>795.59997558594</ele>
        <time>2019-03-06T12:51:38.000Z</time>
      </trkpt>
      <trkpt lat="45.45155" lon="4.67515">
        <ele>796</ele>
        <time>2019-03-06T12:51:41.000Z</time>
      </trkpt>
      <trkpt lat="45.45156" lon="4.67516">
        <ele>796</ele>
        <time>2019-03-06T12:51:42.000Z</time>
      </trkpt>
      <trkpt lat="45.45157" lon="4.67517">
        <ele>796</ele>
        <time>2019-03-06T12:51:43.000Z</time>
      </trkpt>
      <trkpt lat="45.45158" lon="4.67518">
        <ele>796.20001220703</ele>
        <time>2019-03-06T12:51:44.000Z</time>
      </trkpt>
      <trkpt lat="45.45159" lon="4.67519">
        <ele>796.20001220703</ele>
        <time>2019-03-06T12:51:45.000Z</time>
      </trkpt>
      <trkpt lat="45.45161" lon="4.6752">
        <ele>796.20001220703</ele>
        <time>2019-03-06T12:51:46.000Z</time>
      </trkpt>
      <trkpt lat="45.45162" lon="4.67522">
        <ele>796.20001220703</ele>
        <time>2019-03-06T12:51:47.000Z</time>
      </trkpt>
      <trkpt lat="45.45162" lon="4.67523">
        <ele>796.20001220703</ele>
        <time>2019-03-06T12:51:48.000Z</time>
      </trkpt>
      <trkpt lat="45.45164" lon="4.67524">
        <ele>796.40002441406</ele>
        <time>2019-03-06T12:51:49.000Z</time>
      </trkpt>
      <trkpt lat="45.45164" lon="4.67525">
        <ele>796.20001220703</ele>
        <time>2019-03-06T12:51:50.000Z</time>
      </trkpt>
      <trkpt lat="45.45165" lon="4.67526">
        <ele>796</ele>
        <time>2019-03-06T12:51:51.000Z</time>
      </trkpt>
      <trkpt lat="45.45165" lon="4.67528">
        <ele>795.79998779297</ele>
        <time>2019-03-06T12:51:52.000Z</time>
      </trkpt>
      <trkpt lat="45.45165" lon="4.6753">
        <ele>795.40002441406</ele>
        <time>2019-03-06T12:51:53.000Z</time>
      </trkpt>
      <trkpt lat="45.45165" lon="4.67531">
        <ele>795.20001220703</ele>
        <time>2019-03-06T12:51:54.000Z</time>
      </trkpt>
      <trkpt lat="45.45171" lon="4.67541">
        <ele>794.79998779297</ele>
        <time>2019-03-06T12:52:01.000Z</time>
      </trkpt>
      <trkpt lat="45.45172" lon="4.67542">
        <ele>794.59997558594</ele>
        <time>2019-03-06T12:52:02.000Z</time>
      </trkpt>
      <trkpt lat="45.45177" lon="4.67549">
        <ele>794.20001220703</ele>
        <time>2019-03-06T12:52:08.000Z</time>
      </trkpt>
      <trkpt lat="45.45178" lon="4.6755">
        <ele>794</ele>
        <time>2019-03-06T12:52:09.000Z</time>
      </trkpt>
      <trkpt lat="45.45186" lon="4.67559">
        <ele>793.59997558594</ele>
        <time>2019-03-06T12:52:17.000Z</time>
      </trkpt>
      <trkpt lat="45.4519" lon="4.67564">
        <ele>793.40002441406</ele>
        <time>2019-03-06T12:52:22.000Z</time>
      </trkpt>
      <trkpt lat="45.45191" lon="4.67566">
        <ele>793.20001220703</ele>
        <time>2019-03-06T12:52:23.000Z</time>
      </trkpt>
      <trkpt lat="45.45193" lon="4.67569">
        <ele>793.20001220703</ele>
        <time>2019-03-06T12:52:26.000Z</time>
      </trkpt>
      <trkpt lat="45.45195" lon="4.6757">
        <ele>793.20001220703</ele>
        <time>2019-03-06T12:52:27.000Z</time>
      </trkpt>
      <trkpt lat="45.45195" lon="4.67571">
        <ele>793</ele>
        <time>2019-03-06T12:52:28.000Z</time>
      </trkpt>
      <trkpt lat="45.45196" lon="4.67572">
        <ele>792.79998779297</ele>
        <time>2019-03-06T12:52:29.000Z</time>
      </trkpt>
      <trkpt lat="45.45197" lon="4.67574">
        <ele>792.59997558594</ele>
        <time>2019-03-06T12:52:30.000Z</time>
      </trkpt>
      <trkpt lat="45.45198" lon="4.67576">
        <ele>792.40002441406</ele>
        <time>2019-03-06T12:52:31.000Z</time>
      </trkpt>
      <trkpt lat="45.45207" lon="4.67584">
        <ele>792.40002441406</ele>
        <time>2019-03-06T12:52:39.000Z</time>
      </trkpt>
      <trkpt lat="45.45208" lon="4.67585">
        <ele>792.40002441406</ele>
        <time>2019-03-06T12:52:40.000Z</time>
      </trkpt>
      <trkpt lat="45.45217" lon="4.67591">
        <ele>792.79998779297</ele>
        <time>2019-03-06T12:52:48.000Z</time>
      </trkpt>
      <trkpt lat="45.4522" lon="4.67592">
        <ele>792.79998779297</ele>
        <time>2019-03-06T12:52:50.000Z</time>
      </trkpt>
      <trkpt lat="45.45222" lon="4.67594">
        <ele>792.59997558594</ele>
        <time>2019-03-06T12:52:52.000Z</time>
      </trkpt>
      <trkpt lat="45.45225" lon="4.67595">
        <ele>792.59997558594</ele>
        <time>2019-03-06T12:52:54.000Z</time>
      </trkpt>
      <trkpt lat="45.45236" lon="4.67598">
        <ele>792.59997558594</ele>
        <time>2019-03-06T12:53:04.000Z</time>
      </trkpt>
      <trkpt lat="45.45241" lon="4.67602">
        <ele>792</ele>
        <time>2019-03-06T12:53:09.000Z</time>
      </trkpt>
      <trkpt lat="45.45245" lon="4.67608">
        <ele>790.79998779297</ele>
        <time>2019-03-06T12:53:14.000Z</time>
      </trkpt>
      <trkpt lat="45.45246" lon="4.6761">
        <ele>790.59997558594</ele>
        <time>2019-03-06T12:53:15.000Z</time>
      </trkpt>
      <trkpt lat="45.45246" lon="4.67611">
        <ele>790.20001220703</ele>
        <time>2019-03-06T12:53:16.000Z</time>
      </trkpt>
      <trkpt lat="45.4525" lon="4.67616">
        <ele>789.40002441406</ele>
        <time>2019-03-06T12:53:21.000Z</time>
      </trkpt>
      <trkpt lat="45.45251" lon="4.67617">
        <ele>789</ele>
        <time>2019-03-06T12:53:23.000Z</time>
      </trkpt>
      <trkpt lat="45.45262" lon="4.67621">
        <ele>789</ele>
        <time>2019-03-06T12:53:31.000Z</time>
      </trkpt>
      <trkpt lat="45.45268" lon="4.67623">
        <ele>788.79998779297</ele>
        <time>2019-03-06T12:53:35.000Z</time>
      </trkpt>
      <trkpt lat="45.45279" lon="4.67627">
        <ele>788.59997558594</ele>
        <time>2019-03-06T12:53:43.000Z</time>
      </trkpt>
      <trkpt lat="45.45289" lon="4.67631">
        <ele>787.79998779297</ele>
        <time>2019-03-06T12:53:52.000Z</time>
      </trkpt>
      <trkpt lat="45.453" lon="4.67632">
        <ele>788.40002441406</ele>
        <time>2019-03-06T12:54:01.000Z</time>
      </trkpt>
      <trkpt lat="45.4531" lon="4.6763">
        <ele>789.40002441406</ele>
        <time>2019-03-06T12:54:10.000Z</time>
      </trkpt>
      <trkpt lat="45.45321" lon="4.67626">
        <ele>791.40002441406</ele>
        <time>2019-03-06T12:54:19.000Z</time>
      </trkpt>
      <trkpt lat="45.45324" lon="4.67625">
        <ele>791.79998779297</ele>
        <time>2019-03-06T12:54:22.000Z</time>
      </trkpt>
      <trkpt lat="45.45325" lon="4.67625">
        <ele>791.79998779297</ele>
        <time>2019-03-06T12:54:23.000Z</time>
      </trkpt>
      <trkpt lat="45.45333" lon="4.67623">
        <ele>793</ele>
        <time>2019-03-06T12:54:30.000Z</time>
      </trkpt>
      <trkpt lat="45.45334" lon="4.67622">
        <ele>793.40002441406</ele>
        <time>2019-03-06T12:54:31.000Z</time>
      </trkpt>
      <trkpt lat="45.4534" lon="4.67622">
        <ele>793.79998779297</ele>
        <time>2019-03-06T12:54:38.000Z</time>
      </trkpt>
      <trkpt lat="45.45348" lon="4.67623">
        <ele>793.79998779297</ele>
        <time>2019-03-06T12:54:48.000Z</time>
      </trkpt>
      <trkpt lat="45.45359" lon="4.67623">
        <ele>794.79998779297</ele>
        <time>2019-03-06T12:54:59.000Z</time>
      </trkpt>
      <trkpt lat="45.45363" lon="4.67621">
        <ele>795.40002441406</ele>
        <time>2019-03-06T12:55:09.000Z</time>
      </trkpt>
      <trkpt lat="45.4537" lon="4.6762">
        <ele>796</ele>
        <time>2019-03-06T12:55:19.000Z</time>
      </trkpt>
      <trkpt lat="45.45381" lon="4.6762">
        <ele>796.59997558594</ele>
        <time>2019-03-06T12:55:29.000Z</time>
      </trkpt>
      <trkpt lat="45.45382" lon="4.6762">
        <ele>796.79998779297</ele>
        <time>2019-03-06T12:55:30.000Z</time>
      </trkpt>
      <trkpt lat="45.45384" lon="4.67621">
        <ele>796.79998779297</ele>
        <time>2019-03-06T12:55:31.000Z</time>
      </trkpt>
      <trkpt lat="45.45386" lon="4.67622">
        <ele>796.79998779297</ele>
        <time>2019-03-06T12:55:33.000Z</time>
      </trkpt>
      <trkpt lat="45.45387" lon="4.67622">
        <ele>797.20001220703</ele>
        <time>2019-03-06T12:55:34.000Z</time>
      </trkpt>
      <trkpt lat="45.45388" lon="4.67622">
        <ele>797.20001220703</ele>
        <time>2019-03-06T12:55:35.000Z</time>
      </trkpt>
      <trkpt lat="45.454" lon="4.67621">
        <ele>799.79998779297</ele>
        <time>2019-03-06T12:55:43.000Z</time>
      </trkpt>
      <trkpt lat="45.45408" lon="4.67621">
        <ele>801.20001220703</ele>
        <time>2019-03-06T12:55:49.000Z</time>
      </trkpt>
      <trkpt lat="45.4542" lon="4.67624">
        <ele>802.59997558594</ele>
        <time>2019-03-06T12:55:59.000Z</time>
      </trkpt>
      <trkpt lat="45.45428" lon="4.67626">
        <ele>803.59997558594</ele>
        <time>2019-03-06T12:56:05.000Z</time>
      </trkpt>
      <trkpt lat="45.45437" lon="4.67628">
        <ele>804.59997558594</ele>
        <time>2019-03-06T12:56:11.000Z</time>
      </trkpt>
      <trkpt lat="45.45438" lon="4.67629">
        <ele>804.59997558594</ele>
        <time>2019-03-06T12:56:12.000Z</time>
      </trkpt>
      <trkpt lat="45.45451" lon="4.67636">
        <ele>805</ele>
        <time>2019-03-06T12:56:21.000Z</time>
      </trkpt>
      <trkpt lat="45.45452" lon="4.67637">
        <ele>805</ele>
        <time>2019-03-06T12:56:22.000Z</time>
      </trkpt>
      <trkpt lat="45.45454" lon="4.67637">
        <ele>805</ele>
        <time>2019-03-06T12:56:23.000Z</time>
      </trkpt>
      <trkpt lat="45.45459" lon="4.6764">
        <ele>805.40002441406</ele>
        <time>2019-03-06T12:56:26.000Z</time>
      </trkpt>
      <trkpt lat="45.45461" lon="4.6764">
        <ele>805.79998779297</ele>
        <time>2019-03-06T12:56:27.000Z</time>
      </trkpt>
      <trkpt lat="45.4547" lon="4.67648">
        <ele>805.20001220703</ele>
        <time>2019-03-06T12:56:34.000Z</time>
      </trkpt>
      <trkpt lat="45.4547" lon="4.67649">
        <ele>804.79998779297</ele>
        <time>2019-03-06T12:56:35.000Z</time>
      </trkpt>
      <trkpt lat="45.45471" lon="4.67651">
        <ele>804.59997558594</ele>
        <time>2019-03-06T12:56:36.000Z</time>
      </trkpt>
      <trkpt lat="45.45473" lon="4.67651">
        <ele>804.79998779297</ele>
        <time>2019-03-06T12:56:37.000Z</time>
      </trkpt>
      <trkpt lat="45.45475" lon="4.67652">
        <ele>804.79998779297</ele>
        <time>2019-03-06T12:56:38.000Z</time>
      </trkpt>
      <trkpt lat="45.45476" lon="4.67654">
        <ele>804.59997558594</ele>
        <time>2019-03-06T12:56:39.000Z</time>
      </trkpt>
      <trkpt lat="45.45484" lon="4.6766">
        <ele>804.20001220703</ele>
        <time>2019-03-06T12:56:45.000Z</time>
      </trkpt>
      <trkpt lat="45.45485" lon="4.67661">
        <ele>804.20001220703</ele>
        <time>2019-03-06T12:56:46.000Z</time>
      </trkpt>
      <trkpt lat="45.45486" lon="4.67663">
        <ele>803.79998779297</ele>
        <time>2019-03-06T12:56:47.000Z</time>
      </trkpt>
      <trkpt lat="45.45494" lon="4.67675">
        <ele>802</ele>
        <time>2019-03-06T12:56:56.000Z</time>
      </trkpt>
      <trkpt lat="45.45502" lon="4.6769">
        <ele>799.40002441406</ele>
        <time>2019-03-06T12:57:07.000Z</time>
      </trkpt>
      <trkpt lat="45.45504" lon="4.67695">
        <ele>798.40002441406</ele>
        <time>2019-03-06T12:57:11.000Z</time>
      </trkpt>
      <trkpt lat="45.45514" lon="4.67707">
        <ele>797</ele>
        <time>2019-03-06T12:57:21.000Z</time>
      </trkpt>
      <trkpt lat="45.45518" lon="4.6771">
        <ele>797</ele>
        <time>2019-03-06T12:57:25.000Z</time>
      </trkpt>
      <trkpt lat="45.45519" lon="4.67711">
        <ele>796.79998779297</ele>
        <time>2019-03-06T12:57:26.000Z</time>
      </trkpt>
      <trkpt lat="45.4552" lon="4.67711">
        <ele>796.79998779297</ele>
        <time>2019-03-06T12:57:27.000Z</time>
      </trkpt>
      <trkpt lat="45.45521" lon="4.67712">
        <ele>796.79998779297</ele>
        <time>2019-03-06T12:57:28.000Z</time>
      </trkpt>
      <trkpt lat="45.45523" lon="4.67715">
        <ele>796.59997558594</ele>
        <time>2019-03-06T12:57:32.000Z</time>
      </trkpt>
      <trkpt lat="45.45525" lon="4.67715">
        <ele>796.79998779297</ele>
        <time>2019-03-06T12:57:34.000Z</time>
      </trkpt>
      <trkpt lat="45.45526" lon="4.67716">
        <ele>796.79998779297</ele>
        <time>2019-03-06T12:57:35.000Z</time>
      </trkpt>
      <trkpt lat="45.45529" lon="4.67718">
        <ele>796.79998779297</ele>
        <time>2019-03-06T12:57:38.000Z</time>
      </trkpt>
      <trkpt lat="45.4553" lon="4.67719">
        <ele>796.59997558594</ele>
        <time>2019-03-06T12:57:39.000Z</time>
      </trkpt>
      <trkpt lat="45.45531" lon="4.6772">
        <ele>796.40002441406</ele>
        <time>2019-03-06T12:57:41.000Z</time>
      </trkpt>
      <trkpt lat="45.45534" lon="4.67721">
        <ele>796.59997558594</ele>
        <time>2019-03-06T12:57:43.000Z</time>
      </trkpt>
      <trkpt lat="45.45535" lon="4.67722">
        <ele>796.59997558594</ele>
        <time>2019-03-06T12:57:44.000Z</time>
      </trkpt>
      <trkpt lat="45.45539" lon="4.67726">
        <ele>796.20001220703</ele>
        <time>2019-03-06T12:57:48.000Z</time>
      </trkpt>
      <trkpt lat="45.45541" lon="4.67726">
        <ele>796.40002441406</ele>
        <time>2019-03-06T12:57:49.000Z</time>
      </trkpt>
      <trkpt lat="45.45542" lon="4.67727">
        <ele>796.40002441406</ele>
        <time>2019-03-06T12:57:50.000Z</time>
      </trkpt>
      <trkpt lat="45.45543" lon="4.67728">
        <ele>796.40002441406</ele>
        <time>2019-03-06T12:57:51.000Z</time>
      </trkpt>
      <trkpt lat="45.45545" lon="4.67728">
        <ele>796.79998779297</ele>
        <time>2019-03-06T12:57:52.000Z</time>
      </trkpt>
      <trkpt lat="45.45547" lon="4.67728">
        <ele>797</ele>
        <time>2019-03-06T12:57:53.000Z</time>
      </trkpt>
      <trkpt lat="45.45548" lon="4.67729">
        <ele>796.79998779297</ele>
        <time>2019-03-06T12:57:54.000Z</time>
      </trkpt>
      <trkpt lat="45.45551" lon="4.67731">
        <ele>797.20001220703</ele>
        <time>2019-03-06T12:57:56.000Z</time>
      </trkpt>
      <trkpt lat="45.45552" lon="4.67731">
        <ele>797.20001220703</ele>
        <time>2019-03-06T12:57:57.000Z</time>
      </trkpt>
      <trkpt lat="45.45553" lon="4.67732">
        <ele>797.20001220703</ele>
        <time>2019-03-06T12:57:58.000Z</time>
      </trkpt>
      <trkpt lat="45.45554" lon="4.67733">
        <ele>797.40002441406</ele>
        <time>2019-03-06T12:57:59.000Z</time>
      </trkpt>
      <trkpt lat="45.45561" lon="4.67738">
        <ele>798</ele>
        <time>2019-03-06T12:58:05.000Z</time>
      </trkpt>
      <trkpt lat="45.45567" lon="4.67743">
        <ele>798.20001220703</ele>
        <time>2019-03-06T12:58:13.000Z</time>
      </trkpt>
      <trkpt lat="45.45577" lon="4.67751">
        <ele>798.79998779297</ele>
        <time>2019-03-06T12:58:22.000Z</time>
      </trkpt>
      <trkpt lat="45.45586" lon="4.67755">
        <ele>800.40002441406</ele>
        <time>2019-03-06T12:58:30.000Z</time>
      </trkpt>
      <trkpt lat="45.45593" lon="4.67765">
        <ele>799.79998779297</ele>
        <time>2019-03-06T12:58:40.000Z</time>
      </trkpt>
      <trkpt lat="45.45595" lon="4.6777">
        <ele>799.20001220703</ele>
        <time>2019-03-06T12:58:44.000Z</time>
      </trkpt>
      <trkpt lat="45.45596" lon="4.67771">
        <ele>799</ele>
        <time>2019-03-06T12:58:45.000Z</time>
      </trkpt>
      <trkpt lat="45.45599" lon="4.67775">
        <ele>798.59997558594</ele>
        <time>2019-03-06T12:58:48.000Z</time>
      </trkpt>
      <trkpt lat="45.456" lon="4.67777">
        <ele>798.40002441406</ele>
        <time>2019-03-06T12:58:50.000Z</time>
      </trkpt>
      <trkpt lat="45.45608" lon="4.67782">
        <ele>799.20001220703</ele>
        <time>2019-03-06T12:58:56.000Z</time>
      </trkpt>
      <trkpt lat="45.45614" lon="4.67784">
        <ele>800.40002441406</ele>
        <time>2019-03-06T12:59:00.000Z</time>
      </trkpt>
      <trkpt lat="45.45616" lon="4.67784">
        <ele>801</ele>
        <time>2019-03-06T12:59:01.000Z</time>
      </trkpt>
      <trkpt lat="45.45618" lon="4.67785">
        <ele>801.20001220703</ele>
        <time>2019-03-06T12:59:02.000Z</time>
      </trkpt>
      <trkpt lat="45.45619" lon="4.67786">
        <ele>801.20001220703</ele>
        <time>2019-03-06T12:59:03.000Z</time>
      </trkpt>
      <trkpt lat="45.45621" lon="4.67787">
        <ele>801.59997558594</ele>
        <time>2019-03-06T12:59:05.000Z</time>
      </trkpt>
      <trkpt lat="45.45623" lon="4.67789">
        <ele>801.59997558594</ele>
        <time>2019-03-06T12:59:06.000Z</time>
      </trkpt>
      <trkpt lat="45.45623" lon="4.6779">
        <ele>801.59997558594</ele>
        <time>2019-03-06T12:59:07.000Z</time>
      </trkpt>
      <trkpt lat="45.45625" lon="4.6779">
        <ele>802</ele>
        <time>2019-03-06T12:59:08.000Z</time>
      </trkpt>
      <trkpt lat="45.45636" lon="4.67796">
        <ele>803.20001220703</ele>
        <time>2019-03-06T12:59:16.000Z</time>
      </trkpt>
      <trkpt lat="45.45636" lon="4.67797">
        <ele>802.79998779297</ele>
        <time>2019-03-06T12:59:17.000Z</time>
      </trkpt>
      <trkpt lat="45.45637" lon="4.67799">
        <ele>802.40002441406</ele>
        <time>2019-03-06T12:59:18.000Z</time>
      </trkpt>
      <trkpt lat="45.45638" lon="4.67803">
        <ele>801.79998779297</ele>
        <time>2019-03-06T12:59:20.000Z</time>
      </trkpt>
      <trkpt lat="45.45639" lon="4.67804">
        <ele>801.79998779297</ele>
        <time>2019-03-06T12:59:21.000Z</time>
      </trkpt>
      <trkpt lat="45.45647" lon="4.67809">
        <ele>801.79998779297</ele>
        <time>2019-03-06T12:59:26.000Z</time>
      </trkpt>
      <trkpt lat="45.45648" lon="4.6781">
        <ele>801.79998779297</ele>
        <time>2019-03-06T12:59:27.000Z</time>
      </trkpt>
      <trkpt lat="45.45649" lon="4.67811">
        <ele>801.79998779297</ele>
        <time>2019-03-06T12:59:28.000Z</time>
      </trkpt>
      <trkpt lat="45.45651" lon="4.67812">
        <ele>802</ele>
        <time>2019-03-06T12:59:29.000Z</time>
      </trkpt>
      <trkpt lat="45.45653" lon="4.67812">
        <ele>802.40002441406</ele>
        <time>2019-03-06T12:59:30.000Z</time>
      </trkpt>
      <trkpt lat="45.4566" lon="4.67821">
        <ele>801.20001220703</ele>
        <time>2019-03-06T12:59:38.000Z</time>
      </trkpt>
      <trkpt lat="45.45661" lon="4.67823">
        <ele>801.20001220703</ele>
        <time>2019-03-06T12:59:39.000Z</time>
      </trkpt>
      <trkpt lat="45.45661" lon="4.67824">
        <ele>800.79998779297</ele>
        <time>2019-03-06T12:59:40.000Z</time>
      </trkpt>
      <trkpt lat="45.45662" lon="4.67825">
        <ele>800.79998779297</ele>
        <time>2019-03-06T12:59:41.000Z</time>
      </trkpt>
      <trkpt lat="45.45665" lon="4.67827">
        <ele>800.79998779297</ele>
        <time>2019-03-06T12:59:43.000Z</time>
      </trkpt>
      <trkpt lat="45.45665" lon="4.67829">
        <ele>800.59997558594</ele>
        <time>2019-03-06T12:59:44.000Z</time>
      </trkpt>
      <trkpt lat="45.45666" lon="4.6783">
        <ele>800.20001220703</ele>
        <time>2019-03-06T12:59:45.000Z</time>
      </trkpt>
      <trkpt lat="45.45667" lon="4.67831">
        <ele>800.20001220703</ele>
        <time>2019-03-06T12:59:46.000Z</time>
      </trkpt>
      <trkpt lat="45.45668" lon="4.67832">
        <ele>800.20001220703</ele>
        <time>2019-03-06T12:59:47.000Z</time>
      </trkpt>
      <trkpt lat="45.45669" lon="4.67833">
        <ele>800</ele>
        <time>2019-03-06T12:59:48.000Z</time>
      </trkpt>
      <trkpt lat="45.4567" lon="4.67834">
        <ele>800</ele>
        <time>2019-03-06T12:59:49.000Z</time>
      </trkpt>
      <trkpt lat="45.45671" lon="4.67835">
        <ele>800</ele>
        <time>2019-03-06T12:59:50.000Z</time>
      </trkpt>
      <trkpt lat="45.45672" lon="4.67836">
        <ele>800</ele>
        <time>2019-03-06T12:59:51.000Z</time>
      </trkpt>
      <trkpt lat="45.45678" lon="4.67849">
        <ele>797.79998779297</ele>
        <time>2019-03-06T12:59:59.000Z</time>
      </trkpt>
      <trkpt lat="45.45679" lon="4.6785">
        <ele>797.59997558594</ele>
        <time>2019-03-06T13:00:00.000Z</time>
      </trkpt>
      <trkpt lat="45.45681" lon="4.67858">
        <ele>796</ele>
        <time>2019-03-06T13:00:05.000Z</time>
      </trkpt>
      <trkpt lat="45.45682" lon="4.67862">
        <ele>795.20001220703</ele>
        <time>2019-03-06T13:00:07.000Z</time>
      </trkpt>
      <trkpt lat="45.45682" lon="4.67863">
        <ele>794.79998779297</ele>
        <time>2019-03-06T13:00:08.000Z</time>
      </trkpt>
      <trkpt lat="45.45683" lon="4.67865">
        <ele>794.59997558594</ele>
        <time>2019-03-06T13:00:09.000Z</time>
      </trkpt>
      <trkpt lat="45.45683" lon="4.67867">
        <ele>794</ele>
        <time>2019-03-06T13:00:10.000Z</time>
      </trkpt>
      <trkpt lat="45.45683" lon="4.67868">
        <ele>793.59997558594</ele>
        <time>2019-03-06T13:00:11.000Z</time>
      </trkpt>
      <trkpt lat="45.45684" lon="4.6787">
        <ele>793.40002441406</ele>
        <time>2019-03-06T13:00:12.000Z</time>
      </trkpt>
      <trkpt lat="45.45689" lon="4.67877">
        <ele>792.59997558594</ele>
        <time>2019-03-06T13:00:18.000Z</time>
      </trkpt>
      <trkpt lat="45.4569" lon="4.67878">
        <ele>792.40002441406</ele>
        <time>2019-03-06T13:00:19.000Z</time>
      </trkpt>
      <trkpt lat="45.45697" lon="4.67888">
        <ele>791.59997558594</ele>
        <time>2019-03-06T13:00:27.000Z</time>
      </trkpt>
      <trkpt lat="45.45707" lon="4.679">
        <ele>790.40002441406</ele>
        <time>2019-03-06T13:00:38.000Z</time>
      </trkpt>
      <trkpt lat="45.45713" lon="4.67907">
        <ele>790</ele>
        <time>2019-03-06T13:00:45.000Z</time>
      </trkpt>
      <trkpt lat="45.45718" lon="4.67908">
        <ele>790.20001220703</ele>
        <time>2019-03-06T13:00:49.000Z</time>
      </trkpt>
      <trkpt lat="45.45723" lon="4.67912">
        <ele>789.40002441406</ele>
        <time>2019-03-06T13:00:54.000Z</time>
      </trkpt>
      <trkpt lat="45.45735" lon="4.67919">
        <ele>787.40002441406</ele>
        <time>2019-03-06T13:01:03.000Z</time>
      </trkpt>
      <trkpt lat="45.45742" lon="4.67922">
        <ele>787</ele>
        <time>2019-03-06T13:01:08.000Z</time>
      </trkpt>
      <trkpt lat="45.45751" lon="4.67923">
        <ele>786.59997558594</ele>
        <time>2019-03-06T13:01:15.000Z</time>
      </trkpt>
      <trkpt lat="45.45753" lon="4.67923">
        <ele>786.59997558594</ele>
        <time>2019-03-06T13:01:16.000Z</time>
      </trkpt>
      <trkpt lat="45.45755" lon="4.67923">
        <ele>786.59997558594</ele>
        <time>2019-03-06T13:01:18.000Z</time>
      </trkpt>
      <trkpt lat="45.45756" lon="4.67923">
        <ele>786.59997558594</ele>
        <time>2019-03-06T13:01:19.000Z</time>
      </trkpt>
      <trkpt lat="45.45764" lon="4.67923">
        <ele>786.59997558594</ele>
        <time>2019-03-06T13:01:26.000Z</time>
      </trkpt>
      <trkpt lat="45.45775" lon="4.67926">
        <ele>785.79998779297</ele>
        <time>2019-03-06T13:01:36.000Z</time>
      </trkpt>
      <trkpt lat="45.45786" lon="4.67924">
        <ele>787.20001220703</ele>
        <time>2019-03-06T13:01:45.000Z</time>
      </trkpt>
      <trkpt lat="45.4579" lon="4.67921">
        <ele>788.20001220703</ele>
        <time>2019-03-06T13:01:48.000Z</time>
      </trkpt>
      <trkpt lat="45.45792" lon="4.67919">
        <ele>789</ele>
        <time>2019-03-06T13:01:49.000Z</time>
      </trkpt>
      <trkpt lat="45.45793" lon="4.67918">
        <ele>789.20001220703</ele>
        <time>2019-03-06T13:01:50.000Z</time>
      </trkpt>
      <trkpt lat="45.45801" lon="4.6792">
        <ele>788.79998779297</ele>
        <time>2019-03-06T13:01:57.000Z</time>
      </trkpt>
      <trkpt lat="45.45807" lon="4.67918">
        <ele>788.59997558594</ele>
        <time>2019-03-06T13:02:03.000Z</time>
      </trkpt>
      <trkpt lat="45.4581" lon="4.67917">
        <ele>788.40002441406</ele>
        <time>2019-03-06T13:02:05.000Z</time>
      </trkpt>
      <trkpt lat="45.45811" lon="4.67916">
        <ele>788.40002441406</ele>
        <time>2019-03-06T13:02:06.000Z</time>
      </trkpt>
      <trkpt lat="45.45812" lon="4.67916">
        <ele>788.40002441406</ele>
        <time>2019-03-06T13:02:07.000Z</time>
      </trkpt>
      <trkpt lat="45.4582" lon="4.67913">
        <ele>788.20001220703</ele>
        <time>2019-03-06T13:02:15.000Z</time>
      </trkpt>
      <trkpt lat="45.45824" lon="4.67911">
        <ele>788.40002441406</ele>
        <time>2019-03-06T13:02:17.000Z</time>
      </trkpt>
      <trkpt lat="45.45825" lon="4.6791">
        <ele>788.40002441406</ele>
        <time>2019-03-06T13:02:18.000Z</time>
      </trkpt>
      <trkpt lat="45.45826" lon="4.6791">
        <ele>788.40002441406</ele>
        <time>2019-03-06T13:02:19.000Z</time>
      </trkpt>
      <trkpt lat="45.4584" lon="4.67903">
        <ele>788.59997558594</ele>
        <time>2019-03-06T13:02:30.000Z</time>
      </trkpt>
      <trkpt lat="45.45844" lon="4.67901">
        <ele>788.59997558594</ele>
        <time>2019-03-06T13:02:33.000Z</time>
      </trkpt>
      <trkpt lat="45.45845" lon="4.679">
        <ele>788.59997558594</ele>
        <time>2019-03-06T13:02:34.000Z</time>
      </trkpt>
      <trkpt lat="45.45847" lon="4.679">
        <ele>788.40002441406</ele>
        <time>2019-03-06T13:02:35.000Z</time>
      </trkpt>
      <trkpt lat="45.45854" lon="4.67898">
        <ele>788</ele>
        <time>2019-03-06T13:02:41.000Z</time>
      </trkpt>
      <trkpt lat="45.45863" lon="4.67895">
        <ele>787.59997558594</ele>
        <time>2019-03-06T13:02:48.000Z</time>
      </trkpt>
      <trkpt lat="45.45877" lon="4.67889">
        <ele>787.40002441406</ele>
        <time>2019-03-06T13:02:58.000Z</time>
      </trkpt>
      <trkpt lat="45.45882" lon="4.67887">
        <ele>787.20001220703</ele>
        <time>2019-03-06T13:03:02.000Z</time>
      </trkpt>
      <trkpt lat="45.45892" lon="4.67883">
        <ele>787.40002441406</ele>
        <time>2019-03-06T13:03:11.000Z</time>
      </trkpt>
      <trkpt lat="45.45899" lon="4.67884">
        <ele>786.40002441406</ele>
        <time>2019-03-06T13:03:17.000Z</time>
      </trkpt>
      <trkpt lat="45.45908" lon="4.67883">
        <ele>784.40002441406</ele>
        <time>2019-03-06T13:03:25.000Z</time>
      </trkpt>
      <trkpt lat="45.45918" lon="4.67882">
        <ele>782.40002441406</ele>
        <time>2019-03-06T13:03:33.000Z</time>
      </trkpt>
      <trkpt lat="45.45927" lon="4.67879">
        <ele>781</ele>
        <time>2019-03-06T13:03:42.000Z</time>
      </trkpt>
      <trkpt lat="45.45928" lon="4.67878">
        <ele>780.79998779297</ele>
        <time>2019-03-06T13:03:43.000Z</time>
      </trkpt>
      <trkpt lat="45.45933" lon="4.67879">
        <ele>779.59997558594</ele>
        <time>2019-03-06T13:03:49.000Z</time>
      </trkpt>
      <trkpt lat="45.45943" lon="4.67874">
        <ele>778.20001220703</ele>
        <time>2019-03-06T13:03:57.000Z</time>
      </trkpt>
      <trkpt lat="45.4595" lon="4.6787">
        <ele>777.40002441406</ele>
        <time>2019-03-06T13:04:03.000Z</time>
      </trkpt>
      <trkpt lat="45.45952" lon="4.67868">
        <ele>777.20001220703</ele>
        <time>2019-03-06T13:04:05.000Z</time>
      </trkpt>
      <trkpt lat="45.4596" lon="4.67863">
        <ele>775.79998779297</ele>
        <time>2019-03-06T13:04:12.000Z</time>
      </trkpt>
      <trkpt lat="45.45972" lon="4.67858">
        <ele>772.79998779297</ele>
        <time>2019-03-06T13:04:21.000Z</time>
      </trkpt>
      <trkpt lat="45.45979" lon="4.67852">
        <ele>771</ele>
        <time>2019-03-06T13:04:28.000Z</time>
      </trkpt>
      <trkpt lat="45.4598" lon="4.67851">
        <ele>770.79998779297</ele>
        <time>2019-03-06T13:04:29.000Z</time>
      </trkpt>
      <trkpt lat="45.45983" lon="4.67849">
        <ele>770</ele>
        <time>2019-03-06T13:04:32.000Z</time>
      </trkpt>
      <trkpt lat="45.45985" lon="4.67846">
        <ele>769.59997558594</ele>
        <time>2019-03-06T13:04:35.000Z</time>
      </trkpt>
      <trkpt lat="45.45987" lon="4.67844">
        <ele>769.20001220703</ele>
        <time>2019-03-06T13:04:37.000Z</time>
      </trkpt>
      <trkpt lat="45.45988" lon="4.67843">
        <ele>769</ele>
        <time>2019-03-06T13:04:38.000Z</time>
      </trkpt>
      <trkpt lat="45.4599" lon="4.67839">
        <ele>768.59997558594</ele>
        <time>2019-03-06T13:04:42.000Z</time>
      </trkpt>
      <trkpt lat="45.45995" lon="4.67826">
        <ele>767.59997558594</ele>
        <time>2019-03-06T13:04:52.000Z</time>
      </trkpt>
      <trkpt lat="45.45997" lon="4.67823">
        <ele>767</ele>
        <time>2019-03-06T13:04:54.000Z</time>
      </trkpt>
      <trkpt lat="45.45998" lon="4.67821">
        <ele>767</ele>
        <time>2019-03-06T13:04:55.000Z</time>
      </trkpt>
      <trkpt lat="45.45999" lon="4.67819">
        <ele>766.79998779297</ele>
        <time>2019-03-06T13:04:56.000Z</time>
      </trkpt>
      <trkpt lat="45.45999" lon="4.67817">
        <ele>766.79998779297</ele>
        <time>2019-03-06T13:04:57.000Z</time>
      </trkpt>
      <trkpt lat="45.46" lon="4.67815">
        <ele>766.59997558594</ele>
        <time>2019-03-06T13:04:58.000Z</time>
      </trkpt>
      <trkpt lat="45.46003" lon="4.67801">
        <ele>766.59997558594</ele>
        <time>2019-03-06T13:05:06.000Z</time>
      </trkpt>
      <trkpt lat="45.46004" lon="4.67794">
        <ele>766.59997558594</ele>
        <time>2019-03-06T13:05:10.000Z</time>
      </trkpt>
      <trkpt lat="45.46007" lon="4.67784">
        <ele>766.20001220703</ele>
        <time>2019-03-06T13:05:17.000Z</time>
      </trkpt>
      <trkpt lat="45.46009" lon="4.67776">
        <ele>766.20001220703</ele>
        <time>2019-03-06T13:05:23.000Z</time>
      </trkpt>
      <trkpt lat="45.46009" lon="4.67772">
        <ele>766</ele>
        <time>2019-03-06T13:05:25.000Z</time>
      </trkpt>
      <trkpt lat="45.46012" lon="4.67757">
        <ele>766</ele>
        <time>2019-03-06T13:05:34.000Z</time>
      </trkpt>
      <trkpt lat="45.46011" lon="4.67747">
        <ele>766.40002441406</ele>
        <time>2019-03-06T13:05:41.000Z</time>
      </trkpt>
      <trkpt lat="45.46012" lon="4.67745">
        <ele>766.40002441406</ele>
        <time>2019-03-06T13:05:42.000Z</time>
      </trkpt>
      <trkpt lat="45.4601" lon="4.67734">
        <ele>767.20001220703</ele>
        <time>2019-03-06T13:05:50.000Z</time>
      </trkpt>
      <trkpt lat="45.46007" lon="4.67716">
        <ele>768.79998779297</ele>
        <time>2019-03-06T13:06:03.000Z</time>
      </trkpt>
      <trkpt lat="45.46007" lon="4.67714">
        <ele>769</ele>
        <time>2019-03-06T13:06:04.000Z</time>
      </trkpt>
      <trkpt lat="45.46004" lon="4.677">
        <ele>770</ele>
        <time>2019-03-06T13:06:13.000Z</time>
      </trkpt>
      <trkpt lat="45.46002" lon="4.67686">
        <ele>771.40002441406</ele>
        <time>2019-03-06T13:06:22.000Z</time>
      </trkpt>
      <trkpt lat="45.46" lon="4.67674">
        <ele>772.40002441406</ele>
        <time>2019-03-06T13:06:31.000Z</time>
      </trkpt>
      <trkpt lat="45.45997" lon="4.67664">
        <ele>773.59997558594</ele>
        <time>2019-03-06T13:06:41.000Z</time>
      </trkpt>
      <trkpt lat="45.45995" lon="4.67653">
        <ele>774.79998779297</ele>
        <time>2019-03-06T13:06:50.000Z</time>
      </trkpt>
      <trkpt lat="45.45991" lon="4.67632">
        <ele>776.20001220703</ele>
        <time>2019-03-06T13:07:02.000Z</time>
      </trkpt>
      <trkpt lat="45.45987" lon="4.67617">
        <ele>777.20001220703</ele>
        <time>2019-03-06T13:07:13.000Z</time>
      </trkpt>
      <trkpt lat="45.45984" lon="4.67607">
        <ele>778.20001220703</ele>
        <time>2019-03-06T13:07:20.000Z</time>
      </trkpt>
      <trkpt lat="45.45984" lon="4.67593">
        <ele>778.40002441406</ele>
        <time>2019-03-06T13:07:30.000Z</time>
      </trkpt>
      <trkpt lat="45.45981" lon="4.67587">
        <ele>779.20001220703</ele>
        <time>2019-03-06T13:07:36.000Z</time>
      </trkpt>
      <trkpt lat="45.45976" lon="4.67574">
        <ele>780.79998779297</ele>
        <time>2019-03-06T13:07:47.000Z</time>
      </trkpt>
      <trkpt lat="45.45972" lon="4.67565">
        <ele>782</ele>
        <time>2019-03-06T13:07:56.000Z</time>
      </trkpt>
      <trkpt lat="45.45965" lon="4.67548">
        <ele>784.20001220703</ele>
        <time>2019-03-06T13:08:08.000Z</time>
      </trkpt>
      <trkpt lat="45.45963" lon="4.67532">
        <ele>785.20001220703</ele>
        <time>2019-03-06T13:08:20.000Z</time>
      </trkpt>
      <trkpt lat="45.45961" lon="4.67522">
        <ele>786</ele>
        <time>2019-03-06T13:08:28.000Z</time>
      </trkpt>
      <trkpt lat="45.45958" lon="4.6751">
        <ele>787.40002441406</ele>
        <time>2019-03-06T13:08:35.000Z</time>
      </trkpt>
      <trkpt lat="45.45955" lon="4.67499">
        <ele>788.79998779297</ele>
        <time>2019-03-06T13:08:43.000Z</time>
      </trkpt>
      <trkpt lat="45.45952" lon="4.67491">
        <ele>789.79998779297</ele>
        <time>2019-03-06T13:08:49.000Z</time>
      </trkpt>
      <trkpt lat="45.45948" lon="4.67476">
        <ele>791.59997558594</ele>
        <time>2019-03-06T13:09:01.000Z</time>
      </trkpt>
      <trkpt lat="45.45948" lon="4.6746">
        <ele>792.40002441406</ele>
        <time>2019-03-06T13:09:12.000Z</time>
      </trkpt>
      <trkpt lat="45.45948" lon="4.67437">
        <ele>793.79998779297</ele>
        <time>2019-03-06T13:09:26.000Z</time>
      </trkpt>
      <trkpt lat="45.45945" lon="4.67425">
        <ele>795</ele>
        <time>2019-03-06T13:09:37.000Z</time>
      </trkpt>
      <trkpt lat="45.45938" lon="4.67402">
        <ele>797.59997558594</ele>
        <time>2019-03-06T13:09:51.000Z</time>
      </trkpt>
      <trkpt lat="45.45936" lon="4.67384">
        <ele>798.59997558594</ele>
        <time>2019-03-06T13:10:01.000Z</time>
      </trkpt>
      <trkpt lat="45.45934" lon="4.67367">
        <ele>799.40002441406</ele>
        <time>2019-03-06T13:10:11.000Z</time>
      </trkpt>
      <trkpt lat="45.45934" lon="4.67354">
        <ele>799.40002441406</ele>
        <time>2019-03-06T13:10:18.000Z</time>
      </trkpt>
      <trkpt lat="45.45935" lon="4.6734">
        <ele>798.59997558594</ele>
        <time>2019-03-06T13:10:28.000Z</time>
      </trkpt>
      <trkpt lat="45.45939" lon="4.67325">
        <ele>798.20001220703</ele>
        <time>2019-03-06T13:10:37.000Z</time>
      </trkpt>
      <trkpt lat="45.45945" lon="4.67304">
        <ele>797.20001220703</ele>
        <time>2019-03-06T13:10:49.000Z</time>
      </trkpt>
      <trkpt lat="45.45942" lon="4.6729">
        <ele>798.59997558594</ele>
        <time>2019-03-06T13:11:00.000Z</time>
      </trkpt>
      <trkpt lat="45.45944" lon="4.67272">
        <ele>798.20001220703</ele>
        <time>2019-03-06T13:11:11.000Z</time>
      </trkpt>
      <trkpt lat="45.45945" lon="4.67259">
        <ele>797.79998779297</ele>
        <time>2019-03-06T13:11:20.000Z</time>
      </trkpt>
      <trkpt lat="45.45946" lon="4.67243">
        <ele>797.59997558594</ele>
        <time>2019-03-06T13:11:30.000Z</time>
      </trkpt>
      <trkpt lat="45.45947" lon="4.67224">
        <ele>797.20001220703</ele>
        <time>2019-03-06T13:11:40.000Z</time>
      </trkpt>
      <trkpt lat="45.45946" lon="4.67209">
        <ele>797.40002441406</ele>
        <time>2019-03-06T13:11:49.000Z</time>
      </trkpt>
      <trkpt lat="45.45944" lon="4.67192">
        <ele>797.40002441406</ele>
        <time>2019-03-06T13:11:59.000Z</time>
      </trkpt>
      <trkpt lat="45.45946" lon="4.67173">
        <ele>796</ele>
        <time>2019-03-06T13:12:09.000Z</time>
      </trkpt>
      <trkpt lat="45.45948" lon="4.6716">
        <ele>795.20001220703</ele>
        <time>2019-03-06T13:12:18.000Z</time>
      </trkpt>
      <trkpt lat="45.45951" lon="4.67145">
        <ele>794.20001220703</ele>
        <time>2019-03-06T13:12:28.000Z</time>
      </trkpt>
      <trkpt lat="45.4595" lon="4.67132">
        <ele>794.20001220703</ele>
        <time>2019-03-06T13:12:38.000Z</time>
      </trkpt>
      <trkpt lat="45.45949" lon="4.67115">
        <ele>794</ele>
        <time>2019-03-06T13:12:48.000Z</time>
      </trkpt>
      <trkpt lat="45.45948" lon="4.67099">
        <ele>793.59997558594</ele>
        <time>2019-03-06T13:12:58.000Z</time>
      </trkpt>
      <trkpt lat="45.45947" lon="4.67097">
        <ele>793.59997558594</ele>
        <time>2019-03-06T13:13:00.000Z</time>
      </trkpt>
      <trkpt lat="45.45943" lon="4.67082">
        <ele>793.79998779297</ele>
        <time>2019-03-06T13:13:12.000Z</time>
      </trkpt>
      <trkpt lat="45.45942" lon="4.67075">
        <ele>793.79998779297</ele>
        <time>2019-03-06T13:13:22.000Z</time>
      </trkpt>
      <trkpt lat="45.45939" lon="4.67074">
        <ele>794.40002441406</ele>
        <time>2019-03-06T13:13:40.000Z</time>
      </trkpt>
      <trkpt lat="45.45939" lon="4.6707">
        <ele>794.20001220703</ele>
        <time>2019-03-06T13:13:55.000Z</time>
      </trkpt>
      <trkpt lat="45.4594" lon="4.67067">
        <ele>793.79998779297</ele>
        <time>2019-03-06T13:14:06.000Z</time>
      </trkpt>
      <trkpt lat="45.45943" lon="4.67064">
        <ele>792.79998779297</ele>
        <time>2019-03-06T13:14:16.000Z</time>
      </trkpt>
      <trkpt lat="45.45945" lon="4.67065">
        <ele>792.20001220703</ele>
        <time>2019-03-06T13:14:30.000Z</time>
      </trkpt>
      <trkpt lat="45.45948" lon="4.67064">
        <ele>791.59997558594</ele>
        <time>2019-03-06T13:14:44.000Z</time>
      </trkpt>
      <trkpt lat="45.45942" lon="4.6706">
        <ele>792.79998779297</ele>
        <time>2019-03-06T13:15:03.000Z</time>
      </trkpt>
      <trkpt lat="45.45941" lon="4.67062">
        <ele>793.20001220703</ele>
        <time>2019-03-06T13:15:19.000Z</time>
      </trkpt>
      <trkpt lat="45.45943" lon="4.67063">
        <ele>792.59997558594</ele>
        <time>2019-03-06T13:15:34.000Z</time>
      </trkpt>
      <trkpt lat="45.45942" lon="4.67061">
        <ele>792.79998779297</ele>
        <time>2019-03-06T13:15:46.000Z</time>
      </trkpt>
      <trkpt lat="45.45943" lon="4.67059">
        <ele>792.40002441406</ele>
        <time>2019-03-06T13:15:58.000Z</time>
      </trkpt>
      <trkpt lat="45.45943" lon="4.67061">
        <ele>792.40002441406</ele>
        <time>2019-03-06T13:16:12.000Z</time>
      </trkpt>
      <trkpt lat="45.45944" lon="4.67061">
        <ele>792.20001220703</ele>
        <time>2019-03-06T13:16:16.000Z</time>
      </trkpt>
      <trkpt lat="45.45945" lon="4.67057">
        <ele>791.79998779297</ele>
        <time>2019-03-06T13:16:25.000Z</time>
      </trkpt>
      <trkpt lat="45.45944" lon="4.67039">
        <ele>791</ele>
        <time>2019-03-06T13:16:42.000Z</time>
      </trkpt>
      <trkpt lat="45.45946" lon="4.67031">
        <ele>789.79998779297</ele>
        <time>2019-03-06T13:16:52.000Z</time>
      </trkpt>
      <trkpt lat="45.45946" lon="4.67019">
        <ele>788.59997558594</ele>
        <time>2019-03-06T13:17:04.000Z</time>
      </trkpt>
      <trkpt lat="45.45946" lon="4.67006">
        <ele>787.20001220703</ele>
        <time>2019-03-06T13:17:16.000Z</time>
      </trkpt>
      <trkpt lat="45.45947" lon="4.66989">
        <ele>785.40002441406</ele>
        <time>2019-03-06T13:17:28.000Z</time>
      </trkpt>
      <trkpt lat="45.45948" lon="4.66973">
        <ele>783.20001220703</ele>
        <time>2019-03-06T13:17:38.000Z</time>
      </trkpt>
      <trkpt lat="45.4595" lon="4.66963">
        <ele>781.40002441406</ele>
        <time>2019-03-06T13:17:46.000Z</time>
      </trkpt>
      <trkpt lat="45.45951" lon="4.66952">
        <ele>780</ele>
        <time>2019-03-06T13:17:55.000Z</time>
      </trkpt>
      <trkpt lat="45.45951" lon="4.66939">
        <ele>778</ele>
        <time>2019-03-06T13:18:06.000Z</time>
      </trkpt>
      <trkpt lat="45.45954" lon="4.66922">
        <ele>775</ele>
        <time>2019-03-06T13:18:17.000Z</time>
      </trkpt>
      <trkpt lat="45.45951" lon="4.66911">
        <ele>774.20001220703</ele>
        <time>2019-03-06T13:18:26.000Z</time>
      </trkpt>
      <trkpt lat="45.45945" lon="4.66899">
        <ele>774</ele>
        <time>2019-03-06T13:18:36.000Z</time>
      </trkpt>
      <trkpt lat="45.4594" lon="4.66883">
        <ele>773.40002441406</ele>
        <time>2019-03-06T13:18:48.000Z</time>
      </trkpt>
      <trkpt lat="45.45937" lon="4.66869">
        <ele>772.40002441406</ele>
        <time>2019-03-06T13:18:57.000Z</time>
      </trkpt>
      <trkpt lat="45.45933" lon="4.6686">
        <ele>771.79998779297</ele>
        <time>2019-03-06T13:19:07.000Z</time>
      </trkpt>
      <trkpt lat="45.45927" lon="4.66847">
        <ele>771.20001220703</ele>
        <time>2019-03-06T13:19:17.000Z</time>
      </trkpt>
      <trkpt lat="45.45919" lon="4.66834">
        <ele>771.40002441406</ele>
        <time>2019-03-06T13:19:29.000Z</time>
      </trkpt>
      <trkpt lat="45.45915" lon="4.66822">
        <ele>770.40002441406</ele>
        <time>2019-03-06T13:19:39.000Z</time>
      </trkpt>
      <trkpt lat="45.45914" lon="4.66813">
        <ele>769.40002441406</ele>
        <time>2019-03-06T13:19:50.000Z</time>
      </trkpt>
      <trkpt lat="45.45912" lon="4.66798">
        <ele>767.59997558594</ele>
        <time>2019-03-06T13:20:02.000Z</time>
      </trkpt>
      <trkpt lat="45.45916" lon="4.66785">
        <ele>765</ele>
        <time>2019-03-06T13:20:11.000Z</time>
      </trkpt>
      <trkpt lat="45.45916" lon="4.66771">
        <ele>762.79998779297</ele>
        <time>2019-03-06T13:20:22.000Z</time>
      </trkpt>
      <trkpt lat="45.45918" lon="4.66764">
        <ele>761.20001220703</ele>
        <time>2019-03-06T13:20:34.000Z</time>
      </trkpt>
      <trkpt lat="45.45928" lon="4.66762">
        <ele>758.79998779297</ele>
        <time>2019-03-06T13:20:44.000Z</time>
      </trkpt>
      <trkpt lat="45.45933" lon="4.66761">
        <ele>757.40002441406</ele>
        <time>2019-03-06T13:20:52.000Z</time>
      </trkpt>
      <trkpt lat="45.45936" lon="4.66761">
        <ele>756.40002441406</ele>
        <time>2019-03-06T13:20:54.000Z</time>
      </trkpt>
      <trkpt lat="45.45945" lon="4.66761">
        <ele>754.59997558594</ele>
        <time>2019-03-06T13:21:05.000Z</time>
      </trkpt>
      <trkpt lat="45.45956" lon="4.66763">
        <ele>752</ele>
        <time>2019-03-06T13:21:14.000Z</time>
      </trkpt>
      <trkpt lat="45.45962" lon="4.66768">
        <ele>751.59997558594</ele>
        <time>2019-03-06T13:21:24.000Z</time>
      </trkpt>
      <trkpt lat="45.45967" lon="4.66769">
        <ele>750.40002441406</ele>
        <time>2019-03-06T13:21:35.000Z</time>
      </trkpt>
      <trkpt lat="45.45978" lon="4.66772">
        <ele>748.40002441406</ele>
        <time>2019-03-06T13:21:48.000Z</time>
      </trkpt>
      <trkpt lat="45.45987" lon="4.66773">
        <ele>746.40002441406</ele>
        <time>2019-03-06T13:21:59.000Z</time>
      </trkpt>
      <trkpt lat="45.45997" lon="4.66775">
        <ele>744.59997558594</ele>
        <time>2019-03-06T13:22:12.000Z</time>
      </trkpt>
      <trkpt lat="45.46005" lon="4.66779">
        <ele>743.20001220703</ele>
        <time>2019-03-06T13:22:23.000Z</time>
      </trkpt>
      <trkpt lat="45.46015" lon="4.66779">
        <ele>740.79998779297</ele>
        <time>2019-03-06T13:22:34.000Z</time>
      </trkpt>
      <trkpt lat="45.46024" lon="4.66781">
        <ele>739</ele>
        <time>2019-03-06T13:22:44.000Z</time>
      </trkpt>
      <trkpt lat="45.46033" lon="4.66788">
        <ele>738</ele>
        <time>2019-03-06T13:22:55.000Z</time>
      </trkpt>
      <trkpt lat="45.46044" lon="4.66794">
        <ele>736</ele>
        <time>2019-03-06T13:23:06.000Z</time>
      </trkpt>
      <trkpt lat="45.46056" lon="4.66796">
        <ele>733.20001220703</ele>
        <time>2019-03-06T13:23:16.000Z</time>
      </trkpt>
      <trkpt lat="45.46062" lon="4.668">
        <ele>731.40002441406</ele>
        <time>2019-03-06T13:23:26.000Z</time>
      </trkpt>
      <trkpt lat="45.4607" lon="4.66801">
        <ele>729.40002441406</ele>
        <time>2019-03-06T13:23:37.000Z</time>
      </trkpt>
      <trkpt lat="45.46074" lon="4.66797">
        <ele>728</ele>
        <time>2019-03-06T13:23:48.000Z</time>
      </trkpt>
      <trkpt lat="45.46077" lon="4.66789">
        <ele>726.59997558594</ele>
        <time>2019-03-06T13:23:59.000Z</time>
      </trkpt>
      <trkpt lat="45.46076" lon="4.66772">
        <ele>724.79998779297</ele>
        <time>2019-03-06T13:24:13.000Z</time>
      </trkpt>
      <trkpt lat="45.46075" lon="4.66759">
        <ele>723.59997558594</ele>
        <time>2019-03-06T13:24:25.000Z</time>
      </trkpt>
      <trkpt lat="45.46078" lon="4.66742">
        <ele>721</ele>
        <time>2019-03-06T13:24:37.000Z</time>
      </trkpt>
      <trkpt lat="45.46081" lon="4.66731">
        <ele>719</ele>
        <time>2019-03-06T13:24:48.000Z</time>
      </trkpt>
      <trkpt lat="45.46085" lon="4.6672">
        <ele>717.20001220703</ele>
        <time>2019-03-06T13:24:59.000Z</time>
      </trkpt>
      <trkpt lat="45.46089" lon="4.66715">
        <ele>715.79998779297</ele>
        <time>2019-03-06T13:25:09.000Z</time>
      </trkpt>
      <trkpt lat="45.46093" lon="4.66712">
        <ele>714.59997558594</ele>
        <time>2019-03-06T13:25:17.000Z</time>
      </trkpt>
      <trkpt lat="45.46096" lon="4.66706">
        <ele>713.59997558594</ele>
        <time>2019-03-06T13:25:26.000Z</time>
      </trkpt>
      <trkpt lat="45.46097" lon="4.66702">
        <ele>713</ele>
        <time>2019-03-06T13:25:36.000Z</time>
      </trkpt>
      <trkpt lat="45.46099" lon="4.66702">
        <ele>712.59997558594</ele>
        <time>2019-03-06T13:25:53.000Z</time>
      </trkpt>
      <trkpt lat="45.46101" lon="4.66701">
        <ele>712</ele>
        <time>2019-03-06T13:26:09.000Z</time>
      </trkpt>
      <trkpt lat="45.46107" lon="4.667">
        <ele>710.59997558594</ele>
        <time>2019-03-06T13:26:21.000Z</time>
      </trkpt>
      <trkpt lat="45.46104" lon="4.66702">
        <ele>711.59997558594</ele>
        <time>2019-03-06T13:26:42.000Z</time>
      </trkpt>
      <trkpt lat="45.46105" lon="4.66701">
        <ele>711.20001220703</ele>
        <time>2019-03-06T13:26:53.000Z</time>
      </trkpt>
      <trkpt lat="45.46109" lon="4.66698">
        <ele>710</ele>
        <time>2019-03-06T13:27:07.000Z</time>
      </trkpt>
      <trkpt lat="45.4611" lon="4.66698">
        <ele>709.79998779297</ele>
        <time>2019-03-06T13:27:15.000Z</time>
      </trkpt>
      <trkpt lat="45.46113" lon="4.66694">
        <ele>708.59997558594</ele>
        <time>2019-03-06T13:27:34.000Z</time>
      </trkpt>
      <trkpt lat="45.46114" lon="4.66698">
        <ele>708.79998779297</ele>
        <time>2019-03-06T13:27:47.000Z</time>
      </trkpt>
      <trkpt lat="45.4611" lon="4.66701">
        <ele>710</ele>
        <time>2019-03-06T13:28:03.000Z</time>
      </trkpt>
      <trkpt lat="45.46109" lon="4.667">
        <ele>710.20001220703</ele>
        <time>2019-03-06T13:28:13.000Z</time>
      </trkpt>
      <trkpt lat="45.46108" lon="4.66703">
        <ele>710.59997558594</ele>
        <time>2019-03-06T13:28:28.000Z</time>
      </trkpt>
      <trkpt lat="45.4611" lon="4.66704">
        <ele>710.20001220703</ele>
        <time>2019-03-06T13:28:41.000Z</time>
      </trkpt>
      <trkpt lat="45.4612" lon="4.66703">
        <ele>708</ele>
        <time>2019-03-06T13:28:57.000Z</time>
      </trkpt>
      <trkpt lat="45.46129" lon="4.66715">
        <ele>706.59997558594</ele>
        <time>2019-03-06T13:29:09.000Z</time>
      </trkpt>
      <trkpt lat="45.4613" lon="4.66716">
        <ele>706.40002441406</ele>
        <time>2019-03-06T13:29:10.000Z</time>
      </trkpt>
      <trkpt lat="45.46137" lon="4.66722">
        <ele>705.20001220703</ele>
        <time>2019-03-06T13:29:18.000Z</time>
      </trkpt>
      <trkpt lat="45.46142" lon="4.6673">
        <ele>704</ele>
        <time>2019-03-06T13:29:27.000Z</time>
      </trkpt>
      <trkpt lat="45.46154" lon="4.66741">
        <ele>701.20001220703</ele>
        <time>2019-03-06T13:29:39.000Z</time>
      </trkpt>
      <trkpt lat="45.46163" lon="4.66752">
        <ele>699.20001220703</ele>
        <time>2019-03-06T13:29:49.000Z</time>
      </trkpt>
      <trkpt lat="45.4617" lon="4.66766">
        <ele>697.79998779297</ele>
        <time>2019-03-06T13:30:01.000Z</time>
      </trkpt>
      <trkpt lat="45.46177" lon="4.66782">
        <ele>697</ele>
        <time>2019-03-06T13:30:12.000Z</time>
      </trkpt>
      <trkpt lat="45.4618" lon="4.66793">
        <ele>696.20001220703</ele>
        <time>2019-03-06T13:30:21.000Z</time>
      </trkpt>
      <trkpt lat="45.46184" lon="4.66805">
        <ele>694.79998779297</ele>
        <time>2019-03-06T13:30:30.000Z</time>
      </trkpt>
      <trkpt lat="45.46187" lon="4.66817">
        <ele>693.59997558594</ele>
        <time>2019-03-06T13:30:38.000Z</time>
      </trkpt>
      <trkpt lat="45.46189" lon="4.66822">
        <ele>693.20001220703</ele>
        <time>2019-03-06T13:30:41.000Z</time>
      </trkpt>
      <trkpt lat="45.46193" lon="4.66835">
        <ele>691.59997558594</ele>
        <time>2019-03-06T13:30:50.000Z</time>
      </trkpt>
      <trkpt lat="45.46195" lon="4.66845">
        <ele>690.79998779297</ele>
        <time>2019-03-06T13:30:56.000Z</time>
      </trkpt>
      <trkpt lat="45.46197" lon="4.66857">
        <ele>690.59997558594</ele>
        <time>2019-03-06T13:31:04.000Z</time>
      </trkpt>
      <trkpt lat="45.46197" lon="4.66866">
        <ele>691.20001220703</ele>
        <time>2019-03-06T13:31:09.000Z</time>
      </trkpt>
      <trkpt lat="45.46198" lon="4.66867">
        <ele>691.20001220703</ele>
        <time>2019-03-06T13:31:10.000Z</time>
      </trkpt>
      <trkpt lat="45.46198" lon="4.66879">
        <ele>691.20001220703</ele>
        <time>2019-03-06T13:31:18.000Z</time>
      </trkpt>
      <trkpt lat="45.462" lon="4.66889">
        <ele>690.79998779297</ele>
        <time>2019-03-06T13:31:26.000Z</time>
      </trkpt>
      <trkpt lat="45.46201" lon="4.66898">
        <ele>690.20001220703</ele>
        <time>2019-03-06T13:31:32.000Z</time>
      </trkpt>
      <trkpt lat="45.46202" lon="4.66906">
        <ele>690</ele>
        <time>2019-03-06T13:31:36.000Z</time>
      </trkpt>
      <trkpt lat="45.46207" lon="4.66917">
        <ele>688.40002441406</ele>
        <time>2019-03-06T13:31:44.000Z</time>
      </trkpt>
      <trkpt lat="45.46209" lon="4.66929">
        <ele>687.40002441406</ele>
        <time>2019-03-06T13:31:52.000Z</time>
      </trkpt>
      <trkpt lat="45.46215" lon="4.66941">
        <ele>685.40002441406</ele>
        <time>2019-03-06T13:32:00.000Z</time>
      </trkpt>
      <trkpt lat="45.4622" lon="4.66957">
        <ele>683.59997558594</ele>
        <time>2019-03-06T13:32:10.000Z</time>
      </trkpt>
      <trkpt lat="45.46222" lon="4.66969">
        <ele>682.20001220703</ele>
        <time>2019-03-06T13:32:17.000Z</time>
      </trkpt>
      <trkpt lat="45.46223" lon="4.66984">
        <ele>681.40002441406</ele>
        <time>2019-03-06T13:32:26.000Z</time>
      </trkpt>
      <trkpt lat="45.46225" lon="4.66999">
        <ele>680.59997558594</ele>
        <time>2019-03-06T13:32:35.000Z</time>
      </trkpt>
      <trkpt lat="45.46224" lon="4.67013">
        <ele>680.40002441406</ele>
        <time>2019-03-06T13:32:44.000Z</time>
      </trkpt>
      <trkpt lat="45.46225" lon="4.67027">
        <ele>679.59997558594</ele>
        <time>2019-03-06T13:32:52.000Z</time>
      </trkpt>
      <trkpt lat="45.46226" lon="4.67042">
        <ele>679</ele>
        <time>2019-03-06T13:33:01.000Z</time>
      </trkpt>
      <trkpt lat="45.46228" lon="4.67056">
        <ele>678</ele>
        <time>2019-03-06T13:33:10.000Z</time>
      </trkpt>
      <trkpt lat="45.46227" lon="4.67069">
        <ele>677.59997558594</ele>
        <time>2019-03-06T13:33:19.000Z</time>
      </trkpt>
      <trkpt lat="45.46227" lon="4.67084">
        <ele>677</ele>
        <time>2019-03-06T13:33:28.000Z</time>
      </trkpt>
      <trkpt lat="45.46226" lon="4.67098">
        <ele>676.59997558594</ele>
        <time>2019-03-06T13:33:37.000Z</time>
      </trkpt>
      <trkpt lat="45.46225" lon="4.67114">
        <ele>676.20001220703</ele>
        <time>2019-03-06T13:33:46.000Z</time>
      </trkpt>
      <trkpt lat="45.46225" lon="4.67125">
        <ele>675.79998779297</ele>
        <time>2019-03-06T13:33:53.000Z</time>
      </trkpt>
      <trkpt lat="45.46226" lon="4.67138">
        <ele>675.59997558594</ele>
        <time>2019-03-06T13:34:01.000Z</time>
      </trkpt>
      <trkpt lat="45.46225" lon="4.67139">
        <ele>675.59997558594</ele>
        <time>2019-03-06T13:34:02.000Z</time>
      </trkpt>
      <trkpt lat="45.46226" lon="4.67157">
        <ele>675</ele>
        <time>2019-03-06T13:34:12.000Z</time>
      </trkpt>
      <trkpt lat="45.46228" lon="4.67174">
        <ele>674</ele>
        <time>2019-03-06T13:34:22.000Z</time>
      </trkpt>
      <trkpt lat="45.46228" lon="4.67188">
        <ele>673.59997558594</ele>
        <time>2019-03-06T13:34:31.000Z</time>
      </trkpt>
      <trkpt lat="45.46231" lon="4.67199">
        <ele>672.40002441406</ele>
        <time>2019-03-06T13:34:38.000Z</time>
      </trkpt>
      <trkpt lat="45.46231" lon="4.67214">
        <ele>672.40002441406</ele>
        <time>2019-03-06T13:34:48.000Z</time>
      </trkpt>
      <trkpt lat="45.46232" lon="4.67228">
        <ele>672.40002441406</ele>
        <time>2019-03-06T13:34:58.000Z</time>
      </trkpt>
      <trkpt lat="45.46234" lon="4.67248">
        <ele>672</ele>
        <time>2019-03-06T13:35:10.000Z</time>
      </trkpt>
      <trkpt lat="45.46239" lon="4.67266">
        <ele>670.79998779297</ele>
        <time>2019-03-06T13:35:22.000Z</time>
      </trkpt>
      <trkpt lat="45.46244" lon="4.67281">
        <ele>669.40002441406</ele>
        <time>2019-03-06T13:35:32.000Z</time>
      </trkpt>
      <trkpt lat="45.46246" lon="4.67286">
        <ele>668.59997558594</ele>
        <time>2019-03-06T13:35:36.000Z</time>
      </trkpt>
      <trkpt lat="45.46249" lon="4.67293">
        <ele>668.20001220703</ele>
        <time>2019-03-06T13:35:41.000Z</time>
      </trkpt>
      <trkpt lat="45.46249" lon="4.67294">
        <ele>668</ele>
        <time>2019-03-06T13:35:42.000Z</time>
      </trkpt>
      <trkpt lat="45.46252" lon="4.67309">
        <ele>667.79998779297</ele>
        <time>2019-03-06T13:35:52.000Z</time>
      </trkpt>
      <trkpt lat="45.46261" lon="4.67324">
        <ele>665.79998779297</ele>
        <time>2019-03-06T13:36:04.000Z</time>
      </trkpt>
      <trkpt lat="45.46268" lon="4.67338">
        <ele>664.20001220703</ele>
        <time>2019-03-06T13:36:15.000Z</time>
      </trkpt>
      <trkpt lat="45.46279" lon="4.67357">
        <ele>661.59997558594</ele>
        <time>2019-03-06T13:36:30.000Z</time>
      </trkpt>
      <trkpt lat="45.46291" lon="4.67382">
        <ele>659</ele>
        <time>2019-03-06T13:36:49.000Z</time>
      </trkpt>
      <trkpt lat="45.46295" lon="4.67398">
        <ele>658.79998779297</ele>
        <time>2019-03-06T13:37:01.000Z</time>
      </trkpt>
      <trkpt lat="45.463" lon="4.67414">
        <ele>658</ele>
        <time>2019-03-06T13:37:12.000Z</time>
      </trkpt>
      <trkpt lat="45.46305" lon="4.67436">
        <ele>657.79998779297</ele>
        <time>2019-03-06T13:37:26.000Z</time>
      </trkpt>
      <trkpt lat="45.46313" lon="4.67453">
        <ele>656.79998779297</ele>
        <time>2019-03-06T13:37:39.000Z</time>
      </trkpt>
      <trkpt lat="45.46323" lon="4.67471">
        <ele>655.20001220703</ele>
        <time>2019-03-06T13:37:53.000Z</time>
      </trkpt>
      <trkpt lat="45.46333" lon="4.67489">
        <ele>653.59997558594</ele>
        <time>2019-03-06T13:38:07.000Z</time>
      </trkpt>
      <trkpt lat="45.46337" lon="4.67494">
        <ele>653</ele>
        <time>2019-03-06T13:38:11.000Z</time>
      </trkpt>
      <trkpt lat="45.46345" lon="4.67509">
        <ele>651.79998779297</ele>
        <time>2019-03-06T13:38:22.000Z</time>
      </trkpt>
      <trkpt lat="45.46349" lon="4.67523">
        <ele>651.40002441406</ele>
        <time>2019-03-06T13:38:32.000Z</time>
      </trkpt>
      <trkpt lat="45.46356" lon="4.67538">
        <ele>650.59997558594</ele>
        <time>2019-03-06T13:38:43.000Z</time>
      </trkpt>
      <trkpt lat="45.46365" lon="4.67555">
        <ele>649.20001220703</ele>
        <time>2019-03-06T13:38:55.000Z</time>
      </trkpt>
      <trkpt lat="45.46379" lon="4.67573">
        <ele>646.59997558594</ele>
        <time>2019-03-06T13:39:11.000Z</time>
      </trkpt>
      <trkpt lat="45.46387" lon="4.67587">
        <ele>645.79998779297</ele>
        <time>2019-03-06T13:39:22.000Z</time>
      </trkpt>
      <trkpt lat="45.46392" lon="4.67606">
        <ele>646</ele>
        <time>2019-03-06T13:39:34.000Z</time>
      </trkpt>
      <trkpt lat="45.46401" lon="4.67628">
        <ele>646</ele>
        <time>2019-03-06T13:39:49.000Z</time>
      </trkpt>
      <trkpt lat="45.46409" lon="4.6765">
        <ele>646.40002441406</ele>
        <time>2019-03-06T13:40:04.000Z</time>
      </trkpt>
      <trkpt lat="45.46416" lon="4.67669">
        <ele>646.40002441406</ele>
        <time>2019-03-06T13:40:17.000Z</time>
      </trkpt>
      <trkpt lat="45.46424" lon="4.67688">
        <ele>646.40002441406</ele>
        <time>2019-03-06T13:40:30.000Z</time>
      </trkpt>
      <trkpt lat="45.46428" lon="4.67701">
        <ele>646.59997558594</ele>
        <time>2019-03-06T13:40:39.000Z</time>
      </trkpt>
      <trkpt lat="45.4643" lon="4.6772">
        <ele>648.20001220703</ele>
        <time>2019-03-06T13:40:51.000Z</time>
      </trkpt>
      <trkpt lat="45.46435" lon="4.67735">
        <ele>649.20001220703</ele>
        <time>2019-03-06T13:41:01.000Z</time>
      </trkpt>
      <trkpt lat="45.46436" lon="4.67736">
        <ele>649.20001220703</ele>
        <time>2019-03-06T13:41:02.000Z</time>
      </trkpt>
      <trkpt lat="45.46439" lon="4.67758">
        <ele>651.20001220703</ele>
        <time>2019-03-06T13:41:14.000Z</time>
      </trkpt>
      <trkpt lat="45.46448" lon="4.67771">
        <ele>651.40002441406</ele>
        <time>2019-03-06T13:41:25.000Z</time>
      </trkpt>
      <trkpt lat="45.46449" lon="4.67772">
        <ele>651.40002441406</ele>
        <time>2019-03-06T13:41:26.000Z</time>
      </trkpt>
      <trkpt lat="45.4645" lon="4.67773">
        <ele>651.40002441406</ele>
        <time>2019-03-06T13:41:27.000Z</time>
      </trkpt>
      <trkpt lat="45.46451" lon="4.67774">
        <ele>651.40002441406</ele>
        <time>2019-03-06T13:41:28.000Z</time>
      </trkpt>
      <trkpt lat="45.46452" lon="4.67775">
        <ele>651.40002441406</ele>
        <time>2019-03-06T13:41:29.000Z</time>
      </trkpt>
      <trkpt lat="45.46453" lon="4.67776">
        <ele>651.40002441406</ele>
        <time>2019-03-06T13:41:30.000Z</time>
      </trkpt>
      <trkpt lat="45.46454" lon="4.67777">
        <ele>651.40002441406</ele>
        <time>2019-03-06T13:41:31.000Z</time>
      </trkpt>
      <trkpt lat="45.46454" lon="4.67779">
        <ele>651.40002441406</ele>
        <time>2019-03-06T13:41:32.000Z</time>
      </trkpt>
      <trkpt lat="45.46455" lon="4.6778">
        <ele>651.40002441406</ele>
        <time>2019-03-06T13:41:33.000Z</time>
      </trkpt>
      <trkpt lat="45.46457" lon="4.67794">
        <ele>652.40002441406</ele>
        <time>2019-03-06T13:41:43.000Z</time>
      </trkpt>
      <trkpt lat="45.46462" lon="4.67808">
        <ele>653.40002441406</ele>
        <time>2019-03-06T13:41:54.000Z</time>
      </trkpt>
      <trkpt lat="45.46463" lon="4.67819">
        <ele>654.40002441406</ele>
        <time>2019-03-06T13:42:03.000Z</time>
      </trkpt>
      <trkpt lat="45.46468" lon="4.67824">
        <ele>655</ele>
        <time>2019-03-06T13:42:15.000Z</time>
      </trkpt>
      <trkpt lat="45.46475" lon="4.6782">
        <ele>656</ele>
        <time>2019-03-06T13:42:24.000Z</time>
      </trkpt>
      <trkpt lat="45.46483" lon="4.67811">
        <ele>656.59997558594</ele>
        <time>2019-03-06T13:42:35.000Z</time>
      </trkpt>
      <trkpt lat="45.46488" lon="4.67806">
        <ele>657</ele>
        <time>2019-03-06T13:42:41.000Z</time>
      </trkpt>
      <trkpt lat="45.46498" lon="4.67787">
        <ele>656.20001220703</ele>
        <time>2019-03-06T13:42:54.000Z</time>
      </trkpt>
      <trkpt lat="45.4651" lon="4.67776">
        <ele>656.79998779297</ele>
        <time>2019-03-06T13:43:07.000Z</time>
      </trkpt>
      <trkpt lat="45.4652" lon="4.67764">
        <ele>657</ele>
        <time>2019-03-06T13:43:19.000Z</time>
      </trkpt>
      <trkpt lat="45.46529" lon="4.67754">
        <ele>656.20001220703</ele>
        <time>2019-03-06T13:43:31.000Z</time>
      </trkpt>
      <trkpt lat="45.46538" lon="4.67744">
        <ele>655</ele>
        <time>2019-03-06T13:43:42.000Z</time>
      </trkpt>
      <trkpt lat="45.46548" lon="4.67734">
        <ele>653.79998779297</ele>
        <time>2019-03-06T13:43:53.000Z</time>
      </trkpt>
      <trkpt lat="45.46556" lon="4.67727">
        <ele>653.59997558594</ele>
        <time>2019-03-06T13:44:02.000Z</time>
      </trkpt>
      <trkpt lat="45.4656" lon="4.67722">
        <ele>653.20001220703</ele>
        <time>2019-03-06T13:44:07.000Z</time>
      </trkpt>
      <trkpt lat="45.4657" lon="4.67712">
        <ele>652.79998779297</ele>
        <time>2019-03-06T13:44:17.000Z</time>
      </trkpt>
      <trkpt lat="45.46579" lon="4.67706">
        <ele>653</ele>
        <time>2019-03-06T13:44:27.000Z</time>
      </trkpt>
      <trkpt lat="45.46582" lon="4.67711">
        <ele>654.59997558594</ele>
        <time>2019-03-06T13:44:35.000Z</time>
      </trkpt>
      <trkpt lat="45.46585" lon="4.67717">
        <ele>656.20001220703</ele>
        <time>2019-03-06T13:44:45.000Z</time>
      </trkpt>
      <trkpt lat="45.4659" lon="4.67726">
        <ele>658.40002441406</ele>
        <time>2019-03-06T13:44:59.000Z</time>
      </trkpt>
      <trkpt lat="45.46591" lon="4.67727">
        <ele>658.79998779297</ele>
        <time>2019-03-06T13:45:03.000Z</time>
      </trkpt>
      <trkpt lat="45.46594" lon="4.67733">
        <ele>660.20001220703</ele>
        <time>2019-03-06T13:45:15.000Z</time>
      </trkpt>
      <trkpt lat="45.46597" lon="4.67738">
        <ele>661.59997558594</ele>
        <time>2019-03-06T13:45:22.000Z</time>
      </trkpt>
      <trkpt lat="45.46603" lon="4.67743">
        <ele>663.59997558594</ele>
        <time>2019-03-06T13:45:35.000Z</time>
      </trkpt>
      <trkpt lat="45.46604" lon="4.67745">
        <ele>664</ele>
        <time>2019-03-06T13:45:37.000Z</time>
      </trkpt>
      <trkpt lat="45.46613" lon="4.67744">
        <ele>665.40002441406</ele>
        <time>2019-03-06T13:45:49.000Z</time>
      </trkpt>
      <trkpt lat="45.46619" lon="4.67742">
        <ele>666</ele>
        <time>2019-03-06T13:45:58.000Z</time>
      </trkpt>
      <trkpt lat="45.46628" lon="4.67741">
        <ele>667</ele>
        <time>2019-03-06T13:46:10.000Z</time>
      </trkpt>
      <trkpt lat="45.46637" lon="4.67742">
        <ele>668.59997558594</ele>
        <time>2019-03-06T13:46:22.000Z</time>
      </trkpt>
      <trkpt lat="45.46646" lon="4.67739">
        <ele>668.79998779297</ele>
        <time>2019-03-06T13:46:32.000Z</time>
      </trkpt>
      <trkpt lat="45.46649" lon="4.67736">
        <ele>668.79998779297</ele>
        <time>2019-03-06T13:46:38.000Z</time>
      </trkpt>
      <trkpt lat="45.46658" lon="4.67733">
        <ele>669.20001220703</ele>
        <time>2019-03-06T13:46:52.000Z</time>
      </trkpt>
      <trkpt lat="45.46668" lon="4.67734">
        <ele>670.40002441406</ele>
        <time>2019-03-06T13:47:03.000Z</time>
      </trkpt>
      <trkpt lat="45.46678" lon="4.67737">
        <ele>672</ele>
        <time>2019-03-06T13:47:16.000Z</time>
      </trkpt>
      <trkpt lat="45.46686" lon="4.67739">
        <ele>673</ele>
        <time>2019-03-06T13:47:29.000Z</time>
      </trkpt>
      <trkpt lat="45.46688" lon="4.6774">
        <ele>673.40002441406</ele>
        <time>2019-03-06T13:47:33.000Z</time>
      </trkpt>
      <trkpt lat="45.46688" lon="4.67741">
        <ele>673.59997558594</ele>
        <time>2019-03-06T13:47:34.000Z</time>
      </trkpt>
      <trkpt lat="45.46696" lon="4.67742">
        <ele>674.59997558594</ele>
        <time>2019-03-06T13:47:45.000Z</time>
      </trkpt>
      <trkpt lat="45.46697" lon="4.67742">
        <ele>674.59997558594</ele>
        <time>2019-03-06T13:47:46.000Z</time>
      </trkpt>
      <trkpt lat="45.46706" lon="4.67743">
        <ele>675.79998779297</ele>
        <time>2019-03-06T13:47:58.000Z</time>
      </trkpt>
      <trkpt lat="45.46718" lon="4.67744">
        <ele>677</ele>
        <time>2019-03-06T13:48:10.000Z</time>
      </trkpt>
      <trkpt lat="45.46729" lon="4.67746">
        <ele>678</ele>
        <time>2019-03-06T13:48:21.000Z</time>
      </trkpt>
      <trkpt lat="45.46731" lon="4.67747">
        <ele>678.59997558594</ele>
        <time>2019-03-06T13:48:24.000Z</time>
      </trkpt>
      <trkpt lat="45.46736" lon="4.67748">
        <ele>679</ele>
        <time>2019-03-06T13:48:30.000Z</time>
      </trkpt>
      <trkpt lat="45.46747" lon="4.67749">
        <ele>680.20001220703</ele>
        <time>2019-03-06T13:48:42.000Z</time>
      </trkpt>
      <trkpt lat="45.4675" lon="4.6775">
        <ele>680.40002441406</ele>
        <time>2019-03-06T13:48:45.000Z</time>
      </trkpt>
      <trkpt lat="45.46758" lon="4.67751">
        <ele>681.20001220703</ele>
        <time>2019-03-06T13:48:54.000Z</time>
      </trkpt>
      <trkpt lat="45.46767" lon="4.67751">
        <ele>681.79998779297</ele>
        <time>2019-03-06T13:49:05.000Z</time>
      </trkpt>
      <trkpt lat="45.46777" lon="4.67755">
        <ele>683.59997558594</ele>
        <time>2019-03-06T13:49:17.000Z</time>
      </trkpt>
      <trkpt lat="45.46785" lon="4.67756">
        <ele>684.40002441406</ele>
        <time>2019-03-06T13:49:26.000Z</time>
      </trkpt>
      <trkpt lat="45.46792" lon="4.67757">
        <ele>685</ele>
        <time>2019-03-06T13:49:37.000Z</time>
      </trkpt>
      <trkpt lat="45.46797" lon="4.67759">
        <ele>686</ele>
        <time>2019-03-06T13:49:47.000Z</time>
      </trkpt>
      <trkpt lat="45.46808" lon="4.67764">
        <ele>688</ele>
        <time>2019-03-06T13:50:00.000Z</time>
      </trkpt>
      <trkpt lat="45.46809" lon="4.67764">
        <ele>688</ele>
        <time>2019-03-06T13:50:01.000Z</time>
      </trkpt>
      <trkpt lat="45.46814" lon="4.67763">
        <ele>688.40002441406</ele>
        <time>2019-03-06T13:50:07.000Z</time>
      </trkpt>
      <trkpt lat="45.46824" lon="4.67761">
        <ele>689</ele>
        <time>2019-03-06T13:50:20.000Z</time>
      </trkpt>
      <trkpt lat="45.46826" lon="4.67761">
        <ele>689.20001220703</ele>
        <time>2019-03-06T13:50:22.000Z</time>
      </trkpt>
      <trkpt lat="45.46831" lon="4.6776">
        <ele>689.59997558594</ele>
        <time>2019-03-06T13:50:28.000Z</time>
      </trkpt>
      <trkpt lat="45.46837" lon="4.67759">
        <ele>690.20001220703</ele>
        <time>2019-03-06T13:50:37.000Z</time>
      </trkpt>
      <trkpt lat="45.46846" lon="4.67757">
        <ele>690.79998779297</ele>
        <time>2019-03-06T13:50:48.000Z</time>
      </trkpt>
      <trkpt lat="45.46854" lon="4.67758">
        <ele>691.59997558594</ele>
        <time>2019-03-06T13:50:58.000Z</time>
      </trkpt>
      <trkpt lat="45.46861" lon="4.6776">
        <ele>693.20001220703</ele>
        <time>2019-03-06T13:51:09.000Z</time>
      </trkpt>
      <trkpt lat="45.46872" lon="4.67764">
        <ele>695.59997558594</ele>
        <time>2019-03-06T13:51:22.000Z</time>
      </trkpt>
      <trkpt lat="45.46875" lon="4.67764">
        <ele>696.20001220703</ele>
        <time>2019-03-06T13:51:25.000Z</time>
      </trkpt>
      <trkpt lat="45.46885" lon="4.67769">
        <ele>698.20001220703</ele>
        <time>2019-03-06T13:51:39.000Z</time>
      </trkpt>
      <trkpt lat="45.46891" lon="4.67772">
        <ele>698.59997558594</ele>
        <time>2019-03-06T13:51:46.000Z</time>
      </trkpt>
      <trkpt lat="45.46893" lon="4.67772">
        <ele>698.79998779297</ele>
        <time>2019-03-06T13:51:48.000Z</time>
      </trkpt>
      <trkpt lat="45.46901" lon="4.67776">
        <ele>699.20001220703</ele>
        <time>2019-03-06T13:51:58.000Z</time>
      </trkpt>
      <trkpt lat="45.46912" lon="4.67782">
        <ele>700.20001220703</ele>
        <time>2019-03-06T13:52:11.000Z</time>
      </trkpt>
      <trkpt lat="45.46922" lon="4.67785">
        <ele>700.79998779297</ele>
        <time>2019-03-06T13:52:22.000Z</time>
      </trkpt>
      <trkpt lat="45.46927" lon="4.6779">
        <ele>701.20001220703</ele>
        <time>2019-03-06T13:52:31.000Z</time>
      </trkpt>
      <trkpt lat="45.46935" lon="4.67798">
        <ele>701.59997558594</ele>
        <time>2019-03-06T13:52:43.000Z</time>
      </trkpt>
      <trkpt lat="45.46943" lon="4.67803">
        <ele>701.79998779297</ele>
        <time>2019-03-06T13:52:53.000Z</time>
      </trkpt>
      <trkpt lat="45.46952" lon="4.67807">
        <ele>702.20001220703</ele>
        <time>2019-03-06T13:53:03.000Z</time>
      </trkpt>
      <trkpt lat="45.46962" lon="4.67815">
        <ele>702.59997558594</ele>
        <time>2019-03-06T13:53:12.000Z</time>
      </trkpt>
      <trkpt lat="45.4697" lon="4.67821">
        <ele>702.20001220703</ele>
        <time>2019-03-06T13:53:22.000Z</time>
      </trkpt>
      <trkpt lat="45.46971" lon="4.67821">
        <ele>701.79998779297</ele>
        <time>2019-03-06T13:53:23.000Z</time>
      </trkpt>
      <trkpt lat="45.46974" lon="4.67823">
        <ele>701.40002441406</ele>
        <time>2019-03-06T13:53:25.000Z</time>
      </trkpt>
      <trkpt lat="45.4698" lon="4.67832">
        <ele>700.40002441406</ele>
        <time>2019-03-06T13:53:33.000Z</time>
      </trkpt>
      <trkpt lat="45.46986" lon="4.67839">
        <ele>699.40002441406</ele>
        <time>2019-03-06T13:53:41.000Z</time>
      </trkpt>
      <trkpt lat="45.46989" lon="4.67856">
        <ele>699.20001220703</ele>
        <time>2019-03-06T13:53:53.000Z</time>
      </trkpt>
      <trkpt lat="45.46991" lon="4.67867">
        <ele>699.20001220703</ele>
        <time>2019-03-06T13:54:01.000Z</time>
      </trkpt>
      <trkpt lat="45.46994" lon="4.67884">
        <ele>699.20001220703</ele>
        <time>2019-03-06T13:54:13.000Z</time>
      </trkpt>
      <trkpt lat="45.46993" lon="4.67896">
        <ele>699.79998779297</ele>
        <time>2019-03-06T13:54:20.000Z</time>
      </trkpt>
      <trkpt lat="45.46994" lon="4.67921">
        <ele>699.59997558594</ele>
        <time>2019-03-06T13:54:34.000Z</time>
      </trkpt>
      <trkpt lat="45.46995" lon="4.67939">
        <ele>699.40002441406</ele>
        <time>2019-03-06T13:54:45.000Z</time>
      </trkpt>
      <trkpt lat="45.46997" lon="4.67952">
        <ele>699.20001220703</ele>
        <time>2019-03-06T13:54:54.000Z</time>
      </trkpt>
      <trkpt lat="45.47001" lon="4.6797">
        <ele>698.79998779297</ele>
        <time>2019-03-06T13:55:05.000Z</time>
      </trkpt>
      <trkpt lat="45.47004" lon="4.67985">
        <ele>698.59997558594</ele>
        <time>2019-03-06T13:55:14.000Z</time>
      </trkpt>
      <trkpt lat="45.47005" lon="4.67997">
        <ele>698.59997558594</ele>
        <time>2019-03-06T13:55:21.000Z</time>
      </trkpt>
      <trkpt lat="45.47007" lon="4.6801">
        <ele>698.79998779297</ele>
        <time>2019-03-06T13:55:30.000Z</time>
      </trkpt>
      <trkpt lat="45.4701" lon="4.6803">
        <ele>699</ele>
        <time>2019-03-06T13:55:43.000Z</time>
      </trkpt>
      <trkpt lat="45.4701" lon="4.68053">
        <ele>699.40002441406</ele>
        <time>2019-03-06T13:55:57.000Z</time>
      </trkpt>
      <trkpt lat="45.47012" lon="4.68071">
        <ele>699</ele>
        <time>2019-03-06T13:56:09.000Z</time>
      </trkpt>
      <trkpt lat="45.47019" lon="4.68089">
        <ele>698.20001220703</ele>
        <time>2019-03-06T13:56:22.000Z</time>
      </trkpt>
      <trkpt lat="45.47021" lon="4.681">
        <ele>698</ele>
        <time>2019-03-06T13:56:29.000Z</time>
      </trkpt>
      <trkpt lat="45.47023" lon="4.68112">
        <ele>697.79998779297</ele>
        <time>2019-03-06T13:56:37.000Z</time>
      </trkpt>
      <trkpt lat="45.47023" lon="4.68127">
        <ele>697.20001220703</ele>
        <time>2019-03-06T13:56:46.000Z</time>
      </trkpt>
      <trkpt lat="45.47023" lon="4.68129">
        <ele>697.20001220703</ele>
        <time>2019-03-06T13:56:47.000Z</time>
      </trkpt>
      <trkpt lat="45.47025" lon="4.68148">
        <ele>695.59997558594</ele>
        <time>2019-03-06T13:56:56.000Z</time>
      </trkpt>
      <trkpt lat="45.47029" lon="4.68165">
        <ele>694</ele>
        <time>2019-03-06T13:57:06.000Z</time>
      </trkpt>
      <trkpt lat="45.47032" lon="4.68184">
        <ele>692.40002441406</ele>
        <time>2019-03-06T13:57:18.000Z</time>
      </trkpt>
      <trkpt lat="45.47035" lon="4.68203">
        <ele>691.40002441406</ele>
        <time>2019-03-06T13:57:30.000Z</time>
      </trkpt>
      <trkpt lat="45.47039" lon="4.6822">
        <ele>691.20001220703</ele>
        <time>2019-03-06T13:57:41.000Z</time>
      </trkpt>
      <trkpt lat="45.47041" lon="4.68236">
        <ele>691.59997558594</ele>
        <time>2019-03-06T13:57:50.000Z</time>
      </trkpt>
      <trkpt lat="45.47042" lon="4.68252">
        <ele>692</ele>
        <time>2019-03-06T13:58:01.000Z</time>
      </trkpt>
      <trkpt lat="45.47043" lon="4.68263">
        <ele>692.40002441406</ele>
        <time>2019-03-06T13:58:10.000Z</time>
      </trkpt>
      <trkpt lat="45.47042" lon="4.68275">
        <ele>693.20001220703</ele>
        <time>2019-03-06T13:58:20.000Z</time>
      </trkpt>
      <trkpt lat="45.4704" lon="4.68289">
        <ele>694</ele>
        <time>2019-03-06T13:58:31.000Z</time>
      </trkpt>
      <trkpt lat="45.47038" lon="4.68307">
        <ele>694.20001220703</ele>
        <time>2019-03-06T13:58:44.000Z</time>
      </trkpt>
      <trkpt lat="45.47038" lon="4.68318">
        <ele>694.40002441406</ele>
        <time>2019-03-06T13:58:53.000Z</time>
      </trkpt>
      <trkpt lat="45.47039" lon="4.68336">
        <ele>694.20001220703</ele>
        <time>2019-03-06T13:59:05.000Z</time>
      </trkpt>
      <trkpt lat="45.47039" lon="4.68353">
        <ele>694</ele>
        <time>2019-03-06T13:59:15.000Z</time>
      </trkpt>
      <trkpt lat="45.47041" lon="4.6837">
        <ele>693.40002441406</ele>
        <time>2019-03-06T13:59:26.000Z</time>
      </trkpt>
      <trkpt lat="45.47043" lon="4.68386">
        <ele>692.40002441406</ele>
        <time>2019-03-06T13:59:37.000Z</time>
      </trkpt>
      <trkpt lat="45.47044" lon="4.68407">
        <ele>691.59997558594</ele>
        <time>2019-03-06T13:59:50.000Z</time>
      </trkpt>
      <trkpt lat="45.47049" lon="4.68426">
        <ele>690.20001220703</ele>
        <time>2019-03-06T14:00:04.000Z</time>
      </trkpt>
      <trkpt lat="45.47051" lon="4.68445">
        <ele>689</ele>
        <time>2019-03-06T14:00:17.000Z</time>
      </trkpt>
      <trkpt lat="45.47058" lon="4.68461">
        <ele>687.20001220703</ele>
        <time>2019-03-06T14:00:30.000Z</time>
      </trkpt>
      <trkpt lat="45.47062" lon="4.68478">
        <ele>686.59997558594</ele>
        <time>2019-03-06T14:00:43.000Z</time>
      </trkpt>
      <trkpt lat="45.47066" lon="4.68495">
        <ele>686.20001220703</ele>
        <time>2019-03-06T14:00:55.000Z</time>
      </trkpt>
      <trkpt lat="45.4707" lon="4.68516">
        <ele>685.40002441406</ele>
        <time>2019-03-06T14:01:08.000Z</time>
      </trkpt>
      <trkpt lat="45.47076" lon="4.68533">
        <ele>684.59997558594</ele>
        <time>2019-03-06T14:01:18.000Z</time>
      </trkpt>
      <trkpt lat="45.4708" lon="4.68556">
        <ele>683.79998779297</ele>
        <time>2019-03-06T14:01:30.000Z</time>
      </trkpt>
      <trkpt lat="45.47077" lon="4.68576">
        <ele>684</ele>
        <time>2019-03-06T14:01:42.000Z</time>
      </trkpt>
      <trkpt lat="45.47077" lon="4.68588">
        <ele>683.79998779297</ele>
        <time>2019-03-06T14:01:53.000Z</time>
      </trkpt>
      <trkpt lat="45.47072" lon="4.68618">
        <ele>684.20001220703</ele>
        <time>2019-03-06T14:02:06.000Z</time>
      </trkpt>
      <trkpt lat="45.47068" lon="4.68635">
        <ele>685.20001220703</ele>
        <time>2019-03-06T14:02:16.000Z</time>
      </trkpt>
      <trkpt lat="45.47066" lon="4.68656">
        <ele>684.59997558594</ele>
        <time>2019-03-06T14:02:29.000Z</time>
      </trkpt>
      <trkpt lat="45.47067" lon="4.68671">
        <ele>683.79998779297</ele>
        <time>2019-03-06T14:02:38.000Z</time>
      </trkpt>
      <trkpt lat="45.47068" lon="4.68687">
        <ele>682.79998779297</ele>
        <time>2019-03-06T14:02:49.000Z</time>
      </trkpt>
      <trkpt lat="45.47071" lon="4.687">
        <ele>681.79998779297</ele>
        <time>2019-03-06T14:02:57.000Z</time>
      </trkpt>
      <trkpt lat="45.4707" lon="4.68713">
        <ele>681.59997558594</ele>
        <time>2019-03-06T14:03:07.000Z</time>
      </trkpt>
      <trkpt lat="45.47071" lon="4.68731">
        <ele>681.20001220703</ele>
        <time>2019-03-06T14:03:17.000Z</time>
      </trkpt>
      <trkpt lat="45.47076" lon="4.68748">
        <ele>680.40002441406</ele>
        <time>2019-03-06T14:03:29.000Z</time>
      </trkpt>
      <trkpt lat="45.47084" lon="4.68767">
        <ele>679.20001220703</ele>
        <time>2019-03-06T14:03:41.000Z</time>
      </trkpt>
      <trkpt lat="45.47088" lon="4.68779">
        <ele>678.40002441406</ele>
        <time>2019-03-06T14:03:49.000Z</time>
      </trkpt>
      <trkpt lat="45.47089" lon="4.68781">
        <ele>678.40002441406</ele>
        <time>2019-03-06T14:03:50.000Z</time>
      </trkpt>
      <trkpt lat="45.47091" lon="4.68794">
        <ele>678.40002441406</ele>
        <time>2019-03-06T14:03:58.000Z</time>
      </trkpt>
      <trkpt lat="45.47092" lon="4.68808">
        <ele>678.79998779297</ele>
        <time>2019-03-06T14:04:07.000Z</time>
      </trkpt>
      <trkpt lat="45.47094" lon="4.68824">
        <ele>679.20001220703</ele>
        <time>2019-03-06T14:04:18.000Z</time>
      </trkpt>
      <trkpt lat="45.47101" lon="4.68834">
        <ele>678.40002441406</ele>
        <time>2019-03-06T14:04:28.000Z</time>
      </trkpt>
      <trkpt lat="45.47109" lon="4.68845">
        <ele>677.40002441406</ele>
        <time>2019-03-06T14:04:39.000Z</time>
      </trkpt>
      <trkpt lat="45.47115" lon="4.68858">
        <ele>676.59997558594</ele>
        <time>2019-03-06T14:04:50.000Z</time>
      </trkpt>
      <trkpt lat="45.47124" lon="4.68869">
        <ele>675.40002441406</ele>
        <time>2019-03-06T14:05:00.000Z</time>
      </trkpt>
      <trkpt lat="45.47126" lon="4.68874">
        <ele>675.59997558594</ele>
        <time>2019-03-06T14:05:03.000Z</time>
      </trkpt>
      <trkpt lat="45.47129" lon="4.68881">
        <ele>675.59997558594</ele>
        <time>2019-03-06T14:05:08.000Z</time>
      </trkpt>
      <trkpt lat="45.47135" lon="4.68891">
        <ele>675.79998779297</ele>
        <time>2019-03-06T14:05:18.000Z</time>
      </trkpt>
      <trkpt lat="45.4714" lon="4.68902">
        <ele>676.59997558594</ele>
        <time>2019-03-06T14:05:27.000Z</time>
      </trkpt>
      <trkpt lat="45.47148" lon="4.68914">
        <ele>677</ele>
        <time>2019-03-06T14:05:38.000Z</time>
      </trkpt>
      <trkpt lat="45.47153" lon="4.6892">
        <ele>677.20001220703</ele>
        <time>2019-03-06T14:05:45.000Z</time>
      </trkpt>
      <trkpt lat="45.47165" lon="4.68927">
        <ele>676.79998779297</ele>
        <time>2019-03-06T14:05:56.000Z</time>
      </trkpt>
      <trkpt lat="45.47169" lon="4.68928">
        <ele>676.59997558594</ele>
        <time>2019-03-06T14:05:59.000Z</time>
      </trkpt>
      <trkpt lat="45.47173" lon="4.68932">
        <ele>676.59997558594</ele>
        <time>2019-03-06T14:06:05.000Z</time>
      </trkpt>
      <trkpt lat="45.47183" lon="4.68936">
        <ele>676.20001220703</ele>
        <time>2019-03-06T14:06:16.000Z</time>
      </trkpt>
      <trkpt lat="45.47196" lon="4.68943">
        <ele>675.79998779297</ele>
        <time>2019-03-06T14:06:29.000Z</time>
      </trkpt>
      <trkpt lat="45.47208" lon="4.68948">
        <ele>675.20001220703</ele>
        <time>2019-03-06T14:06:42.000Z</time>
      </trkpt>
      <trkpt lat="45.47219" lon="4.68953">
        <ele>674.40002441406</ele>
        <time>2019-03-06T14:06:49.000Z</time>
      </trkpt>
      <trkpt lat="45.47224" lon="4.68956">
        <ele>673.40002441406</ele>
        <time>2019-03-06T14:06:53.000Z</time>
      </trkpt>
      <trkpt lat="45.47226" lon="4.68957">
        <ele>673</ele>
        <time>2019-03-06T14:06:54.000Z</time>
      </trkpt>
      <trkpt lat="45.4724" lon="4.6897">
        <ele>670.59997558594</ele>
        <time>2019-03-06T14:07:07.000Z</time>
      </trkpt>
      <trkpt lat="45.4725" lon="4.68981">
        <ele>668.79998779297</ele>
        <time>2019-03-06T14:07:18.000Z</time>
      </trkpt>
      <trkpt lat="45.47263" lon="4.68994">
        <ele>666.79998779297</ele>
        <time>2019-03-06T14:07:31.000Z</time>
      </trkpt>
      <trkpt lat="45.4727" lon="4.69007">
        <ele>666</ele>
        <time>2019-03-06T14:07:41.000Z</time>
      </trkpt>
      <trkpt lat="45.47277" lon="4.69024">
        <ele>665.59997558594</ele>
        <time>2019-03-06T14:07:53.000Z</time>
      </trkpt>
      <trkpt lat="45.47279" lon="4.69036">
        <ele>666</ele>
        <time>2019-03-06T14:08:01.000Z</time>
      </trkpt>
      <trkpt lat="45.4728" lon="4.69057">
        <ele>665.40002441406</ele>
        <time>2019-03-06T14:08:14.000Z</time>
      </trkpt>
      <trkpt lat="45.47282" lon="4.69074">
        <ele>664.79998779297</ele>
        <time>2019-03-06T14:08:25.000Z</time>
      </trkpt>
      <trkpt lat="45.47286" lon="4.69095">
        <ele>663.59997558594</ele>
        <time>2019-03-06T14:08:38.000Z</time>
      </trkpt>
      <trkpt lat="45.47289" lon="4.69114">
        <ele>662.79998779297</ele>
        <time>2019-03-06T14:08:50.000Z</time>
      </trkpt>
      <trkpt lat="45.47292" lon="4.69131">
        <ele>662.20001220703</ele>
        <time>2019-03-06T14:09:01.000Z</time>
      </trkpt>
      <trkpt lat="45.47294" lon="4.69149">
        <ele>661.59997558594</ele>
        <time>2019-03-06T14:09:13.000Z</time>
      </trkpt>
      <trkpt lat="45.47299" lon="4.69169">
        <ele>660.79998779297</ele>
        <time>2019-03-06T14:09:26.000Z</time>
      </trkpt>
      <trkpt lat="45.473" lon="4.69184">
        <ele>660.59997558594</ele>
        <time>2019-03-06T14:09:35.000Z</time>
      </trkpt>
      <trkpt lat="45.47304" lon="4.69197">
        <ele>659.79998779297</ele>
        <time>2019-03-06T14:09:44.000Z</time>
      </trkpt>
      <trkpt lat="45.47307" lon="4.69203">
        <ele>659.20001220703</ele>
        <time>2019-03-06T14:09:48.000Z</time>
      </trkpt>
      <trkpt lat="45.47311" lon="4.69215">
        <ele>660.20001220703</ele>
        <time>2019-03-06T14:09:58.000Z</time>
      </trkpt>
      <trkpt lat="45.47317" lon="4.69231">
        <ele>660.40002441406</ele>
        <time>2019-03-06T14:10:09.000Z</time>
      </trkpt>
      <trkpt lat="45.47322" lon="4.69241">
        <ele>660.59997558594</ele>
        <time>2019-03-06T14:10:18.000Z</time>
      </trkpt>
      <trkpt lat="45.47332" lon="4.69252">
        <ele>659.79998779297</ele>
        <time>2019-03-06T14:10:29.000Z</time>
      </trkpt>
      <trkpt lat="45.47341" lon="4.6926">
        <ele>659</ele>
        <time>2019-03-06T14:10:37.000Z</time>
      </trkpt>
      <trkpt lat="45.47342" lon="4.69261">
        <ele>658.79998779297</ele>
        <time>2019-03-06T14:10:38.000Z</time>
      </trkpt>
      <trkpt lat="45.47348" lon="4.69271">
        <ele>658.79998779297</ele>
        <time>2019-03-06T14:10:46.000Z</time>
      </trkpt>
      <trkpt lat="45.47355" lon="4.69279">
        <ele>658.40002441406</ele>
        <time>2019-03-06T14:10:55.000Z</time>
      </trkpt>
      <trkpt lat="45.47365" lon="4.69287">
        <ele>657.40002441406</ele>
        <time>2019-03-06T14:11:05.000Z</time>
      </trkpt>
      <trkpt lat="45.47374" lon="4.69294">
        <ele>656.79998779297</ele>
        <time>2019-03-06T14:11:15.000Z</time>
      </trkpt>
      <trkpt lat="45.47376" lon="4.69295">
        <ele>656.79998779297</ele>
        <time>2019-03-06T14:11:23.000Z</time>
      </trkpt>
      <trkpt lat="45.47377" lon="4.69297">
        <ele>656.79998779297</ele>
        <time>2019-03-06T14:11:35.000Z</time>
      </trkpt>
      <trkpt lat="45.47378" lon="4.69296">
        <ele>656.59997558594</ele>
        <time>2019-03-06T14:11:49.000Z</time>
      </trkpt>
      <trkpt lat="45.47379" lon="4.69295">
        <ele>656.20001220703</ele>
        <time>2019-03-06T14:12:07.000Z</time>
      </trkpt>
      <trkpt lat="45.47384" lon="4.69297">
        <ele>655.79998779297</ele>
        <time>2019-03-06T14:12:25.000Z</time>
      </trkpt>
      <trkpt lat="45.47388" lon="4.693">
        <ele>655.79998779297</ele>
        <time>2019-03-06T14:12:29.000Z</time>
      </trkpt>
      <trkpt lat="45.47401" lon="4.69307">
        <ele>656.20001220703</ele>
        <time>2019-03-06T14:12:41.000Z</time>
      </trkpt>
      <trkpt lat="45.47412" lon="4.69314">
        <ele>656.59997558594</ele>
        <time>2019-03-06T14:12:50.000Z</time>
      </trkpt>
      <trkpt lat="45.47426" lon="4.69319">
        <ele>656.79998779297</ele>
        <time>2019-03-06T14:13:01.000Z</time>
      </trkpt>
      <trkpt lat="45.4744" lon="4.69323">
        <ele>656.79998779297</ele>
        <time>2019-03-06T14:13:11.000Z</time>
      </trkpt>
      <trkpt lat="45.47449" lon="4.69327">
        <ele>657</ele>
        <time>2019-03-06T14:13:20.000Z</time>
      </trkpt>
      <trkpt lat="45.47459" lon="4.69328">
        <ele>656.79998779297</ele>
        <time>2019-03-06T14:13:30.000Z</time>
      </trkpt>
      <trkpt lat="45.47475" lon="4.69329">
        <ele>656.59997558594</ele>
        <time>2019-03-06T14:13:41.000Z</time>
      </trkpt>
      <trkpt lat="45.47485" lon="4.69331">
        <ele>657.20001220703</ele>
        <time>2019-03-06T14:13:49.000Z</time>
      </trkpt>
      <trkpt lat="45.47494" lon="4.69334">
        <ele>657.59997558594</ele>
        <time>2019-03-06T14:13:56.000Z</time>
      </trkpt>
      <trkpt lat="45.47506" lon="4.69336">
        <ele>658</ele>
        <time>2019-03-06T14:14:04.000Z</time>
      </trkpt>
      <trkpt lat="45.47517" lon="4.69338">
        <ele>658.40002441406</ele>
        <time>2019-03-06T14:14:12.000Z</time>
      </trkpt>
      <trkpt lat="45.47528" lon="4.69342">
        <ele>659.40002441406</ele>
        <time>2019-03-06T14:14:21.000Z</time>
      </trkpt>
      <trkpt lat="45.47532" lon="4.69345">
        <ele>659.79998779297</ele>
        <time>2019-03-06T14:14:27.000Z</time>
      </trkpt>
      <trkpt lat="45.47541" lon="4.69354">
        <ele>661.20001220703</ele>
        <time>2019-03-06T14:14:39.000Z</time>
      </trkpt>
      <trkpt lat="45.47552" lon="4.69366">
        <ele>662.20001220703</ele>
        <time>2019-03-06T14:14:51.000Z</time>
      </trkpt>
      <trkpt lat="45.47553" lon="4.69368">
        <ele>662.20001220703</ele>
        <time>2019-03-06T14:14:53.000Z</time>
      </trkpt>
      <trkpt lat="45.47558" lon="4.6938">
        <ele>660.59997558594</ele>
        <time>2019-03-06T14:15:03.000Z</time>
      </trkpt>
      <trkpt lat="45.47561" lon="4.69391">
        <ele>659.20001220703</ele>
        <time>2019-03-06T14:15:11.000Z</time>
      </trkpt>
      <trkpt lat="45.47562" lon="4.69403">
        <ele>658.20001220703</ele>
        <time>2019-03-06T14:15:20.000Z</time>
      </trkpt>
      <trkpt lat="45.47567" lon="4.69419">
        <ele>655.79998779297</ele>
        <time>2019-03-06T14:15:32.000Z</time>
      </trkpt>
      <trkpt lat="45.47569" lon="4.6943">
        <ele>654.59997558594</ele>
        <time>2019-03-06T14:15:41.000Z</time>
      </trkpt>
      <trkpt lat="45.47566" lon="4.69445">
        <ele>654.20001220703</ele>
        <time>2019-03-06T14:15:51.000Z</time>
      </trkpt>
      <trkpt lat="45.47566" lon="4.6946">
        <ele>652.59997558594</ele>
        <time>2019-03-06T14:16:01.000Z</time>
      </trkpt>
      <trkpt lat="45.47564" lon="4.69474">
        <ele>650.79998779297</ele>
        <time>2019-03-06T14:16:10.000Z</time>
      </trkpt>
      <trkpt lat="45.47565" lon="4.69486">
        <ele>649</ele>
        <time>2019-03-06T14:16:18.000Z</time>
      </trkpt>
      <trkpt lat="45.47565" lon="4.69496">
        <ele>647.59997558594</ele>
        <time>2019-03-06T14:16:24.000Z</time>
      </trkpt>
      <trkpt lat="45.47565" lon="4.69498">
        <ele>647.40002441406</ele>
        <time>2019-03-06T14:16:25.000Z</time>
      </trkpt>
      <trkpt lat="45.47566" lon="4.6951">
        <ele>645.20001220703</ele>
        <time>2019-03-06T14:16:33.000Z</time>
      </trkpt>
      <trkpt lat="45.47566" lon="4.69523">
        <ele>643.40002441406</ele>
        <time>2019-03-06T14:16:42.000Z</time>
      </trkpt>
      <trkpt lat="45.47568" lon="4.69537">
        <ele>641</ele>
        <time>2019-03-06T14:16:52.000Z</time>
      </trkpt>
      <trkpt lat="45.4757" lon="4.69554">
        <ele>639.40002441406</ele>
        <time>2019-03-06T14:17:05.000Z</time>
      </trkpt>
      <trkpt lat="45.47573" lon="4.69564">
        <ele>638.20001220703</ele>
        <time>2019-03-06T14:17:13.000Z</time>
      </trkpt>
      <trkpt lat="45.47574" lon="4.69566">
        <ele>637.79998779297</ele>
        <time>2019-03-06T14:17:15.000Z</time>
      </trkpt>
      <trkpt lat="45.47575" lon="4.69568">
        <ele>637.59997558594</ele>
        <time>2019-03-06T14:17:16.000Z</time>
      </trkpt>
      <trkpt lat="45.47576" lon="4.69569">
        <ele>637.20001220703</ele>
        <time>2019-03-06T14:17:17.000Z</time>
      </trkpt>
      <trkpt lat="45.47576" lon="4.6957">
        <ele>637.20001220703</ele>
        <time>2019-03-06T14:17:18.000Z</time>
      </trkpt>
      <trkpt lat="45.47578" lon="4.69575">
        <ele>636.40002441406</ele>
        <time>2019-03-06T14:17:22.000Z</time>
      </trkpt>
      <trkpt lat="45.47579" lon="4.69581">
        <ele>635.59997558594</ele>
        <time>2019-03-06T14:17:27.000Z</time>
      </trkpt>
      <trkpt lat="45.47582" lon="4.69586">
        <ele>634.79998779297</ele>
        <time>2019-03-06T14:17:31.000Z</time>
      </trkpt>
      <trkpt lat="45.47585" lon="4.69591">
        <ele>633.79998779297</ele>
        <time>2019-03-06T14:17:35.000Z</time>
      </trkpt>
      <trkpt lat="45.47586" lon="4.69597">
        <ele>633</ele>
        <time>2019-03-06T14:17:40.000Z</time>
      </trkpt>
      <trkpt lat="45.47587" lon="4.69599">
        <ele>632.59997558594</ele>
        <time>2019-03-06T14:17:41.000Z</time>
      </trkpt>
      <trkpt lat="45.47589" lon="4.69605">
        <ele>631.79998779297</ele>
        <time>2019-03-06T14:17:46.000Z</time>
      </trkpt>
      <trkpt lat="45.47592" lon="4.69611">
        <ele>630.59997558594</ele>
        <time>2019-03-06T14:17:51.000Z</time>
      </trkpt>
      <trkpt lat="45.47596" lon="4.6962">
        <ele>629</ele>
        <time>2019-03-06T14:17:58.000Z</time>
      </trkpt>
      <trkpt lat="45.47599" lon="4.69624">
        <ele>628.59997558594</ele>
        <time>2019-03-06T14:18:02.000Z</time>
      </trkpt>
      <trkpt lat="45.47603" lon="4.6963">
        <ele>628</ele>
        <time>2019-03-06T14:18:08.000Z</time>
      </trkpt>
      <trkpt lat="45.47604" lon="4.69631">
        <ele>627.79998779297</ele>
        <time>2019-03-06T14:18:09.000Z</time>
      </trkpt>
      <trkpt lat="45.47605" lon="4.69636">
        <ele>627.59997558594</ele>
        <time>2019-03-06T14:18:13.000Z</time>
      </trkpt>
      <trkpt lat="45.47606" lon="4.69637">
        <ele>627.59997558594</ele>
        <time>2019-03-06T14:18:14.000Z</time>
      </trkpt>
      <trkpt lat="45.47607" lon="4.69638">
        <ele>627.40002441406</ele>
        <time>2019-03-06T14:18:15.000Z</time>
      </trkpt>
      <trkpt lat="45.47614" lon="4.69651">
        <ele>626.40002441406</ele>
        <time>2019-03-06T14:18:26.000Z</time>
      </trkpt>
      <trkpt lat="45.47615" lon="4.69654">
        <ele>626.40002441406</ele>
        <time>2019-03-06T14:18:29.000Z</time>
      </trkpt>
      <trkpt lat="45.47615" lon="4.69655">
        <ele>626.20001220703</ele>
        <time>2019-03-06T14:18:30.000Z</time>
      </trkpt>
      <trkpt lat="45.47616" lon="4.69656">
        <ele>626.20001220703</ele>
        <time>2019-03-06T14:18:31.000Z</time>
      </trkpt>
      <trkpt lat="45.47617" lon="4.69657">
        <ele>626</ele>
        <time>2019-03-06T14:18:32.000Z</time>
      </trkpt>
      <trkpt lat="45.47618" lon="4.69659">
        <ele>625.79998779297</ele>
        <time>2019-03-06T14:18:33.000Z</time>
      </trkpt>
      <trkpt lat="45.47619" lon="4.6966">
        <ele>625.59997558594</ele>
        <time>2019-03-06T14:18:34.000Z</time>
      </trkpt>
      <trkpt lat="45.4762" lon="4.69661">
        <ele>625.59997558594</ele>
        <time>2019-03-06T14:18:35.000Z</time>
      </trkpt>
      <trkpt lat="45.4762" lon="4.69663">
        <ele>625.40002441406</ele>
        <time>2019-03-06T14:18:37.000Z</time>
      </trkpt>
      <trkpt lat="45.47621" lon="4.69664">
        <ele>625.40002441406</ele>
        <time>2019-03-06T14:18:38.000Z</time>
      </trkpt>
      <trkpt lat="45.47622" lon="4.69666">
        <ele>625.20001220703</ele>
        <time>2019-03-06T14:18:39.000Z</time>
      </trkpt>
      <trkpt lat="45.47623" lon="4.69667">
        <ele>625</ele>
        <time>2019-03-06T14:18:40.000Z</time>
      </trkpt>
      <trkpt lat="45.47624" lon="4.69669">
        <ele>625</ele>
        <time>2019-03-06T14:18:42.000Z</time>
      </trkpt>
      <trkpt lat="45.47625" lon="4.6967">
        <ele>624.79998779297</ele>
        <time>2019-03-06T14:18:43.000Z</time>
      </trkpt>
      <trkpt lat="45.47626" lon="4.69672">
        <ele>624.59997558594</ele>
        <time>2019-03-06T14:18:44.000Z</time>
      </trkpt>
      <trkpt lat="45.47626" lon="4.69673">
        <ele>624.59997558594</ele>
        <time>2019-03-06T14:18:45.000Z</time>
      </trkpt>
      <trkpt lat="45.47627" lon="4.69674">
        <ele>624.40002441406</ele>
        <time>2019-03-06T14:18:46.000Z</time>
      </trkpt>
      <trkpt lat="45.47633" lon="4.6968">
        <ele>623.40002441406</ele>
        <time>2019-03-06T14:18:52.000Z</time>
      </trkpt>
      <trkpt lat="45.47635" lon="4.69683">
        <ele>623.40002441406</ele>
        <time>2019-03-06T14:18:55.000Z</time>
      </trkpt>
      <trkpt lat="45.47637" lon="4.69684">
        <ele>623.40002441406</ele>
        <time>2019-03-06T14:18:56.000Z</time>
      </trkpt>
      <trkpt lat="45.47638" lon="4.69686">
        <ele>623.40002441406</ele>
        <time>2019-03-06T14:18:58.000Z</time>
      </trkpt>
      <trkpt lat="45.47645" lon="4.69694">
        <ele>623.40002441406</ele>
        <time>2019-03-06T14:19:05.000Z</time>
      </trkpt>
      <trkpt lat="45.47649" lon="4.69698">
        <ele>623.40002441406</ele>
        <time>2019-03-06T14:19:09.000Z</time>
      </trkpt>
      <trkpt lat="45.4765" lon="4.69699">
        <ele>623.20001220703</ele>
        <time>2019-03-06T14:19:10.000Z</time>
      </trkpt>
      <trkpt lat="45.47658" lon="4.69709">
        <ele>623.59997558594</ele>
        <time>2019-03-06T14:19:18.000Z</time>
      </trkpt>
      <trkpt lat="45.47668" lon="4.69721">
        <ele>624.20001220703</ele>
        <time>2019-03-06T14:19:29.000Z</time>
      </trkpt>
      <trkpt lat="45.47681" lon="4.69729">
        <ele>624.40002441406</ele>
        <time>2019-03-06T14:19:42.000Z</time>
      </trkpt>
      <trkpt lat="45.47689" lon="4.69734">
        <ele>624.59997558594</ele>
        <time>2019-03-06T14:19:51.000Z</time>
      </trkpt>
      <trkpt lat="45.47698" lon="4.69747">
        <ele>625.40002441406</ele>
        <time>2019-03-06T14:20:01.000Z</time>
      </trkpt>
      <trkpt lat="45.47702" lon="4.69755">
        <ele>626</ele>
        <time>2019-03-06T14:20:07.000Z</time>
      </trkpt>
      <trkpt lat="45.47705" lon="4.69761">
        <ele>626.20001220703</ele>
        <time>2019-03-06T14:20:11.000Z</time>
      </trkpt>
      <trkpt lat="45.47707" lon="4.69765">
        <ele>626.59997558594</ele>
        <time>2019-03-06T14:20:14.000Z</time>
      </trkpt>
      <trkpt lat="45.47708" lon="4.69768">
        <ele>626.79998779297</ele>
        <time>2019-03-06T14:20:16.000Z</time>
      </trkpt>
      <trkpt lat="45.47712" lon="4.69778">
        <ele>627.40002441406</ele>
        <time>2019-03-06T14:20:23.000Z</time>
      </trkpt>
      <trkpt lat="45.4772" lon="4.69795">
        <ele>628.79998779297</ele>
        <time>2019-03-06T14:20:36.000Z</time>
      </trkpt>
      <trkpt lat="45.47724" lon="4.69808">
        <ele>630</ele>
        <time>2019-03-06T14:20:46.000Z</time>
      </trkpt>
      <trkpt lat="45.47725" lon="4.69811">
        <ele>630.20001220703</ele>
        <time>2019-03-06T14:20:48.000Z</time>
      </trkpt>
      <trkpt lat="45.4773" lon="4.69827">
        <ele>631.59997558594</ele>
        <time>2019-03-06T14:21:00.000Z</time>
      </trkpt>
      <trkpt lat="45.47733" lon="4.69838">
        <ele>632.79998779297</ele>
        <time>2019-03-06T14:21:10.000Z</time>
      </trkpt>
      <trkpt lat="45.47734" lon="4.69856">
        <ele>634.40002441406</ele>
        <time>2019-03-06T14:21:23.000Z</time>
      </trkpt>
      <trkpt lat="45.47734" lon="4.69873">
        <ele>636.20001220703</ele>
        <time>2019-03-06T14:21:35.000Z</time>
      </trkpt>
      <trkpt lat="45.47734" lon="4.69884">
        <ele>638</ele>
        <time>2019-03-06T14:21:44.000Z</time>
      </trkpt>
      <trkpt lat="45.47732" lon="4.69895">
        <ele>639.20001220703</ele>
        <time>2019-03-06T14:21:53.000Z</time>
      </trkpt>
      <trkpt lat="45.47732" lon="4.69907">
        <ele>640</ele>
        <time>2019-03-06T14:22:04.000Z</time>
      </trkpt>
      <trkpt lat="45.47736" lon="4.69918">
        <ele>641.20001220703</ele>
        <time>2019-03-06T14:22:14.000Z</time>
      </trkpt>
      <trkpt lat="45.47737" lon="4.69929">
        <ele>642</ele>
        <time>2019-03-06T14:22:23.000Z</time>
      </trkpt>
      <trkpt lat="45.47738" lon="4.69943">
        <ele>643</ele>
        <time>2019-03-06T14:22:33.000Z</time>
      </trkpt>
      <trkpt lat="45.47741" lon="4.69955">
        <ele>644.20001220703</ele>
        <time>2019-03-06T14:22:44.000Z</time>
      </trkpt>
      <trkpt lat="45.47747" lon="4.69958">
        <ele>645.20001220703</ele>
        <time>2019-03-06T14:22:54.000Z</time>
      </trkpt>
      <trkpt lat="45.47748" lon="4.69958">
        <ele>645.20001220703</ele>
        <time>2019-03-06T14:22:55.000Z</time>
      </trkpt>
      <trkpt lat="45.47753" lon="4.69956">
        <ele>645.40002441406</ele>
        <time>2019-03-06T14:23:03.000Z</time>
      </trkpt>
      <trkpt lat="45.47761" lon="4.69952">
        <ele>645.79998779297</ele>
        <time>2019-03-06T14:23:13.000Z</time>
      </trkpt>
      <trkpt lat="45.47767" lon="4.6995">
        <ele>646</ele>
        <time>2019-03-06T14:23:22.000Z</time>
      </trkpt>
      <trkpt lat="45.4777" lon="4.69948">
        <ele>646.20001220703</ele>
        <time>2019-03-06T14:23:26.000Z</time>
      </trkpt>
      <trkpt lat="45.47782" lon="4.69951">
        <ele>647.40002441406</ele>
        <time>2019-03-06T14:23:38.000Z</time>
      </trkpt>
      <trkpt lat="45.4779" lon="4.69959">
        <ele>648.79998779297</ele>
        <time>2019-03-06T14:23:48.000Z</time>
      </trkpt>
      <trkpt lat="45.47797" lon="4.69973">
        <ele>651</ele>
        <time>2019-03-06T14:24:02.000Z</time>
      </trkpt>
      <trkpt lat="45.47802" lon="4.69981">
        <ele>652</ele>
        <time>2019-03-06T14:24:10.000Z</time>
      </trkpt>
      <trkpt lat="45.47804" lon="4.69987">
        <ele>652.59997558594</ele>
        <time>2019-03-06T14:24:16.000Z</time>
      </trkpt>
      <trkpt lat="45.4781" lon="4.69995">
        <ele>653.59997558594</ele>
        <time>2019-03-06T14:24:25.000Z</time>
      </trkpt>
      <trkpt lat="45.47818" lon="4.70005">
        <ele>654.79998779297</ele>
        <time>2019-03-06T14:24:36.000Z</time>
      </trkpt>
      <trkpt lat="45.47822" lon="4.70011">
        <ele>655.59997558594</ele>
        <time>2019-03-06T14:24:42.000Z</time>
      </trkpt>
      <trkpt lat="45.47828" lon="4.70021">
        <ele>656.59997558594</ele>
        <time>2019-03-06T14:24:53.000Z</time>
      </trkpt>
      <trkpt lat="45.47835" lon="4.70032">
        <ele>658</ele>
        <time>2019-03-06T14:25:05.000Z</time>
      </trkpt>
      <trkpt lat="45.47835" lon="4.70033">
        <ele>658</ele>
        <time>2019-03-06T14:25:06.000Z</time>
      </trkpt>
      <trkpt lat="45.47841" lon="4.70047">
        <ele>659.40002441406</ele>
        <time>2019-03-06T14:25:18.000Z</time>
      </trkpt>
      <trkpt lat="45.47847" lon="4.70056">
        <ele>660.20001220703</ele>
        <time>2019-03-06T14:25:27.000Z</time>
      </trkpt>
      <trkpt lat="45.47852" lon="4.70068">
        <ele>661.20001220703</ele>
        <time>2019-03-06T14:25:38.000Z</time>
      </trkpt>
      <trkpt lat="45.4786" lon="4.70082">
        <ele>662.59997558594</ele>
        <time>2019-03-06T14:25:51.000Z</time>
      </trkpt>
      <trkpt lat="45.47868" lon="4.70098">
        <ele>664</ele>
        <time>2019-03-06T14:26:03.000Z</time>
      </trkpt>
      <trkpt lat="45.47878" lon="4.70112">
        <ele>665.20001220703</ele>
        <time>2019-03-06T14:26:14.000Z</time>
      </trkpt>
      <trkpt lat="45.47886" lon="4.7013">
        <ele>667</ele>
        <time>2019-03-06T14:26:27.000Z</time>
      </trkpt>
      <trkpt lat="45.4789" lon="4.70144">
        <ele>668.20001220703</ele>
        <time>2019-03-06T14:26:37.000Z</time>
      </trkpt>
      <trkpt lat="45.47893" lon="4.70158">
        <ele>669.59997558594</ele>
        <time>2019-03-06T14:26:47.000Z</time>
      </trkpt>
      <trkpt lat="45.47895" lon="4.70168">
        <ele>670.59997558594</ele>
        <time>2019-03-06T14:26:57.000Z</time>
      </trkpt>
      <trkpt lat="45.47893" lon="4.70171">
        <ele>670.79998779297</ele>
        <time>2019-03-06T14:27:10.000Z</time>
      </trkpt>
      <trkpt lat="45.47894" lon="4.70175">
        <ele>671.20001220703</ele>
        <time>2019-03-06T14:27:12.000Z</time>
      </trkpt>
      <trkpt lat="45.47893" lon="4.70181">
        <ele>671.79998779297</ele>
        <time>2019-03-06T14:27:16.000Z</time>
      </trkpt>
      <trkpt lat="45.47892" lon="4.70197">
        <ele>673.20001220703</ele>
        <time>2019-03-06T14:27:27.000Z</time>
      </trkpt>
      <trkpt lat="45.47892" lon="4.70203">
        <ele>673.79998779297</ele>
        <time>2019-03-06T14:27:31.000Z</time>
      </trkpt>
      <trkpt lat="45.47891" lon="4.70219">
        <ele>675.20001220703</ele>
        <time>2019-03-06T14:27:42.000Z</time>
      </trkpt>
      <trkpt lat="45.4789" lon="4.70233">
        <ele>675.40002441406</ele>
        <time>2019-03-06T14:27:52.000Z</time>
      </trkpt>
      <trkpt lat="45.47889" lon="4.70247">
        <ele>675.59997558594</ele>
        <time>2019-03-06T14:28:01.000Z</time>
      </trkpt>
      <trkpt lat="45.47889" lon="4.7026">
        <ele>676</ele>
        <time>2019-03-06T14:28:10.000Z</time>
      </trkpt>
      <trkpt lat="45.4789" lon="4.7027">
        <ele>676.40002441406</ele>
        <time>2019-03-06T14:28:17.000Z</time>
      </trkpt>
      <trkpt lat="45.47891" lon="4.70284">
        <ele>676.79998779297</ele>
        <time>2019-03-06T14:28:26.000Z</time>
      </trkpt>
      <trkpt lat="45.47892" lon="4.70302">
        <ele>678.20001220703</ele>
        <time>2019-03-06T14:28:37.000Z</time>
      </trkpt>
      <trkpt lat="45.47894" lon="4.70314">
        <ele>678.59997558594</ele>
        <time>2019-03-06T14:28:45.000Z</time>
      </trkpt>
      <trkpt lat="45.47896" lon="4.70328">
        <ele>679.20001220703</ele>
        <time>2019-03-06T14:28:54.000Z</time>
      </trkpt>
      <trkpt lat="45.47896" lon="4.7033">
        <ele>679.20001220703</ele>
        <time>2019-03-06T14:28:55.000Z</time>
      </trkpt>
      <trkpt lat="45.47896" lon="4.70332">
        <ele>679.20001220703</ele>
        <time>2019-03-06T14:28:56.000Z</time>
      </trkpt>
      <trkpt lat="45.47896" lon="4.70334">
        <ele>679.20001220703</ele>
        <time>2019-03-06T14:28:57.000Z</time>
      </trkpt>
      <trkpt lat="45.47896" lon="4.70335">
        <ele>679.20001220703</ele>
        <time>2019-03-06T14:28:58.000Z</time>
      </trkpt>
      <trkpt lat="45.47894" lon="4.70354">
        <ele>678.79998779297</ele>
        <time>2019-03-06T14:29:08.000Z</time>
      </trkpt>
      <trkpt lat="45.47892" lon="4.70372">
        <ele>678.59997558594</ele>
        <time>2019-03-06T14:29:18.000Z</time>
      </trkpt>
      <trkpt lat="45.4789" lon="4.70386">
        <ele>678.79998779297</ele>
        <time>2019-03-06T14:29:27.000Z</time>
      </trkpt>
      <trkpt lat="45.4789" lon="4.704">
        <ele>679</ele>
        <time>2019-03-06T14:29:35.000Z</time>
      </trkpt>
      <trkpt lat="45.4789" lon="4.70415">
        <ele>679</ele>
        <time>2019-03-06T14:29:45.000Z</time>
      </trkpt>
      <trkpt lat="45.47889" lon="4.70424">
        <ele>679</ele>
        <time>2019-03-06T14:29:51.000Z</time>
      </trkpt>
      <trkpt lat="45.47888" lon="4.70434">
        <ele>678.40002441406</ele>
        <time>2019-03-06T14:29:57.000Z</time>
      </trkpt>
      <trkpt lat="45.47883" lon="4.70451">
        <ele>677</ele>
        <time>2019-03-06T14:30:10.000Z</time>
      </trkpt>
      <trkpt lat="45.47879" lon="4.70466">
        <ele>676</ele>
        <time>2019-03-06T14:30:22.000Z</time>
      </trkpt>
      <trkpt lat="45.47879" lon="4.70476">
        <ele>676.40002441406</ele>
        <time>2019-03-06T14:30:27.000Z</time>
      </trkpt>
      <trkpt lat="45.47878" lon="4.70489">
        <ele>676.40002441406</ele>
        <time>2019-03-06T14:30:34.000Z</time>
      </trkpt>
      <trkpt lat="45.47873" lon="4.705">
        <ele>675</ele>
        <time>2019-03-06T14:30:42.000Z</time>
      </trkpt>
      <trkpt lat="45.47869" lon="4.70511">
        <ele>673.79998779297</ele>
        <time>2019-03-06T14:30:50.000Z</time>
      </trkpt>
      <trkpt lat="45.47868" lon="4.70513">
        <ele>673.59997558594</ele>
        <time>2019-03-06T14:30:51.000Z</time>
      </trkpt>
      <trkpt lat="45.47865" lon="4.70525">
        <ele>672.59997558594</ele>
        <time>2019-03-06T14:30:59.000Z</time>
      </trkpt>
      <trkpt lat="45.47865" lon="4.70527">
        <ele>672.40002441406</ele>
        <time>2019-03-06T14:31:00.000Z</time>
      </trkpt>
      <trkpt lat="45.47864" lon="4.7053">
        <ele>672.20001220703</ele>
        <time>2019-03-06T14:31:02.000Z</time>
      </trkpt>
      <trkpt lat="45.47863" lon="4.70531">
        <ele>671.40002441406</ele>
        <time>2019-03-06T14:31:03.000Z</time>
      </trkpt>
      <trkpt lat="45.47862" lon="4.70532">
        <ele>671.20001220703</ele>
        <time>2019-03-06T14:31:04.000Z</time>
      </trkpt>
      <trkpt lat="45.47862" lon="4.70534">
        <ele>671</ele>
        <time>2019-03-06T14:31:05.000Z</time>
      </trkpt>
      <trkpt lat="45.47862" lon="4.70536">
        <ele>671</ele>
        <time>2019-03-06T14:31:06.000Z</time>
      </trkpt>
      <trkpt lat="45.47861" lon="4.70537">
        <ele>671</ele>
        <time>2019-03-06T14:31:07.000Z</time>
      </trkpt>
      <trkpt lat="45.47861" lon="4.70541">
        <ele>671</ele>
        <time>2019-03-06T14:31:09.000Z</time>
      </trkpt>
      <trkpt lat="45.4786" lon="4.70542">
        <ele>671</ele>
        <time>2019-03-06T14:31:10.000Z</time>
      </trkpt>
      <trkpt lat="45.4786" lon="4.70544">
        <ele>671</ele>
        <time>2019-03-06T14:31:11.000Z</time>
      </trkpt>
      <trkpt lat="45.4786" lon="4.70546">
        <ele>671</ele>
        <time>2019-03-06T14:31:12.000Z</time>
      </trkpt>
      <trkpt lat="45.47859" lon="4.70548">
        <ele>670.79998779297</ele>
        <time>2019-03-06T14:31:13.000Z</time>
      </trkpt>
      <trkpt lat="45.47858" lon="4.70564">
        <ele>671.59997558594</ele>
        <time>2019-03-06T14:31:21.000Z</time>
      </trkpt>
      <trkpt lat="45.47857" lon="4.70572">
        <ele>671.59997558594</ele>
        <time>2019-03-06T14:31:25.000Z</time>
      </trkpt>
      <trkpt lat="45.47856" lon="4.70573">
        <ele>671.20001220703</ele>
        <time>2019-03-06T14:31:26.000Z</time>
      </trkpt>
      <trkpt lat="45.47856" lon="4.70575">
        <ele>671.40002441406</ele>
        <time>2019-03-06T14:31:27.000Z</time>
      </trkpt>
      <trkpt lat="45.47859" lon="4.70597">
        <ele>674.79998779297</ele>
        <time>2019-03-06T14:31:39.000Z</time>
      </trkpt>
      <trkpt lat="45.47858" lon="4.7061">
        <ele>675.20001220703</ele>
        <time>2019-03-06T14:31:47.000Z</time>
      </trkpt>
      <trkpt lat="45.47857" lon="4.70625">
        <ele>676</ele>
        <time>2019-03-06T14:31:55.000Z</time>
      </trkpt>
      <trkpt lat="45.47855" lon="4.7064">
        <ele>676</ele>
        <time>2019-03-06T14:32:04.000Z</time>
      </trkpt>
      <trkpt lat="45.47855" lon="4.70647">
        <ele>676.20001220703</ele>
        <time>2019-03-06T14:32:08.000Z</time>
      </trkpt>
      <trkpt lat="45.47855" lon="4.7065">
        <ele>676.59997558594</ele>
        <time>2019-03-06T14:32:10.000Z</time>
      </trkpt>
      <trkpt lat="45.47852" lon="4.7066">
        <ele>676</ele>
        <time>2019-03-06T14:32:17.000Z</time>
      </trkpt>
      <trkpt lat="45.47852" lon="4.70681">
        <ele>677.20001220703</ele>
        <time>2019-03-06T14:32:29.000Z</time>
      </trkpt>
      <trkpt lat="45.47848" lon="4.70697">
        <ele>676</ele>
        <time>2019-03-06T14:32:39.000Z</time>
      </trkpt>
      <trkpt lat="45.47849" lon="4.70701">
        <ele>676.59997558594</ele>
        <time>2019-03-06T14:32:41.000Z</time>
      </trkpt>
      <trkpt lat="45.47849" lon="4.70703">
        <ele>676.79998779297</ele>
        <time>2019-03-06T14:32:42.000Z</time>
      </trkpt>
      <trkpt lat="45.47849" lon="4.70705">
        <ele>677</ele>
        <time>2019-03-06T14:32:43.000Z</time>
      </trkpt>
      <trkpt lat="45.47849" lon="4.70727">
        <ele>676.79998779297</ele>
        <time>2019-03-06T14:32:55.000Z</time>
      </trkpt>
      <trkpt lat="45.47851" lon="4.70744">
        <ele>677.40002441406</ele>
        <time>2019-03-06T14:33:05.000Z</time>
      </trkpt>
      <trkpt lat="45.47855" lon="4.70757">
        <ele>679.40002441406</ele>
        <time>2019-03-06T14:33:13.000Z</time>
      </trkpt>
      <trkpt lat="45.47857" lon="4.70765">
        <ele>680.20001220703</ele>
        <time>2019-03-06T14:33:18.000Z</time>
      </trkpt>
      <trkpt lat="45.47861" lon="4.70779">
        <ele>682</ele>
        <time>2019-03-06T14:33:27.000Z</time>
      </trkpt>
      <trkpt lat="45.47863" lon="4.70782">
        <ele>683</ele>
        <time>2019-03-06T14:33:29.000Z</time>
      </trkpt>
      <trkpt lat="45.47865" lon="4.70794">
        <ele>683.20001220703</ele>
        <time>2019-03-06T14:33:36.000Z</time>
      </trkpt>
      <trkpt lat="45.47868" lon="4.7081">
        <ele>683.20001220703</ele>
        <time>2019-03-06T14:33:45.000Z</time>
      </trkpt>
      <trkpt lat="45.47871" lon="4.70826">
        <ele>683.59997558594</ele>
        <time>2019-03-06T14:33:54.000Z</time>
      </trkpt>
      <trkpt lat="45.47875" lon="4.70837">
        <ele>684.59997558594</ele>
        <time>2019-03-06T14:34:01.000Z</time>
      </trkpt>
      <trkpt lat="45.47875" lon="4.70843">
        <ele>684.20001220703</ele>
        <time>2019-03-06T14:34:04.000Z</time>
      </trkpt>
      <trkpt lat="45.47875" lon="4.7086">
        <ele>682.40002441406</ele>
        <time>2019-03-06T14:34:13.000Z</time>
      </trkpt>
      <trkpt lat="45.47876" lon="4.70878">
        <ele>681.20001220703</ele>
        <time>2019-03-06T14:34:23.000Z</time>
      </trkpt>
      <trkpt lat="45.47882" lon="4.70896">
        <ele>681.59997558594</ele>
        <time>2019-03-06T14:34:34.000Z</time>
      </trkpt>
      <trkpt lat="45.4789" lon="4.70908">
        <ele>683.40002441406</ele>
        <time>2019-03-06T14:34:43.000Z</time>
      </trkpt>
      <trkpt lat="45.47891" lon="4.70911">
        <ele>683.59997558594</ele>
        <time>2019-03-06T14:34:45.000Z</time>
      </trkpt>
      <trkpt lat="45.47892" lon="4.70915">
        <ele>683.59997558594</ele>
        <time>2019-03-06T14:34:47.000Z</time>
      </trkpt>
      <trkpt lat="45.47893" lon="4.70916">
        <ele>683.59997558594</ele>
        <time>2019-03-06T14:34:48.000Z</time>
      </trkpt>
      <trkpt lat="45.47893" lon="4.7092">
        <ele>683.20001220703</ele>
        <time>2019-03-06T14:34:50.000Z</time>
      </trkpt>
      <trkpt lat="45.47894" lon="4.70921">
        <ele>683.20001220703</ele>
        <time>2019-03-06T14:34:51.000Z</time>
      </trkpt>
      <trkpt lat="45.47894" lon="4.70923">
        <ele>683</ele>
        <time>2019-03-06T14:34:52.000Z</time>
      </trkpt>
      <trkpt lat="45.47894" lon="4.70925">
        <ele>683</ele>
        <time>2019-03-06T14:34:53.000Z</time>
      </trkpt>
      <trkpt lat="45.47895" lon="4.70928">
        <ele>683</ele>
        <time>2019-03-06T14:34:55.000Z</time>
      </trkpt>
      <trkpt lat="45.47895" lon="4.70933">
        <ele>682</ele>
        <time>2019-03-06T14:34:58.000Z</time>
      </trkpt>
      <trkpt lat="45.47895" lon="4.70934">
        <ele>681.79998779297</ele>
        <time>2019-03-06T14:34:59.000Z</time>
      </trkpt>
      <trkpt lat="45.47895" lon="4.70936">
        <ele>681.40002441406</ele>
        <time>2019-03-06T14:35:00.000Z</time>
      </trkpt>
      <trkpt lat="45.47895" lon="4.70938">
        <ele>681.20001220703</ele>
        <time>2019-03-06T14:35:01.000Z</time>
      </trkpt>
      <trkpt lat="45.47895" lon="4.70939">
        <ele>681.20001220703</ele>
        <time>2019-03-06T14:35:02.000Z</time>
      </trkpt>
      <trkpt lat="45.47896" lon="4.70941">
        <ele>681.20001220703</ele>
        <time>2019-03-06T14:35:03.000Z</time>
      </trkpt>
      <trkpt lat="45.47899" lon="4.70948">
        <ele>681.40002441406</ele>
        <time>2019-03-06T14:35:10.000Z</time>
      </trkpt>
      <trkpt lat="45.479" lon="4.70951">
        <ele>681.59997558594</ele>
        <time>2019-03-06T14:35:16.000Z</time>
      </trkpt>
      <trkpt lat="45.479" lon="4.70953">
        <ele>681.40002441406</ele>
        <time>2019-03-06T14:35:17.000Z</time>
      </trkpt>
      <trkpt lat="45.47901" lon="4.70955">
        <ele>681.20001220703</ele>
        <time>2019-03-06T14:35:18.000Z</time>
      </trkpt>
      <trkpt lat="45.47901" lon="4.70956">
        <ele>681</ele>
        <time>2019-03-06T14:35:19.000Z</time>
      </trkpt>
      <trkpt lat="45.47902" lon="4.70958">
        <ele>680.59997558594</ele>
        <time>2019-03-06T14:35:20.000Z</time>
      </trkpt>
      <trkpt lat="45.47902" lon="4.70961">
        <ele>680.40002441406</ele>
        <time>2019-03-06T14:35:22.000Z</time>
      </trkpt>
      <trkpt lat="45.47903" lon="4.70962">
        <ele>680.59997558594</ele>
        <time>2019-03-06T14:35:23.000Z</time>
      </trkpt>
      <trkpt lat="45.47904" lon="4.70963">
        <ele>680.79998779297</ele>
        <time>2019-03-06T14:35:24.000Z</time>
      </trkpt>
      <trkpt lat="45.47905" lon="4.70965">
        <ele>680.79998779297</ele>
        <time>2019-03-06T14:35:25.000Z</time>
      </trkpt>
      <trkpt lat="45.47906" lon="4.70966">
        <ele>680.79998779297</ele>
        <time>2019-03-06T14:35:26.000Z</time>
      </trkpt>
      <trkpt lat="45.47907" lon="4.70968">
        <ele>681</ele>
        <time>2019-03-06T14:35:27.000Z</time>
      </trkpt>
      <trkpt lat="45.47909" lon="4.70969">
        <ele>681.59997558594</ele>
        <time>2019-03-06T14:35:28.000Z</time>
      </trkpt>
      <trkpt lat="45.47916" lon="4.70981">
        <ele>682</ele>
        <time>2019-03-06T14:35:36.000Z</time>
      </trkpt>
      <trkpt lat="45.47922" lon="4.70994">
        <ele>681.59997558594</ele>
        <time>2019-03-06T14:35:45.000Z</time>
      </trkpt>
      <trkpt lat="45.47923" lon="4.71009">
        <ele>679</ele>
        <time>2019-03-06T14:35:54.000Z</time>
      </trkpt>
      <trkpt lat="45.47936" lon="4.71021">
        <ele>682</ele>
        <time>2019-03-06T14:36:03.000Z</time>
      </trkpt>
      <trkpt lat="45.47943" lon="4.71031">
        <ele>683</ele>
        <time>2019-03-06T14:36:10.000Z</time>
      </trkpt>
      <trkpt lat="45.47944" lon="4.71033">
        <ele>683.20001220703</ele>
        <time>2019-03-06T14:36:12.000Z</time>
      </trkpt>
      <trkpt lat="45.47945" lon="4.71035">
        <ele>683</ele>
        <time>2019-03-06T14:36:13.000Z</time>
      </trkpt>
      <trkpt lat="45.47945" lon="4.71036">
        <ele>683</ele>
        <time>2019-03-06T14:36:14.000Z</time>
      </trkpt>
      <trkpt lat="45.47945" lon="4.71038">
        <ele>682.79998779297</ele>
        <time>2019-03-06T14:36:15.000Z</time>
      </trkpt>
      <trkpt lat="45.47946" lon="4.71039">
        <ele>682.59997558594</ele>
        <time>2019-03-06T14:36:16.000Z</time>
      </trkpt>
      <trkpt lat="45.47947" lon="4.7104">
        <ele>682.59997558594</ele>
        <time>2019-03-06T14:36:17.000Z</time>
      </trkpt>
      <trkpt lat="45.47947" lon="4.71042">
        <ele>682.40002441406</ele>
        <time>2019-03-06T14:36:18.000Z</time>
      </trkpt>
      <trkpt lat="45.47948" lon="4.71043">
        <ele>682.20001220703</ele>
        <time>2019-03-06T14:36:19.000Z</time>
      </trkpt>
      <trkpt lat="45.47949" lon="4.71045">
        <ele>682.40002441406</ele>
        <time>2019-03-06T14:36:20.000Z</time>
      </trkpt>
      <trkpt lat="45.4796" lon="4.71056">
        <ele>684.20001220703</ele>
        <time>2019-03-06T14:36:29.000Z</time>
      </trkpt>
      <trkpt lat="45.47968" lon="4.71064">
        <ele>684.79998779297</ele>
        <time>2019-03-06T14:36:37.000Z</time>
      </trkpt>
      <trkpt lat="45.47975" lon="4.71074">
        <ele>684.40002441406</ele>
        <time>2019-03-06T14:36:45.000Z</time>
      </trkpt>
      <trkpt lat="45.47979" lon="4.71083">
        <ele>682.79998779297</ele>
        <time>2019-03-06T14:36:51.000Z</time>
      </trkpt>
      <trkpt lat="45.4798" lon="4.71084">
        <ele>682.79998779297</ele>
        <time>2019-03-06T14:36:52.000Z</time>
      </trkpt>
      <trkpt lat="45.47981" lon="4.71085">
        <ele>682.79998779297</ele>
        <time>2019-03-06T14:36:53.000Z</time>
      </trkpt>
      <trkpt lat="45.47982" lon="4.71086">
        <ele>682.59997558594</ele>
        <time>2019-03-06T14:36:54.000Z</time>
      </trkpt>
      <trkpt lat="45.47984" lon="4.71087">
        <ele>682.79998779297</ele>
        <time>2019-03-06T14:36:55.000Z</time>
      </trkpt>
      <trkpt lat="45.47984" lon="4.71089">
        <ele>682.59997558594</ele>
        <time>2019-03-06T14:36:56.000Z</time>
      </trkpt>
      <trkpt lat="45.47985" lon="4.7109">
        <ele>682.40002441406</ele>
        <time>2019-03-06T14:36:57.000Z</time>
      </trkpt>
      <trkpt lat="45.47985" lon="4.71092">
        <ele>682.20001220703</ele>
        <time>2019-03-06T14:36:58.000Z</time>
      </trkpt>
      <trkpt lat="45.47986" lon="4.71093">
        <ele>682</ele>
        <time>2019-03-06T14:36:59.000Z</time>
      </trkpt>
      <trkpt lat="45.47987" lon="4.71094">
        <ele>682</ele>
        <time>2019-03-06T14:37:00.000Z</time>
      </trkpt>
      <trkpt lat="45.47996" lon="4.71102">
        <ele>682.20001220703</ele>
        <time>2019-03-06T14:37:08.000Z</time>
      </trkpt>
      <trkpt lat="45.48" lon="4.71108">
        <ele>681.59997558594</ele>
        <time>2019-03-06T14:37:13.000Z</time>
      </trkpt>
      <trkpt lat="45.48001" lon="4.71109">
        <ele>681.59997558594</ele>
        <time>2019-03-06T14:37:14.000Z</time>
      </trkpt>
      <trkpt lat="45.48002" lon="4.7111">
        <ele>681.59997558594</ele>
        <time>2019-03-06T14:37:15.000Z</time>
      </trkpt>
      <trkpt lat="45.48003" lon="4.71111">
        <ele>681.79998779297</ele>
        <time>2019-03-06T14:37:16.000Z</time>
      </trkpt>
      <trkpt lat="45.48004" lon="4.71112">
        <ele>681.79998779297</ele>
        <time>2019-03-06T14:37:17.000Z</time>
      </trkpt>
      <trkpt lat="45.48009" lon="4.71116">
        <ele>681.79998779297</ele>
        <time>2019-03-06T14:37:21.000Z</time>
      </trkpt>
      <trkpt lat="45.4801" lon="4.71118">
        <ele>681.79998779297</ele>
        <time>2019-03-06T14:37:22.000Z</time>
      </trkpt>
      <trkpt lat="45.48011" lon="4.71119">
        <ele>681.79998779297</ele>
        <time>2019-03-06T14:37:23.000Z</time>
      </trkpt>
      <trkpt lat="45.48012" lon="4.71119">
        <ele>682</ele>
        <time>2019-03-06T14:37:24.000Z</time>
      </trkpt>
      <trkpt lat="45.48014" lon="4.7112">
        <ele>682</ele>
        <time>2019-03-06T14:37:25.000Z</time>
      </trkpt>
      <trkpt lat="45.48015" lon="4.71121">
        <ele>682</ele>
        <time>2019-03-06T14:37:26.000Z</time>
      </trkpt>
      <trkpt lat="45.48016" lon="4.71123">
        <ele>681.79998779297</ele>
        <time>2019-03-06T14:37:27.000Z</time>
      </trkpt>
      <trkpt lat="45.48017" lon="4.71124">
        <ele>681.59997558594</ele>
        <time>2019-03-06T14:37:28.000Z</time>
      </trkpt>
      <trkpt lat="45.48024" lon="4.71135">
        <ele>680.20001220703</ele>
        <time>2019-03-06T14:37:36.000Z</time>
      </trkpt>
      <trkpt lat="45.48025" lon="4.71136">
        <ele>680.20001220703</ele>
        <time>2019-03-06T14:37:37.000Z</time>
      </trkpt>
      <trkpt lat="45.48026" lon="4.71137">
        <ele>680.20001220703</ele>
        <time>2019-03-06T14:37:38.000Z</time>
      </trkpt>
      <trkpt lat="45.48035" lon="4.71145">
        <ele>680</ele>
        <time>2019-03-06T14:37:46.000Z</time>
      </trkpt>
      <trkpt lat="45.48039" lon="4.71149">
        <ele>679.59997558594</ele>
        <time>2019-03-06T14:37:50.000Z</time>
      </trkpt>
      <trkpt lat="45.4804" lon="4.71151">
        <ele>679.40002441406</ele>
        <time>2019-03-06T14:37:51.000Z</time>
      </trkpt>
      <trkpt lat="45.48041" lon="4.71152">
        <ele>679.20001220703</ele>
        <time>2019-03-06T14:37:52.000Z</time>
      </trkpt>
      <trkpt lat="45.48047" lon="4.7116">
        <ele>678.59997558594</ele>
        <time>2019-03-06T14:38:00.000Z</time>
      </trkpt>
      <trkpt lat="45.48056" lon="4.7117">
        <ele>677.40002441406</ele>
        <time>2019-03-06T14:38:09.000Z</time>
      </trkpt>
      <trkpt lat="45.48068" lon="4.71182">
        <ele>676.79998779297</ele>
        <time>2019-03-06T14:38:21.000Z</time>
      </trkpt>
      <trkpt lat="45.48082" lon="4.71192">
        <ele>676.79998779297</ele>
        <time>2019-03-06T14:38:33.000Z</time>
      </trkpt>
      <trkpt lat="45.48094" lon="4.71201">
        <ele>676.79998779297</ele>
        <time>2019-03-06T14:38:44.000Z</time>
      </trkpt>
      <trkpt lat="45.48104" lon="4.71206">
        <ele>678</ele>
        <time>2019-03-06T14:38:51.000Z</time>
      </trkpt>
      <trkpt lat="45.48105" lon="4.71207">
        <ele>678</ele>
        <time>2019-03-06T14:38:52.000Z</time>
      </trkpt>
      <trkpt lat="45.48114" lon="4.71217">
        <ele>677.40002441406</ele>
        <time>2019-03-06T14:39:02.000Z</time>
      </trkpt>
      <trkpt lat="45.48124" lon="4.71225">
        <ele>677.40002441406</ele>
        <time>2019-03-06T14:39:11.000Z</time>
      </trkpt>
      <trkpt lat="45.48134" lon="4.71234">
        <ele>677.59997558594</ele>
        <time>2019-03-06T14:39:20.000Z</time>
      </trkpt>
      <trkpt lat="45.48146" lon="4.71242">
        <ele>678.79998779297</ele>
        <time>2019-03-06T14:39:29.000Z</time>
      </trkpt>
      <trkpt lat="45.48147" lon="4.71243">
        <ele>679</ele>
        <time>2019-03-06T14:39:30.000Z</time>
      </trkpt>
      <trkpt lat="45.48151" lon="4.71247">
        <ele>679</ele>
        <time>2019-03-06T14:39:34.000Z</time>
      </trkpt>
      <trkpt lat="45.48152" lon="4.71248">
        <ele>679.20001220703</ele>
        <time>2019-03-06T14:39:35.000Z</time>
      </trkpt>
      <trkpt lat="45.48153" lon="4.71248">
        <ele>679.40002441406</ele>
        <time>2019-03-06T14:39:36.000Z</time>
      </trkpt>
      <trkpt lat="45.48154" lon="4.7125">
        <ele>679.40002441406</ele>
        <time>2019-03-06T14:39:37.000Z</time>
      </trkpt>
      <trkpt lat="45.48156" lon="4.7125">
        <ele>679.59997558594</ele>
        <time>2019-03-06T14:39:38.000Z</time>
      </trkpt>
      <trkpt lat="45.48157" lon="4.71252">
        <ele>679.59997558594</ele>
        <time>2019-03-06T14:39:39.000Z</time>
      </trkpt>
      <trkpt lat="45.48158" lon="4.71253">
        <ele>679.59997558594</ele>
        <time>2019-03-06T14:39:40.000Z</time>
      </trkpt>
      <trkpt lat="45.48159" lon="4.71255">
        <ele>679.40002441406</ele>
        <time>2019-03-06T14:39:41.000Z</time>
      </trkpt>
      <trkpt lat="45.4816" lon="4.71256">
        <ele>679.59997558594</ele>
        <time>2019-03-06T14:39:42.000Z</time>
      </trkpt>
      <trkpt lat="45.48162" lon="4.71257">
        <ele>679.59997558594</ele>
        <time>2019-03-06T14:39:43.000Z</time>
      </trkpt>
      <trkpt lat="45.48163" lon="4.71258">
        <ele>679.59997558594</ele>
        <time>2019-03-06T14:39:44.000Z</time>
      </trkpt>
      <trkpt lat="45.48164" lon="4.71259">
        <ele>679.79998779297</ele>
        <time>2019-03-06T14:39:45.000Z</time>
      </trkpt>
      <trkpt lat="45.48165" lon="4.7126">
        <ele>679.59997558594</ele>
        <time>2019-03-06T14:39:46.000Z</time>
      </trkpt>
      <trkpt lat="45.48166" lon="4.71261">
        <ele>679.79998779297</ele>
        <time>2019-03-06T14:39:47.000Z</time>
      </trkpt>
      <trkpt lat="45.48168" lon="4.71262">
        <ele>680.20001220703</ele>
        <time>2019-03-06T14:39:48.000Z</time>
      </trkpt>
      <trkpt lat="45.48169" lon="4.71263">
        <ele>680</ele>
        <time>2019-03-06T14:39:49.000Z</time>
      </trkpt>
      <trkpt lat="45.4817" lon="4.71265">
        <ele>679.79998779297</ele>
        <time>2019-03-06T14:39:50.000Z</time>
      </trkpt>
      <trkpt lat="45.48171" lon="4.71266">
        <ele>679.79998779297</ele>
        <time>2019-03-06T14:39:51.000Z</time>
      </trkpt>
      <trkpt lat="45.48173" lon="4.71267">
        <ele>680</ele>
        <time>2019-03-06T14:39:52.000Z</time>
      </trkpt>
      <trkpt lat="45.48181" lon="4.71277">
        <ele>679.79998779297</ele>
        <time>2019-03-06T14:40:00.000Z</time>
      </trkpt>
      <trkpt lat="45.48191" lon="4.71287">
        <ele>680</ele>
        <time>2019-03-06T14:40:09.000Z</time>
      </trkpt>
      <trkpt lat="45.48199" lon="4.71297">
        <ele>680</ele>
        <time>2019-03-06T14:40:19.000Z</time>
      </trkpt>
      <trkpt lat="45.482" lon="4.71297">
        <ele>680</ele>
        <time>2019-03-06T14:40:20.000Z</time>
      </trkpt>
      <trkpt lat="45.48201" lon="4.71299">
        <ele>680</ele>
        <time>2019-03-06T14:40:21.000Z</time>
      </trkpt>
      <trkpt lat="45.48205" lon="4.71307">
        <ele>679</ele>
        <time>2019-03-06T14:40:28.000Z</time>
      </trkpt>
      <trkpt lat="45.48213" lon="4.71319">
        <ele>678.20001220703</ele>
        <time>2019-03-06T14:40:37.000Z</time>
      </trkpt>
      <trkpt lat="45.48217" lon="4.71328">
        <ele>676.59997558594</ele>
        <time>2019-03-06T14:40:44.000Z</time>
      </trkpt>
      <trkpt lat="45.48219" lon="4.7133">
        <ele>676.40002441406</ele>
        <time>2019-03-06T14:40:46.000Z</time>
      </trkpt>
      <trkpt lat="45.4822" lon="4.71333">
        <ele>675.79998779297</ele>
        <time>2019-03-06T14:40:48.000Z</time>
      </trkpt>
      <trkpt lat="45.48221" lon="4.71335">
        <ele>675.40002441406</ele>
        <time>2019-03-06T14:40:49.000Z</time>
      </trkpt>
      <trkpt lat="45.48222" lon="4.71335">
        <ele>675.59997558594</ele>
        <time>2019-03-06T14:40:50.000Z</time>
      </trkpt>
      <trkpt lat="45.48231" lon="4.71342">
        <ele>674.79998779297</ele>
        <time>2019-03-06T14:40:57.000Z</time>
      </trkpt>
      <trkpt lat="45.48236" lon="4.71355">
        <ele>672</ele>
        <time>2019-03-06T14:41:05.000Z</time>
      </trkpt>
      <trkpt lat="45.48241" lon="4.71366">
        <ele>669.59997558594</ele>
        <time>2019-03-06T14:41:14.000Z</time>
      </trkpt>
      <trkpt lat="45.48242" lon="4.71368">
        <ele>669.40002441406</ele>
        <time>2019-03-06T14:41:15.000Z</time>
      </trkpt>
      <trkpt lat="45.48242" lon="4.71369">
        <ele>669</ele>
        <time>2019-03-06T14:41:16.000Z</time>
      </trkpt>
      <trkpt lat="45.48243" lon="4.7137">
        <ele>668.79998779297</ele>
        <time>2019-03-06T14:41:17.000Z</time>
      </trkpt>
      <trkpt lat="45.48244" lon="4.71372">
        <ele>668.40002441406</ele>
        <time>2019-03-06T14:41:18.000Z</time>
      </trkpt>
      <trkpt lat="45.48245" lon="4.71373">
        <ele>668.20001220703</ele>
        <time>2019-03-06T14:41:19.000Z</time>
      </trkpt>
      <trkpt lat="45.48246" lon="4.71374">
        <ele>668.20001220703</ele>
        <time>2019-03-06T14:41:20.000Z</time>
      </trkpt>
      <trkpt lat="45.48247" lon="4.71374">
        <ele>668.20001220703</ele>
        <time>2019-03-06T14:41:21.000Z</time>
      </trkpt>
      <trkpt lat="45.48248" lon="4.71375">
        <ele>668</ele>
        <time>2019-03-06T14:41:22.000Z</time>
      </trkpt>
      <trkpt lat="45.48249" lon="4.71377">
        <ele>667.79998779297</ele>
        <time>2019-03-06T14:41:23.000Z</time>
      </trkpt>
      <trkpt lat="45.48256" lon="4.71391">
        <ele>664.40002441406</ele>
        <time>2019-03-06T14:41:32.000Z</time>
      </trkpt>
      <trkpt lat="45.48265" lon="4.71397">
        <ele>663.79998779297</ele>
        <time>2019-03-06T14:41:41.000Z</time>
      </trkpt>
      <trkpt lat="45.48275" lon="4.71403">
        <ele>663.79998779297</ele>
        <time>2019-03-06T14:41:50.000Z</time>
      </trkpt>
      <trkpt lat="45.48286" lon="4.71411">
        <ele>662.79998779297</ele>
        <time>2019-03-06T14:42:00.000Z</time>
      </trkpt>
      <trkpt lat="45.4829" lon="4.71414">
        <ele>662.40002441406</ele>
        <time>2019-03-06T14:42:03.000Z</time>
      </trkpt>
      <trkpt lat="45.48299" lon="4.71423">
        <ele>661.20001220703</ele>
        <time>2019-03-06T14:42:12.000Z</time>
      </trkpt>
      <trkpt lat="45.48309" lon="4.71429">
        <ele>658.20001220703</ele>
        <time>2019-03-06T14:42:22.000Z</time>
      </trkpt>
      <trkpt lat="45.48323" lon="4.71433">
        <ele>655.40002441406</ele>
        <time>2019-03-06T14:42:33.000Z</time>
      </trkpt>
      <trkpt lat="45.48332" lon="4.71435">
        <ele>653.59997558594</ele>
        <time>2019-03-06T14:42:42.000Z</time>
      </trkpt>
      <trkpt lat="45.48343" lon="4.71434">
        <ele>652.79998779297</ele>
        <time>2019-03-06T14:42:52.000Z</time>
      </trkpt>
      <trkpt lat="45.48351" lon="4.71429">
        <ele>653.20001220703</ele>
        <time>2019-03-06T14:43:05.000Z</time>
      </trkpt>
      <trkpt lat="45.48351" lon="4.71429">
        <ele>653.20001220703</ele>
        <time>2019-03-06T14:43:06.000Z</time>
      </trkpt>
      <trkpt lat="45.48366" lon="4.7142">
        <ele>653.40002441406</ele>
        <time>2019-03-06T14:43:19.000Z</time>
      </trkpt>
      <trkpt lat="45.48381" lon="4.7141">
        <ele>653.79998779297</ele>
        <time>2019-03-06T14:43:31.000Z</time>
      </trkpt>
      <trkpt lat="45.48385" lon="4.71408">
        <ele>653.79998779297</ele>
        <time>2019-03-06T14:43:36.000Z</time>
      </trkpt>
      <trkpt lat="45.4839" lon="4.71401">
        <ele>654.40002441406</ele>
        <time>2019-03-06T14:43:43.000Z</time>
      </trkpt>
      <trkpt lat="45.48393" lon="4.71395">
        <ele>655.20001220703</ele>
        <time>2019-03-06T14:43:55.000Z</time>
      </trkpt>
      <trkpt lat="45.48407" lon="4.71385">
        <ele>654.40002441406</ele>
        <time>2019-03-06T14:44:00.000Z</time>
      </trkpt>
      <trkpt lat="45.48426" lon="4.7137">
        <ele>652.79998779297</ele>
        <time>2019-03-06T14:44:13.000Z</time>
      </trkpt>
      <trkpt lat="45.48438" lon="4.71349">
        <ele>655.40002441406</ele>
        <time>2019-03-06T14:44:27.000Z</time>
      </trkpt>
      <trkpt lat="45.4844" lon="4.71343">
        <ele>656.40002441406</ele>
        <time>2019-03-06T14:44:31.000Z</time>
      </trkpt>
      <trkpt lat="45.48441" lon="4.71338">
        <ele>657.40002441406</ele>
        <time>2019-03-06T14:44:34.000Z</time>
      </trkpt>
      <trkpt lat="45.48444" lon="4.71322">
        <ele>660.79998779297</ele>
        <time>2019-03-06T14:44:46.000Z</time>
      </trkpt>
      <trkpt lat="45.48451" lon="4.71308">
        <ele>662.79998779297</ele>
        <time>2019-03-06T14:44:58.000Z</time>
      </trkpt>
      <trkpt lat="45.48457" lon="4.713">
        <ele>663.20001220703</ele>
        <time>2019-03-06T14:45:09.000Z</time>
      </trkpt>
      <trkpt lat="45.4847" lon="4.71288">
        <ele>663.40002441406</ele>
        <time>2019-03-06T14:45:20.000Z</time>
      </trkpt>
      <trkpt lat="45.4848" lon="4.71278">
        <ele>666</ele>
        <time>2019-03-06T14:45:31.000Z</time>
      </trkpt>
      <trkpt lat="45.48486" lon="4.71274">
        <ele>667</ele>
        <time>2019-03-06T14:45:35.000Z</time>
      </trkpt>
      <trkpt lat="45.48502" lon="4.71263">
        <ele>669.40002441406</ele>
        <time>2019-03-06T14:45:49.000Z</time>
      </trkpt>
      <trkpt lat="45.48508" lon="4.71256">
        <ele>671.40002441406</ele>
        <time>2019-03-06T14:45:59.000Z</time>
      </trkpt>
      <trkpt lat="45.48527" lon="4.71249">
        <ele>672.20001220703</ele>
        <time>2019-03-06T14:46:10.000Z</time>
      </trkpt>
      <trkpt lat="45.48535" lon="4.71245">
        <ele>672.59997558594</ele>
        <time>2019-03-06T14:46:16.000Z</time>
      </trkpt>
      <trkpt lat="45.48551" lon="4.71242">
        <ele>672.59997558594</ele>
        <time>2019-03-06T14:46:29.000Z</time>
      </trkpt>
      <trkpt lat="45.48555" lon="4.71242">
        <ele>672.79998779297</ele>
        <time>2019-03-06T14:46:34.000Z</time>
      </trkpt>
      <trkpt lat="45.48575" lon="4.71244">
        <ele>673.20001220703</ele>
        <time>2019-03-06T14:46:48.000Z</time>
      </trkpt>
      <trkpt lat="45.48578" lon="4.71244">
        <ele>673.20001220703</ele>
        <time>2019-03-06T14:46:49.000Z</time>
      </trkpt>
      <trkpt lat="45.48599" lon="4.71248">
        <ele>672.59997558594</ele>
        <time>2019-03-06T14:47:02.000Z</time>
      </trkpt>
      <trkpt lat="45.48612" lon="4.71253">
        <ele>670.79998779297</ele>
        <time>2019-03-06T14:47:13.000Z</time>
      </trkpt>
      <trkpt lat="45.48626" lon="4.71257">
        <ele>669.20001220703</ele>
        <time>2019-03-06T14:47:24.000Z</time>
      </trkpt>
      <trkpt lat="45.48632" lon="4.71259">
        <ele>668.40002441406</ele>
        <time>2019-03-06T14:47:31.000Z</time>
      </trkpt>
      <trkpt lat="45.48636" lon="4.71263">
        <ele>667.40002441406</ele>
        <time>2019-03-06T14:47:39.000Z</time>
      </trkpt>
      <trkpt lat="45.48646" lon="4.71267">
        <ele>666.20001220703</ele>
        <time>2019-03-06T14:47:49.000Z</time>
      </trkpt>
      <trkpt lat="45.48663" lon="4.71271">
        <ele>664.59997558594</ele>
        <time>2019-03-06T14:48:01.000Z</time>
      </trkpt>
      <trkpt lat="45.48665" lon="4.71271">
        <ele>664.40002441406</ele>
        <time>2019-03-06T14:48:02.000Z</time>
      </trkpt>
      <trkpt lat="45.48666" lon="4.71271">
        <ele>664.40002441406</ele>
        <time>2019-03-06T14:48:03.000Z</time>
      </trkpt>
      <trkpt lat="45.4868" lon="4.71276">
        <ele>662.79998779297</ele>
        <time>2019-03-06T14:48:16.000Z</time>
      </trkpt>
      <trkpt lat="45.48699" lon="4.71275">
        <ele>662</ele>
        <time>2019-03-06T14:48:29.000Z</time>
      </trkpt>
      <trkpt lat="45.48712" lon="4.71279">
        <ele>660.40002441406</ele>
        <time>2019-03-06T14:48:40.000Z</time>
      </trkpt>
      <trkpt lat="45.48729" lon="4.71287">
        <ele>657</ele>
        <time>2019-03-06T14:48:52.000Z</time>
      </trkpt>
      <trkpt lat="45.48734" lon="4.71294">
        <ele>655.79998779297</ele>
        <time>2019-03-06T14:49:03.000Z</time>
      </trkpt>
      <trkpt lat="45.48745" lon="4.71294">
        <ele>654</ele>
        <time>2019-03-06T14:49:14.000Z</time>
      </trkpt>
      <trkpt lat="45.48753" lon="4.71295">
        <ele>652.59997558594</ele>
        <time>2019-03-06T14:49:25.000Z</time>
      </trkpt>
      <trkpt lat="45.48754" lon="4.71295">
        <ele>652.40002441406</ele>
        <time>2019-03-06T14:49:34.000Z</time>
      </trkpt>
      <trkpt lat="45.48754" lon="4.71293">
        <ele>652.59997558594</ele>
        <time>2019-03-06T14:49:45.000Z</time>
      </trkpt>
      <trkpt lat="45.48753" lon="4.7129">
        <ele>653</ele>
        <time>2019-03-06T14:49:57.000Z</time>
      </trkpt>
      <trkpt lat="45.4875" lon="4.71289">
        <ele>653.59997558594</ele>
        <time>2019-03-06T14:50:15.000Z</time>
      </trkpt>
      <trkpt lat="45.48749" lon="4.71287">
        <ele>654</ele>
        <time>2019-03-06T14:50:27.000Z</time>
      </trkpt>
      <trkpt lat="45.48749" lon="4.71286">
        <ele>654.20001220703</ele>
        <time>2019-03-06T14:50:44.000Z</time>
      </trkpt>
      <trkpt lat="45.48748" lon="4.71286">
        <ele>654</ele>
        <time>2019-03-06T14:51:03.000Z</time>
      </trkpt>
      <trkpt lat="45.48748" lon="4.71284">
        <ele>654.40002441406</ele>
        <time>2019-03-06T14:51:23.000Z</time>
      </trkpt>
      <trkpt lat="45.4875" lon="4.71283">
        <ele>654.20001220703</ele>
        <time>2019-03-06T14:51:35.000Z</time>
      </trkpt>
      <trkpt lat="45.48748" lon="4.71276">
        <ele>655.40002441406</ele>
        <time>2019-03-06T14:51:47.000Z</time>
      </trkpt>
      <trkpt lat="45.48748" lon="4.71269">
        <ele>656.20001220703</ele>
        <time>2019-03-06T14:51:58.000Z</time>
      </trkpt>
      <trkpt lat="45.48756" lon="4.71264">
        <ele>655.40002441406</ele>
        <time>2019-03-06T14:52:11.000Z</time>
      </trkpt>
      <trkpt lat="45.48759" lon="4.71265">
        <ele>655</ele>
        <time>2019-03-06T14:52:23.000Z</time>
      </trkpt>
      <trkpt lat="45.48773" lon="4.71261">
        <ele>653.20001220703</ele>
        <time>2019-03-06T14:52:33.000Z</time>
      </trkpt>
      <trkpt lat="45.48778" lon="4.7126">
        <ele>652.59997558594</ele>
        <time>2019-03-06T14:52:38.000Z</time>
      </trkpt>
      <trkpt lat="45.48786" lon="4.71253">
        <ele>651.59997558594</ele>
        <time>2019-03-06T14:52:48.000Z</time>
      </trkpt>
      <trkpt lat="45.48791" lon="4.71248">
        <ele>651.20001220703</ele>
        <time>2019-03-06T14:52:55.000Z</time>
      </trkpt>
      <trkpt lat="45.48798" lon="4.71235">
        <ele>651.20001220703</ele>
        <time>2019-03-06T14:53:06.000Z</time>
      </trkpt>
      <trkpt lat="45.48809" lon="4.71219">
        <ele>650.59997558594</ele>
        <time>2019-03-06T14:53:18.000Z</time>
      </trkpt>
      <trkpt lat="45.48816" lon="4.71209">
        <ele>650</ele>
        <time>2019-03-06T14:53:25.000Z</time>
      </trkpt>
      <trkpt lat="45.48825" lon="4.71189">
        <ele>650.20001220703</ele>
        <time>2019-03-06T14:53:37.000Z</time>
      </trkpt>
      <trkpt lat="45.48833" lon="4.71174">
        <ele>650</ele>
        <time>2019-03-06T14:53:48.000Z</time>
      </trkpt>
      <trkpt lat="45.48844" lon="4.71161">
        <ele>649</ele>
        <time>2019-03-06T14:54:00.000Z</time>
      </trkpt>
      <trkpt lat="45.48852" lon="4.71149">
        <ele>647.59997558594</ele>
        <time>2019-03-06T14:54:11.000Z</time>
      </trkpt>
      <trkpt lat="45.48861" lon="4.7113">
        <ele>646.20001220703</ele>
        <time>2019-03-06T14:54:23.000Z</time>
      </trkpt>
      <trkpt lat="45.48869" lon="4.71114">
        <ele>645.79998779297</ele>
        <time>2019-03-06T14:54:34.000Z</time>
      </trkpt>
      <trkpt lat="45.48878" lon="4.71106">
        <ele>646</ele>
        <time>2019-03-06T14:54:47.000Z</time>
      </trkpt>
      <trkpt lat="45.48884" lon="4.71117">
        <ele>641.59997558594</ele>
        <time>2019-03-06T14:54:58.000Z</time>
      </trkpt>
      <trkpt lat="45.48888" lon="4.71129">
        <ele>638.79998779297</ele>
        <time>2019-03-06T14:55:10.000Z</time>
      </trkpt>
      <trkpt lat="45.48896" lon="4.71124">
        <ele>637.40002441406</ele>
        <time>2019-03-06T14:55:22.000Z</time>
      </trkpt>
      <trkpt lat="45.48901" lon="4.71118">
        <ele>637.59997558594</ele>
        <time>2019-03-06T14:55:33.000Z</time>
      </trkpt>
      <trkpt lat="45.48906" lon="4.7111">
        <ele>638.79998779297</ele>
        <time>2019-03-06T14:55:44.000Z</time>
      </trkpt>
      <trkpt lat="45.48913" lon="4.71098">
        <ele>640.40002441406</ele>
        <time>2019-03-06T14:55:57.000Z</time>
      </trkpt>
      <trkpt lat="45.48913" lon="4.71091">
        <ele>642.40002441406</ele>
        <time>2019-03-06T14:56:08.000Z</time>
      </trkpt>
      <trkpt lat="45.48914" lon="4.71086">
        <ele>643.40002441406</ele>
        <time>2019-03-06T14:56:19.000Z</time>
      </trkpt>
      <trkpt lat="45.48921" lon="4.71078">
        <ele>644</ele>
        <time>2019-03-06T14:56:30.000Z</time>
      </trkpt>
      <trkpt lat="45.48926" lon="4.71077">
        <ele>643.40002441406</ele>
        <time>2019-03-06T14:56:41.000Z</time>
      </trkpt>
      <trkpt lat="45.48939" lon="4.71078">
        <ele>642.40002441406</ele>
        <time>2019-03-06T14:56:54.000Z</time>
      </trkpt>
      <trkpt lat="45.48943" lon="4.7108">
        <ele>641.40002441406</ele>
        <time>2019-03-06T14:57:01.000Z</time>
      </trkpt>
      <trkpt lat="45.48951" lon="4.71082">
        <ele>639.79998779297</ele>
        <time>2019-03-06T14:57:12.000Z</time>
      </trkpt>
      <trkpt lat="45.48957" lon="4.71088">
        <ele>637</ele>
        <time>2019-03-06T14:57:27.000Z</time>
      </trkpt>
      <trkpt lat="45.48963" lon="4.71091">
        <ele>635.20001220703</ele>
        <time>2019-03-06T14:57:36.000Z</time>
      </trkpt>
      <trkpt lat="45.4897" lon="4.71095">
        <ele>633.20001220703</ele>
        <time>2019-03-06T14:57:47.000Z</time>
      </trkpt>
      <trkpt lat="45.48976" lon="4.71098">
        <ele>632.20001220703</ele>
        <time>2019-03-06T14:57:57.000Z</time>
      </trkpt>
      <trkpt lat="45.48983" lon="4.71102">
        <ele>631</ele>
        <time>2019-03-06T14:58:10.000Z</time>
      </trkpt>
      <trkpt lat="45.48992" lon="4.71105">
        <ele>630.20001220703</ele>
        <time>2019-03-06T14:58:20.000Z</time>
      </trkpt>
      <trkpt lat="45.49" lon="4.71106">
        <ele>629.59997558594</ele>
        <time>2019-03-06T14:58:28.000Z</time>
      </trkpt>
      <trkpt lat="45.49013" lon="4.7111">
        <ele>628.79998779297</ele>
        <time>2019-03-06T14:58:42.000Z</time>
      </trkpt>
      <trkpt lat="45.49022" lon="4.71116">
        <ele>626.59997558594</ele>
        <time>2019-03-06T14:58:52.000Z</time>
      </trkpt>
      <trkpt lat="45.49033" lon="4.71121">
        <ele>624.79998779297</ele>
        <time>2019-03-06T14:59:03.000Z</time>
      </trkpt>
      <trkpt lat="45.49041" lon="4.71127">
        <ele>623.20001220703</ele>
        <time>2019-03-06T14:59:13.000Z</time>
      </trkpt>
      <trkpt lat="45.49051" lon="4.71136">
        <ele>620.59997558594</ele>
        <time>2019-03-06T14:59:26.000Z</time>
      </trkpt>
      <trkpt lat="45.49058" lon="4.71145">
        <ele>617</ele>
        <time>2019-03-06T14:59:38.000Z</time>
      </trkpt>
      <trkpt lat="45.49065" lon="4.71153">
        <ele>613.79998779297</ele>
        <time>2019-03-06T14:59:49.000Z</time>
      </trkpt>
      <trkpt lat="45.49073" lon="4.71159">
        <ele>611.20001220703</ele>
        <time>2019-03-06T15:00:00.000Z</time>
      </trkpt>
      <trkpt lat="45.4908" lon="4.71167">
        <ele>608.20001220703</ele>
        <time>2019-03-06T15:00:10.000Z</time>
      </trkpt>
      <trkpt lat="45.49088" lon="4.71171">
        <ele>606.20001220703</ele>
        <time>2019-03-06T15:00:20.000Z</time>
      </trkpt>
      <trkpt lat="45.49097" lon="4.71177">
        <ele>603.59997558594</ele>
        <time>2019-03-06T15:00:33.000Z</time>
      </trkpt>
      <trkpt lat="45.49106" lon="4.71178">
        <ele>602.40002441406</ele>
        <time>2019-03-06T15:00:44.000Z</time>
      </trkpt>
      <trkpt lat="45.49117" lon="4.71179">
        <ele>601</ele>
        <time>2019-03-06T15:00:56.000Z</time>
      </trkpt>
      <trkpt lat="45.49127" lon="4.71178">
        <ele>600</ele>
        <time>2019-03-06T15:01:09.000Z</time>
      </trkpt>
      <trkpt lat="45.49136" lon="4.71178">
        <ele>599</ele>
        <time>2019-03-06T15:01:20.000Z</time>
      </trkpt>
      <trkpt lat="45.49141" lon="4.71179">
        <ele>598</ele>
        <time>2019-03-06T15:01:30.000Z</time>
      </trkpt>
      <trkpt lat="45.49154" lon="4.71179">
        <ele>596.20001220703</ele>
        <time>2019-03-06T15:01:41.000Z</time>
      </trkpt>
      <trkpt lat="45.49165" lon="4.71187">
        <ele>592.40002441406</ele>
        <time>2019-03-06T15:01:53.000Z</time>
      </trkpt>
      <trkpt lat="45.49174" lon="4.71193">
        <ele>589.79998779297</ele>
        <time>2019-03-06T15:02:04.000Z</time>
      </trkpt>
      <trkpt lat="45.49182" lon="4.71202">
        <ele>586</ele>
        <time>2019-03-06T15:02:15.000Z</time>
      </trkpt>
      <trkpt lat="45.49188" lon="4.71211">
        <ele>583</ele>
        <time>2019-03-06T15:02:24.000Z</time>
      </trkpt>
      <trkpt lat="45.49193" lon="4.71216">
        <ele>581.20001220703</ele>
        <time>2019-03-06T15:02:32.000Z</time>
      </trkpt>
      <trkpt lat="45.49201" lon="4.71226">
        <ele>578</ele>
        <time>2019-03-06T15:02:43.000Z</time>
      </trkpt>
      <trkpt lat="45.49204" lon="4.7123">
        <ele>576.59997558594</ele>
        <time>2019-03-06T15:02:47.000Z</time>
      </trkpt>
      <trkpt lat="45.49209" lon="4.71237">
        <ele>574.20001220703</ele>
        <time>2019-03-06T15:02:54.000Z</time>
      </trkpt>
      <trkpt lat="45.49219" lon="4.71244">
        <ele>571.59997558594</ele>
        <time>2019-03-06T15:03:04.000Z</time>
      </trkpt>
      <trkpt lat="45.4923" lon="4.71249">
        <ele>569.20001220703</ele>
        <time>2019-03-06T15:03:16.000Z</time>
      </trkpt>
      <trkpt lat="45.49241" lon="4.71249">
        <ele>568</ele>
        <time>2019-03-06T15:03:26.000Z</time>
      </trkpt>
      <trkpt lat="45.49243" lon="4.71248">
        <ele>568</ele>
        <time>2019-03-06T15:03:28.000Z</time>
      </trkpt>
      <trkpt lat="45.49244" lon="4.71248">
        <ele>567.79998779297</ele>
        <time>2019-03-06T15:03:29.000Z</time>
      </trkpt>
      <trkpt lat="45.49251" lon="4.71245">
        <ele>568</ele>
        <time>2019-03-06T15:03:36.000Z</time>
      </trkpt>
      <trkpt lat="45.49261" lon="4.71239">
        <ele>567.79998779297</ele>
        <time>2019-03-06T15:03:46.000Z</time>
      </trkpt>
      <trkpt lat="45.49272" lon="4.7123">
        <ele>567.59997558594</ele>
        <time>2019-03-06T15:03:57.000Z</time>
      </trkpt>
      <trkpt lat="45.4928" lon="4.71222">
        <ele>567.79998779297</ele>
        <time>2019-03-06T15:04:07.000Z</time>
      </trkpt>
      <trkpt lat="45.49286" lon="4.71213">
        <ele>568.40002441406</ele>
        <time>2019-03-06T15:04:15.000Z</time>
      </trkpt>
      <trkpt lat="45.49293" lon="4.71205">
        <ele>568.79998779297</ele>
        <time>2019-03-06T15:04:24.000Z</time>
      </trkpt>
      <trkpt lat="45.49299" lon="4.71193">
        <ele>570.20001220703</ele>
        <time>2019-03-06T15:04:34.000Z</time>
      </trkpt>
      <trkpt lat="45.49308" lon="4.71178">
        <ele>570.20001220703</ele>
        <time>2019-03-06T15:04:45.000Z</time>
      </trkpt>
      <trkpt lat="45.49313" lon="4.71167">
        <ele>570.20001220703</ele>
        <time>2019-03-06T15:04:53.000Z</time>
      </trkpt>
      <trkpt lat="45.49318" lon="4.71159">
        <ele>570</ele>
        <time>2019-03-06T15:05:01.000Z</time>
      </trkpt>
      <trkpt lat="45.49326" lon="4.71146">
        <ele>569.79998779297</ele>
        <time>2019-03-06T15:05:10.000Z</time>
      </trkpt>
      <trkpt lat="45.4933" lon="4.71132">
        <ele>570.59997558594</ele>
        <time>2019-03-06T15:05:19.000Z</time>
      </trkpt>
      <trkpt lat="45.49338" lon="4.7112">
        <ele>569.59997558594</ele>
        <time>2019-03-06T15:05:30.000Z</time>
      </trkpt>
      <trkpt lat="45.49348" lon="4.71105">
        <ele>569.59997558594</ele>
        <time>2019-03-06T15:05:43.000Z</time>
      </trkpt>
      <trkpt lat="45.49355" lon="4.7109">
        <ele>570.20001220703</ele>
        <time>2019-03-06T15:05:53.000Z</time>
      </trkpt>
      <trkpt lat="45.49361" lon="4.71076">
        <ele>571.20001220703</ele>
        <time>2019-03-06T15:06:03.000Z</time>
      </trkpt>
      <trkpt lat="45.49371" lon="4.71062">
        <ele>570.79998779297</ele>
        <time>2019-03-06T15:06:15.000Z</time>
      </trkpt>
      <trkpt lat="45.49383" lon="4.71051">
        <ele>569</ele>
        <time>2019-03-06T15:06:27.000Z</time>
      </trkpt>
      <trkpt lat="45.49394" lon="4.71045">
        <ele>568</ele>
        <time>2019-03-06T15:06:39.000Z</time>
      </trkpt>
      <trkpt lat="45.49404" lon="4.71038">
        <ele>567.40002441406</ele>
        <time>2019-03-06T15:06:51.000Z</time>
      </trkpt>
      <trkpt lat="45.49416" lon="4.71028">
        <ele>566.59997558594</ele>
        <time>2019-03-06T15:07:03.000Z</time>
      </trkpt>
      <trkpt lat="45.49428" lon="4.71018">
        <ele>566.20001220703</ele>
        <time>2019-03-06T15:07:12.000Z</time>
      </trkpt>
      <trkpt lat="45.49439" lon="4.71006">
        <ele>565.79998779297</ele>
        <time>2019-03-06T15:07:23.000Z</time>
      </trkpt>
      <trkpt lat="45.49446" lon="4.70999">
        <ele>565</ele>
        <time>2019-03-06T15:07:31.000Z</time>
      </trkpt>
      <trkpt lat="45.49452" lon="4.7099">
        <ele>564.40002441406</ele>
        <time>2019-03-06T15:07:39.000Z</time>
      </trkpt>
      <trkpt lat="45.49458" lon="4.70984">
        <ele>564</ele>
        <time>2019-03-06T15:07:45.000Z</time>
      </trkpt>
      <trkpt lat="45.49464" lon="4.70977">
        <ele>563.40002441406</ele>
        <time>2019-03-06T15:07:52.000Z</time>
      </trkpt>
      <trkpt lat="45.49473" lon="4.70966">
        <ele>564</ele>
        <time>2019-03-06T15:08:01.000Z</time>
      </trkpt>
      <trkpt lat="45.49481" lon="4.70958">
        <ele>564.20001220703</ele>
        <time>2019-03-06T15:08:10.000Z</time>
      </trkpt>
      <trkpt lat="45.49491" lon="4.70947">
        <ele>563.59997558594</ele>
        <time>2019-03-06T15:08:20.000Z</time>
      </trkpt>
      <trkpt lat="45.49499" lon="4.70938">
        <ele>563</ele>
        <time>2019-03-06T15:08:30.000Z</time>
      </trkpt>
      <trkpt lat="45.49507" lon="4.70928">
        <ele>562.59997558594</ele>
        <time>2019-03-06T15:08:40.000Z</time>
      </trkpt>
      <trkpt lat="45.49514" lon="4.70922">
        <ele>562</ele>
        <time>2019-03-06T15:08:48.000Z</time>
      </trkpt>
      <trkpt lat="45.49522" lon="4.70915">
        <ele>560.79998779297</ele>
        <time>2019-03-06T15:08:57.000Z</time>
      </trkpt>
      <trkpt lat="45.49531" lon="4.70908">
        <ele>559.20001220703</ele>
        <time>2019-03-06T15:09:05.000Z</time>
      </trkpt>
      <trkpt lat="45.4954" lon="4.70901">
        <ele>557.40002441406</ele>
        <time>2019-03-06T15:09:15.000Z</time>
      </trkpt>
      <trkpt lat="45.49546" lon="4.70894">
        <ele>556.20001220703</ele>
        <time>2019-03-06T15:09:24.000Z</time>
      </trkpt>
      <trkpt lat="45.4955" lon="4.70889">
        <ele>555.40002441406</ele>
        <time>2019-03-06T15:09:30.000Z</time>
      </trkpt>
      <trkpt lat="45.49556" lon="4.7088">
        <ele>555.59997558594</ele>
        <time>2019-03-06T15:09:39.000Z</time>
      </trkpt>
      <trkpt lat="45.49564" lon="4.70885">
        <ele>556.20001220703</ele>
        <time>2019-03-06T15:09:50.000Z</time>
      </trkpt>
      <trkpt lat="45.49565" lon="4.70886">
        <ele>556.40002441406</ele>
        <time>2019-03-06T15:09:51.000Z</time>
      </trkpt>
      <trkpt lat="45.49566" lon="4.70887">
        <ele>556.40002441406</ele>
        <time>2019-03-06T15:09:52.000Z</time>
      </trkpt>
      <trkpt lat="45.49567" lon="4.70889">
        <ele>556.40002441406</ele>
        <time>2019-03-06T15:09:53.000Z</time>
      </trkpt>
      <trkpt lat="45.49568" lon="4.7089">
        <ele>556.59997558594</ele>
        <time>2019-03-06T15:09:54.000Z</time>
      </trkpt>
      <trkpt lat="45.49572" lon="4.70895">
        <ele>557</ele>
        <time>2019-03-06T15:09:59.000Z</time>
      </trkpt>
      <trkpt lat="45.49581" lon="4.70905">
        <ele>557.79998779297</ele>
        <time>2019-03-06T15:10:09.000Z</time>
      </trkpt>
      <trkpt lat="45.49589" lon="4.70917">
        <ele>558.40002441406</ele>
        <time>2019-03-06T15:10:19.000Z</time>
      </trkpt>
      <trkpt lat="45.49592" lon="4.70919">
        <ele>558.59997558594</ele>
        <time>2019-03-06T15:10:27.000Z</time>
      </trkpt>
      <trkpt lat="45.49592" lon="4.70919">
        <ele>558.59997558594</ele>
        <time>2019-03-06T15:10:29.000Z</time>
      </trkpt>
    </trkseg>
  </trk>
</gpx>